<?xml version="1.0" encoding="UTF-8"?>
<gpx xmlns="http://www.topografix.com/GPX/1/1" xmlns:dkl="http://www.gpsware.de/DKL/1/1" xmlns:rtx="http://www.bike-gps.de/RTX/1/1" version="1.1" creator="KOMPASS Digital Map" xmlns:xsi="http://www.w3.org/2001/XMLSchema-instance" xsi:schemaLocation="http://www.topografix.com/GPX/1/1 http://www.topografix.com/GPX/1/1/gpx.xsd">
  <metadata>
    <name>KOMPASS Digital Map Track</name>
    <desc></desc>
    <time>2012-11-17T14:24:56Z</time>
    <bounds minlat="47.626194" minlon="12.906816" maxlat="47.782681" maxlon="13.087774"/>
  </metadata>
  <trk>
    <name>Untersbergrunde_04112012</name>
    <cmt>mit Peterlini Astrid</cmt>
    <extensions>
      <dkl:dkl>
        <dkl:format_version>1.1</dkl:format_version>
        <dkl:format>
          <dkl:color>FF0000</dkl:color>
          <dkl:style>00000000</dkl:style>
          <dkl:strength>3</dkl:strength>
          <dkl:transparent>0</dkl:transparent>
        </dkl:format>
        <dkl:profile>
          <dkl:mode>0</dkl:mode>
          <dkl:smooth>0</dkl:smooth>
        </dkl:profile>
      </dkl:dkl>
    </extensions>
    <trkseg>
      <trkpt lat="47.724537" lon="13.087179">
        <ele>465.00</ele>
        <time>2012-11-04T09:31:54Z</time>
      </trkpt>
      <trkpt lat="47.724537" lon="13.087172">
        <ele>465.00</ele>
        <time>2012-11-04T09:31:57Z</time>
      </trkpt>
      <trkpt lat="47.724533" lon="13.087169">
        <ele>465.20</ele>
        <time>2012-11-04T09:31:58Z</time>
      </trkpt>
      <trkpt lat="47.724518" lon="13.087122">
        <ele>465.20</ele>
        <time>2012-11-04T09:32:00Z</time>
      </trkpt>
      <trkpt lat="47.724468" lon="13.086938">
        <ele>465.20</ele>
        <time>2012-11-04T09:32:06Z</time>
      </trkpt>
      <trkpt lat="47.724407" lon="13.086653">
        <ele>465.20</ele>
        <time>2012-11-04T09:32:12Z</time>
      </trkpt>
      <trkpt lat="47.724369" lon="13.086517">
        <ele>465.20</ele>
        <time>2012-11-04T09:32:15Z</time>
      </trkpt>
      <trkpt lat="47.724358" lon="13.086492">
        <ele>465.20</ele>
        <time>2012-11-04T09:32:16Z</time>
      </trkpt>
      <trkpt lat="47.724354" lon="13.086461">
        <ele>465.20</ele>
        <time>2012-11-04T09:32:17Z</time>
      </trkpt>
      <trkpt lat="47.724350" lon="13.086433">
        <ele>465.20</ele>
        <time>2012-11-04T09:32:18Z</time>
      </trkpt>
      <trkpt lat="47.724319" lon="13.086287">
        <ele>465.20</ele>
        <time>2012-11-04T09:32:23Z</time>
      </trkpt>
      <trkpt lat="47.724266" lon="13.086246">
        <ele>465.20</ele>
        <time>2012-11-04T09:32:26Z</time>
      </trkpt>
      <trkpt lat="47.724243" lon="13.086246">
        <ele>465.20</ele>
        <time>2012-11-04T09:32:27Z</time>
      </trkpt>
      <trkpt lat="47.724178" lon="13.086241">
        <ele>465.20</ele>
        <time>2012-11-04T09:32:30Z</time>
      </trkpt>
      <trkpt lat="47.724163" lon="13.086216">
        <ele>465.20</ele>
        <time>2012-11-04T09:32:31Z</time>
      </trkpt>
      <trkpt lat="47.724148" lon="13.086182">
        <ele>465.20</ele>
        <time>2012-11-04T09:32:32Z</time>
      </trkpt>
      <trkpt lat="47.724152" lon="13.086049">
        <ele>465.20</ele>
        <time>2012-11-04T09:32:35Z</time>
      </trkpt>
      <trkpt lat="47.724159" lon="13.085929">
        <ele>465.20</ele>
        <time>2012-11-04T09:32:38Z</time>
      </trkpt>
      <trkpt lat="47.724171" lon="13.085888">
        <ele>465.20</ele>
        <time>2012-11-04T09:32:39Z</time>
      </trkpt>
      <trkpt lat="47.724205" lon="13.085806">
        <ele>465.20</ele>
        <time>2012-11-04T09:32:41Z</time>
      </trkpt>
      <trkpt lat="47.724247" lon="13.085694">
        <ele>465.20</ele>
        <time>2012-11-04T09:32:44Z</time>
      </trkpt>
      <trkpt lat="47.724262" lon="13.085663">
        <ele>465.20</ele>
        <time>2012-11-04T09:32:45Z</time>
      </trkpt>
      <trkpt lat="47.724346" lon="13.085576">
        <ele>465.20</ele>
        <time>2012-11-04T09:32:50Z</time>
      </trkpt>
      <trkpt lat="47.724491" lon="13.085521">
        <ele>465.20</ele>
        <time>2012-11-04T09:32:55Z</time>
      </trkpt>
      <trkpt lat="47.724636" lon="13.085422">
        <ele>465.20</ele>
        <time>2012-11-04T09:32:59Z</time>
      </trkpt>
      <trkpt lat="47.724735" lon="13.085308">
        <ele>465.20</ele>
        <time>2012-11-04T09:33:02Z</time>
      </trkpt>
      <trkpt lat="47.724831" lon="13.085097">
        <ele>465.20</ele>
        <time>2012-11-04T09:33:07Z</time>
      </trkpt>
      <trkpt lat="47.724964" lon="13.084820">
        <ele>464.80</ele>
        <time>2012-11-04T09:33:14Z</time>
      </trkpt>
      <trkpt lat="47.724987" lon="13.084766">
        <ele>464.20</ele>
        <time>2012-11-04T09:33:15Z</time>
      </trkpt>
      <trkpt lat="47.725006" lon="13.084710">
        <ele>463.80</ele>
        <time>2012-11-04T09:33:16Z</time>
      </trkpt>
      <trkpt lat="47.725037" lon="13.084646">
        <ele>463.40</ele>
        <time>2012-11-04T09:33:17Z</time>
      </trkpt>
      <trkpt lat="47.725063" lon="13.084579">
        <ele>463.00</ele>
        <time>2012-11-04T09:33:18Z</time>
      </trkpt>
      <trkpt lat="47.725086" lon="13.084508">
        <ele>463.00</ele>
        <time>2012-11-04T09:33:19Z</time>
      </trkpt>
      <trkpt lat="47.725132" lon="13.084396">
        <ele>462.60</ele>
        <time>2012-11-04T09:33:21Z</time>
      </trkpt>
      <trkpt lat="47.725159" lon="13.084341">
        <ele>462.20</ele>
        <time>2012-11-04T09:33:22Z</time>
      </trkpt>
      <trkpt lat="47.725182" lon="13.084282">
        <ele>461.80</ele>
        <time>2012-11-04T09:33:23Z</time>
      </trkpt>
      <trkpt lat="47.725201" lon="13.084233">
        <ele>461.20</ele>
        <time>2012-11-04T09:33:24Z</time>
      </trkpt>
      <trkpt lat="47.725220" lon="13.084182">
        <ele>460.40</ele>
        <time>2012-11-04T09:33:25Z</time>
      </trkpt>
      <trkpt lat="47.725239" lon="13.084138">
        <ele>460.00</ele>
        <time>2012-11-04T09:33:26Z</time>
      </trkpt>
      <trkpt lat="47.725254" lon="13.084097">
        <ele>459.60</ele>
        <time>2012-11-04T09:33:27Z</time>
      </trkpt>
      <trkpt lat="47.725266" lon="13.084068">
        <ele>459.20</ele>
        <time>2012-11-04T09:33:28Z</time>
      </trkpt>
      <trkpt lat="47.725273" lon="13.084034">
        <ele>458.80</ele>
        <time>2012-11-04T09:33:29Z</time>
      </trkpt>
      <trkpt lat="47.725292" lon="13.083905">
        <ele>458.80</ele>
        <time>2012-11-04T09:33:33Z</time>
      </trkpt>
      <trkpt lat="47.725250" lon="13.083821">
        <ele>458.80</ele>
        <time>2012-11-04T09:33:35Z</time>
      </trkpt>
      <trkpt lat="47.725182" lon="13.083748">
        <ele>458.80</ele>
        <time>2012-11-04T09:33:38Z</time>
      </trkpt>
      <trkpt lat="47.725147" lon="13.083698">
        <ele>458.80</ele>
        <time>2012-11-04T09:33:40Z</time>
      </trkpt>
      <trkpt lat="47.725128" lon="13.083542">
        <ele>458.80</ele>
        <time>2012-11-04T09:33:44Z</time>
      </trkpt>
      <trkpt lat="47.725121" lon="13.083404">
        <ele>458.80</ele>
        <time>2012-11-04T09:33:50Z</time>
      </trkpt>
      <trkpt lat="47.725121" lon="13.083404">
        <ele>458.80</ele>
        <time>2012-11-04T09:33:53Z</time>
      </trkpt>
      <trkpt lat="47.725121" lon="13.083404">
        <ele>458.80</ele>
        <time>2012-11-04T09:33:57Z</time>
      </trkpt>
      <trkpt lat="47.725121" lon="13.083409">
        <ele>458.80</ele>
        <time>2012-11-04T09:34:01Z</time>
      </trkpt>
      <trkpt lat="47.725124" lon="13.083412">
        <ele>458.80</ele>
        <time>2012-11-04T09:34:07Z</time>
      </trkpt>
      <trkpt lat="47.725124" lon="13.083412">
        <ele>458.80</ele>
        <time>2012-11-04T09:34:11Z</time>
      </trkpt>
      <trkpt lat="47.725124" lon="13.083412">
        <ele>458.80</ele>
        <time>2012-11-04T09:34:13Z</time>
      </trkpt>
      <trkpt lat="47.725124" lon="13.083412">
        <ele>458.80</ele>
        <time>2012-11-04T09:34:16Z</time>
      </trkpt>
      <trkpt lat="47.725124" lon="13.083412">
        <ele>458.80</ele>
        <time>2012-11-04T09:34:18Z</time>
      </trkpt>
      <trkpt lat="47.725124" lon="13.083412">
        <ele>458.80</ele>
        <time>2012-11-04T09:34:25Z</time>
      </trkpt>
      <trkpt lat="47.725124" lon="13.083412">
        <ele>458.80</ele>
        <time>2012-11-04T09:34:28Z</time>
      </trkpt>
      <trkpt lat="47.725124" lon="13.083412">
        <ele>458.80</ele>
        <time>2012-11-04T09:34:35Z</time>
      </trkpt>
      <trkpt lat="47.725124" lon="13.083412">
        <ele>458.80</ele>
        <time>2012-11-04T09:34:39Z</time>
      </trkpt>
      <trkpt lat="47.725124" lon="13.083412">
        <ele>458.80</ele>
        <time>2012-11-04T09:34:41Z</time>
      </trkpt>
      <trkpt lat="47.725124" lon="13.083410">
        <ele>458.80</ele>
        <time>2012-11-04T09:34:49Z</time>
      </trkpt>
      <trkpt lat="47.725124" lon="13.083410">
        <ele>458.80</ele>
        <time>2012-11-04T09:34:51Z</time>
      </trkpt>
      <trkpt lat="47.725124" lon="13.083410">
        <ele>458.80</ele>
        <time>2012-11-04T09:34:54Z</time>
      </trkpt>
      <trkpt lat="47.725124" lon="13.083410">
        <ele>458.80</ele>
        <time>2012-11-04T09:35:01Z</time>
      </trkpt>
      <trkpt lat="47.725124" lon="13.083410">
        <ele>458.80</ele>
        <time>2012-11-04T09:35:06Z</time>
      </trkpt>
      <trkpt lat="47.725124" lon="13.083369">
        <ele>458.80</ele>
        <time>2012-11-04T09:35:17Z</time>
      </trkpt>
      <trkpt lat="47.725124" lon="13.083321">
        <ele>458.80</ele>
        <time>2012-11-04T09:35:19Z</time>
      </trkpt>
      <trkpt lat="47.725124" lon="13.083292">
        <ele>458.80</ele>
        <time>2012-11-04T09:35:20Z</time>
      </trkpt>
      <trkpt lat="47.725128" lon="13.083249">
        <ele>458.80</ele>
        <time>2012-11-04T09:35:21Z</time>
      </trkpt>
      <trkpt lat="47.725132" lon="13.083140">
        <ele>458.80</ele>
        <time>2012-11-04T09:35:24Z</time>
      </trkpt>
      <trkpt lat="47.725132" lon="13.083008">
        <ele>458.80</ele>
        <time>2012-11-04T09:35:27Z</time>
      </trkpt>
      <trkpt lat="47.725136" lon="13.082883">
        <ele>458.80</ele>
        <time>2012-11-04T09:35:30Z</time>
      </trkpt>
      <trkpt lat="47.725124" lon="13.082698">
        <ele>458.80</ele>
        <time>2012-11-04T09:35:34Z</time>
      </trkpt>
      <trkpt lat="47.725121" lon="13.082376">
        <ele>458.80</ele>
        <time>2012-11-04T09:35:41Z</time>
      </trkpt>
      <trkpt lat="47.725128" lon="13.082289">
        <ele>458.80</ele>
        <time>2012-11-04T09:35:44Z</time>
      </trkpt>
      <trkpt lat="47.725163" lon="13.082287">
        <ele>458.80</ele>
        <time>2012-11-04T09:35:46Z</time>
      </trkpt>
      <trkpt lat="47.725269" lon="13.082335">
        <ele>458.80</ele>
        <time>2012-11-04T09:35:49Z</time>
      </trkpt>
      <trkpt lat="47.725307" lon="13.082335">
        <ele>458.80</ele>
        <time>2012-11-04T09:35:50Z</time>
      </trkpt>
      <trkpt lat="47.725395" lon="13.082353">
        <ele>458.80</ele>
        <time>2012-11-04T09:35:52Z</time>
      </trkpt>
      <trkpt lat="47.725483" lon="13.082353">
        <ele>458.80</ele>
        <time>2012-11-04T09:35:54Z</time>
      </trkpt>
      <trkpt lat="47.725563" lon="13.082344">
        <ele>458.80</ele>
        <time>2012-11-04T09:35:56Z</time>
      </trkpt>
      <trkpt lat="47.725876" lon="13.082333">
        <ele>458.80</ele>
        <time>2012-11-04T09:36:04Z</time>
      </trkpt>
      <trkpt lat="47.726070" lon="13.082323">
        <ele>458.80</ele>
        <time>2012-11-04T09:36:09Z</time>
      </trkpt>
      <trkpt lat="47.726105" lon="13.082325">
        <ele>458.80</ele>
        <time>2012-11-04T09:36:10Z</time>
      </trkpt>
      <trkpt lat="47.726284" lon="13.082251">
        <ele>458.80</ele>
        <time>2012-11-04T09:36:15Z</time>
      </trkpt>
      <trkpt lat="47.726307" lon="13.082193">
        <ele>458.80</ele>
        <time>2012-11-04T09:36:16Z</time>
      </trkpt>
      <trkpt lat="47.726315" lon="13.081939">
        <ele>458.80</ele>
        <time>2012-11-04T09:36:20Z</time>
      </trkpt>
      <trkpt lat="47.726307" lon="13.081871">
        <ele>458.80</ele>
        <time>2012-11-04T09:36:21Z</time>
      </trkpt>
      <trkpt lat="47.726299" lon="13.081802">
        <ele>458.80</ele>
        <time>2012-11-04T09:36:22Z</time>
      </trkpt>
      <trkpt lat="47.726299" lon="13.081731">
        <ele>458.40</ele>
        <time>2012-11-04T09:36:23Z</time>
      </trkpt>
      <trkpt lat="47.726299" lon="13.081660">
        <ele>458.00</ele>
        <time>2012-11-04T09:36:24Z</time>
      </trkpt>
      <trkpt lat="47.726292" lon="13.081594">
        <ele>457.60</ele>
        <time>2012-11-04T09:36:25Z</time>
      </trkpt>
      <trkpt lat="47.726292" lon="13.081523">
        <ele>457.20</ele>
        <time>2012-11-04T09:36:26Z</time>
      </trkpt>
      <trkpt lat="47.726288" lon="13.081453">
        <ele>456.80</ele>
        <time>2012-11-04T09:36:27Z</time>
      </trkpt>
      <trkpt lat="47.726284" lon="13.081384">
        <ele>456.80</ele>
        <time>2012-11-04T09:36:28Z</time>
      </trkpt>
      <trkpt lat="47.726273" lon="13.081218">
        <ele>456.80</ele>
        <time>2012-11-04T09:36:32Z</time>
      </trkpt>
      <trkpt lat="47.726254" lon="13.081194">
        <ele>456.80</ele>
        <time>2012-11-04T09:36:34Z</time>
      </trkpt>
      <trkpt lat="47.726246" lon="13.081156">
        <ele>456.80</ele>
        <time>2012-11-04T09:36:36Z</time>
      </trkpt>
      <trkpt lat="47.726269" lon="13.081060">
        <ele>456.80</ele>
        <time>2012-11-04T09:36:39Z</time>
      </trkpt>
      <trkpt lat="47.726276" lon="13.081025">
        <ele>456.80</ele>
        <time>2012-11-04T09:36:40Z</time>
      </trkpt>
      <trkpt lat="47.726284" lon="13.080993">
        <ele>456.80</ele>
        <time>2012-11-04T09:36:41Z</time>
      </trkpt>
      <trkpt lat="47.726288" lon="13.080772">
        <ele>456.80</ele>
        <time>2012-11-04T09:36:46Z</time>
      </trkpt>
      <trkpt lat="47.726276" lon="13.080369">
        <ele>456.80</ele>
        <time>2012-11-04T09:36:54Z</time>
      </trkpt>
      <trkpt lat="47.726273" lon="13.080195">
        <ele>456.80</ele>
        <time>2012-11-04T09:36:57Z</time>
      </trkpt>
      <trkpt lat="47.726273" lon="13.080001">
        <ele>456.80</ele>
        <time>2012-11-04T09:37:00Z</time>
      </trkpt>
      <trkpt lat="47.726250" lon="13.079573">
        <ele>456.80</ele>
        <time>2012-11-04T09:37:07Z</time>
      </trkpt>
      <trkpt lat="47.726212" lon="13.079132">
        <ele>456.80</ele>
        <time>2012-11-04T09:37:14Z</time>
      </trkpt>
      <trkpt lat="47.726189" lon="13.078855">
        <ele>456.80</ele>
        <time>2012-11-04T09:37:19Z</time>
      </trkpt>
      <trkpt lat="47.726196" lon="13.078701">
        <ele>456.80</ele>
        <time>2012-11-04T09:37:22Z</time>
      </trkpt>
      <trkpt lat="47.726192" lon="13.078592">
        <ele>456.80</ele>
        <time>2012-11-04T09:37:26Z</time>
      </trkpt>
      <trkpt lat="47.726208" lon="13.078456">
        <ele>456.80</ele>
        <time>2012-11-04T09:37:31Z</time>
      </trkpt>
      <trkpt lat="47.726177" lon="13.078454">
        <ele>456.80</ele>
        <time>2012-11-04T09:37:35Z</time>
      </trkpt>
      <trkpt lat="47.726177" lon="13.078485">
        <ele>456.80</ele>
        <time>2012-11-04T09:37:36Z</time>
      </trkpt>
      <trkpt lat="47.726166" lon="13.078566">
        <ele>456.80</ele>
        <time>2012-11-04T09:37:39Z</time>
      </trkpt>
      <trkpt lat="47.726173" lon="13.078623">
        <ele>456.80</ele>
        <time>2012-11-04T09:37:41Z</time>
      </trkpt>
      <trkpt lat="47.726177" lon="13.078651">
        <ele>456.80</ele>
        <time>2012-11-04T09:37:42Z</time>
      </trkpt>
      <trkpt lat="47.726208" lon="13.078732">
        <ele>456.80</ele>
        <time>2012-11-04T09:37:45Z</time>
      </trkpt>
      <trkpt lat="47.726265" lon="13.078749">
        <ele>456.80</ele>
        <time>2012-11-04T09:37:47Z</time>
      </trkpt>
      <trkpt lat="47.726337" lon="13.078740">
        <ele>456.80</ele>
        <time>2012-11-04T09:37:50Z</time>
      </trkpt>
      <trkpt lat="47.726433" lon="13.078710">
        <ele>456.80</ele>
        <time>2012-11-04T09:37:53Z</time>
      </trkpt>
      <trkpt lat="47.726646" lon="13.078640">
        <ele>456.80</ele>
        <time>2012-11-04T09:38:00Z</time>
      </trkpt>
      <trkpt lat="47.726841" lon="13.078470">
        <ele>456.80</ele>
        <time>2012-11-04T09:38:06Z</time>
      </trkpt>
      <trkpt lat="47.726994" lon="13.078176">
        <ele>456.80</ele>
        <time>2012-11-04T09:38:12Z</time>
      </trkpt>
      <trkpt lat="47.727097" lon="13.077736">
        <ele>456.80</ele>
        <time>2012-11-04T09:38:19Z</time>
      </trkpt>
      <trkpt lat="47.727211" lon="13.077308">
        <ele>456.80</ele>
        <time>2012-11-04T09:38:26Z</time>
      </trkpt>
      <trkpt lat="47.727325" lon="13.076812">
        <ele>456.80</ele>
        <time>2012-11-04T09:38:34Z</time>
      </trkpt>
      <trkpt lat="47.727356" lon="13.076398">
        <ele>456.80</ele>
        <time>2012-11-04T09:38:41Z</time>
      </trkpt>
      <trkpt lat="47.727280" lon="13.076107">
        <ele>456.80</ele>
        <time>2012-11-04T09:38:46Z</time>
      </trkpt>
      <trkpt lat="47.727261" lon="13.076046">
        <ele>456.80</ele>
        <time>2012-11-04T09:38:47Z</time>
      </trkpt>
      <trkpt lat="47.727100" lon="13.075498">
        <ele>456.80</ele>
        <time>2012-11-04T09:38:56Z</time>
      </trkpt>
      <trkpt lat="47.727001" lon="13.075096">
        <ele>456.80</ele>
        <time>2012-11-04T09:39:02Z</time>
      </trkpt>
      <trkpt lat="47.726974" lon="13.074965">
        <ele>456.80</ele>
        <time>2012-11-04T09:39:04Z</time>
      </trkpt>
      <trkpt lat="47.726906" lon="13.074638">
        <ele>456.80</ele>
        <time>2012-11-04T09:39:09Z</time>
      </trkpt>
      <trkpt lat="47.726879" lon="13.074509">
        <ele>456.80</ele>
        <time>2012-11-04T09:39:11Z</time>
      </trkpt>
      <trkpt lat="47.726734" lon="13.073858">
        <ele>456.80</ele>
        <time>2012-11-04T09:39:21Z</time>
      </trkpt>
      <trkpt lat="47.726608" lon="13.073286">
        <ele>456.80</ele>
        <time>2012-11-04T09:39:30Z</time>
      </trkpt>
      <trkpt lat="47.726547" lon="13.073033">
        <ele>457.20</ele>
        <time>2012-11-04T09:39:34Z</time>
      </trkpt>
      <trkpt lat="47.726532" lon="13.072970">
        <ele>458.00</ele>
        <time>2012-11-04T09:39:35Z</time>
      </trkpt>
      <trkpt lat="47.726517" lon="13.072908">
        <ele>458.40</ele>
        <time>2012-11-04T09:39:36Z</time>
      </trkpt>
      <trkpt lat="47.726505" lon="13.072845">
        <ele>458.80</ele>
        <time>2012-11-04T09:39:37Z</time>
      </trkpt>
      <trkpt lat="47.726498" lon="13.072783">
        <ele>458.80</ele>
        <time>2012-11-04T09:39:38Z</time>
      </trkpt>
      <trkpt lat="47.726486" lon="13.072584">
        <ele>458.80</ele>
        <time>2012-11-04T09:39:41Z</time>
      </trkpt>
      <trkpt lat="47.726486" lon="13.072386">
        <ele>458.80</ele>
        <time>2012-11-04T09:39:44Z</time>
      </trkpt>
      <trkpt lat="47.726540" lon="13.071945">
        <ele>458.80</ele>
        <time>2012-11-04T09:39:51Z</time>
      </trkpt>
      <trkpt lat="47.726543" lon="13.071879">
        <ele>458.80</ele>
        <time>2012-11-04T09:39:52Z</time>
      </trkpt>
      <trkpt lat="47.726585" lon="13.071537">
        <ele>458.80</ele>
        <time>2012-11-04T09:39:57Z</time>
      </trkpt>
      <trkpt lat="47.726631" lon="13.071056">
        <ele>458.80</ele>
        <time>2012-11-04T09:40:04Z</time>
      </trkpt>
      <trkpt lat="47.726677" lon="13.070523">
        <ele>458.80</ele>
        <time>2012-11-04T09:40:12Z</time>
      </trkpt>
      <trkpt lat="47.726742" lon="13.070086">
        <ele>458.80</ele>
        <time>2012-11-04T09:40:19Z</time>
      </trkpt>
      <trkpt lat="47.726749" lon="13.070017">
        <ele>458.80</ele>
        <time>2012-11-04T09:40:20Z</time>
      </trkpt>
      <trkpt lat="47.726711" lon="13.069823">
        <ele>458.80</ele>
        <time>2012-11-04T09:40:23Z</time>
      </trkpt>
      <trkpt lat="47.726665" lon="13.069647">
        <ele>458.80</ele>
        <time>2012-11-04T09:40:26Z</time>
      </trkpt>
      <trkpt lat="47.726646" lon="13.069588">
        <ele>458.80</ele>
        <time>2012-11-04T09:40:27Z</time>
      </trkpt>
      <trkpt lat="47.726620" lon="13.069533">
        <ele>458.80</ele>
        <time>2012-11-04T09:40:28Z</time>
      </trkpt>
      <trkpt lat="47.726528" lon="13.069387">
        <ele>458.80</ele>
        <time>2012-11-04T09:40:31Z</time>
      </trkpt>
      <trkpt lat="47.726501" lon="13.069342">
        <ele>458.80</ele>
        <time>2012-11-04T09:40:32Z</time>
      </trkpt>
      <trkpt lat="47.726437" lon="13.069245">
        <ele>458.80</ele>
        <time>2012-11-04T09:40:34Z</time>
      </trkpt>
      <trkpt lat="47.726303" lon="13.069056">
        <ele>459.20</ele>
        <time>2012-11-04T09:40:38Z</time>
      </trkpt>
      <trkpt lat="47.726273" lon="13.069009">
        <ele>459.60</ele>
        <time>2012-11-04T09:40:39Z</time>
      </trkpt>
      <trkpt lat="47.726242" lon="13.068961">
        <ele>460.00</ele>
        <time>2012-11-04T09:40:40Z</time>
      </trkpt>
      <trkpt lat="47.726212" lon="13.068913">
        <ele>460.40</ele>
        <time>2012-11-04T09:40:41Z</time>
      </trkpt>
      <trkpt lat="47.726185" lon="13.068869">
        <ele>460.80</ele>
        <time>2012-11-04T09:40:42Z</time>
      </trkpt>
      <trkpt lat="47.725998" lon="13.068627">
        <ele>460.80</ele>
        <time>2012-11-04T09:40:47Z</time>
      </trkpt>
      <trkpt lat="47.725838" lon="13.068403">
        <ele>460.80</ele>
        <time>2012-11-04T09:40:52Z</time>
      </trkpt>
      <trkpt lat="47.725780" lon="13.068304">
        <ele>460.80</ele>
        <time>2012-11-04T09:40:54Z</time>
      </trkpt>
      <trkpt lat="47.725563" lon="13.067904">
        <ele>460.80</ele>
        <time>2012-11-04T09:41:02Z</time>
      </trkpt>
      <trkpt lat="47.725426" lon="13.067532">
        <ele>460.80</ele>
        <time>2012-11-04T09:41:09Z</time>
      </trkpt>
      <trkpt lat="47.725266" lon="13.067045">
        <ele>460.80</ele>
        <time>2012-11-04T09:41:17Z</time>
      </trkpt>
      <trkpt lat="47.725124" lon="13.066557">
        <ele>460.80</ele>
        <time>2012-11-04T09:41:25Z</time>
      </trkpt>
      <trkpt lat="47.725075" lon="13.066369">
        <ele>461.20</ele>
        <time>2012-11-04T09:41:28Z</time>
      </trkpt>
      <trkpt lat="47.725052" lon="13.066309">
        <ele>461.60</ele>
        <time>2012-11-04T09:41:29Z</time>
      </trkpt>
      <trkpt lat="47.725029" lon="13.066252">
        <ele>462.00</ele>
        <time>2012-11-04T09:41:30Z</time>
      </trkpt>
      <trkpt lat="47.725010" lon="13.066190">
        <ele>462.40</ele>
        <time>2012-11-04T09:41:31Z</time>
      </trkpt>
      <trkpt lat="47.724987" lon="13.066131">
        <ele>462.80</ele>
        <time>2012-11-04T09:41:32Z</time>
      </trkpt>
      <trkpt lat="47.724777" lon="13.065647">
        <ele>462.80</ele>
        <time>2012-11-04T09:41:40Z</time>
      </trkpt>
      <trkpt lat="47.724552" lon="13.065186">
        <ele>462.80</ele>
        <time>2012-11-04T09:41:48Z</time>
      </trkpt>
      <trkpt lat="47.724339" lon="13.064800">
        <ele>462.80</ele>
        <time>2012-11-04T09:41:55Z</time>
      </trkpt>
      <trkpt lat="47.724102" lon="13.064362">
        <ele>462.80</ele>
        <time>2012-11-04T09:42:03Z</time>
      </trkpt>
      <trkpt lat="47.723866" lon="13.063929">
        <ele>462.80</ele>
        <time>2012-11-04T09:42:11Z</time>
      </trkpt>
      <trkpt lat="47.723747" lon="13.063733">
        <ele>462.80</ele>
        <time>2012-11-04T09:42:15Z</time>
      </trkpt>
      <trkpt lat="47.723637" lon="13.063530">
        <ele>462.80</ele>
        <time>2012-11-04T09:42:19Z</time>
      </trkpt>
      <trkpt lat="47.723614" lon="13.063478">
        <ele>463.20</ele>
        <time>2012-11-04T09:42:20Z</time>
      </trkpt>
      <trkpt lat="47.723583" lon="13.063417">
        <ele>463.60</ele>
        <time>2012-11-04T09:42:21Z</time>
      </trkpt>
      <trkpt lat="47.723553" lon="13.063369">
        <ele>464.20</ele>
        <time>2012-11-04T09:42:22Z</time>
      </trkpt>
      <trkpt lat="47.723526" lon="13.063316">
        <ele>464.60</ele>
        <time>2012-11-04T09:42:23Z</time>
      </trkpt>
      <trkpt lat="47.723492" lon="13.063265">
        <ele>465.00</ele>
        <time>2012-11-04T09:42:24Z</time>
      </trkpt>
      <trkpt lat="47.723461" lon="13.063215">
        <ele>465.00</ele>
        <time>2012-11-04T09:42:25Z</time>
      </trkpt>
      <trkpt lat="47.723267" lon="13.062940">
        <ele>465.00</ele>
        <time>2012-11-04T09:42:31Z</time>
      </trkpt>
      <trkpt lat="47.723003" lon="13.062745">
        <ele>465.00</ele>
        <time>2012-11-04T09:42:37Z</time>
      </trkpt>
      <trkpt lat="47.722633" lon="13.062571">
        <ele>465.00</ele>
        <time>2012-11-04T09:42:45Z</time>
      </trkpt>
      <trkpt lat="47.722412" lon="13.062429">
        <ele>465.00</ele>
        <time>2012-11-04T09:42:50Z</time>
      </trkpt>
      <trkpt lat="47.722298" lon="13.062300">
        <ele>465.00</ele>
        <time>2012-11-04T09:42:53Z</time>
      </trkpt>
      <trkpt lat="47.722172" lon="13.062088">
        <ele>465.00</ele>
        <time>2012-11-04T09:42:57Z</time>
      </trkpt>
      <trkpt lat="47.722118" lon="13.061968">
        <ele>465.00</ele>
        <time>2012-11-04T09:42:59Z</time>
      </trkpt>
      <trkpt lat="47.721958" lon="13.061473">
        <ele>465.00</ele>
        <time>2012-11-04T09:43:07Z</time>
      </trkpt>
      <trkpt lat="47.721951" lon="13.061402">
        <ele>465.00</ele>
        <time>2012-11-04T09:43:08Z</time>
      </trkpt>
      <trkpt lat="47.721985" lon="13.061260">
        <ele>465.00</ele>
        <time>2012-11-04T09:43:10Z</time>
      </trkpt>
      <trkpt lat="47.722141" lon="13.061068">
        <ele>465.00</ele>
        <time>2012-11-04T09:43:14Z</time>
      </trkpt>
      <trkpt lat="47.722187" lon="13.061030">
        <ele>465.00</ele>
        <time>2012-11-04T09:43:15Z</time>
      </trkpt>
      <trkpt lat="47.722504" lon="13.060842">
        <ele>465.00</ele>
        <time>2012-11-04T09:43:22Z</time>
      </trkpt>
      <trkpt lat="47.722637" lon="13.060781">
        <ele>465.00</ele>
        <time>2012-11-04T09:43:25Z</time>
      </trkpt>
      <trkpt lat="47.722759" lon="13.060709">
        <ele>465.00</ele>
        <time>2012-11-04T09:43:28Z</time>
      </trkpt>
      <trkpt lat="47.722797" lon="13.060688">
        <ele>465.00</ele>
        <time>2012-11-04T09:43:29Z</time>
      </trkpt>
      <trkpt lat="47.722881" lon="13.060639">
        <ele>465.00</ele>
        <time>2012-11-04T09:43:33Z</time>
      </trkpt>
      <trkpt lat="47.722874" lon="13.060641">
        <ele>465.00</ele>
        <time>2012-11-04T09:43:37Z</time>
      </trkpt>
      <trkpt lat="47.722881" lon="13.060598">
        <ele>465.00</ele>
        <time>2012-11-04T09:43:40Z</time>
      </trkpt>
      <trkpt lat="47.722885" lon="13.060505">
        <ele>465.00</ele>
        <time>2012-11-04T09:43:42Z</time>
      </trkpt>
      <trkpt lat="47.722813" lon="13.060423">
        <ele>465.00</ele>
        <time>2012-11-04T09:43:45Z</time>
      </trkpt>
      <trkpt lat="47.722725" lon="13.060364">
        <ele>465.00</ele>
        <time>2012-11-04T09:43:49Z</time>
      </trkpt>
      <trkpt lat="47.722664" lon="13.060323">
        <ele>465.00</ele>
        <time>2012-11-04T09:43:51Z</time>
      </trkpt>
      <trkpt lat="47.722607" lon="13.060305">
        <ele>465.00</ele>
        <time>2012-11-04T09:43:53Z</time>
      </trkpt>
      <trkpt lat="47.722481" lon="13.060251">
        <ele>465.00</ele>
        <time>2012-11-04T09:43:57Z</time>
      </trkpt>
      <trkpt lat="47.722282" lon="13.060205">
        <ele>465.00</ele>
        <time>2012-11-04T09:44:03Z</time>
      </trkpt>
      <trkpt lat="47.722137" lon="13.060158">
        <ele>465.00</ele>
        <time>2012-11-04T09:44:08Z</time>
      </trkpt>
      <trkpt lat="47.721901" lon="13.060066">
        <ele>465.00</ele>
        <time>2012-11-04T09:44:14Z</time>
      </trkpt>
      <trkpt lat="47.721828" lon="13.060008">
        <ele>465.00</ele>
        <time>2012-11-04T09:44:16Z</time>
      </trkpt>
      <trkpt lat="47.721584" lon="13.059690">
        <ele>465.00</ele>
        <time>2012-11-04T09:44:24Z</time>
      </trkpt>
      <trkpt lat="47.721378" lon="13.059329">
        <ele>465.00</ele>
        <time>2012-11-04T09:44:32Z</time>
      </trkpt>
      <trkpt lat="47.721272" lon="13.059085">
        <ele>465.00</ele>
        <time>2012-11-04T09:44:37Z</time>
      </trkpt>
      <trkpt lat="47.721199" lon="13.058891">
        <ele>465.00</ele>
        <time>2012-11-04T09:44:41Z</time>
      </trkpt>
      <trkpt lat="47.721146" lon="13.058735">
        <ele>465.00</ele>
        <time>2012-11-04T09:44:44Z</time>
      </trkpt>
      <trkpt lat="47.721062" lon="13.058528">
        <ele>465.00</ele>
        <time>2012-11-04T09:44:48Z</time>
      </trkpt>
      <trkpt lat="47.721016" lon="13.058430">
        <ele>465.40</ele>
        <time>2012-11-04T09:44:50Z</time>
      </trkpt>
      <trkpt lat="47.720993" lon="13.058376">
        <ele>465.80</ele>
        <time>2012-11-04T09:44:51Z</time>
      </trkpt>
      <trkpt lat="47.720970" lon="13.058330">
        <ele>466.20</ele>
        <time>2012-11-04T09:44:52Z</time>
      </trkpt>
      <trkpt lat="47.720943" lon="13.058277">
        <ele>466.60</ele>
        <time>2012-11-04T09:44:53Z</time>
      </trkpt>
      <trkpt lat="47.720921" lon="13.058230">
        <ele>467.00</ele>
        <time>2012-11-04T09:44:54Z</time>
      </trkpt>
      <trkpt lat="47.720829" lon="13.058039">
        <ele>467.00</ele>
        <time>2012-11-04T09:44:58Z</time>
      </trkpt>
      <trkpt lat="47.720810" lon="13.057884">
        <ele>467.00</ele>
        <time>2012-11-04T09:45:01Z</time>
      </trkpt>
      <trkpt lat="47.720825" lon="13.057837">
        <ele>467.00</ele>
        <time>2012-11-04T09:45:02Z</time>
      </trkpt>
      <trkpt lat="47.720989" lon="13.057502">
        <ele>467.00</ele>
        <time>2012-11-04T09:45:09Z</time>
      </trkpt>
      <trkpt lat="47.721127" lon="13.057225">
        <ele>467.00</ele>
        <time>2012-11-04T09:45:14Z</time>
      </trkpt>
      <trkpt lat="47.721176" lon="13.057106">
        <ele>467.00</ele>
        <time>2012-11-04T09:45:16Z</time>
      </trkpt>
      <trkpt lat="47.721195" lon="13.057049">
        <ele>467.00</ele>
        <time>2012-11-04T09:45:17Z</time>
      </trkpt>
      <trkpt lat="47.721249" lon="13.056725">
        <ele>467.00</ele>
        <time>2012-11-04T09:45:22Z</time>
      </trkpt>
      <trkpt lat="47.721264" lon="13.056288">
        <ele>467.00</ele>
        <time>2012-11-04T09:45:28Z</time>
      </trkpt>
      <trkpt lat="47.721291" lon="13.056126">
        <ele>467.00</ele>
        <time>2012-11-04T09:45:30Z</time>
      </trkpt>
      <trkpt lat="47.721348" lon="13.055948">
        <ele>467.00</ele>
        <time>2012-11-04T09:45:32Z</time>
      </trkpt>
      <trkpt lat="47.721508" lon="13.055684">
        <ele>467.00</ele>
        <time>2012-11-04T09:45:36Z</time>
      </trkpt>
      <trkpt lat="47.721611" lon="13.055596">
        <ele>467.00</ele>
        <time>2012-11-04T09:45:38Z</time>
      </trkpt>
      <trkpt lat="47.721672" lon="13.055557">
        <ele>467.00</ele>
        <time>2012-11-04T09:45:39Z</time>
      </trkpt>
      <trkpt lat="47.721790" lon="13.055482">
        <ele>467.00</ele>
        <time>2012-11-04T09:45:41Z</time>
      </trkpt>
      <trkpt lat="47.722202" lon="13.055216">
        <ele>467.00</ele>
        <time>2012-11-04T09:45:48Z</time>
      </trkpt>
      <trkpt lat="47.722534" lon="13.055042">
        <ele>467.00</ele>
        <time>2012-11-04T09:45:54Z</time>
      </trkpt>
      <trkpt lat="47.722588" lon="13.055008">
        <ele>467.00</ele>
        <time>2012-11-04T09:45:55Z</time>
      </trkpt>
      <trkpt lat="47.722778" lon="13.054871">
        <ele>466.60</ele>
        <time>2012-11-04T09:45:59Z</time>
      </trkpt>
      <trkpt lat="47.722824" lon="13.054833">
        <ele>466.20</ele>
        <time>2012-11-04T09:46:00Z</time>
      </trkpt>
      <trkpt lat="47.722866" lon="13.054796">
        <ele>465.80</ele>
        <time>2012-11-04T09:46:01Z</time>
      </trkpt>
      <trkpt lat="47.722912" lon="13.054752">
        <ele>465.40</ele>
        <time>2012-11-04T09:46:02Z</time>
      </trkpt>
      <trkpt lat="47.722954" lon="13.054708">
        <ele>465.00</ele>
        <time>2012-11-04T09:46:03Z</time>
      </trkpt>
      <trkpt lat="47.722992" lon="13.054658">
        <ele>465.00</ele>
        <time>2012-11-04T09:46:04Z</time>
      </trkpt>
      <trkpt lat="47.723049" lon="13.054543">
        <ele>465.00</ele>
        <time>2012-11-04T09:46:06Z</time>
      </trkpt>
      <trkpt lat="47.723125" lon="13.054272">
        <ele>465.00</ele>
        <time>2012-11-04T09:46:10Z</time>
      </trkpt>
      <trkpt lat="47.723148" lon="13.054200">
        <ele>465.00</ele>
        <time>2012-11-04T09:46:11Z</time>
      </trkpt>
      <trkpt lat="47.723278" lon="13.053725">
        <ele>465.00</ele>
        <time>2012-11-04T09:46:18Z</time>
      </trkpt>
      <trkpt lat="47.723385" lon="13.053331">
        <ele>465.00</ele>
        <time>2012-11-04T09:46:24Z</time>
      </trkpt>
      <trkpt lat="47.723545" lon="13.052720">
        <ele>465.00</ele>
        <time>2012-11-04T09:46:33Z</time>
      </trkpt>
      <trkpt lat="47.723679" lon="13.052244">
        <ele>465.00</ele>
        <time>2012-11-04T09:46:40Z</time>
      </trkpt>
      <trkpt lat="47.723839" lon="13.051725">
        <ele>465.00</ele>
        <time>2012-11-04T09:46:48Z</time>
      </trkpt>
      <trkpt lat="47.723969" lon="13.051311">
        <ele>465.00</ele>
        <time>2012-11-04T09:46:54Z</time>
      </trkpt>
      <trkpt lat="47.723988" lon="13.051240">
        <ele>465.00</ele>
        <time>2012-11-04T09:46:55Z</time>
      </trkpt>
      <trkpt lat="47.724030" lon="13.051039">
        <ele>465.00</ele>
        <time>2012-11-04T09:46:58Z</time>
      </trkpt>
      <trkpt lat="47.724052" lon="13.050909">
        <ele>465.00</ele>
        <time>2012-11-04T09:47:00Z</time>
      </trkpt>
      <trkpt lat="47.724068" lon="13.050842">
        <ele>465.00</ele>
        <time>2012-11-04T09:47:01Z</time>
      </trkpt>
      <trkpt lat="47.724125" lon="13.050635">
        <ele>465.00</ele>
        <time>2012-11-04T09:47:04Z</time>
      </trkpt>
      <trkpt lat="47.724197" lon="13.050354">
        <ele>465.00</ele>
        <time>2012-11-04T09:47:08Z</time>
      </trkpt>
      <trkpt lat="47.724274" lon="13.050073">
        <ele>465.00</ele>
        <time>2012-11-04T09:47:12Z</time>
      </trkpt>
      <trkpt lat="47.724335" lon="13.049873">
        <ele>465.00</ele>
        <time>2012-11-04T09:47:15Z</time>
      </trkpt>
      <trkpt lat="47.724430" lon="13.049529">
        <ele>465.00</ele>
        <time>2012-11-04T09:47:20Z</time>
      </trkpt>
      <trkpt lat="47.724468" lon="13.049390">
        <ele>465.00</ele>
        <time>2012-11-04T09:47:22Z</time>
      </trkpt>
      <trkpt lat="47.724518" lon="13.049190">
        <ele>465.40</ele>
        <time>2012-11-04T09:47:25Z</time>
      </trkpt>
      <trkpt lat="47.724537" lon="13.049121">
        <ele>465.80</ele>
        <time>2012-11-04T09:47:26Z</time>
      </trkpt>
      <trkpt lat="47.724560" lon="13.049051">
        <ele>466.20</ele>
        <time>2012-11-04T09:47:27Z</time>
      </trkpt>
      <trkpt lat="47.724579" lon="13.048981">
        <ele>466.60</ele>
        <time>2012-11-04T09:47:28Z</time>
      </trkpt>
      <trkpt lat="47.724594" lon="13.048912">
        <ele>467.00</ele>
        <time>2012-11-04T09:47:29Z</time>
      </trkpt>
      <trkpt lat="47.724674" lon="13.048565">
        <ele>467.00</ele>
        <time>2012-11-04T09:47:34Z</time>
      </trkpt>
      <trkpt lat="47.724777" lon="13.048088">
        <ele>467.00</ele>
        <time>2012-11-04T09:47:41Z</time>
      </trkpt>
      <trkpt lat="47.724895" lon="13.047525">
        <ele>467.00</ele>
        <time>2012-11-04T09:47:49Z</time>
      </trkpt>
      <trkpt lat="47.724953" lon="13.047115">
        <ele>467.00</ele>
        <time>2012-11-04T09:47:55Z</time>
      </trkpt>
      <trkpt lat="47.724968" lon="13.047048">
        <ele>467.00</ele>
        <time>2012-11-04T09:47:56Z</time>
      </trkpt>
      <trkpt lat="47.725052" lon="13.046604">
        <ele>467.00</ele>
        <time>2012-11-04T09:48:03Z</time>
      </trkpt>
      <trkpt lat="47.725140" lon="13.046189">
        <ele>467.00</ele>
        <time>2012-11-04T09:48:09Z</time>
      </trkpt>
      <trkpt lat="47.725151" lon="13.046041">
        <ele>467.00</ele>
        <time>2012-11-04T09:48:11Z</time>
      </trkpt>
      <trkpt lat="47.725136" lon="13.045857">
        <ele>467.00</ele>
        <time>2012-11-04T09:48:14Z</time>
      </trkpt>
      <trkpt lat="47.725128" lon="13.045799">
        <ele>467.40</ele>
        <time>2012-11-04T09:48:15Z</time>
      </trkpt>
      <trkpt lat="47.725121" lon="13.045742">
        <ele>467.80</ele>
        <time>2012-11-04T09:48:16Z</time>
      </trkpt>
      <trkpt lat="47.725113" lon="13.045686">
        <ele>468.20</ele>
        <time>2012-11-04T09:48:17Z</time>
      </trkpt>
      <trkpt lat="47.725109" lon="13.045629">
        <ele>468.60</ele>
        <time>2012-11-04T09:48:18Z</time>
      </trkpt>
      <trkpt lat="47.725105" lon="13.045568">
        <ele>469.00</ele>
        <time>2012-11-04T09:48:19Z</time>
      </trkpt>
      <trkpt lat="47.725094" lon="13.045381">
        <ele>469.00</ele>
        <time>2012-11-04T09:48:22Z</time>
      </trkpt>
      <trkpt lat="47.725094" lon="13.045004">
        <ele>469.00</ele>
        <time>2012-11-04T09:48:28Z</time>
      </trkpt>
      <trkpt lat="47.725067" lon="13.044552">
        <ele>469.00</ele>
        <time>2012-11-04T09:48:34Z</time>
      </trkpt>
      <trkpt lat="47.725060" lon="13.044479">
        <ele>469.00</ele>
        <time>2012-11-04T09:48:35Z</time>
      </trkpt>
      <trkpt lat="47.724983" lon="13.043951">
        <ele>469.00</ele>
        <time>2012-11-04T09:48:43Z</time>
      </trkpt>
      <trkpt lat="47.724960" lon="13.043819">
        <ele>469.00</ele>
        <time>2012-11-04T09:48:45Z</time>
      </trkpt>
      <trkpt lat="47.724953" lon="13.043673">
        <ele>469.00</ele>
        <time>2012-11-04T09:48:47Z</time>
      </trkpt>
      <trkpt lat="47.724957" lon="13.043601">
        <ele>469.00</ele>
        <time>2012-11-04T09:48:48Z</time>
      </trkpt>
      <trkpt lat="47.724960" lon="13.043459">
        <ele>469.00</ele>
        <time>2012-11-04T09:48:50Z</time>
      </trkpt>
      <trkpt lat="47.724979" lon="13.043262">
        <ele>469.00</ele>
        <time>2012-11-04T09:48:53Z</time>
      </trkpt>
      <trkpt lat="47.724991" lon="13.043201">
        <ele>469.00</ele>
        <time>2012-11-04T09:48:54Z</time>
      </trkpt>
      <trkpt lat="47.725098" lon="13.042830">
        <ele>469.00</ele>
        <time>2012-11-04T09:49:01Z</time>
      </trkpt>
      <trkpt lat="47.725090" lon="13.042706">
        <ele>469.00</ele>
        <time>2012-11-04T09:49:04Z</time>
      </trkpt>
      <trkpt lat="47.725075" lon="13.042686">
        <ele>469.00</ele>
        <time>2012-11-04T09:49:05Z</time>
      </trkpt>
      <trkpt lat="47.724945" lon="13.042598">
        <ele>469.00</ele>
        <time>2012-11-04T09:49:11Z</time>
      </trkpt>
      <trkpt lat="47.724762" lon="13.042465">
        <ele>469.00</ele>
        <time>2012-11-04T09:49:17Z</time>
      </trkpt>
      <trkpt lat="47.724609" lon="13.042378">
        <ele>469.00</ele>
        <time>2012-11-04T09:49:21Z</time>
      </trkpt>
      <trkpt lat="47.724537" lon="13.042345">
        <ele>469.00</ele>
        <time>2012-11-04T09:49:23Z</time>
      </trkpt>
      <trkpt lat="47.724285" lon="13.042210">
        <ele>469.00</ele>
        <time>2012-11-04T09:49:30Z</time>
      </trkpt>
      <trkpt lat="47.724121" lon="13.042132">
        <ele>469.00</ele>
        <time>2012-11-04T09:49:34Z</time>
      </trkpt>
      <trkpt lat="47.723957" lon="13.042069">
        <ele>469.00</ele>
        <time>2012-11-04T09:49:38Z</time>
      </trkpt>
      <trkpt lat="47.723797" lon="13.041992">
        <ele>469.00</ele>
        <time>2012-11-04T09:49:42Z</time>
      </trkpt>
      <trkpt lat="47.723686" lon="13.041963">
        <ele>469.00</ele>
        <time>2012-11-04T09:49:45Z</time>
      </trkpt>
      <trkpt lat="47.723442" lon="13.041931">
        <ele>469.80</ele>
        <time>2012-11-04T09:49:51Z</time>
      </trkpt>
      <trkpt lat="47.723400" lon="13.041926">
        <ele>470.20</ele>
        <time>2012-11-04T09:49:52Z</time>
      </trkpt>
      <trkpt lat="47.723358" lon="13.041922">
        <ele>470.60</ele>
        <time>2012-11-04T09:49:53Z</time>
      </trkpt>
      <trkpt lat="47.723316" lon="13.041919">
        <ele>471.00</ele>
        <time>2012-11-04T09:49:54Z</time>
      </trkpt>
      <trkpt lat="47.723156" lon="13.041905">
        <ele>471.00</ele>
        <time>2012-11-04T09:49:58Z</time>
      </trkpt>
      <trkpt lat="47.722889" lon="13.041905">
        <ele>471.00</ele>
        <time>2012-11-04T09:50:04Z</time>
      </trkpt>
      <trkpt lat="47.722599" lon="13.041942">
        <ele>471.00</ele>
        <time>2012-11-04T09:50:10Z</time>
      </trkpt>
      <trkpt lat="47.722263" lon="13.041994">
        <ele>471.00</ele>
        <time>2012-11-04T09:50:17Z</time>
      </trkpt>
      <trkpt lat="47.721920" lon="13.042091">
        <ele>471.00</ele>
        <time>2012-11-04T09:50:24Z</time>
      </trkpt>
      <trkpt lat="47.721874" lon="13.042111">
        <ele>471.00</ele>
        <time>2012-11-04T09:50:25Z</time>
      </trkpt>
      <trkpt lat="47.721622" lon="13.042207">
        <ele>471.00</ele>
        <time>2012-11-04T09:50:30Z</time>
      </trkpt>
      <trkpt lat="47.721344" lon="13.042321">
        <ele>471.00</ele>
        <time>2012-11-04T09:50:36Z</time>
      </trkpt>
      <trkpt lat="47.721249" lon="13.042355">
        <ele>471.00</ele>
        <time>2012-11-04T09:50:38Z</time>
      </trkpt>
      <trkpt lat="47.720932" lon="13.042482">
        <ele>471.00</ele>
        <time>2012-11-04T09:50:45Z</time>
      </trkpt>
      <trkpt lat="47.720715" lon="13.042557">
        <ele>471.00</ele>
        <time>2012-11-04T09:50:50Z</time>
      </trkpt>
      <trkpt lat="47.720623" lon="13.042590">
        <ele>471.00</ele>
        <time>2012-11-04T09:50:52Z</time>
      </trkpt>
      <trkpt lat="47.720295" lon="13.042729">
        <ele>471.00</ele>
        <time>2012-11-04T09:50:59Z</time>
      </trkpt>
      <trkpt lat="47.719955" lon="13.042869">
        <ele>471.00</ele>
        <time>2012-11-04T09:51:06Z</time>
      </trkpt>
      <trkpt lat="47.719910" lon="13.042889">
        <ele>471.00</ele>
        <time>2012-11-04T09:51:07Z</time>
      </trkpt>
      <trkpt lat="47.719444" lon="13.043077">
        <ele>471.00</ele>
        <time>2012-11-04T09:51:17Z</time>
      </trkpt>
      <trkpt lat="47.719177" lon="13.043202">
        <ele>471.60</ele>
        <time>2012-11-04T09:51:23Z</time>
      </trkpt>
      <trkpt lat="47.719135" lon="13.043220">
        <ele>472.00</ele>
        <time>2012-11-04T09:51:24Z</time>
      </trkpt>
      <trkpt lat="47.719093" lon="13.043240">
        <ele>472.40</ele>
        <time>2012-11-04T09:51:25Z</time>
      </trkpt>
      <trkpt lat="47.719055" lon="13.043258">
        <ele>472.80</ele>
        <time>2012-11-04T09:51:26Z</time>
      </trkpt>
      <trkpt lat="47.719009" lon="13.043276">
        <ele>473.20</ele>
        <time>2012-11-04T09:51:27Z</time>
      </trkpt>
      <trkpt lat="47.718788" lon="13.043370">
        <ele>473.20</ele>
        <time>2012-11-04T09:51:32Z</time>
      </trkpt>
      <trkpt lat="47.718544" lon="13.043495">
        <ele>473.20</ele>
        <time>2012-11-04T09:51:38Z</time>
      </trkpt>
      <trkpt lat="47.718330" lon="13.043594">
        <ele>473.20</ele>
        <time>2012-11-04T09:51:44Z</time>
      </trkpt>
      <trkpt lat="47.718136" lon="13.043690">
        <ele>473.20</ele>
        <time>2012-11-04T09:51:49Z</time>
      </trkpt>
      <trkpt lat="47.718014" lon="13.043737">
        <ele>473.20</ele>
        <time>2012-11-04T09:51:52Z</time>
      </trkpt>
      <trkpt lat="47.717766" lon="13.043844">
        <ele>473.60</ele>
        <time>2012-11-04T09:51:58Z</time>
      </trkpt>
      <trkpt lat="47.717724" lon="13.043863">
        <ele>474.00</ele>
        <time>2012-11-04T09:51:59Z</time>
      </trkpt>
      <trkpt lat="47.717682" lon="13.043880">
        <ele>474.40</ele>
        <time>2012-11-04T09:52:00Z</time>
      </trkpt>
      <trkpt lat="47.717640" lon="13.043898">
        <ele>474.80</ele>
        <time>2012-11-04T09:52:01Z</time>
      </trkpt>
      <trkpt lat="47.717594" lon="13.043915">
        <ele>475.40</ele>
        <time>2012-11-04T09:52:02Z</time>
      </trkpt>
      <trkpt lat="47.717373" lon="13.044021">
        <ele>475.40</ele>
        <time>2012-11-04T09:52:07Z</time>
      </trkpt>
      <trkpt lat="47.717010" lon="13.044179">
        <ele>475.40</ele>
        <time>2012-11-04T09:52:16Z</time>
      </trkpt>
      <trkpt lat="47.716724" lon="13.044286">
        <ele>475.40</ele>
        <time>2012-11-04T09:52:23Z</time>
      </trkpt>
      <trkpt lat="47.716633" lon="13.044297">
        <ele>475.80</ele>
        <time>2012-11-04T09:52:25Z</time>
      </trkpt>
      <trkpt lat="47.716587" lon="13.044305">
        <ele>476.20</ele>
        <time>2012-11-04T09:52:26Z</time>
      </trkpt>
      <trkpt lat="47.716545" lon="13.044315">
        <ele>476.60</ele>
        <time>2012-11-04T09:52:27Z</time>
      </trkpt>
      <trkpt lat="47.716503" lon="13.044324">
        <ele>477.20</ele>
        <time>2012-11-04T09:52:28Z</time>
      </trkpt>
      <trkpt lat="47.716461" lon="13.044333">
        <ele>477.60</ele>
        <time>2012-11-04T09:52:29Z</time>
      </trkpt>
      <trkpt lat="47.716377" lon="13.044341">
        <ele>477.60</ele>
        <time>2012-11-04T09:52:31Z</time>
      </trkpt>
      <trkpt lat="47.716122" lon="13.044345">
        <ele>477.60</ele>
        <time>2012-11-04T09:52:37Z</time>
      </trkpt>
      <trkpt lat="47.715870" lon="13.044308">
        <ele>477.60</ele>
        <time>2012-11-04T09:52:43Z</time>
      </trkpt>
      <trkpt lat="47.715824" lon="13.044289">
        <ele>477.60</ele>
        <time>2012-11-04T09:52:44Z</time>
      </trkpt>
      <trkpt lat="47.715446" lon="13.044119">
        <ele>477.60</ele>
        <time>2012-11-04T09:52:52Z</time>
      </trkpt>
      <trkpt lat="47.715137" lon="13.043914">
        <ele>477.60</ele>
        <time>2012-11-04T09:52:59Z</time>
      </trkpt>
      <trkpt lat="47.714863" lon="13.043663">
        <ele>477.60</ele>
        <time>2012-11-04T09:53:06Z</time>
      </trkpt>
      <trkpt lat="47.714516" lon="13.043309">
        <ele>477.60</ele>
        <time>2012-11-04T09:53:15Z</time>
      </trkpt>
      <trkpt lat="47.714279" lon="13.043082">
        <ele>477.60</ele>
        <time>2012-11-04T09:53:21Z</time>
      </trkpt>
      <trkpt lat="47.714203" lon="13.043010">
        <ele>477.60</ele>
        <time>2012-11-04T09:53:23Z</time>
      </trkpt>
      <trkpt lat="47.713894" lon="13.042756">
        <ele>477.60</ele>
        <time>2012-11-04T09:53:31Z</time>
      </trkpt>
      <trkpt lat="47.713551" lon="13.042490">
        <ele>477.60</ele>
        <time>2012-11-04T09:53:39Z</time>
      </trkpt>
      <trkpt lat="47.713215" lon="13.042280">
        <ele>477.60</ele>
        <time>2012-11-04T09:53:46Z</time>
      </trkpt>
      <trkpt lat="47.712879" lon="13.042097">
        <ele>477.60</ele>
        <time>2012-11-04T09:53:53Z</time>
      </trkpt>
      <trkpt lat="47.712616" lon="13.041933">
        <ele>477.60</ele>
        <time>2012-11-04T09:53:59Z</time>
      </trkpt>
      <trkpt lat="47.712345" lon="13.041728">
        <ele>477.60</ele>
        <time>2012-11-04T09:54:05Z</time>
      </trkpt>
      <trkpt lat="47.712006" lon="13.041429">
        <ele>477.60</ele>
        <time>2012-11-04T09:54:12Z</time>
      </trkpt>
      <trkpt lat="47.711758" lon="13.041154">
        <ele>477.60</ele>
        <time>2012-11-04T09:54:18Z</time>
      </trkpt>
      <trkpt lat="47.711712" lon="13.041105">
        <ele>477.60</ele>
        <time>2012-11-04T09:54:19Z</time>
      </trkpt>
      <trkpt lat="47.711395" lon="13.040697">
        <ele>477.60</ele>
        <time>2012-11-04T09:54:27Z</time>
      </trkpt>
      <trkpt lat="47.711319" lon="13.040598">
        <ele>478.00</ele>
        <time>2012-11-04T09:54:29Z</time>
      </trkpt>
      <trkpt lat="47.711285" lon="13.040545">
        <ele>478.40</ele>
        <time>2012-11-04T09:54:30Z</time>
      </trkpt>
      <trkpt lat="47.711250" lon="13.040493">
        <ele>478.80</ele>
        <time>2012-11-04T09:54:31Z</time>
      </trkpt>
      <trkpt lat="47.711212" lon="13.040447">
        <ele>479.20</ele>
        <time>2012-11-04T09:54:32Z</time>
      </trkpt>
      <trkpt lat="47.711174" lon="13.040401">
        <ele>479.60</ele>
        <time>2012-11-04T09:54:33Z</time>
      </trkpt>
      <trkpt lat="47.711136" lon="13.040353">
        <ele>479.60</ele>
        <time>2012-11-04T09:54:34Z</time>
      </trkpt>
      <trkpt lat="47.710857" lon="13.039954">
        <ele>479.60</ele>
        <time>2012-11-04T09:54:42Z</time>
      </trkpt>
      <trkpt lat="47.710651" lon="13.039650">
        <ele>479.60</ele>
        <time>2012-11-04T09:54:48Z</time>
      </trkpt>
      <trkpt lat="47.710358" lon="13.039250">
        <ele>479.60</ele>
        <time>2012-11-04T09:54:56Z</time>
      </trkpt>
      <trkpt lat="47.710197" lon="13.039091">
        <ele>479.60</ele>
        <time>2012-11-04T09:55:00Z</time>
      </trkpt>
      <trkpt lat="47.710064" lon="13.038983">
        <ele>479.60</ele>
        <time>2012-11-04T09:55:03Z</time>
      </trkpt>
      <trkpt lat="47.709839" lon="13.038827">
        <ele>480.00</ele>
        <time>2012-11-04T09:55:08Z</time>
      </trkpt>
      <trkpt lat="47.709793" lon="13.038797">
        <ele>480.40</ele>
        <time>2012-11-04T09:55:09Z</time>
      </trkpt>
      <trkpt lat="47.709747" lon="13.038770">
        <ele>480.80</ele>
        <time>2012-11-04T09:55:10Z</time>
      </trkpt>
      <trkpt lat="47.709702" lon="13.038743">
        <ele>481.20</ele>
        <time>2012-11-04T09:55:11Z</time>
      </trkpt>
      <trkpt lat="47.709652" lon="13.038723">
        <ele>481.60</ele>
        <time>2012-11-04T09:55:12Z</time>
      </trkpt>
      <trkpt lat="47.709362" lon="13.038611">
        <ele>481.60</ele>
        <time>2012-11-04T09:55:18Z</time>
      </trkpt>
      <trkpt lat="47.708969" lon="13.038563">
        <ele>481.60</ele>
        <time>2012-11-04T09:55:27Z</time>
      </trkpt>
      <trkpt lat="47.708557" lon="13.038619">
        <ele>481.60</ele>
        <time>2012-11-04T09:55:35Z</time>
      </trkpt>
      <trkpt lat="47.708168" lon="13.038743">
        <ele>481.60</ele>
        <time>2012-11-04T09:55:43Z</time>
      </trkpt>
      <trkpt lat="47.707817" lon="13.038849">
        <ele>481.60</ele>
        <time>2012-11-04T09:55:50Z</time>
      </trkpt>
      <trkpt lat="47.707283" lon="13.038953">
        <ele>481.60</ele>
        <time>2012-11-04T09:56:00Z</time>
      </trkpt>
      <trkpt lat="47.706783" lon="13.038975">
        <ele>481.60</ele>
        <time>2012-11-04T09:56:09Z</time>
      </trkpt>
      <trkpt lat="47.706326" lon="13.038927">
        <ele>481.60</ele>
        <time>2012-11-04T09:56:17Z</time>
      </trkpt>
      <trkpt lat="47.705910" lon="13.038826">
        <ele>481.60</ele>
        <time>2012-11-04T09:56:24Z</time>
      </trkpt>
      <trkpt lat="47.705456" lon="13.038685">
        <ele>481.60</ele>
        <time>2012-11-04T09:56:32Z</time>
      </trkpt>
      <trkpt lat="47.705181" lon="13.038603">
        <ele>481.60</ele>
        <time>2012-11-04T09:56:37Z</time>
      </trkpt>
      <trkpt lat="47.704739" lon="13.038477">
        <ele>481.60</ele>
        <time>2012-11-04T09:56:45Z</time>
      </trkpt>
      <trkpt lat="47.704296" lon="13.038410">
        <ele>481.60</ele>
        <time>2012-11-04T09:56:53Z</time>
      </trkpt>
      <trkpt lat="47.703941" lon="13.038395">
        <ele>481.60</ele>
        <time>2012-11-04T09:57:00Z</time>
      </trkpt>
      <trkpt lat="47.703892" lon="13.038397">
        <ele>481.60</ele>
        <time>2012-11-04T09:57:01Z</time>
      </trkpt>
      <trkpt lat="47.703648" lon="13.038420">
        <ele>481.60</ele>
        <time>2012-11-04T09:57:06Z</time>
      </trkpt>
      <trkpt lat="47.703499" lon="13.038451">
        <ele>481.60</ele>
        <time>2012-11-04T09:57:09Z</time>
      </trkpt>
      <trkpt lat="47.703407" lon="13.038467">
        <ele>482.00</ele>
        <time>2012-11-04T09:57:11Z</time>
      </trkpt>
      <trkpt lat="47.703362" lon="13.038478">
        <ele>482.40</ele>
        <time>2012-11-04T09:57:12Z</time>
      </trkpt>
      <trkpt lat="47.703316" lon="13.038488">
        <ele>483.00</ele>
        <time>2012-11-04T09:57:13Z</time>
      </trkpt>
      <trkpt lat="47.703266" lon="13.038493">
        <ele>483.40</ele>
        <time>2012-11-04T09:57:14Z</time>
      </trkpt>
      <trkpt lat="47.703217" lon="13.038504">
        <ele>483.80</ele>
        <time>2012-11-04T09:57:15Z</time>
      </trkpt>
      <trkpt lat="47.703167" lon="13.038518">
        <ele>483.80</ele>
        <time>2012-11-04T09:57:16Z</time>
      </trkpt>
      <trkpt lat="47.702835" lon="13.038584">
        <ele>483.80</ele>
        <time>2012-11-04T09:57:23Z</time>
      </trkpt>
      <trkpt lat="47.702549" lon="13.038717">
        <ele>483.80</ele>
        <time>2012-11-04T09:57:29Z</time>
      </trkpt>
      <trkpt lat="47.702461" lon="13.038782">
        <ele>483.80</ele>
        <time>2012-11-04T09:57:31Z</time>
      </trkpt>
      <trkpt lat="47.702347" lon="13.038915">
        <ele>483.80</ele>
        <time>2012-11-04T09:57:34Z</time>
      </trkpt>
      <trkpt lat="47.702278" lon="13.039021">
        <ele>483.80</ele>
        <time>2012-11-04T09:57:36Z</time>
      </trkpt>
      <trkpt lat="47.702160" lon="13.039248">
        <ele>483.80</ele>
        <time>2012-11-04T09:57:40Z</time>
      </trkpt>
      <trkpt lat="47.701908" lon="13.039798">
        <ele>483.80</ele>
        <time>2012-11-04T09:57:49Z</time>
      </trkpt>
      <trkpt lat="47.701683" lon="13.040292">
        <ele>483.80</ele>
        <time>2012-11-04T09:57:57Z</time>
      </trkpt>
      <trkpt lat="47.701492" lon="13.040832">
        <ele>483.80</ele>
        <time>2012-11-04T09:58:05Z</time>
      </trkpt>
      <trkpt lat="47.701401" lon="13.041356">
        <ele>483.80</ele>
        <time>2012-11-04T09:58:12Z</time>
      </trkpt>
      <trkpt lat="47.701385" lon="13.041429">
        <ele>483.80</ele>
        <time>2012-11-04T09:58:13Z</time>
      </trkpt>
      <trkpt lat="47.701366" lon="13.041497">
        <ele>484.20</ele>
        <time>2012-11-04T09:58:14Z</time>
      </trkpt>
      <trkpt lat="47.701351" lon="13.041566">
        <ele>484.60</ele>
        <time>2012-11-04T09:58:15Z</time>
      </trkpt>
      <trkpt lat="47.701332" lon="13.041631">
        <ele>485.00</ele>
        <time>2012-11-04T09:58:16Z</time>
      </trkpt>
      <trkpt lat="47.701313" lon="13.041692">
        <ele>485.40</ele>
        <time>2012-11-04T09:58:17Z</time>
      </trkpt>
      <trkpt lat="47.701290" lon="13.041753">
        <ele>485.80</ele>
        <time>2012-11-04T09:58:18Z</time>
      </trkpt>
      <trkpt lat="47.701267" lon="13.041813">
        <ele>485.80</ele>
        <time>2012-11-04T09:58:19Z</time>
      </trkpt>
      <trkpt lat="47.701241" lon="13.041866">
        <ele>485.80</ele>
        <time>2012-11-04T09:58:20Z</time>
      </trkpt>
      <trkpt lat="47.701103" lon="13.042055">
        <ele>485.80</ele>
        <time>2012-11-04T09:58:24Z</time>
      </trkpt>
      <trkpt lat="47.701004" lon="13.042187">
        <ele>486.20</ele>
        <time>2012-11-04T09:58:27Z</time>
      </trkpt>
      <trkpt lat="47.700974" lon="13.042230">
        <ele>486.60</ele>
        <time>2012-11-04T09:58:28Z</time>
      </trkpt>
      <trkpt lat="47.700939" lon="13.042274">
        <ele>487.00</ele>
        <time>2012-11-04T09:58:29Z</time>
      </trkpt>
      <trkpt lat="47.700905" lon="13.042324">
        <ele>487.40</ele>
        <time>2012-11-04T09:58:30Z</time>
      </trkpt>
      <trkpt lat="47.700871" lon="13.042377">
        <ele>487.80</ele>
        <time>2012-11-04T09:58:31Z</time>
      </trkpt>
      <trkpt lat="47.700665" lon="13.042754">
        <ele>487.80</ele>
        <time>2012-11-04T09:58:38Z</time>
      </trkpt>
      <trkpt lat="47.700634" lon="13.042802">
        <ele>487.80</ele>
        <time>2012-11-04T09:58:39Z</time>
      </trkpt>
      <trkpt lat="47.700432" lon="13.043050">
        <ele>487.80</ele>
        <time>2012-11-04T09:58:45Z</time>
      </trkpt>
      <trkpt lat="47.700390" lon="13.043079">
        <ele>487.80</ele>
        <time>2012-11-04T09:58:46Z</time>
      </trkpt>
      <trkpt lat="47.700348" lon="13.043108">
        <ele>488.20</ele>
        <time>2012-11-04T09:58:47Z</time>
      </trkpt>
      <trkpt lat="47.700306" lon="13.043131">
        <ele>488.60</ele>
        <time>2012-11-04T09:58:48Z</time>
      </trkpt>
      <trkpt lat="47.700260" lon="13.043152">
        <ele>489.40</ele>
        <time>2012-11-04T09:58:49Z</time>
      </trkpt>
      <trkpt lat="47.700222" lon="13.043170">
        <ele>490.00</ele>
        <time>2012-11-04T09:58:50Z</time>
      </trkpt>
      <trkpt lat="47.700134" lon="13.043197">
        <ele>490.00</ele>
        <time>2012-11-04T09:58:52Z</time>
      </trkpt>
      <trkpt lat="47.699814" lon="13.043200">
        <ele>490.00</ele>
        <time>2012-11-04T09:58:59Z</time>
      </trkpt>
      <trkpt lat="47.699432" lon="13.043136">
        <ele>490.00</ele>
        <time>2012-11-04T09:59:07Z</time>
      </trkpt>
      <trkpt lat="47.699059" lon="13.043098">
        <ele>490.00</ele>
        <time>2012-11-04T09:59:14Z</time>
      </trkpt>
      <trkpt lat="47.698956" lon="13.043112">
        <ele>490.00</ele>
        <time>2012-11-04T09:59:16Z</time>
      </trkpt>
      <trkpt lat="47.698677" lon="13.043185">
        <ele>490.00</ele>
        <time>2012-11-04T09:59:21Z</time>
      </trkpt>
      <trkpt lat="47.698471" lon="13.043348">
        <ele>490.00</ele>
        <time>2012-11-04T09:59:25Z</time>
      </trkpt>
      <trkpt lat="47.698299" lon="13.043557">
        <ele>490.00</ele>
        <time>2012-11-04T09:59:29Z</time>
      </trkpt>
      <trkpt lat="47.698219" lon="13.043677">
        <ele>490.00</ele>
        <time>2012-11-04T09:59:31Z</time>
      </trkpt>
      <trkpt lat="47.698185" lon="13.043741">
        <ele>490.00</ele>
        <time>2012-11-04T09:59:32Z</time>
      </trkpt>
      <trkpt lat="47.698051" lon="13.044065">
        <ele>490.00</ele>
        <time>2012-11-04T09:59:36Z</time>
      </trkpt>
      <trkpt lat="47.697906" lon="13.044586">
        <ele>490.00</ele>
        <time>2012-11-04T09:59:42Z</time>
      </trkpt>
      <trkpt lat="47.697842" lon="13.044829">
        <ele>490.00</ele>
        <time>2012-11-04T09:59:45Z</time>
      </trkpt>
      <trkpt lat="47.697758" lon="13.045158">
        <ele>490.00</ele>
        <time>2012-11-04T09:59:49Z</time>
      </trkpt>
      <trkpt lat="47.697575" lon="13.045687">
        <ele>490.00</ele>
        <time>2012-11-04T09:59:56Z</time>
      </trkpt>
      <trkpt lat="47.697319" lon="13.046141">
        <ele>490.00</ele>
        <time>2012-11-04T10:00:03Z</time>
      </trkpt>
      <trkpt lat="47.696999" lon="13.046479">
        <ele>490.00</ele>
        <time>2012-11-04T10:00:10Z</time>
      </trkpt>
      <trkpt lat="47.696636" lon="13.046765">
        <ele>490.00</ele>
        <time>2012-11-04T10:00:18Z</time>
      </trkpt>
      <trkpt lat="47.696323" lon="13.046947">
        <ele>490.00</ele>
        <time>2012-11-04T10:00:25Z</time>
      </trkpt>
      <trkpt lat="47.696140" lon="13.047000">
        <ele>490.00</ele>
        <time>2012-11-04T10:00:29Z</time>
      </trkpt>
      <trkpt lat="47.696003" lon="13.047013">
        <ele>490.00</ele>
        <time>2012-11-04T10:00:32Z</time>
      </trkpt>
      <trkpt lat="47.695908" lon="13.047008">
        <ele>490.00</ele>
        <time>2012-11-04T10:00:34Z</time>
      </trkpt>
      <trkpt lat="47.695667" lon="13.046946">
        <ele>490.00</ele>
        <time>2012-11-04T10:00:39Z</time>
      </trkpt>
      <trkpt lat="47.695446" lon="13.046799">
        <ele>490.00</ele>
        <time>2012-11-04T10:00:45Z</time>
      </trkpt>
      <trkpt lat="47.695400" lon="13.046716">
        <ele>490.00</ele>
        <time>2012-11-04T10:00:48Z</time>
      </trkpt>
      <trkpt lat="47.695393" lon="13.046691">
        <ele>490.00</ele>
        <time>2012-11-04T10:00:49Z</time>
      </trkpt>
      <trkpt lat="47.695393" lon="13.046652">
        <ele>490.00</ele>
        <time>2012-11-04T10:00:54Z</time>
      </trkpt>
      <trkpt lat="47.695415" lon="13.046637">
        <ele>490.00</ele>
        <time>2012-11-04T10:01:02Z</time>
      </trkpt>
      <trkpt lat="47.695435" lon="13.046633">
        <ele>490.00</ele>
        <time>2012-11-04T10:01:03Z</time>
      </trkpt>
      <trkpt lat="47.695499" lon="13.046622">
        <ele>490.00</ele>
        <time>2012-11-04T10:01:06Z</time>
      </trkpt>
      <trkpt lat="47.695515" lon="13.046617">
        <ele>490.00</ele>
        <time>2012-11-04T10:01:07Z</time>
      </trkpt>
      <trkpt lat="47.695530" lon="13.046614">
        <ele>490.00</ele>
        <time>2012-11-04T10:01:08Z</time>
      </trkpt>
      <trkpt lat="47.695621" lon="13.046626">
        <ele>490.00</ele>
        <time>2012-11-04T10:01:12Z</time>
      </trkpt>
      <trkpt lat="47.695740" lon="13.046603">
        <ele>490.00</ele>
        <time>2012-11-04T10:01:16Z</time>
      </trkpt>
      <trkpt lat="47.695763" lon="13.046606">
        <ele>490.00</ele>
        <time>2012-11-04T10:01:17Z</time>
      </trkpt>
      <trkpt lat="47.695789" lon="13.046614">
        <ele>490.00</ele>
        <time>2012-11-04T10:01:21Z</time>
      </trkpt>
      <trkpt lat="47.695755" lon="13.046573">
        <ele>490.00</ele>
        <time>2012-11-04T10:01:27Z</time>
      </trkpt>
      <trkpt lat="47.695747" lon="13.046587">
        <ele>490.00</ele>
        <time>2012-11-04T10:01:33Z</time>
      </trkpt>
      <trkpt lat="47.695717" lon="13.046592">
        <ele>490.00</ele>
        <time>2012-11-04T10:01:35Z</time>
      </trkpt>
      <trkpt lat="47.695667" lon="13.046622">
        <ele>490.00</ele>
        <time>2012-11-04T10:01:38Z</time>
      </trkpt>
      <trkpt lat="47.695518" lon="13.046663">
        <ele>490.00</ele>
        <time>2012-11-04T10:01:44Z</time>
      </trkpt>
      <trkpt lat="47.695484" lon="13.046675">
        <ele>490.00</ele>
        <time>2012-11-04T10:01:45Z</time>
      </trkpt>
      <trkpt lat="47.695301" lon="13.046656">
        <ele>490.00</ele>
        <time>2012-11-04T10:01:50Z</time>
      </trkpt>
      <trkpt lat="47.695271" lon="13.046633">
        <ele>490.40</ele>
        <time>2012-11-04T10:01:51Z</time>
      </trkpt>
      <trkpt lat="47.695236" lon="13.046612">
        <ele>490.80</ele>
        <time>2012-11-04T10:01:52Z</time>
      </trkpt>
      <trkpt lat="47.695210" lon="13.046595">
        <ele>491.20</ele>
        <time>2012-11-04T10:01:53Z</time>
      </trkpt>
      <trkpt lat="47.695179" lon="13.046569">
        <ele>491.60</ele>
        <time>2012-11-04T10:01:54Z</time>
      </trkpt>
      <trkpt lat="47.695148" lon="13.046539">
        <ele>492.00</ele>
        <time>2012-11-04T10:01:55Z</time>
      </trkpt>
      <trkpt lat="47.695114" lon="13.046512">
        <ele>492.00</ele>
        <time>2012-11-04T10:01:56Z</time>
      </trkpt>
      <trkpt lat="47.695007" lon="13.046432">
        <ele>492.00</ele>
        <time>2012-11-04T10:01:59Z</time>
      </trkpt>
      <trkpt lat="47.694901" lon="13.046374">
        <ele>492.00</ele>
        <time>2012-11-04T10:02:02Z</time>
      </trkpt>
      <trkpt lat="47.694595" lon="13.046280">
        <ele>492.00</ele>
        <time>2012-11-04T10:02:09Z</time>
      </trkpt>
      <trkpt lat="47.694252" lon="13.046286">
        <ele>492.00</ele>
        <time>2012-11-04T10:02:17Z</time>
      </trkpt>
      <trkpt lat="47.693924" lon="13.046383">
        <ele>492.00</ele>
        <time>2012-11-04T10:02:24Z</time>
      </trkpt>
      <trkpt lat="47.693588" lon="13.046529">
        <ele>492.00</ele>
        <time>2012-11-04T10:02:31Z</time>
      </trkpt>
      <trkpt lat="47.693501" lon="13.046566">
        <ele>492.00</ele>
        <time>2012-11-04T10:02:33Z</time>
      </trkpt>
      <trkpt lat="47.693417" lon="13.046583">
        <ele>492.00</ele>
        <time>2012-11-04T10:02:35Z</time>
      </trkpt>
      <trkpt lat="47.693283" lon="13.046591">
        <ele>492.00</ele>
        <time>2012-11-04T10:02:38Z</time>
      </trkpt>
      <trkpt lat="47.693024" lon="13.046524">
        <ele>492.00</ele>
        <time>2012-11-04T10:02:44Z</time>
      </trkpt>
      <trkpt lat="47.692707" lon="13.046387">
        <ele>492.00</ele>
        <time>2012-11-04T10:02:51Z</time>
      </trkpt>
      <trkpt lat="47.692486" lon="13.046294">
        <ele>492.00</ele>
        <time>2012-11-04T10:02:56Z</time>
      </trkpt>
      <trkpt lat="47.692356" lon="13.046241">
        <ele>492.40</ele>
        <time>2012-11-04T10:02:59Z</time>
      </trkpt>
      <trkpt lat="47.692318" lon="13.046226">
        <ele>492.80</ele>
        <time>2012-11-04T10:03:00Z</time>
      </trkpt>
      <trkpt lat="47.692272" lon="13.046212">
        <ele>493.20</ele>
        <time>2012-11-04T10:03:01Z</time>
      </trkpt>
      <trkpt lat="47.692230" lon="13.046201">
        <ele>493.60</ele>
        <time>2012-11-04T10:03:02Z</time>
      </trkpt>
      <trkpt lat="47.692184" lon="13.046188">
        <ele>494.00</ele>
        <time>2012-11-04T10:03:03Z</time>
      </trkpt>
      <trkpt lat="47.691959" lon="13.046144">
        <ele>494.00</ele>
        <time>2012-11-04T10:03:08Z</time>
      </trkpt>
      <trkpt lat="47.691868" lon="13.046147">
        <ele>494.00</ele>
        <time>2012-11-04T10:03:10Z</time>
      </trkpt>
      <trkpt lat="47.691441" lon="13.046203">
        <ele>494.00</ele>
        <time>2012-11-04T10:03:19Z</time>
      </trkpt>
      <trkpt lat="47.691128" lon="13.046318">
        <ele>494.00</ele>
        <time>2012-11-04T10:03:26Z</time>
      </trkpt>
      <trkpt lat="47.690857" lon="13.046477">
        <ele>494.00</ele>
        <time>2012-11-04T10:03:32Z</time>
      </trkpt>
      <trkpt lat="47.690540" lon="13.046669">
        <ele>494.00</ele>
        <time>2012-11-04T10:03:39Z</time>
      </trkpt>
      <trkpt lat="47.690147" lon="13.046857">
        <ele>494.00</ele>
        <time>2012-11-04T10:03:47Z</time>
      </trkpt>
      <trkpt lat="47.689861" lon="13.046966">
        <ele>494.00</ele>
        <time>2012-11-04T10:03:53Z</time>
      </trkpt>
      <trkpt lat="47.689774" lon="13.047000">
        <ele>494.00</ele>
        <time>2012-11-04T10:03:55Z</time>
      </trkpt>
      <trkpt lat="47.689407" lon="13.047077">
        <ele>494.00</ele>
        <time>2012-11-04T10:04:03Z</time>
      </trkpt>
      <trkpt lat="47.688995" lon="13.047074">
        <ele>494.00</ele>
        <time>2012-11-04T10:04:12Z</time>
      </trkpt>
      <trkpt lat="47.688625" lon="13.046989">
        <ele>494.00</ele>
        <time>2012-11-04T10:04:20Z</time>
      </trkpt>
      <trkpt lat="47.688316" lon="13.046841">
        <ele>494.00</ele>
        <time>2012-11-04T10:04:27Z</time>
      </trkpt>
      <trkpt lat="47.688274" lon="13.046816">
        <ele>494.00</ele>
        <time>2012-11-04T10:04:28Z</time>
      </trkpt>
      <trkpt lat="47.688053" lon="13.046682">
        <ele>494.00</ele>
        <time>2012-11-04T10:04:33Z</time>
      </trkpt>
      <trkpt lat="47.687973" lon="13.046631">
        <ele>494.40</ele>
        <time>2012-11-04T10:04:35Z</time>
      </trkpt>
      <trkpt lat="47.687927" lon="13.046607">
        <ele>494.80</ele>
        <time>2012-11-04T10:04:36Z</time>
      </trkpt>
      <trkpt lat="47.687885" lon="13.046581">
        <ele>495.20</ele>
        <time>2012-11-04T10:04:37Z</time>
      </trkpt>
      <trkpt lat="47.687847" lon="13.046556">
        <ele>495.60</ele>
        <time>2012-11-04T10:04:38Z</time>
      </trkpt>
      <trkpt lat="47.687809" lon="13.046531">
        <ele>496.00</ele>
        <time>2012-11-04T10:04:39Z</time>
      </trkpt>
      <trkpt lat="47.687771" lon="13.046505">
        <ele>496.00</ele>
        <time>2012-11-04T10:04:40Z</time>
      </trkpt>
      <trkpt lat="47.687481" lon="13.046329">
        <ele>496.00</ele>
        <time>2012-11-04T10:04:47Z</time>
      </trkpt>
      <trkpt lat="47.687397" lon="13.046268">
        <ele>496.00</ele>
        <time>2012-11-04T10:04:49Z</time>
      </trkpt>
      <trkpt lat="47.687237" lon="13.046183">
        <ele>496.00</ele>
        <time>2012-11-04T10:04:53Z</time>
      </trkpt>
      <trkpt lat="47.686962" lon="13.046046">
        <ele>496.00</ele>
        <time>2012-11-04T10:04:59Z</time>
      </trkpt>
      <trkpt lat="47.686550" lon="13.045923">
        <ele>496.00</ele>
        <time>2012-11-04T10:05:08Z</time>
      </trkpt>
      <trkpt lat="47.686272" lon="13.045851">
        <ele>496.00</ele>
        <time>2012-11-04T10:05:14Z</time>
      </trkpt>
      <trkpt lat="47.686180" lon="13.045836">
        <ele>496.40</ele>
        <time>2012-11-04T10:05:16Z</time>
      </trkpt>
      <trkpt lat="47.686134" lon="13.045835">
        <ele>496.80</ele>
        <time>2012-11-04T10:05:17Z</time>
      </trkpt>
      <trkpt lat="47.686089" lon="13.045833">
        <ele>497.20</ele>
        <time>2012-11-04T10:05:18Z</time>
      </trkpt>
      <trkpt lat="47.686043" lon="13.045830">
        <ele>497.60</ele>
        <time>2012-11-04T10:05:19Z</time>
      </trkpt>
      <trkpt lat="47.685997" lon="13.045826">
        <ele>498.00</ele>
        <time>2012-11-04T10:05:20Z</time>
      </trkpt>
      <trkpt lat="47.685867" lon="13.045828">
        <ele>498.00</ele>
        <time>2012-11-04T10:05:23Z</time>
      </trkpt>
      <trkpt lat="47.685543" lon="13.045860">
        <ele>498.00</ele>
        <time>2012-11-04T10:05:30Z</time>
      </trkpt>
      <trkpt lat="47.685230" lon="13.045955">
        <ele>498.00</ele>
        <time>2012-11-04T10:05:37Z</time>
      </trkpt>
      <trkpt lat="47.684795" lon="13.046124">
        <ele>498.00</ele>
        <time>2012-11-04T10:05:46Z</time>
      </trkpt>
      <trkpt lat="47.684547" lon="13.046225">
        <ele>498.00</ele>
        <time>2012-11-04T10:05:51Z</time>
      </trkpt>
      <trkpt lat="47.684212" lon="13.046240">
        <ele>498.00</ele>
        <time>2012-11-04T10:05:57Z</time>
      </trkpt>
      <trkpt lat="47.683884" lon="13.046171">
        <ele>498.00</ele>
        <time>2012-11-04T10:06:04Z</time>
      </trkpt>
      <trkpt lat="47.683659" lon="13.046081">
        <ele>498.00</ele>
        <time>2012-11-04T10:06:09Z</time>
      </trkpt>
      <trkpt lat="47.683567" lon="13.046035">
        <ele>498.00</ele>
        <time>2012-11-04T10:06:11Z</time>
      </trkpt>
      <trkpt lat="47.683262" lon="13.045820">
        <ele>498.00</ele>
        <time>2012-11-04T10:06:18Z</time>
      </trkpt>
      <trkpt lat="47.683029" lon="13.045590">
        <ele>498.00</ele>
        <time>2012-11-04T10:06:24Z</time>
      </trkpt>
      <trkpt lat="47.682762" lon="13.045314">
        <ele>498.00</ele>
        <time>2012-11-04T10:06:31Z</time>
      </trkpt>
      <trkpt lat="47.682724" lon="13.045274">
        <ele>498.00</ele>
        <time>2012-11-04T10:06:32Z</time>
      </trkpt>
      <trkpt lat="47.682461" lon="13.044990">
        <ele>498.00</ele>
        <time>2012-11-04T10:06:39Z</time>
      </trkpt>
      <trkpt lat="47.682228" lon="13.044737">
        <ele>498.00</ele>
        <time>2012-11-04T10:06:45Z</time>
      </trkpt>
      <trkpt lat="47.682117" lon="13.044614">
        <ele>498.40</ele>
        <time>2012-11-04T10:06:48Z</time>
      </trkpt>
      <trkpt lat="47.682083" lon="13.044575">
        <ele>498.80</ele>
        <time>2012-11-04T10:06:49Z</time>
      </trkpt>
      <trkpt lat="47.682045" lon="13.044532">
        <ele>499.20</ele>
        <time>2012-11-04T10:06:50Z</time>
      </trkpt>
      <trkpt lat="47.682007" lon="13.044492">
        <ele>499.80</ele>
        <time>2012-11-04T10:06:51Z</time>
      </trkpt>
      <trkpt lat="47.681973" lon="13.044453">
        <ele>500.20</ele>
        <time>2012-11-04T10:06:52Z</time>
      </trkpt>
      <trkpt lat="47.681934" lon="13.044410">
        <ele>500.20</ele>
        <time>2012-11-04T10:06:53Z</time>
      </trkpt>
      <trkpt lat="47.681641" lon="13.044101">
        <ele>500.20</ele>
        <time>2012-11-04T10:07:01Z</time>
      </trkpt>
      <trkpt lat="47.681381" lon="13.043810">
        <ele>500.20</ele>
        <time>2012-11-04T10:07:08Z</time>
      </trkpt>
      <trkpt lat="47.681339" lon="13.043771">
        <ele>500.20</ele>
        <time>2012-11-04T10:07:09Z</time>
      </trkpt>
      <trkpt lat="47.681263" lon="13.043697">
        <ele>500.20</ele>
        <time>2012-11-04T10:07:11Z</time>
      </trkpt>
      <trkpt lat="47.681084" lon="13.043489">
        <ele>500.20</ele>
        <time>2012-11-04T10:07:16Z</time>
      </trkpt>
      <trkpt lat="47.680855" lon="13.043238">
        <ele>500.20</ele>
        <time>2012-11-04T10:07:22Z</time>
      </trkpt>
      <trkpt lat="47.680561" lon="13.042904">
        <ele>500.20</ele>
        <time>2012-11-04T10:07:30Z</time>
      </trkpt>
      <trkpt lat="47.680260" lon="13.042562">
        <ele>500.20</ele>
        <time>2012-11-04T10:07:38Z</time>
      </trkpt>
      <trkpt lat="47.679966" lon="13.042228">
        <ele>500.20</ele>
        <time>2012-11-04T10:07:46Z</time>
      </trkpt>
      <trkpt lat="47.679855" lon="13.042098">
        <ele>500.60</ele>
        <time>2012-11-04T10:07:49Z</time>
      </trkpt>
      <trkpt lat="47.679817" lon="13.042058">
        <ele>501.00</ele>
        <time>2012-11-04T10:07:50Z</time>
      </trkpt>
      <trkpt lat="47.679779" lon="13.042015">
        <ele>501.40</ele>
        <time>2012-11-04T10:07:51Z</time>
      </trkpt>
      <trkpt lat="47.679749" lon="13.041977">
        <ele>502.20</ele>
        <time>2012-11-04T10:07:52Z</time>
      </trkpt>
      <trkpt lat="47.679714" lon="13.041934">
        <ele>502.20</ele>
        <time>2012-11-04T10:07:53Z</time>
      </trkpt>
      <trkpt lat="47.679489" lon="13.041683">
        <ele>502.20</ele>
        <time>2012-11-04T10:07:59Z</time>
      </trkpt>
      <trkpt lat="47.679260" lon="13.041431">
        <ele>502.20</ele>
        <time>2012-11-04T10:08:05Z</time>
      </trkpt>
      <trkpt lat="47.678963" lon="13.041090">
        <ele>502.20</ele>
        <time>2012-11-04T10:08:13Z</time>
      </trkpt>
      <trkpt lat="47.678680" lon="13.040787">
        <ele>502.20</ele>
        <time>2012-11-04T10:08:20Z</time>
      </trkpt>
      <trkpt lat="47.678417" lon="13.040480">
        <ele>502.20</ele>
        <time>2012-11-04T10:08:27Z</time>
      </trkpt>
      <trkpt lat="47.678162" lon="13.040198">
        <ele>502.20</ele>
        <time>2012-11-04T10:08:34Z</time>
      </trkpt>
      <trkpt lat="47.677876" lon="13.039882">
        <ele>502.20</ele>
        <time>2012-11-04T10:08:42Z</time>
      </trkpt>
      <trkpt lat="47.677620" lon="13.039602">
        <ele>502.20</ele>
        <time>2012-11-04T10:08:49Z</time>
      </trkpt>
      <trkpt lat="47.677319" lon="13.039292">
        <ele>502.20</ele>
        <time>2012-11-04T10:08:57Z</time>
      </trkpt>
      <trkpt lat="47.677280" lon="13.039257">
        <ele>502.60</ele>
        <time>2012-11-04T10:08:58Z</time>
      </trkpt>
      <trkpt lat="47.677238" lon="13.039220">
        <ele>503.00</ele>
        <time>2012-11-04T10:08:59Z</time>
      </trkpt>
      <trkpt lat="47.677197" lon="13.039186">
        <ele>503.40</ele>
        <time>2012-11-04T10:09:00Z</time>
      </trkpt>
      <trkpt lat="47.677155" lon="13.039152">
        <ele>503.80</ele>
        <time>2012-11-04T10:09:01Z</time>
      </trkpt>
      <trkpt lat="47.677116" lon="13.039115">
        <ele>504.20</ele>
        <time>2012-11-04T10:09:02Z</time>
      </trkpt>
      <trkpt lat="47.676994" lon="13.039007">
        <ele>504.20</ele>
        <time>2012-11-04T10:09:05Z</time>
      </trkpt>
      <trkpt lat="47.676712" lon="13.038774">
        <ele>504.20</ele>
        <time>2012-11-04T10:09:12Z</time>
      </trkpt>
      <trkpt lat="47.676376" lon="13.038554">
        <ele>504.20</ele>
        <time>2012-11-04T10:09:20Z</time>
      </trkpt>
      <trkpt lat="47.676029" lon="13.038359">
        <ele>504.20</ele>
        <time>2012-11-04T10:09:28Z</time>
      </trkpt>
      <trkpt lat="47.675903" lon="13.038279">
        <ele>504.20</ele>
        <time>2012-11-04T10:09:31Z</time>
      </trkpt>
      <trkpt lat="47.675812" lon="13.038229">
        <ele>504.20</ele>
        <time>2012-11-04T10:09:33Z</time>
      </trkpt>
      <trkpt lat="47.675461" lon="13.038051">
        <ele>504.20</ele>
        <time>2012-11-04T10:09:41Z</time>
      </trkpt>
      <trkpt lat="47.675144" lon="13.037895">
        <ele>504.20</ele>
        <time>2012-11-04T10:09:48Z</time>
      </trkpt>
      <trkpt lat="47.674828" lon="13.037749">
        <ele>504.20</ele>
        <time>2012-11-04T10:09:55Z</time>
      </trkpt>
      <trkpt lat="47.674515" lon="13.037593">
        <ele>504.20</ele>
        <time>2012-11-04T10:10:02Z</time>
      </trkpt>
      <trkpt lat="47.674141" lon="13.037415">
        <ele>504.20</ele>
        <time>2012-11-04T10:10:10Z</time>
      </trkpt>
      <trkpt lat="47.673779" lon="13.037232">
        <ele>504.20</ele>
        <time>2012-11-04T10:10:18Z</time>
      </trkpt>
      <trkpt lat="47.673481" lon="13.037086">
        <ele>504.20</ele>
        <time>2012-11-04T10:10:25Z</time>
      </trkpt>
      <trkpt lat="47.673351" lon="13.037023">
        <ele>504.20</ele>
        <time>2012-11-04T10:10:28Z</time>
      </trkpt>
      <trkpt lat="47.673038" lon="13.036876">
        <ele>504.20</ele>
        <time>2012-11-04T10:10:35Z</time>
      </trkpt>
      <trkpt lat="47.672951" lon="13.036825">
        <ele>504.20</ele>
        <time>2012-11-04T10:10:37Z</time>
      </trkpt>
      <trkpt lat="47.672737" lon="13.036707">
        <ele>504.20</ele>
        <time>2012-11-04T10:10:42Z</time>
      </trkpt>
      <trkpt lat="47.672607" lon="13.036633">
        <ele>504.60</ele>
        <time>2012-11-04T10:10:45Z</time>
      </trkpt>
      <trkpt lat="47.672565" lon="13.036611">
        <ele>505.00</ele>
        <time>2012-11-04T10:10:46Z</time>
      </trkpt>
      <trkpt lat="47.672520" lon="13.036587">
        <ele>505.40</ele>
        <time>2012-11-04T10:10:47Z</time>
      </trkpt>
      <trkpt lat="47.672482" lon="13.036563">
        <ele>506.00</ele>
        <time>2012-11-04T10:10:48Z</time>
      </trkpt>
      <trkpt lat="47.672440" lon="13.036538">
        <ele>506.40</ele>
        <time>2012-11-04T10:10:49Z</time>
      </trkpt>
      <trkpt lat="47.672077" lon="13.036314">
        <ele>506.40</ele>
        <time>2012-11-04T10:10:58Z</time>
      </trkpt>
      <trkpt lat="47.671833" lon="13.036173">
        <ele>506.40</ele>
        <time>2012-11-04T10:11:04Z</time>
      </trkpt>
      <trkpt lat="47.671673" lon="13.036082">
        <ele>506.80</ele>
        <time>2012-11-04T10:11:08Z</time>
      </trkpt>
      <trkpt lat="47.671635" lon="13.036056">
        <ele>507.60</ele>
        <time>2012-11-04T10:11:09Z</time>
      </trkpt>
      <trkpt lat="47.671597" lon="13.036028">
        <ele>508.00</ele>
        <time>2012-11-04T10:11:10Z</time>
      </trkpt>
      <trkpt lat="47.671566" lon="13.036003">
        <ele>508.40</ele>
        <time>2012-11-04T10:11:11Z</time>
      </trkpt>
      <trkpt lat="47.671303" lon="13.035845">
        <ele>508.40</ele>
        <time>2012-11-04T10:11:18Z</time>
      </trkpt>
      <trkpt lat="47.671093" lon="13.035710">
        <ele>508.80</ele>
        <time>2012-11-04T10:11:24Z</time>
      </trkpt>
      <trkpt lat="47.671051" lon="13.035686">
        <ele>509.20</ele>
        <time>2012-11-04T10:11:25Z</time>
      </trkpt>
      <trkpt lat="47.671013" lon="13.035664">
        <ele>509.60</ele>
        <time>2012-11-04T10:11:26Z</time>
      </trkpt>
      <trkpt lat="47.670975" lon="13.035646">
        <ele>510.00</ele>
        <time>2012-11-04T10:11:27Z</time>
      </trkpt>
      <trkpt lat="47.670944" lon="13.035624">
        <ele>510.40</ele>
        <time>2012-11-04T10:11:28Z</time>
      </trkpt>
      <trkpt lat="47.670753" lon="13.035517">
        <ele>510.40</ele>
        <time>2012-11-04T10:11:33Z</time>
      </trkpt>
      <trkpt lat="47.670540" lon="13.035397">
        <ele>510.40</ele>
        <time>2012-11-04T10:11:38Z</time>
      </trkpt>
      <trkpt lat="47.670467" lon="13.035363">
        <ele>510.40</ele>
        <time>2012-11-04T10:11:40Z</time>
      </trkpt>
      <trkpt lat="47.670353" lon="13.035333">
        <ele>510.80</ele>
        <time>2012-11-04T10:11:43Z</time>
      </trkpt>
      <trkpt lat="47.670315" lon="13.035316">
        <ele>511.20</ele>
        <time>2012-11-04T10:11:44Z</time>
      </trkpt>
      <trkpt lat="47.670269" lon="13.035298">
        <ele>511.60</ele>
        <time>2012-11-04T10:11:45Z</time>
      </trkpt>
      <trkpt lat="47.670231" lon="13.035284">
        <ele>512.00</ele>
        <time>2012-11-04T10:11:46Z</time>
      </trkpt>
      <trkpt lat="47.670193" lon="13.035271">
        <ele>512.40</ele>
        <time>2012-11-04T10:11:47Z</time>
      </trkpt>
      <trkpt lat="47.669891" lon="13.035206">
        <ele>512.40</ele>
        <time>2012-11-04T10:11:55Z</time>
      </trkpt>
      <trkpt lat="47.669693" lon="13.035191">
        <ele>512.40</ele>
        <time>2012-11-04T10:12:01Z</time>
      </trkpt>
      <trkpt lat="47.669430" lon="13.035169">
        <ele>512.40</ele>
        <time>2012-11-04T10:12:08Z</time>
      </trkpt>
      <trkpt lat="47.669350" lon="13.035162">
        <ele>512.80</ele>
        <time>2012-11-04T10:12:10Z</time>
      </trkpt>
      <trkpt lat="47.669312" lon="13.035160">
        <ele>513.20</ele>
        <time>2012-11-04T10:12:11Z</time>
      </trkpt>
      <trkpt lat="47.669266" lon="13.035159">
        <ele>513.60</ele>
        <time>2012-11-04T10:12:12Z</time>
      </trkpt>
      <trkpt lat="47.669228" lon="13.035157">
        <ele>514.00</ele>
        <time>2012-11-04T10:12:13Z</time>
      </trkpt>
      <trkpt lat="47.669189" lon="13.035150">
        <ele>514.40</ele>
        <time>2012-11-04T10:12:14Z</time>
      </trkpt>
      <trkpt lat="47.669006" lon="13.035111">
        <ele>514.40</ele>
        <time>2012-11-04T10:12:19Z</time>
      </trkpt>
      <trkpt lat="47.668694" lon="13.035128">
        <ele>514.40</ele>
        <time>2012-11-04T10:12:25Z</time>
      </trkpt>
      <trkpt lat="47.668358" lon="13.035088">
        <ele>514.40</ele>
        <time>2012-11-04T10:12:32Z</time>
      </trkpt>
      <trkpt lat="47.668018" lon="13.035031">
        <ele>514.40</ele>
        <time>2012-11-04T10:12:39Z</time>
      </trkpt>
      <trkpt lat="47.667690" lon="13.034993">
        <ele>514.40</ele>
        <time>2012-11-04T10:12:46Z</time>
      </trkpt>
      <trkpt lat="47.667393" lon="13.034963">
        <ele>514.40</ele>
        <time>2012-11-04T10:12:53Z</time>
      </trkpt>
      <trkpt lat="47.667030" lon="13.034912">
        <ele>514.40</ele>
        <time>2012-11-04T10:13:01Z</time>
      </trkpt>
      <trkpt lat="47.666634" lon="13.034866">
        <ele>514.40</ele>
        <time>2012-11-04T10:13:10Z</time>
      </trkpt>
      <trkpt lat="47.666344" lon="13.034834">
        <ele>514.40</ele>
        <time>2012-11-04T10:13:17Z</time>
      </trkpt>
      <trkpt lat="47.666031" lon="13.034787">
        <ele>514.40</ele>
        <time>2012-11-04T10:13:24Z</time>
      </trkpt>
      <trkpt lat="47.665894" lon="13.034762">
        <ele>514.40</ele>
        <time>2012-11-04T10:13:27Z</time>
      </trkpt>
      <trkpt lat="47.665771" lon="13.034742">
        <ele>514.40</ele>
        <time>2012-11-04T10:13:30Z</time>
      </trkpt>
      <trkpt lat="47.665401" lon="13.034716">
        <ele>514.40</ele>
        <time>2012-11-04T10:13:39Z</time>
      </trkpt>
      <trkpt lat="47.665108" lon="13.034743">
        <ele>514.40</ele>
        <time>2012-11-04T10:13:46Z</time>
      </trkpt>
      <trkpt lat="47.664780" lon="13.034877">
        <ele>514.40</ele>
        <time>2012-11-04T10:13:54Z</time>
      </trkpt>
      <trkpt lat="47.664688" lon="13.034922">
        <ele>514.40</ele>
        <time>2012-11-04T10:13:56Z</time>
      </trkpt>
      <trkpt lat="47.664478" lon="13.035066">
        <ele>514.40</ele>
        <time>2012-11-04T10:14:01Z</time>
      </trkpt>
      <trkpt lat="47.664211" lon="13.035255">
        <ele>514.40</ele>
        <time>2012-11-04T10:14:07Z</time>
      </trkpt>
      <trkpt lat="47.663914" lon="13.035493">
        <ele>514.40</ele>
        <time>2012-11-04T10:14:14Z</time>
      </trkpt>
      <trkpt lat="47.663631" lon="13.035780">
        <ele>514.40</ele>
        <time>2012-11-04T10:14:22Z</time>
      </trkpt>
      <trkpt lat="47.663383" lon="13.035999">
        <ele>514.40</ele>
        <time>2012-11-04T10:14:29Z</time>
      </trkpt>
      <trkpt lat="47.663120" lon="13.036231">
        <ele>514.40</ele>
        <time>2012-11-04T10:14:36Z</time>
      </trkpt>
      <trkpt lat="47.662804" lon="13.036486">
        <ele>514.40</ele>
        <time>2012-11-04T10:14:44Z</time>
      </trkpt>
      <trkpt lat="47.662521" lon="13.036663">
        <ele>514.40</ele>
        <time>2012-11-04T10:14:51Z</time>
      </trkpt>
      <trkpt lat="47.662220" lon="13.036782">
        <ele>514.80</ele>
        <time>2012-11-04T10:14:58Z</time>
      </trkpt>
      <trkpt lat="47.662170" lon="13.036789">
        <ele>515.20</ele>
        <time>2012-11-04T10:14:59Z</time>
      </trkpt>
      <trkpt lat="47.662128" lon="13.036801">
        <ele>515.60</ele>
        <time>2012-11-04T10:15:00Z</time>
      </trkpt>
      <trkpt lat="47.662086" lon="13.036811">
        <ele>516.00</ele>
        <time>2012-11-04T10:15:01Z</time>
      </trkpt>
      <trkpt lat="47.662041" lon="13.036823">
        <ele>516.40</ele>
        <time>2012-11-04T10:15:02Z</time>
      </trkpt>
      <trkpt lat="47.661999" lon="13.036838">
        <ele>516.40</ele>
        <time>2012-11-04T10:15:03Z</time>
      </trkpt>
      <trkpt lat="47.661652" lon="13.036921">
        <ele>516.40</ele>
        <time>2012-11-04T10:15:11Z</time>
      </trkpt>
      <trkpt lat="47.661312" lon="13.036983">
        <ele>516.40</ele>
        <time>2012-11-04T10:15:19Z</time>
      </trkpt>
      <trkpt lat="47.660984" lon="13.037047">
        <ele>516.40</ele>
        <time>2012-11-04T10:15:27Z</time>
      </trkpt>
      <trkpt lat="47.660683" lon="13.037101">
        <ele>516.40</ele>
        <time>2012-11-04T10:15:34Z</time>
      </trkpt>
      <trkpt lat="47.660397" lon="13.037163">
        <ele>516.40</ele>
        <time>2012-11-04T10:15:41Z</time>
      </trkpt>
      <trkpt lat="47.660030" lon="13.037228">
        <ele>516.80</ele>
        <time>2012-11-04T10:15:50Z</time>
      </trkpt>
      <trkpt lat="47.659992" lon="13.037236">
        <ele>517.20</ele>
        <time>2012-11-04T10:15:51Z</time>
      </trkpt>
      <trkpt lat="47.659950" lon="13.037239">
        <ele>517.80</ele>
        <time>2012-11-04T10:15:52Z</time>
      </trkpt>
      <trkpt lat="47.659904" lon="13.037240">
        <ele>518.20</ele>
        <time>2012-11-04T10:15:53Z</time>
      </trkpt>
      <trkpt lat="47.659863" lon="13.037249">
        <ele>518.60</ele>
        <time>2012-11-04T10:15:54Z</time>
      </trkpt>
      <trkpt lat="47.659698" lon="13.037300">
        <ele>518.60</ele>
        <time>2012-11-04T10:15:58Z</time>
      </trkpt>
      <trkpt lat="47.659374" lon="13.037423">
        <ele>518.60</ele>
        <time>2012-11-04T10:16:06Z</time>
      </trkpt>
      <trkpt lat="47.659092" lon="13.037573">
        <ele>518.60</ele>
        <time>2012-11-04T10:16:13Z</time>
      </trkpt>
      <trkpt lat="47.659016" lon="13.037622">
        <ele>518.60</ele>
        <time>2012-11-04T10:16:15Z</time>
      </trkpt>
      <trkpt lat="47.658981" lon="13.037654">
        <ele>518.60</ele>
        <time>2012-11-04T10:16:16Z</time>
      </trkpt>
      <trkpt lat="47.658947" lon="13.037688">
        <ele>519.00</ele>
        <time>2012-11-04T10:16:17Z</time>
      </trkpt>
      <trkpt lat="47.658909" lon="13.037715">
        <ele>519.40</ele>
        <time>2012-11-04T10:16:18Z</time>
      </trkpt>
      <trkpt lat="47.658871" lon="13.037744">
        <ele>519.80</ele>
        <time>2012-11-04T10:16:19Z</time>
      </trkpt>
      <trkpt lat="47.658833" lon="13.037777">
        <ele>520.20</ele>
        <time>2012-11-04T10:16:20Z</time>
      </trkpt>
      <trkpt lat="47.658798" lon="13.037811">
        <ele>520.60</ele>
        <time>2012-11-04T10:16:21Z</time>
      </trkpt>
      <trkpt lat="47.658768" lon="13.037847">
        <ele>520.60</ele>
        <time>2012-11-04T10:16:22Z</time>
      </trkpt>
      <trkpt lat="47.658569" lon="13.038050">
        <ele>520.60</ele>
        <time>2012-11-04T10:16:28Z</time>
      </trkpt>
      <trkpt lat="47.658344" lon="13.038333">
        <ele>520.60</ele>
        <time>2012-11-04T10:16:35Z</time>
      </trkpt>
      <trkpt lat="47.658108" lon="13.038692">
        <ele>520.60</ele>
        <time>2012-11-04T10:16:43Z</time>
      </trkpt>
      <trkpt lat="47.657890" lon="13.039103">
        <ele>520.60</ele>
        <time>2012-11-04T10:16:51Z</time>
      </trkpt>
      <trkpt lat="47.657726" lon="13.039490">
        <ele>520.60</ele>
        <time>2012-11-04T10:16:58Z</time>
      </trkpt>
      <trkpt lat="47.657665" lon="13.039648">
        <ele>520.60</ele>
        <time>2012-11-04T10:17:01Z</time>
      </trkpt>
      <trkpt lat="47.657597" lon="13.039808">
        <ele>520.60</ele>
        <time>2012-11-04T10:17:04Z</time>
      </trkpt>
      <trkpt lat="47.657413" lon="13.040174">
        <ele>520.60</ele>
        <time>2012-11-04T10:17:11Z</time>
      </trkpt>
      <trkpt lat="47.657246" lon="13.040510">
        <ele>520.60</ele>
        <time>2012-11-04T10:17:17Z</time>
      </trkpt>
      <trkpt lat="47.656967" lon="13.041017">
        <ele>520.60</ele>
        <time>2012-11-04T10:17:26Z</time>
      </trkpt>
      <trkpt lat="47.656670" lon="13.041408">
        <ele>521.00</ele>
        <time>2012-11-04T10:17:35Z</time>
      </trkpt>
      <trkpt lat="47.656635" lon="13.041443">
        <ele>521.40</ele>
        <time>2012-11-04T10:17:36Z</time>
      </trkpt>
      <trkpt lat="47.656597" lon="13.041480">
        <ele>521.80</ele>
        <time>2012-11-04T10:17:37Z</time>
      </trkpt>
      <trkpt lat="47.656559" lon="13.041514">
        <ele>522.20</ele>
        <time>2012-11-04T10:17:38Z</time>
      </trkpt>
      <trkpt lat="47.656525" lon="13.041551">
        <ele>522.60</ele>
        <time>2012-11-04T10:17:39Z</time>
      </trkpt>
      <trkpt lat="47.656483" lon="13.041580">
        <ele>522.60</ele>
        <time>2012-11-04T10:17:40Z</time>
      </trkpt>
      <trkpt lat="47.656361" lon="13.041666">
        <ele>522.60</ele>
        <time>2012-11-04T10:17:43Z</time>
      </trkpt>
      <trkpt lat="47.656048" lon="13.041824">
        <ele>522.60</ele>
        <time>2012-11-04T10:17:51Z</time>
      </trkpt>
      <trkpt lat="47.656010" lon="13.041839">
        <ele>523.00</ele>
        <time>2012-11-04T10:17:52Z</time>
      </trkpt>
      <trkpt lat="47.655968" lon="13.041851">
        <ele>523.40</ele>
        <time>2012-11-04T10:17:53Z</time>
      </trkpt>
      <trkpt lat="47.655930" lon="13.041863">
        <ele>524.00</ele>
        <time>2012-11-04T10:17:54Z</time>
      </trkpt>
      <trkpt lat="47.655888" lon="13.041876">
        <ele>524.40</ele>
        <time>2012-11-04T10:17:55Z</time>
      </trkpt>
      <trkpt lat="47.655846" lon="13.041884">
        <ele>524.80</ele>
        <time>2012-11-04T10:17:56Z</time>
      </trkpt>
      <trkpt lat="47.655720" lon="13.041889">
        <ele>524.80</ele>
        <time>2012-11-04T10:17:59Z</time>
      </trkpt>
      <trkpt lat="47.655411" lon="13.041863">
        <ele>524.80</ele>
        <time>2012-11-04T10:18:06Z</time>
      </trkpt>
      <trkpt lat="47.655293" lon="13.041824">
        <ele>524.80</ele>
        <time>2012-11-04T10:18:09Z</time>
      </trkpt>
      <trkpt lat="47.655136" lon="13.041751">
        <ele>524.80</ele>
        <time>2012-11-04T10:18:13Z</time>
      </trkpt>
      <trkpt lat="47.654930" lon="13.041629">
        <ele>524.80</ele>
        <time>2012-11-04T10:18:18Z</time>
      </trkpt>
      <trkpt lat="47.654804" lon="13.041530">
        <ele>524.80</ele>
        <time>2012-11-04T10:18:21Z</time>
      </trkpt>
      <trkpt lat="47.654766" lon="13.041492">
        <ele>524.80</ele>
        <time>2012-11-04T10:18:22Z</time>
      </trkpt>
      <trkpt lat="47.654552" lon="13.041302">
        <ele>524.80</ele>
        <time>2012-11-04T10:18:27Z</time>
      </trkpt>
      <trkpt lat="47.654484" lon="13.041214">
        <ele>524.80</ele>
        <time>2012-11-04T10:18:29Z</time>
      </trkpt>
      <trkpt lat="47.654354" lon="13.041032">
        <ele>524.80</ele>
        <time>2012-11-04T10:18:33Z</time>
      </trkpt>
      <trkpt lat="47.654106" lon="13.040668">
        <ele>524.80</ele>
        <time>2012-11-04T10:18:41Z</time>
      </trkpt>
      <trkpt lat="47.654079" lon="13.040618">
        <ele>524.80</ele>
        <time>2012-11-04T10:18:42Z</time>
      </trkpt>
      <trkpt lat="47.653919" lon="13.040333">
        <ele>524.80</ele>
        <time>2012-11-04T10:18:48Z</time>
      </trkpt>
      <trkpt lat="47.653751" lon="13.040031">
        <ele>525.20</ele>
        <time>2012-11-04T10:18:54Z</time>
      </trkpt>
      <trkpt lat="47.653725" lon="13.039980">
        <ele>525.60</ele>
        <time>2012-11-04T10:18:55Z</time>
      </trkpt>
      <trkpt lat="47.653698" lon="13.039928">
        <ele>526.00</ele>
        <time>2012-11-04T10:18:56Z</time>
      </trkpt>
      <trkpt lat="47.653671" lon="13.039877">
        <ele>526.40</ele>
        <time>2012-11-04T10:18:57Z</time>
      </trkpt>
      <trkpt lat="47.653660" lon="13.039815">
        <ele>526.80</ele>
        <time>2012-11-04T10:18:58Z</time>
      </trkpt>
      <trkpt lat="47.653610" lon="13.039706">
        <ele>526.80</ele>
        <time>2012-11-04T10:19:00Z</time>
      </trkpt>
      <trkpt lat="47.653584" lon="13.039666">
        <ele>526.80</ele>
        <time>2012-11-04T10:19:01Z</time>
      </trkpt>
      <trkpt lat="47.653439" lon="13.039408">
        <ele>526.80</ele>
        <time>2012-11-04T10:19:07Z</time>
      </trkpt>
      <trkpt lat="47.653221" lon="13.039086">
        <ele>526.80</ele>
        <time>2012-11-04T10:19:15Z</time>
      </trkpt>
      <trkpt lat="47.653069" lon="13.038870">
        <ele>526.80</ele>
        <time>2012-11-04T10:19:21Z</time>
      </trkpt>
      <trkpt lat="47.653042" lon="13.038835">
        <ele>526.80</ele>
        <time>2012-11-04T10:19:22Z</time>
      </trkpt>
      <trkpt lat="47.652966" lon="13.038730">
        <ele>527.20</ele>
        <time>2012-11-04T10:19:25Z</time>
      </trkpt>
      <trkpt lat="47.652943" lon="13.038692">
        <ele>527.60</ele>
        <time>2012-11-04T10:19:26Z</time>
      </trkpt>
      <trkpt lat="47.652920" lon="13.038656">
        <ele>528.00</ele>
        <time>2012-11-04T10:19:27Z</time>
      </trkpt>
      <trkpt lat="47.652897" lon="13.038622">
        <ele>528.40</ele>
        <time>2012-11-04T10:19:28Z</time>
      </trkpt>
      <trkpt lat="47.652870" lon="13.038586">
        <ele>528.80</ele>
        <time>2012-11-04T10:19:29Z</time>
      </trkpt>
      <trkpt lat="47.652817" lon="13.038508">
        <ele>528.80</ele>
        <time>2012-11-04T10:19:31Z</time>
      </trkpt>
      <trkpt lat="47.652649" lon="13.038268">
        <ele>528.80</ele>
        <time>2012-11-04T10:19:38Z</time>
      </trkpt>
      <trkpt lat="47.652519" lon="13.038073">
        <ele>528.80</ele>
        <time>2012-11-04T10:19:44Z</time>
      </trkpt>
      <trkpt lat="47.652328" lon="13.037810">
        <ele>528.80</ele>
        <time>2012-11-04T10:19:51Z</time>
      </trkpt>
      <trkpt lat="47.652172" lon="13.037657">
        <ele>529.20</ele>
        <time>2012-11-04T10:19:56Z</time>
      </trkpt>
      <trkpt lat="47.652145" lon="13.037622">
        <ele>529.60</ele>
        <time>2012-11-04T10:19:57Z</time>
      </trkpt>
      <trkpt lat="47.652119" lon="13.037586">
        <ele>530.00</ele>
        <time>2012-11-04T10:19:58Z</time>
      </trkpt>
      <trkpt lat="47.652088" lon="13.037545">
        <ele>530.40</ele>
        <time>2012-11-04T10:19:59Z</time>
      </trkpt>
      <trkpt lat="47.652061" lon="13.037500">
        <ele>530.80</ele>
        <time>2012-11-04T10:20:00Z</time>
      </trkpt>
      <trkpt lat="47.652031" lon="13.037456">
        <ele>530.80</ele>
        <time>2012-11-04T10:20:01Z</time>
      </trkpt>
      <trkpt lat="47.651962" lon="13.037379">
        <ele>530.80</ele>
        <time>2012-11-04T10:20:03Z</time>
      </trkpt>
      <trkpt lat="47.651657" lon="13.037070">
        <ele>530.80</ele>
        <time>2012-11-04T10:20:12Z</time>
      </trkpt>
      <trkpt lat="47.651596" lon="13.037019">
        <ele>531.20</ele>
        <time>2012-11-04T10:20:14Z</time>
      </trkpt>
      <trkpt lat="47.651566" lon="13.036985">
        <ele>531.60</ele>
        <time>2012-11-04T10:20:15Z</time>
      </trkpt>
      <trkpt lat="47.651527" lon="13.036942">
        <ele>532.20</ele>
        <time>2012-11-04T10:20:16Z</time>
      </trkpt>
      <trkpt lat="47.651489" lon="13.036899">
        <ele>532.60</ele>
        <time>2012-11-04T10:20:17Z</time>
      </trkpt>
      <trkpt lat="47.651447" lon="13.036858">
        <ele>533.00</ele>
        <time>2012-11-04T10:20:18Z</time>
      </trkpt>
      <trkpt lat="47.651230" lon="13.036665">
        <ele>533.00</ele>
        <time>2012-11-04T10:20:23Z</time>
      </trkpt>
      <trkpt lat="47.650917" lon="13.036394">
        <ele>533.00</ele>
        <time>2012-11-04T10:20:31Z</time>
      </trkpt>
      <trkpt lat="47.650791" lon="13.036210">
        <ele>533.00</ele>
        <time>2012-11-04T10:20:35Z</time>
      </trkpt>
      <trkpt lat="47.650684" lon="13.036127">
        <ele>533.00</ele>
        <time>2012-11-04T10:20:38Z</time>
      </trkpt>
      <trkpt lat="47.650612" lon="13.036076">
        <ele>533.00</ele>
        <time>2012-11-04T10:20:40Z</time>
      </trkpt>
      <trkpt lat="47.650536" lon="13.036031">
        <ele>533.00</ele>
        <time>2012-11-04T10:20:42Z</time>
      </trkpt>
      <trkpt lat="47.650383" lon="13.035941">
        <ele>533.00</ele>
        <time>2012-11-04T10:20:46Z</time>
      </trkpt>
      <trkpt lat="47.650242" lon="13.035806">
        <ele>533.00</ele>
        <time>2012-11-04T10:20:50Z</time>
      </trkpt>
      <trkpt lat="47.650177" lon="13.035737">
        <ele>533.00</ele>
        <time>2012-11-04T10:20:52Z</time>
      </trkpt>
      <trkpt lat="47.649944" lon="13.035498">
        <ele>533.00</ele>
        <time>2012-11-04T10:20:59Z</time>
      </trkpt>
      <trkpt lat="47.649910" lon="13.035460">
        <ele>533.00</ele>
        <time>2012-11-04T10:21:00Z</time>
      </trkpt>
      <trkpt lat="47.649719" lon="13.035219">
        <ele>533.00</ele>
        <time>2012-11-04T10:21:06Z</time>
      </trkpt>
      <trkpt lat="47.649593" lon="13.035030">
        <ele>533.00</ele>
        <time>2012-11-04T10:21:11Z</time>
      </trkpt>
      <trkpt lat="47.649578" lon="13.034988">
        <ele>533.00</ele>
        <time>2012-11-04T10:21:12Z</time>
      </trkpt>
      <trkpt lat="47.649551" lon="13.034895">
        <ele>532.60</ele>
        <time>2012-11-04T10:21:14Z</time>
      </trkpt>
      <trkpt lat="47.649532" lon="13.034856">
        <ele>532.20</ele>
        <time>2012-11-04T10:21:15Z</time>
      </trkpt>
      <trkpt lat="47.649509" lon="13.034825">
        <ele>531.80</ele>
        <time>2012-11-04T10:21:16Z</time>
      </trkpt>
      <trkpt lat="47.649479" lon="13.034805">
        <ele>531.40</ele>
        <time>2012-11-04T10:21:17Z</time>
      </trkpt>
      <trkpt lat="47.649452" lon="13.034787">
        <ele>531.00</ele>
        <time>2012-11-04T10:21:18Z</time>
      </trkpt>
      <trkpt lat="47.649403" lon="13.034751">
        <ele>530.40</ele>
        <time>2012-11-04T10:21:20Z</time>
      </trkpt>
      <trkpt lat="47.649380" lon="13.034735">
        <ele>530.00</ele>
        <time>2012-11-04T10:21:21Z</time>
      </trkpt>
      <trkpt lat="47.649357" lon="13.034722">
        <ele>529.40</ele>
        <time>2012-11-04T10:21:22Z</time>
      </trkpt>
      <trkpt lat="47.649338" lon="13.034708">
        <ele>529.00</ele>
        <time>2012-11-04T10:21:23Z</time>
      </trkpt>
      <trkpt lat="47.649315" lon="13.034693">
        <ele>528.60</ele>
        <time>2012-11-04T10:21:24Z</time>
      </trkpt>
      <trkpt lat="47.649246" lon="13.034677">
        <ele>528.60</ele>
        <time>2012-11-04T10:21:26Z</time>
      </trkpt>
      <trkpt lat="47.649143" lon="13.034707">
        <ele>528.60</ele>
        <time>2012-11-04T10:21:29Z</time>
      </trkpt>
      <trkpt lat="47.649059" lon="13.034739">
        <ele>528.60</ele>
        <time>2012-11-04T10:21:32Z</time>
      </trkpt>
      <trkpt lat="47.648941" lon="13.034757">
        <ele>528.60</ele>
        <time>2012-11-04T10:21:37Z</time>
      </trkpt>
      <trkpt lat="47.648724" lon="13.034707">
        <ele>528.60</ele>
        <time>2012-11-04T10:21:44Z</time>
      </trkpt>
      <trkpt lat="47.648403" lon="13.034688">
        <ele>528.60</ele>
        <time>2012-11-04T10:21:53Z</time>
      </trkpt>
      <trkpt lat="47.648148" lon="13.034658">
        <ele>529.00</ele>
        <time>2012-11-04T10:22:00Z</time>
      </trkpt>
      <trkpt lat="47.648109" lon="13.034656">
        <ele>529.40</ele>
        <time>2012-11-04T10:22:01Z</time>
      </trkpt>
      <trkpt lat="47.648071" lon="13.034652">
        <ele>529.80</ele>
        <time>2012-11-04T10:22:02Z</time>
      </trkpt>
      <trkpt lat="47.648029" lon="13.034644">
        <ele>530.20</ele>
        <time>2012-11-04T10:22:03Z</time>
      </trkpt>
      <trkpt lat="47.647991" lon="13.034636">
        <ele>530.60</ele>
        <time>2012-11-04T10:22:04Z</time>
      </trkpt>
      <trkpt lat="47.647835" lon="13.034616">
        <ele>530.60</ele>
        <time>2012-11-04T10:22:08Z</time>
      </trkpt>
      <trkpt lat="47.647552" lon="13.034546">
        <ele>530.60</ele>
        <time>2012-11-04T10:22:15Z</time>
      </trkpt>
      <trkpt lat="47.647266" lon="13.034479">
        <ele>530.60</ele>
        <time>2012-11-04T10:22:22Z</time>
      </trkpt>
      <trkpt lat="47.646969" lon="13.034381">
        <ele>530.60</ele>
        <time>2012-11-04T10:22:29Z</time>
      </trkpt>
      <trkpt lat="47.646664" lon="13.034192">
        <ele>530.60</ele>
        <time>2012-11-04T10:22:37Z</time>
      </trkpt>
      <trkpt lat="47.646420" lon="13.034039">
        <ele>530.60</ele>
        <time>2012-11-04T10:22:44Z</time>
      </trkpt>
      <trkpt lat="47.646381" lon="13.034009">
        <ele>531.00</ele>
        <time>2012-11-04T10:22:45Z</time>
      </trkpt>
      <trkpt lat="47.646347" lon="13.033984">
        <ele>531.40</ele>
        <time>2012-11-04T10:22:46Z</time>
      </trkpt>
      <trkpt lat="47.646309" lon="13.033958">
        <ele>531.80</ele>
        <time>2012-11-04T10:22:47Z</time>
      </trkpt>
      <trkpt lat="47.646271" lon="13.033930">
        <ele>532.20</ele>
        <time>2012-11-04T10:22:48Z</time>
      </trkpt>
      <trkpt lat="47.646233" lon="13.033898">
        <ele>532.60</ele>
        <time>2012-11-04T10:22:49Z</time>
      </trkpt>
      <trkpt lat="47.646191" lon="13.033863">
        <ele>532.60</ele>
        <time>2012-11-04T10:22:50Z</time>
      </trkpt>
      <trkpt lat="47.645935" lon="13.033570">
        <ele>532.60</ele>
        <time>2012-11-04T10:22:57Z</time>
      </trkpt>
      <trkpt lat="47.645844" lon="13.033433">
        <ele>532.60</ele>
        <time>2012-11-04T10:23:00Z</time>
      </trkpt>
      <trkpt lat="47.645805" lon="13.033318">
        <ele>532.60</ele>
        <time>2012-11-04T10:23:02Z</time>
      </trkpt>
      <trkpt lat="47.645691" lon="13.033072">
        <ele>532.60</ele>
        <time>2012-11-04T10:23:08Z</time>
      </trkpt>
      <trkpt lat="47.645679" lon="13.033044">
        <ele>532.20</ele>
        <time>2012-11-04T10:23:09Z</time>
      </trkpt>
      <trkpt lat="47.645668" lon="13.033012">
        <ele>531.80</ele>
        <time>2012-11-04T10:23:10Z</time>
      </trkpt>
      <trkpt lat="47.645657" lon="13.032985">
        <ele>531.40</ele>
        <time>2012-11-04T10:23:11Z</time>
      </trkpt>
      <trkpt lat="47.645649" lon="13.032962">
        <ele>530.80</ele>
        <time>2012-11-04T10:23:12Z</time>
      </trkpt>
      <trkpt lat="47.645641" lon="13.032937">
        <ele>530.40</ele>
        <time>2012-11-04T10:23:13Z</time>
      </trkpt>
      <trkpt lat="47.645599" lon="13.032931">
        <ele>530.40</ele>
        <time>2012-11-04T10:23:18Z</time>
      </trkpt>
      <trkpt lat="47.645565" lon="13.032921">
        <ele>530.40</ele>
        <time>2012-11-04T10:23:32Z</time>
      </trkpt>
      <trkpt lat="47.645565" lon="13.032921">
        <ele>530.40</ele>
        <time>2012-11-04T10:23:50Z</time>
      </trkpt>
      <trkpt lat="47.645565" lon="13.032921">
        <ele>530.40</ele>
        <time>2012-11-04T10:23:53Z</time>
      </trkpt>
      <trkpt lat="47.645565" lon="13.032921">
        <ele>530.40</ele>
        <time>2012-11-04T10:23:54Z</time>
      </trkpt>
      <trkpt lat="47.645565" lon="13.032914">
        <ele>530.40</ele>
        <time>2012-11-04T10:24:01Z</time>
      </trkpt>
      <trkpt lat="47.645569" lon="13.032885">
        <ele>530.40</ele>
        <time>2012-11-04T10:24:07Z</time>
      </trkpt>
      <trkpt lat="47.645519" lon="13.032696">
        <ele>530.40</ele>
        <time>2012-11-04T10:24:12Z</time>
      </trkpt>
      <trkpt lat="47.645420" lon="13.032378">
        <ele>530.40</ele>
        <time>2012-11-04T10:24:18Z</time>
      </trkpt>
      <trkpt lat="47.645370" lon="13.032256">
        <ele>530.40</ele>
        <time>2012-11-04T10:24:20Z</time>
      </trkpt>
      <trkpt lat="47.645298" lon="13.032022">
        <ele>530.40</ele>
        <time>2012-11-04T10:24:24Z</time>
      </trkpt>
      <trkpt lat="47.645168" lon="13.031573">
        <ele>530.40</ele>
        <time>2012-11-04T10:24:32Z</time>
      </trkpt>
      <trkpt lat="47.645100" lon="13.031285">
        <ele>530.40</ele>
        <time>2012-11-04T10:24:37Z</time>
      </trkpt>
      <trkpt lat="47.645077" lon="13.031184">
        <ele>530.40</ele>
        <time>2012-11-04T10:24:39Z</time>
      </trkpt>
      <trkpt lat="47.645012" lon="13.030922">
        <ele>530.40</ele>
        <time>2012-11-04T10:24:45Z</time>
      </trkpt>
      <trkpt lat="47.644981" lon="13.030787">
        <ele>530.40</ele>
        <time>2012-11-04T10:24:48Z</time>
      </trkpt>
      <trkpt lat="47.644943" lon="13.030640">
        <ele>530.40</ele>
        <time>2012-11-04T10:24:52Z</time>
      </trkpt>
      <trkpt lat="47.644901" lon="13.030475">
        <ele>530.40</ele>
        <time>2012-11-04T10:24:58Z</time>
      </trkpt>
      <trkpt lat="47.644867" lon="13.030303">
        <ele>530.40</ele>
        <time>2012-11-04T10:25:04Z</time>
      </trkpt>
      <trkpt lat="47.644829" lon="13.030120">
        <ele>530.40</ele>
        <time>2012-11-04T10:25:09Z</time>
      </trkpt>
      <trkpt lat="47.644821" lon="13.030080">
        <ele>530.40</ele>
        <time>2012-11-04T10:25:10Z</time>
      </trkpt>
      <trkpt lat="47.644783" lon="13.029870">
        <ele>530.40</ele>
        <time>2012-11-04T10:25:15Z</time>
      </trkpt>
      <trkpt lat="47.644768" lon="13.029829">
        <ele>530.40</ele>
        <time>2012-11-04T10:25:16Z</time>
      </trkpt>
      <trkpt lat="47.644688" lon="13.029577">
        <ele>530.40</ele>
        <time>2012-11-04T10:25:23Z</time>
      </trkpt>
      <trkpt lat="47.644676" lon="13.029396">
        <ele>530.40</ele>
        <time>2012-11-04T10:25:27Z</time>
      </trkpt>
      <trkpt lat="47.644650" lon="13.029190">
        <ele>530.40</ele>
        <time>2012-11-04T10:25:31Z</time>
      </trkpt>
      <trkpt lat="47.644638" lon="13.029134">
        <ele>530.40</ele>
        <time>2012-11-04T10:25:32Z</time>
      </trkpt>
      <trkpt lat="47.644547" lon="13.028686">
        <ele>530.40</ele>
        <time>2012-11-04T10:25:40Z</time>
      </trkpt>
      <trkpt lat="47.644478" lon="13.028273">
        <ele>530.40</ele>
        <time>2012-11-04T10:25:47Z</time>
      </trkpt>
      <trkpt lat="47.644421" lon="13.027814">
        <ele>530.40</ele>
        <time>2012-11-04T10:25:55Z</time>
      </trkpt>
      <trkpt lat="47.644379" lon="13.027431">
        <ele>530.40</ele>
        <time>2012-11-04T10:26:01Z</time>
      </trkpt>
      <trkpt lat="47.644360" lon="13.027244">
        <ele>530.40</ele>
        <time>2012-11-04T10:26:04Z</time>
      </trkpt>
      <trkpt lat="47.644295" lon="13.026817">
        <ele>530.40</ele>
        <time>2012-11-04T10:26:11Z</time>
      </trkpt>
      <trkpt lat="47.644165" lon="13.026232">
        <ele>530.40</ele>
        <time>2012-11-04T10:26:21Z</time>
      </trkpt>
      <trkpt lat="47.644062" lon="13.025845">
        <ele>530.40</ele>
        <time>2012-11-04T10:26:28Z</time>
      </trkpt>
      <trkpt lat="47.644020" lon="13.025519">
        <ele>530.40</ele>
        <time>2012-11-04T10:26:34Z</time>
      </trkpt>
      <trkpt lat="47.643986" lon="13.025239">
        <ele>530.80</ele>
        <time>2012-11-04T10:26:39Z</time>
      </trkpt>
      <trkpt lat="47.643963" lon="13.025185">
        <ele>531.20</ele>
        <time>2012-11-04T10:26:40Z</time>
      </trkpt>
      <trkpt lat="47.643936" lon="13.025127">
        <ele>531.60</ele>
        <time>2012-11-04T10:26:41Z</time>
      </trkpt>
      <trkpt lat="47.643909" lon="13.025067">
        <ele>532.00</ele>
        <time>2012-11-04T10:26:42Z</time>
      </trkpt>
      <trkpt lat="47.643887" lon="13.025016">
        <ele>532.40</ele>
        <time>2012-11-04T10:26:43Z</time>
      </trkpt>
      <trkpt lat="47.643806" lon="13.024880">
        <ele>532.40</ele>
        <time>2012-11-04T10:26:46Z</time>
      </trkpt>
      <trkpt lat="47.643719" lon="13.024754">
        <ele>533.00</ele>
        <time>2012-11-04T10:26:50Z</time>
      </trkpt>
      <trkpt lat="47.643696" lon="13.024716">
        <ele>533.40</ele>
        <time>2012-11-04T10:26:51Z</time>
      </trkpt>
      <trkpt lat="47.643669" lon="13.024680">
        <ele>533.80</ele>
        <time>2012-11-04T10:26:52Z</time>
      </trkpt>
      <trkpt lat="47.643642" lon="13.024641">
        <ele>534.20</ele>
        <time>2012-11-04T10:26:53Z</time>
      </trkpt>
      <trkpt lat="47.643620" lon="13.024603">
        <ele>534.60</ele>
        <time>2012-11-04T10:26:54Z</time>
      </trkpt>
      <trkpt lat="47.643555" lon="13.024492">
        <ele>534.60</ele>
        <time>2012-11-04T10:26:57Z</time>
      </trkpt>
      <trkpt lat="47.643425" lon="13.024240">
        <ele>534.60</ele>
        <time>2012-11-04T10:27:03Z</time>
      </trkpt>
      <trkpt lat="47.643345" lon="13.024089">
        <ele>535.00</ele>
        <time>2012-11-04T10:27:07Z</time>
      </trkpt>
      <trkpt lat="47.643326" lon="13.024044">
        <ele>535.40</ele>
        <time>2012-11-04T10:27:08Z</time>
      </trkpt>
      <trkpt lat="47.643314" lon="13.023996">
        <ele>535.80</ele>
        <time>2012-11-04T10:27:09Z</time>
      </trkpt>
      <trkpt lat="47.643295" lon="13.023945">
        <ele>536.40</ele>
        <time>2012-11-04T10:27:10Z</time>
      </trkpt>
      <trkpt lat="47.643272" lon="13.023890">
        <ele>536.80</ele>
        <time>2012-11-04T10:27:11Z</time>
      </trkpt>
      <trkpt lat="47.643219" lon="13.023795">
        <ele>536.80</ele>
        <time>2012-11-04T10:27:13Z</time>
      </trkpt>
      <trkpt lat="47.643066" lon="13.023677">
        <ele>536.80</ele>
        <time>2012-11-04T10:27:17Z</time>
      </trkpt>
      <trkpt lat="47.643036" lon="13.023664">
        <ele>536.80</ele>
        <time>2012-11-04T10:27:18Z</time>
      </trkpt>
      <trkpt lat="47.642902" lon="13.023617">
        <ele>536.80</ele>
        <time>2012-11-04T10:27:22Z</time>
      </trkpt>
      <trkpt lat="47.642654" lon="13.023575">
        <ele>536.80</ele>
        <time>2012-11-04T10:27:26Z</time>
      </trkpt>
      <trkpt lat="47.642586" lon="13.023556">
        <ele>536.80</ele>
        <time>2012-11-04T10:27:27Z</time>
      </trkpt>
      <trkpt lat="47.642399" lon="13.023445">
        <ele>536.80</ele>
        <time>2012-11-04T10:27:30Z</time>
      </trkpt>
      <trkpt lat="47.642212" lon="13.023198">
        <ele>536.20</ele>
        <time>2012-11-04T10:27:34Z</time>
      </trkpt>
      <trkpt lat="47.642178" lon="13.023130">
        <ele>535.40</ele>
        <time>2012-11-04T10:27:35Z</time>
      </trkpt>
      <trkpt lat="47.642143" lon="13.023069">
        <ele>535.00</ele>
        <time>2012-11-04T10:27:36Z</time>
      </trkpt>
      <trkpt lat="47.642113" lon="13.023010">
        <ele>534.60</ele>
        <time>2012-11-04T10:27:37Z</time>
      </trkpt>
      <trkpt lat="47.642086" lon="13.022956">
        <ele>534.60</ele>
        <time>2012-11-04T10:27:38Z</time>
      </trkpt>
      <trkpt lat="47.642048" lon="13.022908">
        <ele>534.60</ele>
        <time>2012-11-04T10:27:39Z</time>
      </trkpt>
      <trkpt lat="47.641972" lon="13.022761">
        <ele>534.60</ele>
        <time>2012-11-04T10:27:42Z</time>
      </trkpt>
      <trkpt lat="47.641933" lon="13.022651">
        <ele>534.60</ele>
        <time>2012-11-04T10:27:44Z</time>
      </trkpt>
      <trkpt lat="47.641773" lon="13.022149">
        <ele>534.60</ele>
        <time>2012-11-04T10:27:53Z</time>
      </trkpt>
      <trkpt lat="47.641651" lon="13.021674">
        <ele>534.60</ele>
        <time>2012-11-04T10:28:01Z</time>
      </trkpt>
      <trkpt lat="47.641563" lon="13.021265">
        <ele>534.60</ele>
        <time>2012-11-04T10:28:08Z</time>
      </trkpt>
      <trkpt lat="47.641537" lon="13.021136">
        <ele>534.60</ele>
        <time>2012-11-04T10:28:10Z</time>
      </trkpt>
      <trkpt lat="47.641525" lon="13.020896">
        <ele>534.60</ele>
        <time>2012-11-04T10:28:14Z</time>
      </trkpt>
      <trkpt lat="47.641525" lon="13.020841">
        <ele>534.60</ele>
        <time>2012-11-04T10:28:15Z</time>
      </trkpt>
      <trkpt lat="47.641533" lon="13.020395">
        <ele>534.60</ele>
        <time>2012-11-04T10:28:22Z</time>
      </trkpt>
      <trkpt lat="47.641571" lon="13.019872">
        <ele>534.60</ele>
        <time>2012-11-04T10:28:30Z</time>
      </trkpt>
      <trkpt lat="47.641594" lon="13.019545">
        <ele>534.60</ele>
        <time>2012-11-04T10:28:35Z</time>
      </trkpt>
      <trkpt lat="47.641594" lon="13.019338">
        <ele>534.60</ele>
        <time>2012-11-04T10:28:38Z</time>
      </trkpt>
      <trkpt lat="47.641594" lon="13.019133">
        <ele>534.60</ele>
        <time>2012-11-04T10:28:41Z</time>
      </trkpt>
      <trkpt lat="47.641602" lon="13.018804">
        <ele>534.60</ele>
        <time>2012-11-04T10:28:46Z</time>
      </trkpt>
      <trkpt lat="47.641609" lon="13.018609">
        <ele>534.60</ele>
        <time>2012-11-04T10:28:49Z</time>
      </trkpt>
      <trkpt lat="47.641602" lon="13.018364">
        <ele>534.60</ele>
        <time>2012-11-04T10:28:53Z</time>
      </trkpt>
      <trkpt lat="47.641586" lon="13.018027">
        <ele>534.60</ele>
        <time>2012-11-04T10:28:59Z</time>
      </trkpt>
      <trkpt lat="47.641525" lon="13.017848">
        <ele>535.00</ele>
        <time>2012-11-04T10:29:03Z</time>
      </trkpt>
      <trkpt lat="47.641514" lon="13.017817">
        <ele>535.40</ele>
        <time>2012-11-04T10:29:04Z</time>
      </trkpt>
      <trkpt lat="47.641510" lon="13.017782">
        <ele>535.80</ele>
        <time>2012-11-04T10:29:05Z</time>
      </trkpt>
      <trkpt lat="47.641518" lon="13.017743">
        <ele>536.20</ele>
        <time>2012-11-04T10:29:06Z</time>
      </trkpt>
      <trkpt lat="47.641529" lon="13.017705">
        <ele>536.60</ele>
        <time>2012-11-04T10:29:07Z</time>
      </trkpt>
      <trkpt lat="47.641541" lon="13.017673">
        <ele>536.60</ele>
        <time>2012-11-04T10:29:08Z</time>
      </trkpt>
      <trkpt lat="47.641666" lon="13.017588">
        <ele>536.60</ele>
        <time>2012-11-04T10:29:13Z</time>
      </trkpt>
      <trkpt lat="47.641731" lon="13.017581">
        <ele>536.60</ele>
        <time>2012-11-04T10:29:17Z</time>
      </trkpt>
      <trkpt lat="47.641747" lon="13.017576">
        <ele>536.60</ele>
        <time>2012-11-04T10:29:21Z</time>
      </trkpt>
      <trkpt lat="47.641747" lon="13.017576">
        <ele>536.60</ele>
        <time>2012-11-04T10:29:23Z</time>
      </trkpt>
      <trkpt lat="47.641781" lon="13.017544">
        <ele>536.60</ele>
        <time>2012-11-04T10:29:30Z</time>
      </trkpt>
      <trkpt lat="47.641808" lon="13.017480">
        <ele>536.60</ele>
        <time>2012-11-04T10:29:32Z</time>
      </trkpt>
      <trkpt lat="47.641808" lon="13.017438">
        <ele>536.60</ele>
        <time>2012-11-04T10:29:33Z</time>
      </trkpt>
      <trkpt lat="47.641758" lon="13.017266">
        <ele>536.60</ele>
        <time>2012-11-04T10:29:37Z</time>
      </trkpt>
      <trkpt lat="47.641754" lon="13.017245">
        <ele>536.60</ele>
        <time>2012-11-04T10:29:38Z</time>
      </trkpt>
      <trkpt lat="47.641750" lon="13.017228">
        <ele>536.60</ele>
        <time>2012-11-04T10:29:42Z</time>
      </trkpt>
      <trkpt lat="47.641727" lon="13.017164">
        <ele>536.60</ele>
        <time>2012-11-04T10:29:47Z</time>
      </trkpt>
      <trkpt lat="47.641701" lon="13.017124">
        <ele>536.60</ele>
        <time>2012-11-04T10:29:53Z</time>
      </trkpt>
      <trkpt lat="47.641644" lon="13.016991">
        <ele>536.60</ele>
        <time>2012-11-04T10:29:58Z</time>
      </trkpt>
      <trkpt lat="47.641548" lon="13.016800">
        <ele>536.60</ele>
        <time>2012-11-04T10:30:03Z</time>
      </trkpt>
      <trkpt lat="47.641418" lon="13.016596">
        <ele>536.60</ele>
        <time>2012-11-04T10:30:08Z</time>
      </trkpt>
      <trkpt lat="47.641331" lon="13.016482">
        <ele>536.60</ele>
        <time>2012-11-04T10:30:11Z</time>
      </trkpt>
      <trkpt lat="47.641129" lon="13.016285">
        <ele>536.60</ele>
        <time>2012-11-04T10:30:18Z</time>
      </trkpt>
      <trkpt lat="47.640949" lon="13.016164">
        <ele>536.60</ele>
        <time>2012-11-04T10:30:24Z</time>
      </trkpt>
      <trkpt lat="47.640846" lon="13.016112">
        <ele>536.60</ele>
        <time>2012-11-04T10:30:27Z</time>
      </trkpt>
      <trkpt lat="47.640636" lon="13.016060">
        <ele>536.60</ele>
        <time>2012-11-04T10:30:33Z</time>
      </trkpt>
      <trkpt lat="47.640598" lon="13.016053">
        <ele>537.20</ele>
        <time>2012-11-04T10:30:34Z</time>
      </trkpt>
      <trkpt lat="47.640564" lon="13.016046">
        <ele>537.60</ele>
        <time>2012-11-04T10:30:35Z</time>
      </trkpt>
      <trkpt lat="47.640526" lon="13.016040">
        <ele>538.00</ele>
        <time>2012-11-04T10:30:36Z</time>
      </trkpt>
      <trkpt lat="47.640491" lon="13.016037">
        <ele>538.40</ele>
        <time>2012-11-04T10:30:37Z</time>
      </trkpt>
      <trkpt lat="47.640453" lon="13.016035">
        <ele>538.80</ele>
        <time>2012-11-04T10:30:38Z</time>
      </trkpt>
      <trkpt lat="47.640312" lon="13.016028">
        <ele>538.80</ele>
        <time>2012-11-04T10:30:42Z</time>
      </trkpt>
      <trkpt lat="47.640057" lon="13.016010">
        <ele>538.80</ele>
        <time>2012-11-04T10:30:49Z</time>
      </trkpt>
      <trkpt lat="47.639805" lon="13.015987">
        <ele>538.80</ele>
        <time>2012-11-04T10:30:56Z</time>
      </trkpt>
      <trkpt lat="47.639694" lon="13.015816">
        <ele>538.80</ele>
        <time>2012-11-04T10:31:01Z</time>
      </trkpt>
      <trkpt lat="47.639633" lon="13.015509">
        <ele>538.80</ele>
        <time>2012-11-04T10:31:08Z</time>
      </trkpt>
      <trkpt lat="47.639572" lon="13.015126">
        <ele>538.80</ele>
        <time>2012-11-04T10:31:17Z</time>
      </trkpt>
      <trkpt lat="47.639568" lon="13.015090">
        <ele>539.20</ele>
        <time>2012-11-04T10:31:18Z</time>
      </trkpt>
      <trkpt lat="47.639561" lon="13.015055">
        <ele>539.60</ele>
        <time>2012-11-04T10:31:19Z</time>
      </trkpt>
      <trkpt lat="47.639561" lon="13.015018">
        <ele>540.00</ele>
        <time>2012-11-04T10:31:20Z</time>
      </trkpt>
      <trkpt lat="47.639553" lon="13.014983">
        <ele>540.40</ele>
        <time>2012-11-04T10:31:21Z</time>
      </trkpt>
      <trkpt lat="47.639549" lon="13.014946">
        <ele>540.80</ele>
        <time>2012-11-04T10:31:22Z</time>
      </trkpt>
      <trkpt lat="47.639526" lon="13.014795">
        <ele>540.80</ele>
        <time>2012-11-04T10:31:26Z</time>
      </trkpt>
      <trkpt lat="47.639507" lon="13.014635">
        <ele>541.20</ele>
        <time>2012-11-04T10:31:30Z</time>
      </trkpt>
      <trkpt lat="47.639503" lon="13.014597">
        <ele>541.60</ele>
        <time>2012-11-04T10:31:31Z</time>
      </trkpt>
      <trkpt lat="47.639496" lon="13.014560">
        <ele>542.00</ele>
        <time>2012-11-04T10:31:32Z</time>
      </trkpt>
      <trkpt lat="47.639492" lon="13.014521">
        <ele>542.40</ele>
        <time>2012-11-04T10:31:33Z</time>
      </trkpt>
      <trkpt lat="47.639488" lon="13.014482">
        <ele>542.80</ele>
        <time>2012-11-04T10:31:34Z</time>
      </trkpt>
      <trkpt lat="47.639458" lon="13.014280">
        <ele>542.80</ele>
        <time>2012-11-04T10:31:40Z</time>
      </trkpt>
      <trkpt lat="47.639450" lon="13.014248">
        <ele>542.80</ele>
        <time>2012-11-04T10:31:45Z</time>
      </trkpt>
      <trkpt lat="47.639450" lon="13.014248">
        <ele>542.80</ele>
        <time>2012-11-04T10:31:50Z</time>
      </trkpt>
      <trkpt lat="47.639450" lon="13.014248">
        <ele>542.80</ele>
        <time>2012-11-04T10:31:55Z</time>
      </trkpt>
      <trkpt lat="47.639450" lon="13.014248">
        <ele>542.80</ele>
        <time>2012-11-04T10:32:07Z</time>
      </trkpt>
      <trkpt lat="47.639450" lon="13.014248">
        <ele>542.80</ele>
        <time>2012-11-04T10:32:16Z</time>
      </trkpt>
      <trkpt lat="47.639450" lon="13.014248">
        <ele>542.80</ele>
        <time>2012-11-04T10:32:22Z</time>
      </trkpt>
      <trkpt lat="47.639450" lon="13.014248">
        <ele>542.80</ele>
        <time>2012-11-04T10:32:28Z</time>
      </trkpt>
      <trkpt lat="47.639450" lon="13.014248">
        <ele>542.80</ele>
        <time>2012-11-04T10:32:37Z</time>
      </trkpt>
      <trkpt lat="47.639450" lon="13.014248">
        <ele>542.80</ele>
        <time>2012-11-04T10:32:43Z</time>
      </trkpt>
      <trkpt lat="47.639450" lon="13.014248">
        <ele>542.80</ele>
        <time>2012-11-04T10:32:47Z</time>
      </trkpt>
      <trkpt lat="47.639450" lon="13.014248">
        <ele>542.80</ele>
        <time>2012-11-04T10:32:49Z</time>
      </trkpt>
      <trkpt lat="47.639450" lon="13.014248">
        <ele>542.80</ele>
        <time>2012-11-04T10:32:51Z</time>
      </trkpt>
      <trkpt lat="47.639450" lon="13.014248">
        <ele>542.80</ele>
        <time>2012-11-04T10:33:03Z</time>
      </trkpt>
      <trkpt lat="47.639442" lon="13.014246">
        <ele>542.80</ele>
        <time>2012-11-04T10:33:10Z</time>
      </trkpt>
      <trkpt lat="47.639442" lon="13.014246">
        <ele>542.80</ele>
        <time>2012-11-04T10:33:16Z</time>
      </trkpt>
      <trkpt lat="47.639442" lon="13.014246">
        <ele>542.80</ele>
        <time>2012-11-04T10:33:22Z</time>
      </trkpt>
      <trkpt lat="47.639442" lon="13.014246">
        <ele>542.80</ele>
        <time>2012-11-04T10:33:32Z</time>
      </trkpt>
      <trkpt lat="47.639442" lon="13.014246">
        <ele>542.80</ele>
        <time>2012-11-04T10:33:34Z</time>
      </trkpt>
      <trkpt lat="47.639446" lon="13.014250">
        <ele>542.80</ele>
        <time>2012-11-04T10:33:44Z</time>
      </trkpt>
      <trkpt lat="47.639446" lon="13.014250">
        <ele>542.80</ele>
        <time>2012-11-04T10:33:51Z</time>
      </trkpt>
      <trkpt lat="47.639446" lon="13.014250">
        <ele>542.80</ele>
        <time>2012-11-04T10:33:59Z</time>
      </trkpt>
      <trkpt lat="47.639446" lon="13.014250">
        <ele>542.80</ele>
        <time>2012-11-04T10:34:09Z</time>
      </trkpt>
      <trkpt lat="47.639446" lon="13.014250">
        <ele>542.80</ele>
        <time>2012-11-04T10:34:19Z</time>
      </trkpt>
      <trkpt lat="47.639442" lon="13.014253">
        <ele>542.80</ele>
        <time>2012-11-04T10:34:29Z</time>
      </trkpt>
      <trkpt lat="47.639442" lon="13.014253">
        <ele>542.80</ele>
        <time>2012-11-04T10:34:32Z</time>
      </trkpt>
      <trkpt lat="47.639442" lon="13.014249">
        <ele>542.80</ele>
        <time>2012-11-04T10:34:40Z</time>
      </trkpt>
      <trkpt lat="47.639435" lon="13.014230">
        <ele>542.80</ele>
        <time>2012-11-04T10:34:41Z</time>
      </trkpt>
      <trkpt lat="47.639431" lon="13.014113">
        <ele>542.80</ele>
        <time>2012-11-04T10:34:46Z</time>
      </trkpt>
      <trkpt lat="47.639423" lon="13.014088">
        <ele>542.80</ele>
        <time>2012-11-04T10:34:47Z</time>
      </trkpt>
      <trkpt lat="47.639408" lon="13.013970">
        <ele>542.80</ele>
        <time>2012-11-04T10:34:51Z</time>
      </trkpt>
      <trkpt lat="47.639385" lon="13.013859">
        <ele>542.80</ele>
        <time>2012-11-04T10:34:54Z</time>
      </trkpt>
      <trkpt lat="47.639328" lon="13.013603">
        <ele>542.80</ele>
        <time>2012-11-04T10:35:00Z</time>
      </trkpt>
      <trkpt lat="47.639275" lon="13.013350">
        <ele>542.80</ele>
        <time>2012-11-04T10:35:06Z</time>
      </trkpt>
      <trkpt lat="47.639259" lon="13.013270">
        <ele>543.20</ele>
        <time>2012-11-04T10:35:08Z</time>
      </trkpt>
      <trkpt lat="47.639252" lon="13.013231">
        <ele>543.60</ele>
        <time>2012-11-04T10:35:09Z</time>
      </trkpt>
      <trkpt lat="47.639240" lon="13.013189">
        <ele>544.20</ele>
        <time>2012-11-04T10:35:10Z</time>
      </trkpt>
      <trkpt lat="47.639229" lon="13.013147">
        <ele>544.60</ele>
        <time>2012-11-04T10:35:11Z</time>
      </trkpt>
      <trkpt lat="47.639221" lon="13.013103">
        <ele>545.00</ele>
        <time>2012-11-04T10:35:12Z</time>
      </trkpt>
      <trkpt lat="47.639187" lon="13.012921">
        <ele>545.00</ele>
        <time>2012-11-04T10:35:16Z</time>
      </trkpt>
      <trkpt lat="47.639156" lon="13.012757">
        <ele>545.00</ele>
        <time>2012-11-04T10:35:20Z</time>
      </trkpt>
      <trkpt lat="47.639145" lon="13.012494">
        <ele>545.00</ele>
        <time>2012-11-04T10:35:27Z</time>
      </trkpt>
      <trkpt lat="47.639145" lon="13.012394">
        <ele>545.40</ele>
        <time>2012-11-04T10:35:30Z</time>
      </trkpt>
      <trkpt lat="47.639145" lon="13.012365">
        <ele>545.80</ele>
        <time>2012-11-04T10:35:31Z</time>
      </trkpt>
      <trkpt lat="47.639149" lon="13.012335">
        <ele>546.20</ele>
        <time>2012-11-04T10:35:32Z</time>
      </trkpt>
      <trkpt lat="47.639149" lon="13.012304">
        <ele>546.60</ele>
        <time>2012-11-04T10:35:33Z</time>
      </trkpt>
      <trkpt lat="47.639149" lon="13.012275">
        <ele>547.00</ele>
        <time>2012-11-04T10:35:34Z</time>
      </trkpt>
      <trkpt lat="47.639149" lon="13.012244">
        <ele>547.00</ele>
        <time>2012-11-04T10:35:35Z</time>
      </trkpt>
      <trkpt lat="47.639141" lon="13.012053">
        <ele>547.60</ele>
        <time>2012-11-04T10:35:41Z</time>
      </trkpt>
      <trkpt lat="47.639141" lon="13.012026">
        <ele>548.00</ele>
        <time>2012-11-04T10:35:42Z</time>
      </trkpt>
      <trkpt lat="47.639141" lon="13.011995">
        <ele>548.40</ele>
        <time>2012-11-04T10:35:43Z</time>
      </trkpt>
      <trkpt lat="47.639137" lon="13.011962">
        <ele>548.80</ele>
        <time>2012-11-04T10:35:44Z</time>
      </trkpt>
      <trkpt lat="47.639137" lon="13.011931">
        <ele>549.20</ele>
        <time>2012-11-04T10:35:45Z</time>
      </trkpt>
      <trkpt lat="47.639145" lon="13.011789">
        <ele>549.60</ele>
        <time>2012-11-04T10:35:50Z</time>
      </trkpt>
      <trkpt lat="47.639141" lon="13.011757">
        <ele>550.00</ele>
        <time>2012-11-04T10:35:51Z</time>
      </trkpt>
      <trkpt lat="47.639137" lon="13.011723">
        <ele>550.60</ele>
        <time>2012-11-04T10:35:52Z</time>
      </trkpt>
      <trkpt lat="47.639133" lon="13.011690">
        <ele>551.00</ele>
        <time>2012-11-04T10:35:53Z</time>
      </trkpt>
      <trkpt lat="47.639122" lon="13.011658">
        <ele>551.40</ele>
        <time>2012-11-04T10:35:54Z</time>
      </trkpt>
      <trkpt lat="47.639095" lon="13.011519">
        <ele>551.40</ele>
        <time>2012-11-04T10:35:58Z</time>
      </trkpt>
      <trkpt lat="47.639080" lon="13.011452">
        <ele>551.80</ele>
        <time>2012-11-04T10:36:00Z</time>
      </trkpt>
      <trkpt lat="47.639080" lon="13.011421">
        <ele>552.20</ele>
        <time>2012-11-04T10:36:01Z</time>
      </trkpt>
      <trkpt lat="47.639072" lon="13.011391">
        <ele>552.60</ele>
        <time>2012-11-04T10:36:02Z</time>
      </trkpt>
      <trkpt lat="47.639069" lon="13.011362">
        <ele>553.00</ele>
        <time>2012-11-04T10:36:03Z</time>
      </trkpt>
      <trkpt lat="47.639061" lon="13.011335">
        <ele>553.40</ele>
        <time>2012-11-04T10:36:04Z</time>
      </trkpt>
      <trkpt lat="47.639053" lon="13.011305">
        <ele>553.40</ele>
        <time>2012-11-04T10:36:05Z</time>
      </trkpt>
      <trkpt lat="47.639027" lon="13.011182">
        <ele>553.80</ele>
        <time>2012-11-04T10:36:09Z</time>
      </trkpt>
      <trkpt lat="47.639023" lon="13.011154">
        <ele>554.20</ele>
        <time>2012-11-04T10:36:10Z</time>
      </trkpt>
      <trkpt lat="47.639019" lon="13.011127">
        <ele>554.60</ele>
        <time>2012-11-04T10:36:11Z</time>
      </trkpt>
      <trkpt lat="47.639011" lon="13.011095">
        <ele>555.00</ele>
        <time>2012-11-04T10:36:12Z</time>
      </trkpt>
      <trkpt lat="47.639011" lon="13.011064">
        <ele>555.40</ele>
        <time>2012-11-04T10:36:13Z</time>
      </trkpt>
      <trkpt lat="47.638988" lon="13.010931">
        <ele>556.00</ele>
        <time>2012-11-04T10:36:17Z</time>
      </trkpt>
      <trkpt lat="47.638985" lon="13.010901">
        <ele>556.40</ele>
        <time>2012-11-04T10:36:18Z</time>
      </trkpt>
      <trkpt lat="47.638973" lon="13.010868">
        <ele>556.80</ele>
        <time>2012-11-04T10:36:19Z</time>
      </trkpt>
      <trkpt lat="47.638966" lon="13.010844">
        <ele>557.20</ele>
        <time>2012-11-04T10:36:20Z</time>
      </trkpt>
      <trkpt lat="47.638958" lon="13.010817">
        <ele>557.80</ele>
        <time>2012-11-04T10:36:21Z</time>
      </trkpt>
      <trkpt lat="47.638950" lon="13.010701">
        <ele>557.80</ele>
        <time>2012-11-04T10:36:25Z</time>
      </trkpt>
      <trkpt lat="47.638943" lon="13.010671">
        <ele>558.20</ele>
        <time>2012-11-04T10:36:26Z</time>
      </trkpt>
      <trkpt lat="47.638939" lon="13.010638">
        <ele>558.60</ele>
        <time>2012-11-04T10:36:27Z</time>
      </trkpt>
      <trkpt lat="47.638935" lon="13.010607">
        <ele>559.00</ele>
        <time>2012-11-04T10:36:28Z</time>
      </trkpt>
      <trkpt lat="47.638927" lon="13.010578">
        <ele>559.40</ele>
        <time>2012-11-04T10:36:29Z</time>
      </trkpt>
      <trkpt lat="47.638924" lon="13.010546">
        <ele>559.80</ele>
        <time>2012-11-04T10:36:30Z</time>
      </trkpt>
      <trkpt lat="47.638908" lon="13.010436">
        <ele>559.80</ele>
        <time>2012-11-04T10:36:34Z</time>
      </trkpt>
      <trkpt lat="47.638901" lon="13.010408">
        <ele>560.40</ele>
        <time>2012-11-04T10:36:35Z</time>
      </trkpt>
      <trkpt lat="47.638889" lon="13.010378">
        <ele>560.80</ele>
        <time>2012-11-04T10:36:36Z</time>
      </trkpt>
      <trkpt lat="47.638885" lon="13.010349">
        <ele>561.60</ele>
        <time>2012-11-04T10:36:37Z</time>
      </trkpt>
      <trkpt lat="47.638878" lon="13.010317">
        <ele>562.20</ele>
        <time>2012-11-04T10:36:38Z</time>
      </trkpt>
      <trkpt lat="47.638836" lon="13.010152">
        <ele>562.20</ele>
        <time>2012-11-04T10:36:43Z</time>
      </trkpt>
      <trkpt lat="47.638832" lon="13.010120">
        <ele>562.60</ele>
        <time>2012-11-04T10:36:44Z</time>
      </trkpt>
      <trkpt lat="47.638828" lon="13.010092">
        <ele>563.00</ele>
        <time>2012-11-04T10:36:45Z</time>
      </trkpt>
      <trkpt lat="47.638821" lon="13.010066">
        <ele>563.40</ele>
        <time>2012-11-04T10:36:46Z</time>
      </trkpt>
      <trkpt lat="47.638813" lon="13.010036">
        <ele>563.80</ele>
        <time>2012-11-04T10:36:47Z</time>
      </trkpt>
      <trkpt lat="47.638802" lon="13.010006">
        <ele>564.20</ele>
        <time>2012-11-04T10:36:48Z</time>
      </trkpt>
      <trkpt lat="47.638763" lon="13.009929">
        <ele>564.20</ele>
        <time>2012-11-04T10:36:51Z</time>
      </trkpt>
      <trkpt lat="47.638649" lon="13.009719">
        <ele>564.20</ele>
        <time>2012-11-04T10:36:59Z</time>
      </trkpt>
      <trkpt lat="47.638554" lon="13.009588">
        <ele>564.20</ele>
        <time>2012-11-04T10:37:04Z</time>
      </trkpt>
      <trkpt lat="47.638477" lon="13.009476">
        <ele>564.60</ele>
        <time>2012-11-04T10:37:08Z</time>
      </trkpt>
      <trkpt lat="47.638451" lon="13.009445">
        <ele>565.00</ele>
        <time>2012-11-04T10:37:09Z</time>
      </trkpt>
      <trkpt lat="47.638432" lon="13.009415">
        <ele>565.60</ele>
        <time>2012-11-04T10:37:10Z</time>
      </trkpt>
      <trkpt lat="47.638409" lon="13.009383">
        <ele>566.00</ele>
        <time>2012-11-04T10:37:11Z</time>
      </trkpt>
      <trkpt lat="47.638390" lon="13.009358">
        <ele>566.40</ele>
        <time>2012-11-04T10:37:12Z</time>
      </trkpt>
      <trkpt lat="47.638290" lon="13.009212">
        <ele>566.40</ele>
        <time>2012-11-04T10:37:17Z</time>
      </trkpt>
      <trkpt lat="47.638142" lon="13.008994">
        <ele>566.40</ele>
        <time>2012-11-04T10:37:24Z</time>
      </trkpt>
      <trkpt lat="47.638023" lon="13.008737">
        <ele>566.40</ele>
        <time>2012-11-04T10:37:31Z</time>
      </trkpt>
      <trkpt lat="47.637962" lon="13.008587">
        <ele>566.80</ele>
        <time>2012-11-04T10:37:35Z</time>
      </trkpt>
      <trkpt lat="47.637947" lon="13.008546">
        <ele>567.20</ele>
        <time>2012-11-04T10:37:36Z</time>
      </trkpt>
      <trkpt lat="47.637932" lon="13.008508">
        <ele>567.60</ele>
        <time>2012-11-04T10:37:37Z</time>
      </trkpt>
      <trkpt lat="47.637917" lon="13.008472">
        <ele>568.00</ele>
        <time>2012-11-04T10:37:38Z</time>
      </trkpt>
      <trkpt lat="47.637897" lon="13.008434">
        <ele>568.40</ele>
        <time>2012-11-04T10:37:39Z</time>
      </trkpt>
      <trkpt lat="47.637772" lon="13.008157">
        <ele>568.40</ele>
        <time>2012-11-04T10:37:46Z</time>
      </trkpt>
      <trkpt lat="47.637650" lon="13.007872">
        <ele>568.40</ele>
        <time>2012-11-04T10:37:53Z</time>
      </trkpt>
      <trkpt lat="47.637566" lon="13.007630">
        <ele>568.40</ele>
        <time>2012-11-04T10:37:59Z</time>
      </trkpt>
      <trkpt lat="47.637543" lon="13.007553">
        <ele>568.40</ele>
        <time>2012-11-04T10:38:01Z</time>
      </trkpt>
      <trkpt lat="47.637428" lon="13.007277">
        <ele>568.80</ele>
        <time>2012-11-04T10:38:08Z</time>
      </trkpt>
      <trkpt lat="47.637413" lon="13.007231">
        <ele>569.20</ele>
        <time>2012-11-04T10:38:09Z</time>
      </trkpt>
      <trkpt lat="47.637398" lon="13.007186">
        <ele>569.60</ele>
        <time>2012-11-04T10:38:10Z</time>
      </trkpt>
      <trkpt lat="47.637386" lon="13.007146">
        <ele>570.00</ele>
        <time>2012-11-04T10:38:11Z</time>
      </trkpt>
      <trkpt lat="47.637371" lon="13.007105">
        <ele>570.40</ele>
        <time>2012-11-04T10:38:12Z</time>
      </trkpt>
      <trkpt lat="47.637306" lon="13.006949">
        <ele>570.40</ele>
        <time>2012-11-04T10:38:16Z</time>
      </trkpt>
      <trkpt lat="47.637211" lon="13.006678">
        <ele>570.40</ele>
        <time>2012-11-04T10:38:23Z</time>
      </trkpt>
      <trkpt lat="47.637192" lon="13.006637">
        <ele>570.80</ele>
        <time>2012-11-04T10:38:24Z</time>
      </trkpt>
      <trkpt lat="47.637173" lon="13.006600">
        <ele>571.20</ele>
        <time>2012-11-04T10:38:25Z</time>
      </trkpt>
      <trkpt lat="47.637157" lon="13.006560">
        <ele>571.60</ele>
        <time>2012-11-04T10:38:26Z</time>
      </trkpt>
      <trkpt lat="47.637138" lon="13.006527">
        <ele>572.00</ele>
        <time>2012-11-04T10:38:27Z</time>
      </trkpt>
      <trkpt lat="47.637123" lon="13.006495">
        <ele>572.40</ele>
        <time>2012-11-04T10:38:28Z</time>
      </trkpt>
      <trkpt lat="47.637062" lon="13.006353">
        <ele>572.40</ele>
        <time>2012-11-04T10:38:32Z</time>
      </trkpt>
      <trkpt lat="47.637047" lon="13.006317">
        <ele>572.80</ele>
        <time>2012-11-04T10:38:33Z</time>
      </trkpt>
      <trkpt lat="47.637028" lon="13.006282">
        <ele>573.20</ele>
        <time>2012-11-04T10:38:34Z</time>
      </trkpt>
      <trkpt lat="47.637012" lon="13.006246">
        <ele>573.60</ele>
        <time>2012-11-04T10:38:35Z</time>
      </trkpt>
      <trkpt lat="47.636993" lon="13.006213">
        <ele>574.20</ele>
        <time>2012-11-04T10:38:36Z</time>
      </trkpt>
      <trkpt lat="47.636971" lon="13.006183">
        <ele>574.60</ele>
        <time>2012-11-04T10:38:37Z</time>
      </trkpt>
      <trkpt lat="47.636932" lon="13.006122">
        <ele>574.60</ele>
        <time>2012-11-04T10:38:39Z</time>
      </trkpt>
      <trkpt lat="47.636879" lon="13.006026">
        <ele>575.00</ele>
        <time>2012-11-04T10:38:42Z</time>
      </trkpt>
      <trkpt lat="47.636868" lon="13.006001">
        <ele>575.40</ele>
        <time>2012-11-04T10:38:43Z</time>
      </trkpt>
      <trkpt lat="47.636852" lon="13.005974">
        <ele>575.80</ele>
        <time>2012-11-04T10:38:44Z</time>
      </trkpt>
      <trkpt lat="47.636833" lon="13.005944">
        <ele>576.20</ele>
        <time>2012-11-04T10:38:45Z</time>
      </trkpt>
      <trkpt lat="47.636810" lon="13.005912">
        <ele>576.60</ele>
        <time>2012-11-04T10:38:46Z</time>
      </trkpt>
      <trkpt lat="47.636646" lon="13.005715">
        <ele>576.60</ele>
        <time>2012-11-04T10:38:53Z</time>
      </trkpt>
      <trkpt lat="47.636478" lon="13.005542">
        <ele>576.60</ele>
        <time>2012-11-04T10:39:00Z</time>
      </trkpt>
      <trkpt lat="47.636341" lon="13.005375">
        <ele>576.60</ele>
        <time>2012-11-04T10:39:06Z</time>
      </trkpt>
      <trkpt lat="47.636147" lon="13.005133">
        <ele>576.60</ele>
        <time>2012-11-04T10:39:14Z</time>
      </trkpt>
      <trkpt lat="47.636021" lon="13.005036">
        <ele>577.00</ele>
        <time>2012-11-04T10:39:19Z</time>
      </trkpt>
      <trkpt lat="47.635986" lon="13.005015">
        <ele>577.40</ele>
        <time>2012-11-04T10:39:20Z</time>
      </trkpt>
      <trkpt lat="47.635952" lon="13.004997">
        <ele>577.80</ele>
        <time>2012-11-04T10:39:21Z</time>
      </trkpt>
      <trkpt lat="47.635918" lon="13.004982">
        <ele>578.20</ele>
        <time>2012-11-04T10:39:22Z</time>
      </trkpt>
      <trkpt lat="47.635883" lon="13.004964">
        <ele>578.60</ele>
        <time>2012-11-04T10:39:23Z</time>
      </trkpt>
      <trkpt lat="47.635765" lon="13.004896">
        <ele>578.60</ele>
        <time>2012-11-04T10:39:27Z</time>
      </trkpt>
      <trkpt lat="47.635555" lon="13.004756">
        <ele>578.60</ele>
        <time>2012-11-04T10:39:35Z</time>
      </trkpt>
      <trkpt lat="47.635498" lon="13.004719">
        <ele>579.00</ele>
        <time>2012-11-04T10:39:37Z</time>
      </trkpt>
      <trkpt lat="47.635475" lon="13.004698">
        <ele>579.40</ele>
        <time>2012-11-04T10:39:38Z</time>
      </trkpt>
      <trkpt lat="47.635445" lon="13.004676">
        <ele>579.80</ele>
        <time>2012-11-04T10:39:39Z</time>
      </trkpt>
      <trkpt lat="47.635422" lon="13.004657">
        <ele>580.20</ele>
        <time>2012-11-04T10:39:40Z</time>
      </trkpt>
      <trkpt lat="47.635391" lon="13.004634">
        <ele>580.60</ele>
        <time>2012-11-04T10:39:41Z</time>
      </trkpt>
      <trkpt lat="47.635281" lon="13.004541">
        <ele>580.60</ele>
        <time>2012-11-04T10:39:45Z</time>
      </trkpt>
      <trkpt lat="47.635197" lon="13.004483">
        <ele>581.00</ele>
        <time>2012-11-04T10:39:48Z</time>
      </trkpt>
      <trkpt lat="47.635166" lon="13.004461">
        <ele>581.40</ele>
        <time>2012-11-04T10:39:49Z</time>
      </trkpt>
      <trkpt lat="47.635139" lon="13.004439">
        <ele>581.80</ele>
        <time>2012-11-04T10:39:50Z</time>
      </trkpt>
      <trkpt lat="47.635117" lon="13.004416">
        <ele>582.20</ele>
        <time>2012-11-04T10:39:51Z</time>
      </trkpt>
      <trkpt lat="47.635094" lon="13.004395">
        <ele>582.60</ele>
        <time>2012-11-04T10:39:52Z</time>
      </trkpt>
      <trkpt lat="47.635044" lon="13.004345">
        <ele>582.60</ele>
        <time>2012-11-04T10:39:54Z</time>
      </trkpt>
      <trkpt lat="47.634861" lon="13.004242">
        <ele>582.60</ele>
        <time>2012-11-04T10:40:00Z</time>
      </trkpt>
      <trkpt lat="47.634621" lon="13.004080">
        <ele>582.60</ele>
        <time>2012-11-04T10:40:06Z</time>
      </trkpt>
      <trkpt lat="47.634350" lon="13.003833">
        <ele>582.60</ele>
        <time>2012-11-04T10:40:11Z</time>
      </trkpt>
      <trkpt lat="47.634182" lon="13.003624">
        <ele>582.60</ele>
        <time>2012-11-04T10:40:15Z</time>
      </trkpt>
      <trkpt lat="47.634144" lon="13.003578">
        <ele>582.60</ele>
        <time>2012-11-04T10:40:16Z</time>
      </trkpt>
      <trkpt lat="47.634113" lon="13.003532">
        <ele>582.60</ele>
        <time>2012-11-04T10:40:17Z</time>
      </trkpt>
      <trkpt lat="47.634007" lon="13.003362">
        <ele>582.60</ele>
        <time>2012-11-04T10:40:21Z</time>
      </trkpt>
      <trkpt lat="47.633911" lon="13.003221">
        <ele>582.60</ele>
        <time>2012-11-04T10:40:26Z</time>
      </trkpt>
      <trkpt lat="47.633778" lon="13.003178">
        <ele>582.60</ele>
        <time>2012-11-04T10:40:31Z</time>
      </trkpt>
      <trkpt lat="47.633747" lon="13.003175">
        <ele>582.60</ele>
        <time>2012-11-04T10:40:32Z</time>
      </trkpt>
      <trkpt lat="47.633587" lon="13.003137">
        <ele>582.60</ele>
        <time>2012-11-04T10:40:39Z</time>
      </trkpt>
      <trkpt lat="47.633530" lon="13.003107">
        <ele>582.60</ele>
        <time>2012-11-04T10:40:43Z</time>
      </trkpt>
      <trkpt lat="47.633522" lon="13.003112">
        <ele>582.60</ele>
        <time>2012-11-04T10:40:45Z</time>
      </trkpt>
      <trkpt lat="47.633495" lon="13.003102">
        <ele>582.60</ele>
        <time>2012-11-04T10:40:51Z</time>
      </trkpt>
      <trkpt lat="47.633495" lon="13.003102">
        <ele>582.60</ele>
        <time>2012-11-04T10:41:00Z</time>
      </trkpt>
      <trkpt lat="47.633480" lon="13.003093">
        <ele>582.60</ele>
        <time>2012-11-04T10:41:09Z</time>
      </trkpt>
      <trkpt lat="47.633423" lon="13.003034">
        <ele>582.60</ele>
        <time>2012-11-04T10:41:14Z</time>
      </trkpt>
      <trkpt lat="47.633419" lon="13.003010">
        <ele>582.60</ele>
        <time>2012-11-04T10:41:15Z</time>
      </trkpt>
      <trkpt lat="47.633358" lon="13.002910">
        <ele>582.60</ele>
        <time>2012-11-04T10:41:19Z</time>
      </trkpt>
      <trkpt lat="47.633213" lon="13.002717">
        <ele>582.60</ele>
        <time>2012-11-04T10:41:25Z</time>
      </trkpt>
      <trkpt lat="47.633202" lon="13.002507">
        <ele>582.60</ele>
        <time>2012-11-04T10:41:30Z</time>
      </trkpt>
      <trkpt lat="47.633183" lon="13.002257">
        <ele>582.60</ele>
        <time>2012-11-04T10:41:36Z</time>
      </trkpt>
      <trkpt lat="47.633167" lon="13.002178">
        <ele>582.60</ele>
        <time>2012-11-04T10:41:38Z</time>
      </trkpt>
      <trkpt lat="47.633118" lon="13.002103">
        <ele>582.60</ele>
        <time>2012-11-04T10:41:40Z</time>
      </trkpt>
      <trkpt lat="47.633034" lon="13.001985">
        <ele>582.60</ele>
        <time>2012-11-04T10:41:45Z</time>
      </trkpt>
      <trkpt lat="47.632935" lon="13.001858">
        <ele>582.60</ele>
        <time>2012-11-04T10:41:52Z</time>
      </trkpt>
      <trkpt lat="47.632874" lon="13.001698">
        <ele>582.60</ele>
        <time>2012-11-04T10:41:58Z</time>
      </trkpt>
      <trkpt lat="47.632774" lon="13.001489">
        <ele>582.60</ele>
        <time>2012-11-04T10:42:06Z</time>
      </trkpt>
      <trkpt lat="47.632713" lon="13.001354">
        <ele>582.60</ele>
        <time>2012-11-04T10:42:10Z</time>
      </trkpt>
      <trkpt lat="47.632652" lon="13.001204">
        <ele>582.60</ele>
        <time>2012-11-04T10:42:15Z</time>
      </trkpt>
      <trkpt lat="47.632599" lon="13.001082">
        <ele>583.00</ele>
        <time>2012-11-04T10:42:19Z</time>
      </trkpt>
      <trkpt lat="47.632584" lon="13.001053">
        <ele>583.60</ele>
        <time>2012-11-04T10:42:20Z</time>
      </trkpt>
      <trkpt lat="47.632568" lon="13.001020">
        <ele>584.00</ele>
        <time>2012-11-04T10:42:21Z</time>
      </trkpt>
      <trkpt lat="47.632557" lon="13.000991">
        <ele>584.40</ele>
        <time>2012-11-04T10:42:22Z</time>
      </trkpt>
      <trkpt lat="47.632553" lon="13.000959">
        <ele>584.80</ele>
        <time>2012-11-04T10:42:23Z</time>
      </trkpt>
      <trkpt lat="47.632549" lon="13.000864">
        <ele>584.80</ele>
        <time>2012-11-04T10:42:25Z</time>
      </trkpt>
      <trkpt lat="47.632500" lon="13.000771">
        <ele>584.80</ele>
        <time>2012-11-04T10:42:28Z</time>
      </trkpt>
      <trkpt lat="47.632385" lon="13.000615">
        <ele>584.80</ele>
        <time>2012-11-04T10:42:33Z</time>
      </trkpt>
      <trkpt lat="47.632336" lon="13.000393">
        <ele>584.80</ele>
        <time>2012-11-04T10:42:39Z</time>
      </trkpt>
      <trkpt lat="47.632320" lon="13.000158">
        <ele>584.80</ele>
        <time>2012-11-04T10:42:46Z</time>
      </trkpt>
      <trkpt lat="47.632313" lon="12.999992">
        <ele>584.80</ele>
        <time>2012-11-04T10:42:50Z</time>
      </trkpt>
      <trkpt lat="47.632301" lon="12.999942">
        <ele>585.20</ele>
        <time>2012-11-04T10:42:51Z</time>
      </trkpt>
      <trkpt lat="47.632282" lon="12.999891">
        <ele>585.60</ele>
        <time>2012-11-04T10:42:52Z</time>
      </trkpt>
      <trkpt lat="47.632259" lon="12.999841">
        <ele>586.00</ele>
        <time>2012-11-04T10:42:53Z</time>
      </trkpt>
      <trkpt lat="47.632236" lon="12.999802">
        <ele>586.40</ele>
        <time>2012-11-04T10:42:54Z</time>
      </trkpt>
      <trkpt lat="47.632214" lon="12.999770">
        <ele>586.80</ele>
        <time>2012-11-04T10:42:55Z</time>
      </trkpt>
      <trkpt lat="47.632118" lon="12.999660">
        <ele>586.80</ele>
        <time>2012-11-04T10:42:59Z</time>
      </trkpt>
      <trkpt lat="47.632092" lon="12.999642">
        <ele>587.20</ele>
        <time>2012-11-04T10:43:00Z</time>
      </trkpt>
      <trkpt lat="47.632061" lon="12.999624">
        <ele>587.60</ele>
        <time>2012-11-04T10:43:01Z</time>
      </trkpt>
      <trkpt lat="47.632019" lon="12.999610">
        <ele>588.00</ele>
        <time>2012-11-04T10:43:02Z</time>
      </trkpt>
      <trkpt lat="47.631981" lon="12.999603">
        <ele>588.40</ele>
        <time>2012-11-04T10:43:03Z</time>
      </trkpt>
      <trkpt lat="47.631939" lon="12.999601">
        <ele>588.80</ele>
        <time>2012-11-04T10:43:04Z</time>
      </trkpt>
      <trkpt lat="47.631893" lon="12.999608">
        <ele>588.80</ele>
        <time>2012-11-04T10:43:05Z</time>
      </trkpt>
      <trkpt lat="47.631836" lon="12.999628">
        <ele>588.80</ele>
        <time>2012-11-04T10:43:06Z</time>
      </trkpt>
      <trkpt lat="47.631573" lon="12.999720">
        <ele>588.80</ele>
        <time>2012-11-04T10:43:11Z</time>
      </trkpt>
      <trkpt lat="47.631477" lon="12.999787">
        <ele>588.80</ele>
        <time>2012-11-04T10:43:13Z</time>
      </trkpt>
      <trkpt lat="47.631378" lon="12.999837">
        <ele>588.80</ele>
        <time>2012-11-04T10:43:15Z</time>
      </trkpt>
      <trkpt lat="47.631252" lon="12.999849">
        <ele>588.80</ele>
        <time>2012-11-04T10:43:18Z</time>
      </trkpt>
      <trkpt lat="47.631214" lon="12.999850">
        <ele>588.80</ele>
        <time>2012-11-04T10:43:19Z</time>
      </trkpt>
      <trkpt lat="47.631096" lon="12.999826">
        <ele>588.80</ele>
        <time>2012-11-04T10:43:22Z</time>
      </trkpt>
      <trkpt lat="47.631023" lon="12.999798">
        <ele>588.80</ele>
        <time>2012-11-04T10:43:24Z</time>
      </trkpt>
      <trkpt lat="47.630829" lon="12.999657">
        <ele>588.80</ele>
        <time>2012-11-04T10:43:30Z</time>
      </trkpt>
      <trkpt lat="47.630650" lon="12.999672">
        <ele>588.80</ele>
        <time>2012-11-04T10:43:34Z</time>
      </trkpt>
      <trkpt lat="47.630390" lon="12.999807">
        <ele>588.80</ele>
        <time>2012-11-04T10:43:40Z</time>
      </trkpt>
      <trkpt lat="47.630280" lon="12.999996">
        <ele>588.80</ele>
        <time>2012-11-04T10:43:44Z</time>
      </trkpt>
      <trkpt lat="47.630260" lon="13.000106">
        <ele>588.80</ele>
        <time>2012-11-04T10:43:46Z</time>
      </trkpt>
      <trkpt lat="47.630249" lon="13.000239">
        <ele>588.80</ele>
        <time>2012-11-04T10:43:49Z</time>
      </trkpt>
      <trkpt lat="47.630249" lon="13.000277">
        <ele>588.80</ele>
        <time>2012-11-04T10:43:50Z</time>
      </trkpt>
      <trkpt lat="47.630207" lon="13.000585">
        <ele>588.80</ele>
        <time>2012-11-04T10:43:57Z</time>
      </trkpt>
      <trkpt lat="47.630108" lon="13.000957">
        <ele>588.80</ele>
        <time>2012-11-04T10:44:05Z</time>
      </trkpt>
      <trkpt lat="47.630074" lon="13.001032">
        <ele>588.80</ele>
        <time>2012-11-04T10:44:07Z</time>
      </trkpt>
      <trkpt lat="47.630028" lon="13.001061">
        <ele>588.80</ele>
        <time>2012-11-04T10:44:09Z</time>
      </trkpt>
      <trkpt lat="47.629948" lon="13.001056">
        <ele>588.80</ele>
        <time>2012-11-04T10:44:12Z</time>
      </trkpt>
      <trkpt lat="47.629883" lon="13.001060">
        <ele>588.80</ele>
        <time>2012-11-04T10:44:14Z</time>
      </trkpt>
      <trkpt lat="47.629715" lon="13.001024">
        <ele>588.80</ele>
        <time>2012-11-04T10:44:19Z</time>
      </trkpt>
      <trkpt lat="47.629421" lon="13.000961">
        <ele>588.80</ele>
        <time>2012-11-04T10:44:28Z</time>
      </trkpt>
      <trkpt lat="47.629318" lon="13.000924">
        <ele>589.20</ele>
        <time>2012-11-04T10:44:31Z</time>
      </trkpt>
      <trkpt lat="47.629292" lon="13.000907">
        <ele>589.60</ele>
        <time>2012-11-04T10:44:32Z</time>
      </trkpt>
      <trkpt lat="47.629257" lon="13.000883">
        <ele>590.00</ele>
        <time>2012-11-04T10:44:33Z</time>
      </trkpt>
      <trkpt lat="47.629227" lon="13.000867">
        <ele>590.40</ele>
        <time>2012-11-04T10:44:34Z</time>
      </trkpt>
      <trkpt lat="47.629200" lon="13.000849">
        <ele>591.00</ele>
        <time>2012-11-04T10:44:35Z</time>
      </trkpt>
      <trkpt lat="47.628944" lon="13.000671">
        <ele>591.00</ele>
        <time>2012-11-04T10:44:43Z</time>
      </trkpt>
      <trkpt lat="47.628738" lon="13.000454">
        <ele>591.00</ele>
        <time>2012-11-04T10:44:49Z</time>
      </trkpt>
      <trkpt lat="47.628643" lon="13.000313">
        <ele>591.00</ele>
        <time>2012-11-04T10:44:52Z</time>
      </trkpt>
      <trkpt lat="47.628567" lon="13.000154">
        <ele>591.00</ele>
        <time>2012-11-04T10:44:55Z</time>
      </trkpt>
      <trkpt lat="47.628498" lon="12.999887">
        <ele>591.00</ele>
        <time>2012-11-04T10:45:00Z</time>
      </trkpt>
      <trkpt lat="47.628494" lon="12.999545">
        <ele>591.00</ele>
        <time>2012-11-04T10:45:06Z</time>
      </trkpt>
      <trkpt lat="47.628555" lon="12.999116">
        <ele>591.00</ele>
        <time>2012-11-04T10:45:14Z</time>
      </trkpt>
      <trkpt lat="47.628582" lon="12.998679">
        <ele>591.00</ele>
        <time>2012-11-04T10:45:22Z</time>
      </trkpt>
      <trkpt lat="47.628506" lon="12.998422">
        <ele>591.00</ele>
        <time>2012-11-04T10:45:27Z</time>
      </trkpt>
      <trkpt lat="47.628387" lon="12.997993">
        <ele>591.00</ele>
        <time>2012-11-04T10:45:35Z</time>
      </trkpt>
      <trkpt lat="47.628281" lon="12.997643">
        <ele>591.00</ele>
        <time>2012-11-04T10:45:42Z</time>
      </trkpt>
      <trkpt lat="47.628269" lon="12.997589">
        <ele>591.40</ele>
        <time>2012-11-04T10:45:43Z</time>
      </trkpt>
      <trkpt lat="47.628254" lon="12.997539">
        <ele>591.80</ele>
        <time>2012-11-04T10:45:44Z</time>
      </trkpt>
      <trkpt lat="47.628242" lon="12.997485">
        <ele>592.20</ele>
        <time>2012-11-04T10:45:45Z</time>
      </trkpt>
      <trkpt lat="47.628235" lon="12.997437">
        <ele>592.60</ele>
        <time>2012-11-04T10:45:46Z</time>
      </trkpt>
      <trkpt lat="47.628227" lon="12.997386">
        <ele>593.00</ele>
        <time>2012-11-04T10:45:47Z</time>
      </trkpt>
      <trkpt lat="47.628212" lon="12.997338">
        <ele>593.00</ele>
        <time>2012-11-04T10:45:48Z</time>
      </trkpt>
      <trkpt lat="47.628136" lon="12.996994">
        <ele>593.00</ele>
        <time>2012-11-04T10:45:55Z</time>
      </trkpt>
      <trkpt lat="47.628044" lon="12.996625">
        <ele>593.00</ele>
        <time>2012-11-04T10:46:03Z</time>
      </trkpt>
      <trkpt lat="47.627991" lon="12.996449">
        <ele>593.40</ele>
        <time>2012-11-04T10:46:07Z</time>
      </trkpt>
      <trkpt lat="47.627979" lon="12.996404">
        <ele>593.80</ele>
        <time>2012-11-04T10:46:08Z</time>
      </trkpt>
      <trkpt lat="47.627968" lon="12.996361">
        <ele>594.20</ele>
        <time>2012-11-04T10:46:09Z</time>
      </trkpt>
      <trkpt lat="47.627956" lon="12.996316">
        <ele>594.60</ele>
        <time>2012-11-04T10:46:10Z</time>
      </trkpt>
      <trkpt lat="47.627941" lon="12.996270">
        <ele>595.00</ele>
        <time>2012-11-04T10:46:11Z</time>
      </trkpt>
      <trkpt lat="47.627834" lon="12.996020">
        <ele>595.00</ele>
        <time>2012-11-04T10:46:17Z</time>
      </trkpt>
      <trkpt lat="47.627819" lon="12.995982">
        <ele>595.40</ele>
        <time>2012-11-04T10:46:18Z</time>
      </trkpt>
      <trkpt lat="47.627800" lon="12.995944">
        <ele>595.80</ele>
        <time>2012-11-04T10:46:19Z</time>
      </trkpt>
      <trkpt lat="47.627781" lon="12.995906">
        <ele>596.20</ele>
        <time>2012-11-04T10:46:20Z</time>
      </trkpt>
      <trkpt lat="47.627766" lon="12.995865">
        <ele>596.80</ele>
        <time>2012-11-04T10:46:21Z</time>
      </trkpt>
      <trkpt lat="47.627747" lon="12.995825">
        <ele>597.20</ele>
        <time>2012-11-04T10:46:22Z</time>
      </trkpt>
      <trkpt lat="47.627659" lon="12.995683">
        <ele>597.20</ele>
        <time>2012-11-04T10:46:26Z</time>
      </trkpt>
      <trkpt lat="47.627552" lon="12.995579">
        <ele>597.20</ele>
        <time>2012-11-04T10:46:30Z</time>
      </trkpt>
      <trkpt lat="47.627460" lon="12.995507">
        <ele>597.20</ele>
        <time>2012-11-04T10:46:33Z</time>
      </trkpt>
      <trkpt lat="47.627430" lon="12.995486">
        <ele>597.60</ele>
        <time>2012-11-04T10:46:34Z</time>
      </trkpt>
      <trkpt lat="47.627403" lon="12.995474">
        <ele>598.00</ele>
        <time>2012-11-04T10:46:35Z</time>
      </trkpt>
      <trkpt lat="47.627373" lon="12.995461">
        <ele>598.40</ele>
        <time>2012-11-04T10:46:36Z</time>
      </trkpt>
      <trkpt lat="47.627342" lon="12.995444">
        <ele>598.80</ele>
        <time>2012-11-04T10:46:37Z</time>
      </trkpt>
      <trkpt lat="47.627308" lon="12.995428">
        <ele>599.40</ele>
        <time>2012-11-04T10:46:38Z</time>
      </trkpt>
      <trkpt lat="47.627254" lon="12.995395">
        <ele>599.40</ele>
        <time>2012-11-04T10:46:40Z</time>
      </trkpt>
      <trkpt lat="47.627110" lon="12.995311">
        <ele>599.40</ele>
        <time>2012-11-04T10:46:45Z</time>
      </trkpt>
      <trkpt lat="47.627026" lon="12.995255">
        <ele>599.80</ele>
        <time>2012-11-04T10:46:48Z</time>
      </trkpt>
      <trkpt lat="47.626999" lon="12.995235">
        <ele>600.20</ele>
        <time>2012-11-04T10:46:49Z</time>
      </trkpt>
      <trkpt lat="47.626972" lon="12.995211">
        <ele>600.60</ele>
        <time>2012-11-04T10:46:50Z</time>
      </trkpt>
      <trkpt lat="47.626953" lon="12.995188">
        <ele>601.00</ele>
        <time>2012-11-04T10:46:51Z</time>
      </trkpt>
      <trkpt lat="47.626930" lon="12.995164">
        <ele>601.40</ele>
        <time>2012-11-04T10:46:52Z</time>
      </trkpt>
      <trkpt lat="47.626884" lon="12.995116">
        <ele>601.40</ele>
        <time>2012-11-04T10:46:54Z</time>
      </trkpt>
      <trkpt lat="47.626751" lon="12.994930">
        <ele>601.40</ele>
        <time>2012-11-04T10:47:01Z</time>
      </trkpt>
      <trkpt lat="47.626736" lon="12.994903">
        <ele>601.80</ele>
        <time>2012-11-04T10:47:02Z</time>
      </trkpt>
      <trkpt lat="47.626720" lon="12.994877">
        <ele>602.20</ele>
        <time>2012-11-04T10:47:03Z</time>
      </trkpt>
      <trkpt lat="47.626705" lon="12.994853">
        <ele>602.60</ele>
        <time>2012-11-04T10:47:04Z</time>
      </trkpt>
      <trkpt lat="47.626690" lon="12.994824">
        <ele>603.00</ele>
        <time>2012-11-04T10:47:05Z</time>
      </trkpt>
      <trkpt lat="47.626675" lon="12.994794">
        <ele>603.40</ele>
        <time>2012-11-04T10:47:06Z</time>
      </trkpt>
      <trkpt lat="47.626637" lon="12.994742">
        <ele>603.40</ele>
        <time>2012-11-04T10:47:08Z</time>
      </trkpt>
      <trkpt lat="47.626518" lon="12.994569">
        <ele>603.40</ele>
        <time>2012-11-04T10:47:15Z</time>
      </trkpt>
      <trkpt lat="47.626411" lon="12.994414">
        <ele>603.80</ele>
        <time>2012-11-04T10:47:21Z</time>
      </trkpt>
      <trkpt lat="47.626396" lon="12.994389">
        <ele>604.20</ele>
        <time>2012-11-04T10:47:22Z</time>
      </trkpt>
      <trkpt lat="47.626377" lon="12.994360">
        <ele>604.60</ele>
        <time>2012-11-04T10:47:23Z</time>
      </trkpt>
      <trkpt lat="47.626366" lon="12.994328">
        <ele>605.00</ele>
        <time>2012-11-04T10:47:24Z</time>
      </trkpt>
      <trkpt lat="47.626350" lon="12.994302">
        <ele>605.60</ele>
        <time>2012-11-04T10:47:25Z</time>
      </trkpt>
      <trkpt lat="47.626274" lon="12.994165">
        <ele>605.60</ele>
        <time>2012-11-04T10:47:30Z</time>
      </trkpt>
      <trkpt lat="47.626209" lon="12.993977">
        <ele>606.00</ele>
        <time>2012-11-04T10:47:36Z</time>
      </trkpt>
      <trkpt lat="47.626205" lon="12.993940">
        <ele>606.40</ele>
        <time>2012-11-04T10:47:37Z</time>
      </trkpt>
      <trkpt lat="47.626198" lon="12.993902">
        <ele>606.80</ele>
        <time>2012-11-04T10:47:38Z</time>
      </trkpt>
      <trkpt lat="47.626194" lon="12.993865">
        <ele>607.20</ele>
        <time>2012-11-04T10:47:39Z</time>
      </trkpt>
      <trkpt lat="47.626194" lon="12.993824">
        <ele>607.60</ele>
        <time>2012-11-04T10:47:40Z</time>
      </trkpt>
      <trkpt lat="47.626202" lon="12.993728">
        <ele>607.60</ele>
        <time>2012-11-04T10:47:43Z</time>
      </trkpt>
      <trkpt lat="47.626244" lon="12.993547">
        <ele>607.60</ele>
        <time>2012-11-04T10:47:48Z</time>
      </trkpt>
      <trkpt lat="47.626236" lon="12.993258">
        <ele>608.00</ele>
        <time>2012-11-04T10:47:55Z</time>
      </trkpt>
      <trkpt lat="47.626244" lon="12.993221">
        <ele>608.40</ele>
        <time>2012-11-04T10:47:56Z</time>
      </trkpt>
      <trkpt lat="47.626247" lon="12.993190">
        <ele>608.80</ele>
        <time>2012-11-04T10:47:57Z</time>
      </trkpt>
      <trkpt lat="47.626259" lon="12.993161">
        <ele>609.20</ele>
        <time>2012-11-04T10:47:58Z</time>
      </trkpt>
      <trkpt lat="47.626270" lon="12.993133">
        <ele>609.80</ele>
        <time>2012-11-04T10:47:59Z</time>
      </trkpt>
      <trkpt lat="47.626301" lon="12.993029">
        <ele>609.80</ele>
        <time>2012-11-04T10:48:02Z</time>
      </trkpt>
      <trkpt lat="47.626389" lon="12.992782">
        <ele>609.80</ele>
        <time>2012-11-04T10:48:09Z</time>
      </trkpt>
      <trkpt lat="47.626438" lon="12.992640">
        <ele>610.20</ele>
        <time>2012-11-04T10:48:13Z</time>
      </trkpt>
      <trkpt lat="47.626450" lon="12.992606">
        <ele>610.60</ele>
        <time>2012-11-04T10:48:14Z</time>
      </trkpt>
      <trkpt lat="47.626461" lon="12.992573">
        <ele>611.00</ele>
        <time>2012-11-04T10:48:15Z</time>
      </trkpt>
      <trkpt lat="47.626476" lon="12.992539">
        <ele>611.40</ele>
        <time>2012-11-04T10:48:16Z</time>
      </trkpt>
      <trkpt lat="47.626488" lon="12.992506">
        <ele>611.80</ele>
        <time>2012-11-04T10:48:17Z</time>
      </trkpt>
      <trkpt lat="47.626568" lon="12.992248">
        <ele>611.80</ele>
        <time>2012-11-04T10:48:24Z</time>
      </trkpt>
      <trkpt lat="47.626640" lon="12.992072">
        <ele>612.20</ele>
        <time>2012-11-04T10:48:29Z</time>
      </trkpt>
      <trkpt lat="47.626652" lon="12.992043">
        <ele>612.60</ele>
        <time>2012-11-04T10:48:30Z</time>
      </trkpt>
      <trkpt lat="47.626667" lon="12.992009">
        <ele>613.00</ele>
        <time>2012-11-04T10:48:31Z</time>
      </trkpt>
      <trkpt lat="47.626671" lon="12.991972">
        <ele>613.40</ele>
        <time>2012-11-04T10:48:32Z</time>
      </trkpt>
      <trkpt lat="47.626675" lon="12.991932">
        <ele>613.80</ele>
        <time>2012-11-04T10:48:33Z</time>
      </trkpt>
      <trkpt lat="47.626690" lon="12.991820">
        <ele>613.80</ele>
        <time>2012-11-04T10:48:36Z</time>
      </trkpt>
      <trkpt lat="47.626698" lon="12.991536">
        <ele>613.80</ele>
        <time>2012-11-04T10:48:43Z</time>
      </trkpt>
      <trkpt lat="47.626686" lon="12.991455">
        <ele>614.20</ele>
        <time>2012-11-04T10:48:45Z</time>
      </trkpt>
      <trkpt lat="47.626682" lon="12.991410">
        <ele>614.60</ele>
        <time>2012-11-04T10:48:46Z</time>
      </trkpt>
      <trkpt lat="47.626678" lon="12.991367">
        <ele>615.20</ele>
        <time>2012-11-04T10:48:47Z</time>
      </trkpt>
      <trkpt lat="47.626671" lon="12.991324">
        <ele>615.60</ele>
        <time>2012-11-04T10:48:48Z</time>
      </trkpt>
      <trkpt lat="47.626663" lon="12.991282">
        <ele>616.00</ele>
        <time>2012-11-04T10:48:49Z</time>
      </trkpt>
      <trkpt lat="47.626652" lon="12.991200">
        <ele>616.00</ele>
        <time>2012-11-04T10:48:51Z</time>
      </trkpt>
      <trkpt lat="47.626591" lon="12.991016">
        <ele>616.00</ele>
        <time>2012-11-04T10:48:56Z</time>
      </trkpt>
      <trkpt lat="47.626530" lon="12.990889">
        <ele>616.40</ele>
        <time>2012-11-04T10:49:00Z</time>
      </trkpt>
      <trkpt lat="47.626514" lon="12.990856">
        <ele>616.80</ele>
        <time>2012-11-04T10:49:01Z</time>
      </trkpt>
      <trkpt lat="47.626503" lon="12.990822">
        <ele>617.20</ele>
        <time>2012-11-04T10:49:02Z</time>
      </trkpt>
      <trkpt lat="47.626488" lon="12.990791">
        <ele>617.60</ele>
        <time>2012-11-04T10:49:03Z</time>
      </trkpt>
      <trkpt lat="47.626472" lon="12.990754">
        <ele>618.00</ele>
        <time>2012-11-04T10:49:04Z</time>
      </trkpt>
      <trkpt lat="47.626408" lon="12.990608">
        <ele>618.00</ele>
        <time>2012-11-04T10:49:09Z</time>
      </trkpt>
      <trkpt lat="47.626320" lon="12.990383">
        <ele>618.00</ele>
        <time>2012-11-04T10:49:16Z</time>
      </trkpt>
      <trkpt lat="47.626308" lon="12.990310">
        <ele>618.40</ele>
        <time>2012-11-04T10:49:18Z</time>
      </trkpt>
      <trkpt lat="47.626305" lon="12.990272">
        <ele>618.80</ele>
        <time>2012-11-04T10:49:19Z</time>
      </trkpt>
      <trkpt lat="47.626297" lon="12.990233">
        <ele>619.20</ele>
        <time>2012-11-04T10:49:20Z</time>
      </trkpt>
      <trkpt lat="47.626297" lon="12.990196">
        <ele>619.60</ele>
        <time>2012-11-04T10:49:21Z</time>
      </trkpt>
      <trkpt lat="47.626297" lon="12.990160">
        <ele>620.00</ele>
        <time>2012-11-04T10:49:22Z</time>
      </trkpt>
      <trkpt lat="47.626293" lon="12.990124">
        <ele>620.00</ele>
        <time>2012-11-04T10:49:23Z</time>
      </trkpt>
      <trkpt lat="47.626320" lon="12.989877">
        <ele>620.00</ele>
        <time>2012-11-04T10:49:29Z</time>
      </trkpt>
      <trkpt lat="47.626347" lon="12.989711">
        <ele>620.40</ele>
        <time>2012-11-04T10:49:33Z</time>
      </trkpt>
      <trkpt lat="47.626343" lon="12.989666">
        <ele>621.00</ele>
        <time>2012-11-04T10:49:34Z</time>
      </trkpt>
      <trkpt lat="47.626343" lon="12.989618">
        <ele>621.40</ele>
        <time>2012-11-04T10:49:35Z</time>
      </trkpt>
      <trkpt lat="47.626339" lon="12.989573">
        <ele>621.80</ele>
        <time>2012-11-04T10:49:36Z</time>
      </trkpt>
      <trkpt lat="47.626343" lon="12.989530">
        <ele>622.20</ele>
        <time>2012-11-04T10:49:37Z</time>
      </trkpt>
      <trkpt lat="47.626369" lon="12.989463">
        <ele>622.20</ele>
        <time>2012-11-04T10:49:39Z</time>
      </trkpt>
      <trkpt lat="47.626476" lon="12.989336">
        <ele>622.20</ele>
        <time>2012-11-04T10:49:45Z</time>
      </trkpt>
      <trkpt lat="47.626568" lon="12.989276">
        <ele>622.60</ele>
        <time>2012-11-04T10:49:49Z</time>
      </trkpt>
      <trkpt lat="47.626598" lon="12.989259">
        <ele>623.00</ele>
        <time>2012-11-04T10:49:50Z</time>
      </trkpt>
      <trkpt lat="47.626629" lon="12.989241">
        <ele>623.40</ele>
        <time>2012-11-04T10:49:51Z</time>
      </trkpt>
      <trkpt lat="47.626659" lon="12.989223">
        <ele>623.80</ele>
        <time>2012-11-04T10:49:52Z</time>
      </trkpt>
      <trkpt lat="47.626686" lon="12.989208">
        <ele>624.20</ele>
        <time>2012-11-04T10:49:53Z</time>
      </trkpt>
      <trkpt lat="47.626881" lon="12.989124">
        <ele>624.20</ele>
        <time>2012-11-04T10:49:59Z</time>
      </trkpt>
      <trkpt lat="47.627079" lon="12.989057">
        <ele>624.20</ele>
        <time>2012-11-04T10:50:05Z</time>
      </trkpt>
      <trkpt lat="47.627380" lon="12.988942">
        <ele>624.20</ele>
        <time>2012-11-04T10:50:14Z</time>
      </trkpt>
      <trkpt lat="47.627682" lon="12.988795">
        <ele>624.20</ele>
        <time>2012-11-04T10:50:23Z</time>
      </trkpt>
      <trkpt lat="47.627945" lon="12.988596">
        <ele>624.20</ele>
        <time>2012-11-04T10:50:31Z</time>
      </trkpt>
      <trkpt lat="47.628075" lon="12.988419">
        <ele>624.20</ele>
        <time>2012-11-04T10:50:36Z</time>
      </trkpt>
      <trkpt lat="47.628120" lon="12.988346">
        <ele>624.20</ele>
        <time>2012-11-04T10:50:38Z</time>
      </trkpt>
      <trkpt lat="47.628193" lon="12.988191">
        <ele>624.60</ele>
        <time>2012-11-04T10:50:42Z</time>
      </trkpt>
      <trkpt lat="47.628208" lon="12.988150">
        <ele>625.00</ele>
        <time>2012-11-04T10:50:43Z</time>
      </trkpt>
      <trkpt lat="47.628223" lon="12.988103">
        <ele>625.40</ele>
        <time>2012-11-04T10:50:44Z</time>
      </trkpt>
      <trkpt lat="47.628242" lon="12.988058">
        <ele>625.80</ele>
        <time>2012-11-04T10:50:45Z</time>
      </trkpt>
      <trkpt lat="47.628254" lon="12.988012">
        <ele>626.20</ele>
        <time>2012-11-04T10:50:46Z</time>
      </trkpt>
      <trkpt lat="47.628330" lon="12.987695">
        <ele>626.20</ele>
        <time>2012-11-04T10:50:53Z</time>
      </trkpt>
      <trkpt lat="47.628380" lon="12.987287">
        <ele>626.20</ele>
        <time>2012-11-04T10:51:02Z</time>
      </trkpt>
      <trkpt lat="47.628407" lon="12.986885">
        <ele>626.60</ele>
        <time>2012-11-04T10:51:11Z</time>
      </trkpt>
      <trkpt lat="47.628407" lon="12.986840">
        <ele>627.00</ele>
        <time>2012-11-04T10:51:12Z</time>
      </trkpt>
      <trkpt lat="47.628407" lon="12.986795">
        <ele>627.40</ele>
        <time>2012-11-04T10:51:13Z</time>
      </trkpt>
      <trkpt lat="47.628410" lon="12.986750">
        <ele>627.80</ele>
        <time>2012-11-04T10:51:14Z</time>
      </trkpt>
      <trkpt lat="47.628414" lon="12.986706">
        <ele>628.20</ele>
        <time>2012-11-04T10:51:15Z</time>
      </trkpt>
      <trkpt lat="47.628407" lon="12.986486">
        <ele>628.20</ele>
        <time>2012-11-04T10:51:20Z</time>
      </trkpt>
      <trkpt lat="47.628395" lon="12.986146">
        <ele>628.20</ele>
        <time>2012-11-04T10:51:28Z</time>
      </trkpt>
      <trkpt lat="47.628395" lon="12.986102">
        <ele>628.60</ele>
        <time>2012-11-04T10:51:29Z</time>
      </trkpt>
      <trkpt lat="47.628399" lon="12.986057">
        <ele>629.00</ele>
        <time>2012-11-04T10:51:30Z</time>
      </trkpt>
      <trkpt lat="47.628399" lon="12.986016">
        <ele>629.40</ele>
        <time>2012-11-04T10:51:31Z</time>
      </trkpt>
      <trkpt lat="47.628399" lon="12.985971">
        <ele>630.00</ele>
        <time>2012-11-04T10:51:32Z</time>
      </trkpt>
      <trkpt lat="47.628403" lon="12.985925">
        <ele>630.40</ele>
        <time>2012-11-04T10:51:33Z</time>
      </trkpt>
      <trkpt lat="47.628410" lon="12.985840">
        <ele>630.40</ele>
        <time>2012-11-04T10:51:35Z</time>
      </trkpt>
      <trkpt lat="47.628468" lon="12.985588">
        <ele>630.40</ele>
        <time>2012-11-04T10:51:41Z</time>
      </trkpt>
      <trkpt lat="47.628548" lon="12.985397">
        <ele>630.80</ele>
        <time>2012-11-04T10:51:46Z</time>
      </trkpt>
      <trkpt lat="47.628563" lon="12.985359">
        <ele>631.20</ele>
        <time>2012-11-04T10:51:47Z</time>
      </trkpt>
      <trkpt lat="47.628578" lon="12.985324">
        <ele>631.60</ele>
        <time>2012-11-04T10:51:48Z</time>
      </trkpt>
      <trkpt lat="47.628601" lon="12.985290">
        <ele>632.00</ele>
        <time>2012-11-04T10:51:49Z</time>
      </trkpt>
      <trkpt lat="47.628620" lon="12.985260">
        <ele>632.40</ele>
        <time>2012-11-04T10:51:50Z</time>
      </trkpt>
      <trkpt lat="47.628731" lon="12.985087">
        <ele>632.40</ele>
        <time>2012-11-04T10:51:56Z</time>
      </trkpt>
      <trkpt lat="47.628906" lon="12.984938">
        <ele>632.40</ele>
        <time>2012-11-04T10:52:03Z</time>
      </trkpt>
      <trkpt lat="47.629074" lon="12.984789">
        <ele>632.40</ele>
        <time>2012-11-04T10:52:09Z</time>
      </trkpt>
      <trkpt lat="47.629269" lon="12.984571">
        <ele>632.40</ele>
        <time>2012-11-04T10:52:16Z</time>
      </trkpt>
      <trkpt lat="47.629459" lon="12.984271">
        <ele>632.40</ele>
        <time>2012-11-04T10:52:24Z</time>
      </trkpt>
      <trkpt lat="47.629616" lon="12.983823">
        <ele>632.40</ele>
        <time>2012-11-04T10:52:33Z</time>
      </trkpt>
      <trkpt lat="47.629723" lon="12.983469">
        <ele>632.40</ele>
        <time>2012-11-04T10:52:40Z</time>
      </trkpt>
      <trkpt lat="47.629742" lon="12.983420">
        <ele>632.40</ele>
        <time>2012-11-04T10:52:41Z</time>
      </trkpt>
      <trkpt lat="47.629829" lon="12.983116">
        <ele>632.40</ele>
        <time>2012-11-04T10:52:47Z</time>
      </trkpt>
      <trkpt lat="47.629860" lon="12.983018">
        <ele>632.40</ele>
        <time>2012-11-04T10:52:49Z</time>
      </trkpt>
      <trkpt lat="47.629913" lon="12.982852">
        <ele>632.40</ele>
        <time>2012-11-04T10:52:53Z</time>
      </trkpt>
      <trkpt lat="47.629951" lon="12.982759">
        <ele>632.40</ele>
        <time>2012-11-04T10:52:55Z</time>
      </trkpt>
      <trkpt lat="47.629993" lon="12.982628">
        <ele>632.80</ele>
        <time>2012-11-04T10:52:58Z</time>
      </trkpt>
      <trkpt lat="47.630009" lon="12.982591">
        <ele>633.20</ele>
        <time>2012-11-04T10:52:59Z</time>
      </trkpt>
      <trkpt lat="47.630024" lon="12.982555">
        <ele>633.60</ele>
        <time>2012-11-04T10:53:00Z</time>
      </trkpt>
      <trkpt lat="47.630035" lon="12.982522">
        <ele>634.00</ele>
        <time>2012-11-04T10:53:01Z</time>
      </trkpt>
      <trkpt lat="47.630051" lon="12.982485">
        <ele>634.40</ele>
        <time>2012-11-04T10:53:02Z</time>
      </trkpt>
      <trkpt lat="47.630173" lon="12.982192">
        <ele>634.40</ele>
        <time>2012-11-04T10:53:09Z</time>
      </trkpt>
      <trkpt lat="47.630318" lon="12.981912">
        <ele>634.40</ele>
        <time>2012-11-04T10:53:16Z</time>
      </trkpt>
      <trkpt lat="47.630470" lon="12.981718">
        <ele>634.40</ele>
        <time>2012-11-04T10:53:23Z</time>
      </trkpt>
      <trkpt lat="47.630688" lon="12.981526">
        <ele>634.80</ele>
        <time>2012-11-04T10:53:30Z</time>
      </trkpt>
      <trkpt lat="47.630722" lon="12.981507">
        <ele>635.20</ele>
        <time>2012-11-04T10:53:31Z</time>
      </trkpt>
      <trkpt lat="47.630753" lon="12.981483">
        <ele>636.00</ele>
        <time>2012-11-04T10:53:32Z</time>
      </trkpt>
      <trkpt lat="47.630787" lon="12.981458">
        <ele>636.40</ele>
        <time>2012-11-04T10:53:33Z</time>
      </trkpt>
      <trkpt lat="47.630974" lon="12.981303">
        <ele>636.40</ele>
        <time>2012-11-04T10:53:38Z</time>
      </trkpt>
      <trkpt lat="47.631279" lon="12.981037">
        <ele>636.40</ele>
        <time>2012-11-04T10:53:46Z</time>
      </trkpt>
      <trkpt lat="47.631313" lon="12.980991">
        <ele>636.40</ele>
        <time>2012-11-04T10:53:47Z</time>
      </trkpt>
      <trkpt lat="47.631393" lon="12.980909">
        <ele>636.40</ele>
        <time>2012-11-04T10:53:49Z</time>
      </trkpt>
      <trkpt lat="47.631435" lon="12.980880">
        <ele>636.40</ele>
        <time>2012-11-04T10:53:50Z</time>
      </trkpt>
      <trkpt lat="47.631596" lon="12.980794">
        <ele>636.40</ele>
        <time>2012-11-04T10:53:54Z</time>
      </trkpt>
      <trkpt lat="47.631710" lon="12.980727">
        <ele>636.40</ele>
        <time>2012-11-04T10:53:57Z</time>
      </trkpt>
      <trkpt lat="47.631950" lon="12.980556">
        <ele>636.40</ele>
        <time>2012-11-04T10:54:04Z</time>
      </trkpt>
      <trkpt lat="47.632175" lon="12.980374">
        <ele>636.40</ele>
        <time>2012-11-04T10:54:11Z</time>
      </trkpt>
      <trkpt lat="47.632454" lon="12.980170">
        <ele>636.40</ele>
        <time>2012-11-04T10:54:19Z</time>
      </trkpt>
      <trkpt lat="47.632683" lon="12.979989">
        <ele>636.40</ele>
        <time>2012-11-04T10:54:26Z</time>
      </trkpt>
      <trkpt lat="47.632908" lon="12.979823">
        <ele>636.40</ele>
        <time>2012-11-04T10:54:33Z</time>
      </trkpt>
      <trkpt lat="47.633102" lon="12.979675">
        <ele>636.40</ele>
        <time>2012-11-04T10:54:39Z</time>
      </trkpt>
      <trkpt lat="47.633308" lon="12.979498">
        <ele>636.40</ele>
        <time>2012-11-04T10:54:46Z</time>
      </trkpt>
      <trkpt lat="47.633541" lon="12.979232">
        <ele>636.40</ele>
        <time>2012-11-04T10:54:53Z</time>
      </trkpt>
      <trkpt lat="47.633713" lon="12.978983">
        <ele>636.40</ele>
        <time>2012-11-04T10:54:58Z</time>
      </trkpt>
      <trkpt lat="47.633755" lon="12.978891">
        <ele>636.40</ele>
        <time>2012-11-04T10:55:00Z</time>
      </trkpt>
      <trkpt lat="47.633892" lon="12.978605">
        <ele>636.40</ele>
        <time>2012-11-04T10:55:06Z</time>
      </trkpt>
      <trkpt lat="47.633923" lon="12.978567">
        <ele>636.00</ele>
        <time>2012-11-04T10:55:07Z</time>
      </trkpt>
      <trkpt lat="47.633949" lon="12.978528">
        <ele>635.60</ele>
        <time>2012-11-04T10:55:08Z</time>
      </trkpt>
      <trkpt lat="47.633976" lon="12.978488">
        <ele>635.20</ele>
        <time>2012-11-04T10:55:09Z</time>
      </trkpt>
      <trkpt lat="47.634003" lon="12.978450">
        <ele>634.80</ele>
        <time>2012-11-04T10:55:10Z</time>
      </trkpt>
      <trkpt lat="47.634033" lon="12.978420">
        <ele>634.40</ele>
        <time>2012-11-04T10:55:11Z</time>
      </trkpt>
      <trkpt lat="47.634094" lon="12.978346">
        <ele>634.40</ele>
        <time>2012-11-04T10:55:13Z</time>
      </trkpt>
      <trkpt lat="47.634247" lon="12.978074">
        <ele>634.40</ele>
        <time>2012-11-04T10:55:19Z</time>
      </trkpt>
      <trkpt lat="47.634323" lon="12.977939">
        <ele>634.40</ele>
        <time>2012-11-04T10:55:22Z</time>
      </trkpt>
      <trkpt lat="47.634396" lon="12.977779">
        <ele>634.40</ele>
        <time>2012-11-04T10:55:26Z</time>
      </trkpt>
      <trkpt lat="47.634464" lon="12.977650">
        <ele>634.40</ele>
        <time>2012-11-04T10:55:29Z</time>
      </trkpt>
      <trkpt lat="47.634544" lon="12.977503">
        <ele>634.40</ele>
        <time>2012-11-04T10:55:32Z</time>
      </trkpt>
      <trkpt lat="47.634712" lon="12.977192">
        <ele>634.00</ele>
        <time>2012-11-04T10:55:38Z</time>
      </trkpt>
      <trkpt lat="47.634747" lon="12.977146">
        <ele>633.60</ele>
        <time>2012-11-04T10:55:39Z</time>
      </trkpt>
      <trkpt lat="47.634777" lon="12.977100">
        <ele>633.20</ele>
        <time>2012-11-04T10:55:40Z</time>
      </trkpt>
      <trkpt lat="47.634808" lon="12.977053">
        <ele>632.80</ele>
        <time>2012-11-04T10:55:41Z</time>
      </trkpt>
      <trkpt lat="47.634838" lon="12.977001">
        <ele>632.40</ele>
        <time>2012-11-04T10:55:42Z</time>
      </trkpt>
      <trkpt lat="47.635078" lon="12.976625">
        <ele>632.40</ele>
        <time>2012-11-04T10:55:49Z</time>
      </trkpt>
      <trkpt lat="47.635254" lon="12.976409">
        <ele>632.00</ele>
        <time>2012-11-04T10:55:53Z</time>
      </trkpt>
      <trkpt lat="47.635300" lon="12.976355">
        <ele>631.60</ele>
        <time>2012-11-04T10:55:54Z</time>
      </trkpt>
      <trkpt lat="47.635345" lon="12.976300">
        <ele>631.20</ele>
        <time>2012-11-04T10:55:55Z</time>
      </trkpt>
      <trkpt lat="47.635395" lon="12.976250">
        <ele>630.80</ele>
        <time>2012-11-04T10:55:56Z</time>
      </trkpt>
      <trkpt lat="47.635445" lon="12.976195">
        <ele>630.40</ele>
        <time>2012-11-04T10:55:57Z</time>
      </trkpt>
      <trkpt lat="47.635746" lon="12.975879">
        <ele>630.40</ele>
        <time>2012-11-04T10:56:03Z</time>
      </trkpt>
      <trkpt lat="47.635956" lon="12.975633">
        <ele>630.40</ele>
        <time>2012-11-04T10:56:08Z</time>
      </trkpt>
      <trkpt lat="47.636150" lon="12.975353">
        <ele>630.40</ele>
        <time>2012-11-04T10:56:14Z</time>
      </trkpt>
      <trkpt lat="47.636303" lon="12.975007">
        <ele>630.40</ele>
        <time>2012-11-04T10:56:21Z</time>
      </trkpt>
      <trkpt lat="47.636467" lon="12.974673">
        <ele>630.40</ele>
        <time>2012-11-04T10:56:28Z</time>
      </trkpt>
      <trkpt lat="47.636581" lon="12.974426">
        <ele>630.40</ele>
        <time>2012-11-04T10:56:33Z</time>
      </trkpt>
      <trkpt lat="47.636631" lon="12.974341">
        <ele>630.40</ele>
        <time>2012-11-04T10:56:35Z</time>
      </trkpt>
      <trkpt lat="47.636780" lon="12.974190">
        <ele>630.40</ele>
        <time>2012-11-04T10:56:40Z</time>
      </trkpt>
      <trkpt lat="47.636971" lon="12.973990">
        <ele>630.40</ele>
        <time>2012-11-04T10:56:47Z</time>
      </trkpt>
      <trkpt lat="47.637207" lon="12.973760">
        <ele>630.40</ele>
        <time>2012-11-04T10:56:54Z</time>
      </trkpt>
      <trkpt lat="47.637424" lon="12.973557">
        <ele>630.40</ele>
        <time>2012-11-04T10:57:00Z</time>
      </trkpt>
      <trkpt lat="47.637764" lon="12.973273">
        <ele>630.40</ele>
        <time>2012-11-04T10:57:09Z</time>
      </trkpt>
      <trkpt lat="47.637970" lon="12.973115">
        <ele>630.40</ele>
        <time>2012-11-04T10:57:15Z</time>
      </trkpt>
      <trkpt lat="47.638081" lon="12.973077">
        <ele>630.40</ele>
        <time>2012-11-04T10:57:18Z</time>
      </trkpt>
      <trkpt lat="47.638153" lon="12.973035">
        <ele>630.40</ele>
        <time>2012-11-04T10:57:21Z</time>
      </trkpt>
      <trkpt lat="47.638203" lon="12.973004">
        <ele>630.40</ele>
        <time>2012-11-04T10:57:23Z</time>
      </trkpt>
      <trkpt lat="47.638367" lon="12.972843">
        <ele>630.40</ele>
        <time>2012-11-04T10:57:29Z</time>
      </trkpt>
      <trkpt lat="47.638420" lon="12.972786">
        <ele>630.00</ele>
        <time>2012-11-04T10:57:31Z</time>
      </trkpt>
      <trkpt lat="47.638447" lon="12.972761">
        <ele>629.60</ele>
        <time>2012-11-04T10:57:32Z</time>
      </trkpt>
      <trkpt lat="47.638474" lon="12.972732">
        <ele>629.00</ele>
        <time>2012-11-04T10:57:33Z</time>
      </trkpt>
      <trkpt lat="47.638496" lon="12.972703">
        <ele>628.60</ele>
        <time>2012-11-04T10:57:34Z</time>
      </trkpt>
      <trkpt lat="47.638531" lon="12.972675">
        <ele>628.20</ele>
        <time>2012-11-04T10:57:35Z</time>
      </trkpt>
      <trkpt lat="47.638569" lon="12.972643">
        <ele>628.20</ele>
        <time>2012-11-04T10:57:36Z</time>
      </trkpt>
      <trkpt lat="47.638832" lon="12.972515">
        <ele>628.20</ele>
        <time>2012-11-04T10:57:42Z</time>
      </trkpt>
      <trkpt lat="47.638992" lon="12.972552">
        <ele>627.80</ele>
        <time>2012-11-04T10:57:46Z</time>
      </trkpt>
      <trkpt lat="47.639015" lon="12.972559">
        <ele>627.40</ele>
        <time>2012-11-04T10:57:47Z</time>
      </trkpt>
      <trkpt lat="47.639027" lon="12.972566">
        <ele>626.80</ele>
        <time>2012-11-04T10:57:48Z</time>
      </trkpt>
      <trkpt lat="47.639042" lon="12.972569">
        <ele>626.40</ele>
        <time>2012-11-04T10:57:49Z</time>
      </trkpt>
      <trkpt lat="47.639046" lon="12.972573">
        <ele>626.00</ele>
        <time>2012-11-04T10:57:50Z</time>
      </trkpt>
      <trkpt lat="47.639065" lon="12.972608">
        <ele>626.00</ele>
        <time>2012-11-04T10:57:54Z</time>
      </trkpt>
      <trkpt lat="47.639069" lon="12.972609">
        <ele>626.00</ele>
        <time>2012-11-04T10:57:55Z</time>
      </trkpt>
      <trkpt lat="47.639069" lon="12.972609">
        <ele>626.00</ele>
        <time>2012-11-04T10:57:57Z</time>
      </trkpt>
      <trkpt lat="47.639084" lon="12.972625">
        <ele>626.00</ele>
        <time>2012-11-04T10:57:59Z</time>
      </trkpt>
      <trkpt lat="47.639103" lon="12.972650">
        <ele>626.00</ele>
        <time>2012-11-04T10:58:00Z</time>
      </trkpt>
      <trkpt lat="47.639183" lon="12.972666">
        <ele>626.00</ele>
        <time>2012-11-04T10:58:02Z</time>
      </trkpt>
      <trkpt lat="47.639233" lon="12.972659">
        <ele>626.00</ele>
        <time>2012-11-04T10:58:03Z</time>
      </trkpt>
      <trkpt lat="47.639595" lon="12.972606">
        <ele>626.00</ele>
        <time>2012-11-04T10:58:09Z</time>
      </trkpt>
      <trkpt lat="47.639660" lon="12.972601">
        <ele>625.60</ele>
        <time>2012-11-04T10:58:10Z</time>
      </trkpt>
      <trkpt lat="47.639721" lon="12.972595">
        <ele>625.20</ele>
        <time>2012-11-04T10:58:11Z</time>
      </trkpt>
      <trkpt lat="47.639782" lon="12.972584">
        <ele>624.80</ele>
        <time>2012-11-04T10:58:12Z</time>
      </trkpt>
      <trkpt lat="47.639839" lon="12.972575">
        <ele>624.20</ele>
        <time>2012-11-04T10:58:13Z</time>
      </trkpt>
      <trkpt lat="47.639889" lon="12.972564">
        <ele>623.80</ele>
        <time>2012-11-04T10:58:14Z</time>
      </trkpt>
      <trkpt lat="47.639927" lon="12.972561">
        <ele>623.80</ele>
        <time>2012-11-04T10:58:15Z</time>
      </trkpt>
      <trkpt lat="47.640038" lon="12.972558">
        <ele>623.40</ele>
        <time>2012-11-04T10:58:19Z</time>
      </trkpt>
      <trkpt lat="47.640072" lon="12.972543">
        <ele>623.00</ele>
        <time>2012-11-04T10:58:20Z</time>
      </trkpt>
      <trkpt lat="47.640114" lon="12.972526">
        <ele>622.60</ele>
        <time>2012-11-04T10:58:21Z</time>
      </trkpt>
      <trkpt lat="47.640152" lon="12.972509">
        <ele>622.20</ele>
        <time>2012-11-04T10:58:22Z</time>
      </trkpt>
      <trkpt lat="47.640186" lon="12.972494">
        <ele>621.80</ele>
        <time>2012-11-04T10:58:23Z</time>
      </trkpt>
      <trkpt lat="47.640266" lon="12.972448">
        <ele>621.80</ele>
        <time>2012-11-04T10:58:25Z</time>
      </trkpt>
      <trkpt lat="47.640583" lon="12.972254">
        <ele>621.80</ele>
        <time>2012-11-04T10:58:33Z</time>
      </trkpt>
      <trkpt lat="47.640701" lon="12.972180">
        <ele>621.80</ele>
        <time>2012-11-04T10:58:36Z</time>
      </trkpt>
      <trkpt lat="47.640827" lon="12.972110">
        <ele>621.80</ele>
        <time>2012-11-04T10:58:39Z</time>
      </trkpt>
      <trkpt lat="47.640915" lon="12.972089">
        <ele>621.80</ele>
        <time>2012-11-04T10:58:41Z</time>
      </trkpt>
      <trkpt lat="47.641083" lon="12.972002">
        <ele>621.80</ele>
        <time>2012-11-04T10:58:45Z</time>
      </trkpt>
      <trkpt lat="47.641121" lon="12.971974">
        <ele>621.40</ele>
        <time>2012-11-04T10:58:46Z</time>
      </trkpt>
      <trkpt lat="47.641159" lon="12.971954">
        <ele>621.00</ele>
        <time>2012-11-04T10:58:47Z</time>
      </trkpt>
      <trkpt lat="47.641201" lon="12.971946">
        <ele>620.60</ele>
        <time>2012-11-04T10:58:48Z</time>
      </trkpt>
      <trkpt lat="47.641239" lon="12.971935">
        <ele>620.20</ele>
        <time>2012-11-04T10:58:49Z</time>
      </trkpt>
      <trkpt lat="47.641277" lon="12.971927">
        <ele>619.60</ele>
        <time>2012-11-04T10:58:50Z</time>
      </trkpt>
      <trkpt lat="47.641384" lon="12.971903">
        <ele>619.60</ele>
        <time>2012-11-04T10:58:53Z</time>
      </trkpt>
      <trkpt lat="47.641571" lon="12.971885">
        <ele>619.60</ele>
        <time>2012-11-04T10:58:59Z</time>
      </trkpt>
      <trkpt lat="47.641811" lon="12.971921">
        <ele>619.60</ele>
        <time>2012-11-04T10:59:07Z</time>
      </trkpt>
      <trkpt lat="47.641899" lon="12.971923">
        <ele>619.60</ele>
        <time>2012-11-04T10:59:09Z</time>
      </trkpt>
      <trkpt lat="47.641998" lon="12.971920">
        <ele>619.60</ele>
        <time>2012-11-04T10:59:11Z</time>
      </trkpt>
      <trkpt lat="47.642147" lon="12.971911">
        <ele>619.60</ele>
        <time>2012-11-04T10:59:14Z</time>
      </trkpt>
      <trkpt lat="47.642395" lon="12.971854">
        <ele>619.60</ele>
        <time>2012-11-04T10:59:19Z</time>
      </trkpt>
      <trkpt lat="47.642521" lon="12.971812">
        <ele>619.60</ele>
        <time>2012-11-04T10:59:22Z</time>
      </trkpt>
      <trkpt lat="47.642647" lon="12.971766">
        <ele>619.60</ele>
        <time>2012-11-04T10:59:25Z</time>
      </trkpt>
      <trkpt lat="47.642761" lon="12.971720">
        <ele>619.60</ele>
        <time>2012-11-04T10:59:28Z</time>
      </trkpt>
      <trkpt lat="47.642906" lon="12.971666">
        <ele>619.60</ele>
        <time>2012-11-04T10:59:32Z</time>
      </trkpt>
      <trkpt lat="47.643200" lon="12.971502">
        <ele>619.60</ele>
        <time>2012-11-04T10:59:39Z</time>
      </trkpt>
      <trkpt lat="47.643478" lon="12.971367">
        <ele>619.60</ele>
        <time>2012-11-04T10:59:46Z</time>
      </trkpt>
      <trkpt lat="47.643520" lon="12.971358">
        <ele>619.60</ele>
        <time>2012-11-04T10:59:47Z</time>
      </trkpt>
      <trkpt lat="47.643692" lon="12.971293">
        <ele>619.60</ele>
        <time>2012-11-04T10:59:51Z</time>
      </trkpt>
      <trkpt lat="47.643738" lon="12.971277">
        <ele>619.60</ele>
        <time>2012-11-04T10:59:52Z</time>
      </trkpt>
      <trkpt lat="47.644001" lon="12.971169">
        <ele>619.60</ele>
        <time>2012-11-04T10:59:58Z</time>
      </trkpt>
      <trkpt lat="47.644043" lon="12.971157">
        <ele>619.60</ele>
        <time>2012-11-04T10:59:59Z</time>
      </trkpt>
      <trkpt lat="47.644360" lon="12.971039">
        <ele>619.60</ele>
        <time>2012-11-04T11:00:07Z</time>
      </trkpt>
      <trkpt lat="47.644539" lon="12.970978">
        <ele>619.60</ele>
        <time>2012-11-04T11:00:11Z</time>
      </trkpt>
      <trkpt lat="47.644634" lon="12.970937">
        <ele>619.60</ele>
        <time>2012-11-04T11:00:13Z</time>
      </trkpt>
      <trkpt lat="47.644966" lon="12.970737">
        <ele>619.60</ele>
        <time>2012-11-04T11:00:20Z</time>
      </trkpt>
      <trkpt lat="47.645245" lon="12.970565">
        <ele>619.20</ele>
        <time>2012-11-04T11:00:26Z</time>
      </trkpt>
      <trkpt lat="47.645290" lon="12.970538">
        <ele>618.80</ele>
        <time>2012-11-04T11:00:27Z</time>
      </trkpt>
      <trkpt lat="47.645332" lon="12.970510">
        <ele>618.40</ele>
        <time>2012-11-04T11:00:28Z</time>
      </trkpt>
      <trkpt lat="47.645374" lon="12.970479">
        <ele>618.00</ele>
        <time>2012-11-04T11:00:29Z</time>
      </trkpt>
      <trkpt lat="47.645420" lon="12.970464">
        <ele>617.60</ele>
        <time>2012-11-04T11:00:30Z</time>
      </trkpt>
      <trkpt lat="47.645603" lon="12.970361">
        <ele>617.60</ele>
        <time>2012-11-04T11:00:34Z</time>
      </trkpt>
      <trkpt lat="47.645954" lon="12.970199">
        <ele>617.60</ele>
        <time>2012-11-04T11:00:42Z</time>
      </trkpt>
      <trkpt lat="47.646202" lon="12.970065">
        <ele>617.60</ele>
        <time>2012-11-04T11:00:48Z</time>
      </trkpt>
      <trkpt lat="47.646484" lon="12.969898">
        <ele>617.60</ele>
        <time>2012-11-04T11:00:55Z</time>
      </trkpt>
      <trkpt lat="47.646679" lon="12.969769">
        <ele>617.60</ele>
        <time>2012-11-04T11:01:00Z</time>
      </trkpt>
      <trkpt lat="47.646755" lon="12.969703">
        <ele>617.60</ele>
        <time>2012-11-04T11:01:02Z</time>
      </trkpt>
      <trkpt lat="47.646999" lon="12.969419">
        <ele>617.60</ele>
        <time>2012-11-04T11:01:09Z</time>
      </trkpt>
      <trkpt lat="47.647141" lon="12.969275">
        <ele>617.60</ele>
        <time>2012-11-04T11:01:14Z</time>
      </trkpt>
      <trkpt lat="47.647217" lon="12.969071">
        <ele>617.60</ele>
        <time>2012-11-04T11:01:19Z</time>
      </trkpt>
      <trkpt lat="47.647308" lon="12.968855">
        <ele>617.60</ele>
        <time>2012-11-04T11:01:24Z</time>
      </trkpt>
      <trkpt lat="47.647423" lon="12.968522">
        <ele>617.60</ele>
        <time>2012-11-04T11:01:31Z</time>
      </trkpt>
      <trkpt lat="47.647488" lon="12.968201">
        <ele>618.00</ele>
        <time>2012-11-04T11:01:36Z</time>
      </trkpt>
      <trkpt lat="47.647503" lon="12.968144">
        <ele>618.40</ele>
        <time>2012-11-04T11:01:37Z</time>
      </trkpt>
      <trkpt lat="47.647526" lon="12.968095">
        <ele>618.80</ele>
        <time>2012-11-04T11:01:38Z</time>
      </trkpt>
      <trkpt lat="47.647549" lon="12.968051">
        <ele>619.40</ele>
        <time>2012-11-04T11:01:39Z</time>
      </trkpt>
      <trkpt lat="47.647568" lon="12.968007">
        <ele>619.80</ele>
        <time>2012-11-04T11:01:40Z</time>
      </trkpt>
      <trkpt lat="47.647633" lon="12.967824">
        <ele>619.80</ele>
        <time>2012-11-04T11:01:44Z</time>
      </trkpt>
      <trkpt lat="47.647739" lon="12.967463">
        <ele>619.80</ele>
        <time>2012-11-04T11:01:51Z</time>
      </trkpt>
      <trkpt lat="47.647877" lon="12.967137">
        <ele>619.80</ele>
        <time>2012-11-04T11:01:58Z</time>
      </trkpt>
      <trkpt lat="47.648014" lon="12.966832">
        <ele>619.80</ele>
        <time>2012-11-04T11:02:05Z</time>
      </trkpt>
      <trkpt lat="47.648163" lon="12.966488">
        <ele>619.80</ele>
        <time>2012-11-04T11:02:13Z</time>
      </trkpt>
      <trkpt lat="47.648266" lon="12.966226">
        <ele>619.80</ele>
        <time>2012-11-04T11:02:19Z</time>
      </trkpt>
      <trkpt lat="47.648388" lon="12.965961">
        <ele>619.80</ele>
        <time>2012-11-04T11:02:26Z</time>
      </trkpt>
      <trkpt lat="47.648434" lon="12.965876">
        <ele>620.20</ele>
        <time>2012-11-04T11:02:28Z</time>
      </trkpt>
      <trkpt lat="47.648453" lon="12.965836">
        <ele>620.60</ele>
        <time>2012-11-04T11:02:29Z</time>
      </trkpt>
      <trkpt lat="47.648468" lon="12.965796">
        <ele>621.00</ele>
        <time>2012-11-04T11:02:30Z</time>
      </trkpt>
      <trkpt lat="47.648487" lon="12.965755">
        <ele>621.40</ele>
        <time>2012-11-04T11:02:31Z</time>
      </trkpt>
      <trkpt lat="47.648506" lon="12.965708">
        <ele>621.80</ele>
        <time>2012-11-04T11:02:32Z</time>
      </trkpt>
      <trkpt lat="47.648548" lon="12.965611">
        <ele>621.80</ele>
        <time>2012-11-04T11:02:34Z</time>
      </trkpt>
      <trkpt lat="47.648693" lon="12.965283">
        <ele>621.80</ele>
        <time>2012-11-04T11:02:41Z</time>
      </trkpt>
      <trkpt lat="47.648853" lon="12.964918">
        <ele>621.80</ele>
        <time>2012-11-04T11:02:49Z</time>
      </trkpt>
      <trkpt lat="47.648907" lon="12.964805">
        <ele>621.80</ele>
        <time>2012-11-04T11:02:52Z</time>
      </trkpt>
      <trkpt lat="47.648945" lon="12.964696">
        <ele>621.80</ele>
        <time>2012-11-04T11:02:55Z</time>
      </trkpt>
      <trkpt lat="47.649036" lon="12.964489">
        <ele>621.80</ele>
        <time>2012-11-04T11:02:59Z</time>
      </trkpt>
      <trkpt lat="47.649055" lon="12.964451">
        <ele>621.80</ele>
        <time>2012-11-04T11:03:00Z</time>
      </trkpt>
      <trkpt lat="47.649117" lon="12.964323">
        <ele>622.20</ele>
        <time>2012-11-04T11:03:03Z</time>
      </trkpt>
      <trkpt lat="47.649136" lon="12.964279">
        <ele>622.60</ele>
        <time>2012-11-04T11:03:04Z</time>
      </trkpt>
      <trkpt lat="47.649158" lon="12.964232">
        <ele>623.00</ele>
        <time>2012-11-04T11:03:05Z</time>
      </trkpt>
      <trkpt lat="47.649178" lon="12.964186">
        <ele>623.40</ele>
        <time>2012-11-04T11:03:06Z</time>
      </trkpt>
      <trkpt lat="47.649197" lon="12.964146">
        <ele>623.80</ele>
        <time>2012-11-04T11:03:07Z</time>
      </trkpt>
      <trkpt lat="47.649235" lon="12.964059">
        <ele>623.80</ele>
        <time>2012-11-04T11:03:09Z</time>
      </trkpt>
      <trkpt lat="47.649426" lon="12.963668">
        <ele>623.80</ele>
        <time>2012-11-04T11:03:18Z</time>
      </trkpt>
      <trkpt lat="47.649601" lon="12.963326">
        <ele>623.80</ele>
        <time>2012-11-04T11:03:26Z</time>
      </trkpt>
      <trkpt lat="47.649715" lon="12.963000">
        <ele>623.80</ele>
        <time>2012-11-04T11:03:33Z</time>
      </trkpt>
      <trkpt lat="47.649826" lon="12.962735">
        <ele>624.20</ele>
        <time>2012-11-04T11:03:39Z</time>
      </trkpt>
      <trkpt lat="47.649853" lon="12.962702">
        <ele>624.60</ele>
        <time>2012-11-04T11:03:40Z</time>
      </trkpt>
      <trkpt lat="47.649876" lon="12.962672">
        <ele>625.00</ele>
        <time>2012-11-04T11:03:41Z</time>
      </trkpt>
      <trkpt lat="47.649891" lon="12.962640">
        <ele>625.40</ele>
        <time>2012-11-04T11:03:42Z</time>
      </trkpt>
      <trkpt lat="47.649914" lon="12.962594">
        <ele>625.80</ele>
        <time>2012-11-04T11:03:43Z</time>
      </trkpt>
      <trkpt lat="47.649979" lon="12.962457">
        <ele>625.80</ele>
        <time>2012-11-04T11:03:46Z</time>
      </trkpt>
      <trkpt lat="47.649998" lon="12.962399">
        <ele>625.80</ele>
        <time>2012-11-04T11:03:47Z</time>
      </trkpt>
      <trkpt lat="47.650085" lon="12.962272">
        <ele>625.80</ele>
        <time>2012-11-04T11:03:50Z</time>
      </trkpt>
      <trkpt lat="47.650242" lon="12.962123">
        <ele>625.80</ele>
        <time>2012-11-04T11:03:56Z</time>
      </trkpt>
      <trkpt lat="47.650383" lon="12.962001">
        <ele>625.80</ele>
        <time>2012-11-04T11:04:01Z</time>
      </trkpt>
      <trkpt lat="47.650444" lon="12.961948">
        <ele>625.80</ele>
        <time>2012-11-04T11:04:03Z</time>
      </trkpt>
      <trkpt lat="47.650642" lon="12.961794">
        <ele>625.80</ele>
        <time>2012-11-04T11:04:09Z</time>
      </trkpt>
      <trkpt lat="47.650894" lon="12.961631">
        <ele>625.80</ele>
        <time>2012-11-04T11:04:17Z</time>
      </trkpt>
      <trkpt lat="47.651077" lon="12.961512">
        <ele>625.80</ele>
        <time>2012-11-04T11:04:23Z</time>
      </trkpt>
      <trkpt lat="47.651180" lon="12.961455">
        <ele>626.20</ele>
        <time>2012-11-04T11:04:26Z</time>
      </trkpt>
      <trkpt lat="47.651207" lon="12.961429">
        <ele>626.60</ele>
        <time>2012-11-04T11:04:27Z</time>
      </trkpt>
      <trkpt lat="47.651241" lon="12.961396">
        <ele>627.00</ele>
        <time>2012-11-04T11:04:28Z</time>
      </trkpt>
      <trkpt lat="47.651276" lon="12.961355">
        <ele>627.40</ele>
        <time>2012-11-04T11:04:29Z</time>
      </trkpt>
      <trkpt lat="47.651306" lon="12.961329">
        <ele>627.80</ele>
        <time>2012-11-04T11:04:30Z</time>
      </trkpt>
      <trkpt lat="47.651508" lon="12.961191">
        <ele>627.80</ele>
        <time>2012-11-04T11:04:36Z</time>
      </trkpt>
      <trkpt lat="47.651814" lon="12.961004">
        <ele>627.80</ele>
        <time>2012-11-04T11:04:45Z</time>
      </trkpt>
      <trkpt lat="47.652058" lon="12.960855">
        <ele>627.80</ele>
        <time>2012-11-04T11:04:52Z</time>
      </trkpt>
      <trkpt lat="47.652279" lon="12.960740">
        <ele>627.80</ele>
        <time>2012-11-04T11:04:58Z</time>
      </trkpt>
      <trkpt lat="47.652386" lon="12.960730">
        <ele>628.40</ele>
        <time>2012-11-04T11:05:01Z</time>
      </trkpt>
      <trkpt lat="47.652424" lon="12.960722">
        <ele>628.80</ele>
        <time>2012-11-04T11:05:02Z</time>
      </trkpt>
      <trkpt lat="47.652454" lon="12.960701">
        <ele>629.20</ele>
        <time>2012-11-04T11:05:03Z</time>
      </trkpt>
      <trkpt lat="47.652485" lon="12.960675">
        <ele>630.00</ele>
        <time>2012-11-04T11:05:04Z</time>
      </trkpt>
      <trkpt lat="47.652817" lon="12.960456">
        <ele>630.00</ele>
        <time>2012-11-04T11:05:14Z</time>
      </trkpt>
      <trkpt lat="47.653057" lon="12.960288">
        <ele>630.00</ele>
        <time>2012-11-04T11:05:21Z</time>
      </trkpt>
      <trkpt lat="47.653088" lon="12.960263">
        <ele>630.00</ele>
        <time>2012-11-04T11:05:22Z</time>
      </trkpt>
      <trkpt lat="47.653378" lon="12.960038">
        <ele>630.00</ele>
        <time>2012-11-04T11:05:30Z</time>
      </trkpt>
      <trkpt lat="47.653534" lon="12.959956">
        <ele>630.00</ele>
        <time>2012-11-04T11:05:35Z</time>
      </trkpt>
      <trkpt lat="47.653561" lon="12.959927">
        <ele>630.40</ele>
        <time>2012-11-04T11:05:36Z</time>
      </trkpt>
      <trkpt lat="47.653591" lon="12.959903">
        <ele>630.80</ele>
        <time>2012-11-04T11:05:37Z</time>
      </trkpt>
      <trkpt lat="47.653622" lon="12.959881">
        <ele>631.20</ele>
        <time>2012-11-04T11:05:38Z</time>
      </trkpt>
      <trkpt lat="47.653656" lon="12.959860">
        <ele>631.80</ele>
        <time>2012-11-04T11:05:39Z</time>
      </trkpt>
      <trkpt lat="47.653694" lon="12.959840">
        <ele>632.20</ele>
        <time>2012-11-04T11:05:40Z</time>
      </trkpt>
      <trkpt lat="47.653835" lon="12.959746">
        <ele>632.20</ele>
        <time>2012-11-04T11:05:44Z</time>
      </trkpt>
      <trkpt lat="47.654144" lon="12.959574">
        <ele>632.20</ele>
        <time>2012-11-04T11:05:51Z</time>
      </trkpt>
      <trkpt lat="47.654495" lon="12.959314">
        <ele>632.20</ele>
        <time>2012-11-04T11:05:58Z</time>
      </trkpt>
      <trkpt lat="47.654579" lon="12.959166">
        <ele>632.20</ele>
        <time>2012-11-04T11:06:01Z</time>
      </trkpt>
      <trkpt lat="47.654701" lon="12.958977">
        <ele>632.20</ele>
        <time>2012-11-04T11:06:06Z</time>
      </trkpt>
      <trkpt lat="47.654751" lon="12.958899">
        <ele>632.20</ele>
        <time>2012-11-04T11:06:08Z</time>
      </trkpt>
      <trkpt lat="47.654922" lon="12.958694">
        <ele>632.60</ele>
        <time>2012-11-04T11:06:14Z</time>
      </trkpt>
      <trkpt lat="47.654945" lon="12.958655">
        <ele>633.00</ele>
        <time>2012-11-04T11:06:15Z</time>
      </trkpt>
      <trkpt lat="47.654968" lon="12.958618">
        <ele>633.40</ele>
        <time>2012-11-04T11:06:16Z</time>
      </trkpt>
      <trkpt lat="47.654995" lon="12.958581">
        <ele>633.80</ele>
        <time>2012-11-04T11:06:17Z</time>
      </trkpt>
      <trkpt lat="47.655022" lon="12.958544">
        <ele>634.20</ele>
        <time>2012-11-04T11:06:18Z</time>
      </trkpt>
      <trkpt lat="47.655197" lon="12.958278">
        <ele>634.20</ele>
        <time>2012-11-04T11:06:25Z</time>
      </trkpt>
      <trkpt lat="47.655426" lon="12.957984">
        <ele>634.20</ele>
        <time>2012-11-04T11:06:33Z</time>
      </trkpt>
      <trkpt lat="47.655605" lon="12.957770">
        <ele>634.60</ele>
        <time>2012-11-04T11:06:39Z</time>
      </trkpt>
      <trkpt lat="47.655636" lon="12.957736">
        <ele>635.00</ele>
        <time>2012-11-04T11:06:40Z</time>
      </trkpt>
      <trkpt lat="47.655663" lon="12.957699">
        <ele>635.40</ele>
        <time>2012-11-04T11:06:41Z</time>
      </trkpt>
      <trkpt lat="47.655693" lon="12.957663">
        <ele>635.80</ele>
        <time>2012-11-04T11:06:42Z</time>
      </trkpt>
      <trkpt lat="47.655724" lon="12.957633">
        <ele>636.20</ele>
        <time>2012-11-04T11:06:43Z</time>
      </trkpt>
      <trkpt lat="47.655899" lon="12.957457">
        <ele>636.20</ele>
        <time>2012-11-04T11:06:49Z</time>
      </trkpt>
      <trkpt lat="47.656094" lon="12.957247">
        <ele>636.60</ele>
        <time>2012-11-04T11:06:56Z</time>
      </trkpt>
      <trkpt lat="47.656120" lon="12.957213">
        <ele>637.00</ele>
        <time>2012-11-04T11:06:57Z</time>
      </trkpt>
      <trkpt lat="47.656147" lon="12.957179">
        <ele>637.40</ele>
        <time>2012-11-04T11:06:58Z</time>
      </trkpt>
      <trkpt lat="47.656181" lon="12.957140">
        <ele>637.80</ele>
        <time>2012-11-04T11:06:59Z</time>
      </trkpt>
      <trkpt lat="47.656208" lon="12.957100">
        <ele>638.40</ele>
        <time>2012-11-04T11:07:00Z</time>
      </trkpt>
      <trkpt lat="47.656303" lon="12.956985">
        <ele>638.40</ele>
        <time>2012-11-04T11:07:03Z</time>
      </trkpt>
      <trkpt lat="47.656330" lon="12.956943">
        <ele>638.40</ele>
        <time>2012-11-04T11:07:04Z</time>
      </trkpt>
      <trkpt lat="47.656509" lon="12.956654">
        <ele>638.40</ele>
        <time>2012-11-04T11:07:11Z</time>
      </trkpt>
      <trkpt lat="47.656700" lon="12.956430">
        <ele>638.40</ele>
        <time>2012-11-04T11:07:18Z</time>
      </trkpt>
      <trkpt lat="47.656876" lon="12.956285">
        <ele>638.80</ele>
        <time>2012-11-04T11:07:24Z</time>
      </trkpt>
      <trkpt lat="47.656906" lon="12.956265">
        <ele>639.20</ele>
        <time>2012-11-04T11:07:25Z</time>
      </trkpt>
      <trkpt lat="47.656944" lon="12.956249">
        <ele>639.60</ele>
        <time>2012-11-04T11:07:26Z</time>
      </trkpt>
      <trkpt lat="47.656979" lon="12.956233">
        <ele>640.00</ele>
        <time>2012-11-04T11:07:27Z</time>
      </trkpt>
      <trkpt lat="47.657017" lon="12.956217">
        <ele>640.40</ele>
        <time>2012-11-04T11:07:28Z</time>
      </trkpt>
      <trkpt lat="47.657200" lon="12.956135">
        <ele>640.40</ele>
        <time>2012-11-04T11:07:33Z</time>
      </trkpt>
      <trkpt lat="47.657452" lon="12.956014">
        <ele>640.40</ele>
        <time>2012-11-04T11:07:40Z</time>
      </trkpt>
      <trkpt lat="47.657768" lon="12.955853">
        <ele>640.40</ele>
        <time>2012-11-04T11:07:47Z</time>
      </trkpt>
      <trkpt lat="47.658031" lon="12.955734">
        <ele>640.40</ele>
        <time>2012-11-04T11:07:52Z</time>
      </trkpt>
      <trkpt lat="47.658169" lon="12.955668">
        <ele>640.40</ele>
        <time>2012-11-04T11:07:55Z</time>
      </trkpt>
      <trkpt lat="47.658489" lon="12.955521">
        <ele>640.40</ele>
        <time>2012-11-04T11:08:03Z</time>
      </trkpt>
      <trkpt lat="47.658646" lon="12.955454">
        <ele>640.40</ele>
        <time>2012-11-04T11:08:07Z</time>
      </trkpt>
      <trkpt lat="47.658817" lon="12.955388">
        <ele>640.40</ele>
        <time>2012-11-04T11:08:11Z</time>
      </trkpt>
      <trkpt lat="47.658943" lon="12.955341">
        <ele>640.40</ele>
        <time>2012-11-04T11:08:14Z</time>
      </trkpt>
      <trkpt lat="47.659100" lon="12.955321">
        <ele>640.40</ele>
        <time>2012-11-04T11:08:18Z</time>
      </trkpt>
      <trkpt lat="47.659191" lon="12.955293">
        <ele>640.40</ele>
        <time>2012-11-04T11:08:21Z</time>
      </trkpt>
      <trkpt lat="47.659256" lon="12.955268">
        <ele>640.40</ele>
        <time>2012-11-04T11:08:23Z</time>
      </trkpt>
      <trkpt lat="47.659332" lon="12.955230">
        <ele>640.40</ele>
        <time>2012-11-04T11:08:25Z</time>
      </trkpt>
      <trkpt lat="47.659412" lon="12.955174">
        <ele>640.40</ele>
        <time>2012-11-04T11:08:27Z</time>
      </trkpt>
      <trkpt lat="47.659451" lon="12.955145">
        <ele>640.40</ele>
        <time>2012-11-04T11:08:28Z</time>
      </trkpt>
      <trkpt lat="47.659576" lon="12.955081">
        <ele>640.40</ele>
        <time>2012-11-04T11:08:31Z</time>
      </trkpt>
      <trkpt lat="47.659744" lon="12.955023">
        <ele>640.40</ele>
        <time>2012-11-04T11:08:35Z</time>
      </trkpt>
      <trkpt lat="47.660007" lon="12.954903">
        <ele>640.40</ele>
        <time>2012-11-04T11:08:42Z</time>
      </trkpt>
      <trkpt lat="47.660213" lon="12.954820">
        <ele>640.40</ele>
        <time>2012-11-04T11:08:47Z</time>
      </trkpt>
      <trkpt lat="47.660252" lon="12.954801">
        <ele>640.80</ele>
        <time>2012-11-04T11:08:48Z</time>
      </trkpt>
      <trkpt lat="47.660294" lon="12.954783">
        <ele>641.20</ele>
        <time>2012-11-04T11:08:49Z</time>
      </trkpt>
      <trkpt lat="47.660332" lon="12.954766">
        <ele>641.60</ele>
        <time>2012-11-04T11:08:50Z</time>
      </trkpt>
      <trkpt lat="47.660370" lon="12.954749">
        <ele>642.00</ele>
        <time>2012-11-04T11:08:51Z</time>
      </trkpt>
      <trkpt lat="47.660408" lon="12.954732">
        <ele>642.40</ele>
        <time>2012-11-04T11:08:52Z</time>
      </trkpt>
      <trkpt lat="47.660568" lon="12.954674">
        <ele>642.40</ele>
        <time>2012-11-04T11:08:56Z</time>
      </trkpt>
      <trkpt lat="47.660881" lon="12.954528">
        <ele>642.40</ele>
        <time>2012-11-04T11:09:04Z</time>
      </trkpt>
      <trkpt lat="47.660999" lon="12.954479">
        <ele>642.80</ele>
        <time>2012-11-04T11:09:07Z</time>
      </trkpt>
      <trkpt lat="47.661037" lon="12.954460">
        <ele>643.20</ele>
        <time>2012-11-04T11:09:08Z</time>
      </trkpt>
      <trkpt lat="47.661072" lon="12.954444">
        <ele>643.60</ele>
        <time>2012-11-04T11:09:09Z</time>
      </trkpt>
      <trkpt lat="47.661110" lon="12.954429">
        <ele>644.20</ele>
        <time>2012-11-04T11:09:10Z</time>
      </trkpt>
      <trkpt lat="47.661148" lon="12.954414">
        <ele>644.60</ele>
        <time>2012-11-04T11:09:11Z</time>
      </trkpt>
      <trkpt lat="47.661480" lon="12.954262">
        <ele>644.60</ele>
        <time>2012-11-04T11:09:20Z</time>
      </trkpt>
      <trkpt lat="47.661755" lon="12.954065">
        <ele>644.60</ele>
        <time>2012-11-04T11:09:28Z</time>
      </trkpt>
      <trkpt lat="47.661831" lon="12.954014">
        <ele>645.00</ele>
        <time>2012-11-04T11:09:30Z</time>
      </trkpt>
      <trkpt lat="47.661873" lon="12.953984">
        <ele>645.40</ele>
        <time>2012-11-04T11:09:31Z</time>
      </trkpt>
      <trkpt lat="47.661915" lon="12.953956">
        <ele>645.80</ele>
        <time>2012-11-04T11:09:32Z</time>
      </trkpt>
      <trkpt lat="47.661953" lon="12.953928">
        <ele>646.20</ele>
        <time>2012-11-04T11:09:33Z</time>
      </trkpt>
      <trkpt lat="47.661991" lon="12.953903">
        <ele>646.60</ele>
        <time>2012-11-04T11:09:34Z</time>
      </trkpt>
      <trkpt lat="47.662029" lon="12.953878">
        <ele>646.60</ele>
        <time>2012-11-04T11:09:35Z</time>
      </trkpt>
      <trkpt lat="47.662289" lon="12.953685">
        <ele>646.60</ele>
        <time>2012-11-04T11:09:42Z</time>
      </trkpt>
      <trkpt lat="47.662537" lon="12.953505">
        <ele>646.60</ele>
        <time>2012-11-04T11:09:49Z</time>
      </trkpt>
      <trkpt lat="47.662701" lon="12.953351">
        <ele>647.00</ele>
        <time>2012-11-04T11:09:54Z</time>
      </trkpt>
      <trkpt lat="47.662739" lon="12.953321">
        <ele>647.40</ele>
        <time>2012-11-04T11:09:55Z</time>
      </trkpt>
      <trkpt lat="47.662777" lon="12.953297">
        <ele>647.80</ele>
        <time>2012-11-04T11:09:56Z</time>
      </trkpt>
      <trkpt lat="47.662811" lon="12.953267">
        <ele>648.20</ele>
        <time>2012-11-04T11:09:57Z</time>
      </trkpt>
      <trkpt lat="47.662846" lon="12.953238">
        <ele>648.60</ele>
        <time>2012-11-04T11:09:58Z</time>
      </trkpt>
      <trkpt lat="47.662918" lon="12.953178">
        <ele>648.60</ele>
        <time>2012-11-04T11:10:00Z</time>
      </trkpt>
      <trkpt lat="47.663002" lon="12.953137">
        <ele>648.60</ele>
        <time>2012-11-04T11:10:02Z</time>
      </trkpt>
      <trkpt lat="47.663132" lon="12.953095">
        <ele>648.60</ele>
        <time>2012-11-04T11:10:05Z</time>
      </trkpt>
      <trkpt lat="47.663265" lon="12.953027">
        <ele>648.60</ele>
        <time>2012-11-04T11:10:08Z</time>
      </trkpt>
      <trkpt lat="47.663589" lon="12.952816">
        <ele>648.60</ele>
        <time>2012-11-04T11:10:16Z</time>
      </trkpt>
      <trkpt lat="47.663738" lon="12.952697">
        <ele>648.60</ele>
        <time>2012-11-04T11:10:20Z</time>
      </trkpt>
      <trkpt lat="47.663811" lon="12.952645">
        <ele>648.60</ele>
        <time>2012-11-04T11:10:22Z</time>
      </trkpt>
      <trkpt lat="47.664078" lon="12.952386">
        <ele>648.60</ele>
        <time>2012-11-04T11:10:30Z</time>
      </trkpt>
      <trkpt lat="47.664314" lon="12.952079">
        <ele>648.60</ele>
        <time>2012-11-04T11:10:38Z</time>
      </trkpt>
      <trkpt lat="47.664555" lon="12.951801">
        <ele>648.60</ele>
        <time>2012-11-04T11:10:45Z</time>
      </trkpt>
      <trkpt lat="47.664791" lon="12.951537">
        <ele>649.00</ele>
        <time>2012-11-04T11:10:52Z</time>
      </trkpt>
      <trkpt lat="47.664829" lon="12.951505">
        <ele>649.40</ele>
        <time>2012-11-04T11:10:53Z</time>
      </trkpt>
      <trkpt lat="47.664864" lon="12.951473">
        <ele>649.80</ele>
        <time>2012-11-04T11:10:54Z</time>
      </trkpt>
      <trkpt lat="47.664902" lon="12.951440">
        <ele>650.20</ele>
        <time>2012-11-04T11:10:55Z</time>
      </trkpt>
      <trkpt lat="47.664940" lon="12.951408">
        <ele>650.60</ele>
        <time>2012-11-04T11:10:56Z</time>
      </trkpt>
      <trkpt lat="47.665077" lon="12.951265">
        <ele>650.60</ele>
        <time>2012-11-04T11:11:00Z</time>
      </trkpt>
      <trkpt lat="47.665306" lon="12.951012">
        <ele>650.60</ele>
        <time>2012-11-04T11:11:07Z</time>
      </trkpt>
      <trkpt lat="47.665543" lon="12.950706">
        <ele>650.60</ele>
        <time>2012-11-04T11:11:15Z</time>
      </trkpt>
      <trkpt lat="47.665668" lon="12.950520">
        <ele>651.20</ele>
        <time>2012-11-04T11:11:20Z</time>
      </trkpt>
      <trkpt lat="47.665691" lon="12.950478">
        <ele>651.60</ele>
        <time>2012-11-04T11:11:21Z</time>
      </trkpt>
      <trkpt lat="47.665718" lon="12.950437">
        <ele>652.00</ele>
        <time>2012-11-04T11:11:22Z</time>
      </trkpt>
      <trkpt lat="47.665745" lon="12.950397">
        <ele>652.40</ele>
        <time>2012-11-04T11:11:23Z</time>
      </trkpt>
      <trkpt lat="47.665771" lon="12.950357">
        <ele>652.80</ele>
        <time>2012-11-04T11:11:24Z</time>
      </trkpt>
      <trkpt lat="47.665909" lon="12.950203">
        <ele>652.80</ele>
        <time>2012-11-04T11:11:29Z</time>
      </trkpt>
      <trkpt lat="47.666084" lon="12.949986">
        <ele>652.80</ele>
        <time>2012-11-04T11:11:35Z</time>
      </trkpt>
      <trkpt lat="47.666203" lon="12.949846">
        <ele>653.20</ele>
        <time>2012-11-04T11:11:39Z</time>
      </trkpt>
      <trkpt lat="47.666233" lon="12.949816">
        <ele>654.00</ele>
        <time>2012-11-04T11:11:40Z</time>
      </trkpt>
      <trkpt lat="47.666264" lon="12.949777">
        <ele>654.40</ele>
        <time>2012-11-04T11:11:41Z</time>
      </trkpt>
      <trkpt lat="47.666286" lon="12.949731">
        <ele>654.80</ele>
        <time>2012-11-04T11:11:42Z</time>
      </trkpt>
      <trkpt lat="47.666409" lon="12.949430">
        <ele>654.80</ele>
        <time>2012-11-04T11:11:48Z</time>
      </trkpt>
      <trkpt lat="47.666542" lon="12.949079">
        <ele>654.80</ele>
        <time>2012-11-04T11:11:55Z</time>
      </trkpt>
      <trkpt lat="47.666698" lon="12.948689">
        <ele>654.80</ele>
        <time>2012-11-04T11:12:03Z</time>
      </trkpt>
      <trkpt lat="47.666737" lon="12.948597">
        <ele>655.20</ele>
        <time>2012-11-04T11:12:05Z</time>
      </trkpt>
      <trkpt lat="47.666756" lon="12.948550">
        <ele>655.60</ele>
        <time>2012-11-04T11:12:06Z</time>
      </trkpt>
      <trkpt lat="47.666767" lon="12.948502">
        <ele>656.00</ele>
        <time>2012-11-04T11:12:07Z</time>
      </trkpt>
      <trkpt lat="47.666782" lon="12.948454">
        <ele>656.40</ele>
        <time>2012-11-04T11:12:08Z</time>
      </trkpt>
      <trkpt lat="47.666798" lon="12.948411">
        <ele>656.80</ele>
        <time>2012-11-04T11:12:09Z</time>
      </trkpt>
      <trkpt lat="47.666866" lon="12.948151">
        <ele>656.80</ele>
        <time>2012-11-04T11:12:15Z</time>
      </trkpt>
      <trkpt lat="47.666897" lon="12.948048">
        <ele>656.80</ele>
        <time>2012-11-04T11:12:17Z</time>
      </trkpt>
      <trkpt lat="47.666946" lon="12.947903">
        <ele>656.80</ele>
        <time>2012-11-04T11:12:20Z</time>
      </trkpt>
      <trkpt lat="47.666969" lon="12.947760">
        <ele>656.80</ele>
        <time>2012-11-04T11:12:23Z</time>
      </trkpt>
      <trkpt lat="47.666977" lon="12.947654">
        <ele>656.80</ele>
        <time>2012-11-04T11:12:25Z</time>
      </trkpt>
      <trkpt lat="47.666981" lon="12.947482">
        <ele>657.20</ele>
        <time>2012-11-04T11:12:28Z</time>
      </trkpt>
      <trkpt lat="47.666985" lon="12.947426">
        <ele>658.00</ele>
        <time>2012-11-04T11:12:29Z</time>
      </trkpt>
      <trkpt lat="47.666988" lon="12.947369">
        <ele>658.40</ele>
        <time>2012-11-04T11:12:30Z</time>
      </trkpt>
      <trkpt lat="47.666992" lon="12.947310">
        <ele>658.80</ele>
        <time>2012-11-04T11:12:31Z</time>
      </trkpt>
      <trkpt lat="47.666996" lon="12.947190">
        <ele>658.80</ele>
        <time>2012-11-04T11:12:33Z</time>
      </trkpt>
      <trkpt lat="47.667027" lon="12.946648">
        <ele>658.80</ele>
        <time>2012-11-04T11:12:42Z</time>
      </trkpt>
      <trkpt lat="47.667038" lon="12.946218">
        <ele>658.80</ele>
        <time>2012-11-04T11:12:49Z</time>
      </trkpt>
      <trkpt lat="47.667042" lon="12.946157">
        <ele>658.80</ele>
        <time>2012-11-04T11:12:50Z</time>
      </trkpt>
      <trkpt lat="47.667057" lon="12.945793">
        <ele>658.80</ele>
        <time>2012-11-04T11:12:56Z</time>
      </trkpt>
      <trkpt lat="47.667076" lon="12.945453">
        <ele>658.80</ele>
        <time>2012-11-04T11:13:02Z</time>
      </trkpt>
      <trkpt lat="47.667095" lon="12.945265">
        <ele>659.20</ele>
        <time>2012-11-04T11:13:05Z</time>
      </trkpt>
      <trkpt lat="47.667103" lon="12.945208">
        <ele>659.60</ele>
        <time>2012-11-04T11:13:06Z</time>
      </trkpt>
      <trkpt lat="47.667114" lon="12.945153">
        <ele>660.00</ele>
        <time>2012-11-04T11:13:07Z</time>
      </trkpt>
      <trkpt lat="47.667122" lon="12.945099">
        <ele>660.40</ele>
        <time>2012-11-04T11:13:08Z</time>
      </trkpt>
      <trkpt lat="47.667130" lon="12.945046">
        <ele>661.00</ele>
        <time>2012-11-04T11:13:09Z</time>
      </trkpt>
      <trkpt lat="47.667145" lon="12.944991">
        <ele>661.00</ele>
        <time>2012-11-04T11:13:10Z</time>
      </trkpt>
      <trkpt lat="47.667202" lon="12.944801">
        <ele>661.00</ele>
        <time>2012-11-04T11:13:14Z</time>
      </trkpt>
      <trkpt lat="47.667213" lon="12.944744">
        <ele>661.00</ele>
        <time>2012-11-04T11:13:15Z</time>
      </trkpt>
      <trkpt lat="47.667229" lon="12.944689">
        <ele>661.00</ele>
        <time>2012-11-04T11:13:16Z</time>
      </trkpt>
      <trkpt lat="47.667244" lon="12.944630">
        <ele>661.00</ele>
        <time>2012-11-04T11:13:17Z</time>
      </trkpt>
      <trkpt lat="47.667316" lon="12.944432">
        <ele>661.00</ele>
        <time>2012-11-04T11:13:21Z</time>
      </trkpt>
      <trkpt lat="47.667492" lon="12.944170">
        <ele>661.00</ele>
        <time>2012-11-04T11:13:28Z</time>
      </trkpt>
      <trkpt lat="47.667747" lon="12.943908">
        <ele>661.00</ele>
        <time>2012-11-04T11:13:36Z</time>
      </trkpt>
      <trkpt lat="47.667850" lon="12.943818">
        <ele>661.40</ele>
        <time>2012-11-04T11:13:39Z</time>
      </trkpt>
      <trkpt lat="47.667885" lon="12.943788">
        <ele>661.80</ele>
        <time>2012-11-04T11:13:40Z</time>
      </trkpt>
      <trkpt lat="47.667923" lon="12.943754">
        <ele>662.20</ele>
        <time>2012-11-04T11:13:41Z</time>
      </trkpt>
      <trkpt lat="47.667957" lon="12.943725">
        <ele>662.60</ele>
        <time>2012-11-04T11:13:42Z</time>
      </trkpt>
      <trkpt lat="47.667995" lon="12.943697">
        <ele>663.00</ele>
        <time>2012-11-04T11:13:43Z</time>
      </trkpt>
      <trkpt lat="47.668030" lon="12.943666">
        <ele>663.00</ele>
        <time>2012-11-04T11:13:44Z</time>
      </trkpt>
      <trkpt lat="47.668247" lon="12.943556">
        <ele>663.00</ele>
        <time>2012-11-04T11:13:50Z</time>
      </trkpt>
      <trkpt lat="47.668404" lon="12.943426">
        <ele>663.40</ele>
        <time>2012-11-04T11:13:55Z</time>
      </trkpt>
      <trkpt lat="47.668442" lon="12.943393">
        <ele>663.80</ele>
        <time>2012-11-04T11:13:56Z</time>
      </trkpt>
      <trkpt lat="47.668476" lon="12.943360">
        <ele>664.20</ele>
        <time>2012-11-04T11:13:57Z</time>
      </trkpt>
      <trkpt lat="47.668514" lon="12.943332">
        <ele>664.60</ele>
        <time>2012-11-04T11:13:58Z</time>
      </trkpt>
      <trkpt lat="47.668552" lon="12.943307">
        <ele>665.00</ele>
        <time>2012-11-04T11:13:59Z</time>
      </trkpt>
      <trkpt lat="47.668800" lon="12.943148">
        <ele>665.00</ele>
        <time>2012-11-04T11:14:05Z</time>
      </trkpt>
      <trkpt lat="47.669090" lon="12.943055">
        <ele>665.00</ele>
        <time>2012-11-04T11:14:12Z</time>
      </trkpt>
      <trkpt lat="47.669159" lon="12.943019">
        <ele>665.00</ele>
        <time>2012-11-04T11:14:14Z</time>
      </trkpt>
      <trkpt lat="47.669201" lon="12.942942">
        <ele>665.00</ele>
        <time>2012-11-04T11:14:16Z</time>
      </trkpt>
      <trkpt lat="47.669304" lon="12.942875">
        <ele>665.00</ele>
        <time>2012-11-04T11:14:19Z</time>
      </trkpt>
      <trkpt lat="47.669365" lon="12.942847">
        <ele>665.00</ele>
        <time>2012-11-04T11:14:21Z</time>
      </trkpt>
      <trkpt lat="47.669411" lon="12.942815">
        <ele>665.00</ele>
        <time>2012-11-04T11:14:23Z</time>
      </trkpt>
      <trkpt lat="47.669445" lon="12.942769">
        <ele>665.00</ele>
        <time>2012-11-04T11:14:25Z</time>
      </trkpt>
      <trkpt lat="47.669525" lon="12.942718">
        <ele>665.00</ele>
        <time>2012-11-04T11:14:28Z</time>
      </trkpt>
      <trkpt lat="47.669628" lon="12.942701">
        <ele>665.00</ele>
        <time>2012-11-04T11:14:31Z</time>
      </trkpt>
      <trkpt lat="47.669842" lon="12.942641">
        <ele>665.00</ele>
        <time>2012-11-04T11:14:37Z</time>
      </trkpt>
      <trkpt lat="47.670158" lon="12.942439">
        <ele>665.00</ele>
        <time>2012-11-04T11:14:46Z</time>
      </trkpt>
      <trkpt lat="47.670280" lon="12.942329">
        <ele>665.40</ele>
        <time>2012-11-04T11:14:50Z</time>
      </trkpt>
      <trkpt lat="47.670311" lon="12.942306">
        <ele>665.80</ele>
        <time>2012-11-04T11:14:51Z</time>
      </trkpt>
      <trkpt lat="47.670345" lon="12.942284">
        <ele>666.20</ele>
        <time>2012-11-04T11:14:52Z</time>
      </trkpt>
      <trkpt lat="47.670380" lon="12.942263">
        <ele>666.60</ele>
        <time>2012-11-04T11:14:53Z</time>
      </trkpt>
      <trkpt lat="47.670418" lon="12.942240">
        <ele>667.00</ele>
        <time>2012-11-04T11:14:54Z</time>
      </trkpt>
      <trkpt lat="47.670624" lon="12.942104">
        <ele>667.00</ele>
        <time>2012-11-04T11:15:00Z</time>
      </trkpt>
      <trkpt lat="47.670830" lon="12.941995">
        <ele>667.40</ele>
        <time>2012-11-04T11:15:06Z</time>
      </trkpt>
      <trkpt lat="47.670864" lon="12.941978">
        <ele>667.80</ele>
        <time>2012-11-04T11:15:07Z</time>
      </trkpt>
      <trkpt lat="47.670902" lon="12.941967">
        <ele>668.20</ele>
        <time>2012-11-04T11:15:08Z</time>
      </trkpt>
      <trkpt lat="47.670940" lon="12.941958">
        <ele>668.60</ele>
        <time>2012-11-04T11:15:09Z</time>
      </trkpt>
      <trkpt lat="47.670979" lon="12.941948">
        <ele>669.00</ele>
        <time>2012-11-04T11:15:10Z</time>
      </trkpt>
      <trkpt lat="47.671131" lon="12.941870">
        <ele>669.00</ele>
        <time>2012-11-04T11:15:14Z</time>
      </trkpt>
      <trkpt lat="47.671326" lon="12.941699">
        <ele>669.00</ele>
        <time>2012-11-04T11:15:20Z</time>
      </trkpt>
      <trkpt lat="47.671524" lon="12.941531">
        <ele>669.00</ele>
        <time>2012-11-04T11:15:26Z</time>
      </trkpt>
      <trkpt lat="47.671654" lon="12.941408">
        <ele>669.00</ele>
        <time>2012-11-04T11:15:32Z</time>
      </trkpt>
      <trkpt lat="47.671661" lon="12.941399">
        <ele>669.40</ele>
        <time>2012-11-04T11:15:34Z</time>
      </trkpt>
      <trkpt lat="47.671661" lon="12.941399">
        <ele>669.80</ele>
        <time>2012-11-04T11:15:35Z</time>
      </trkpt>
      <trkpt lat="47.671661" lon="12.941399">
        <ele>670.20</ele>
        <time>2012-11-04T11:15:36Z</time>
      </trkpt>
      <trkpt lat="47.671661" lon="12.941399">
        <ele>670.60</ele>
        <time>2012-11-04T11:15:37Z</time>
      </trkpt>
      <trkpt lat="47.671661" lon="12.941399">
        <ele>671.20</ele>
        <time>2012-11-04T11:15:38Z</time>
      </trkpt>
      <trkpt lat="47.671661" lon="12.941401">
        <ele>671.20</ele>
        <time>2012-11-04T11:15:45Z</time>
      </trkpt>
      <trkpt lat="47.671669" lon="12.941304">
        <ele>671.20</ele>
        <time>2012-11-04T11:15:53Z</time>
      </trkpt>
      <trkpt lat="47.671677" lon="12.941259">
        <ele>671.20</ele>
        <time>2012-11-04T11:15:55Z</time>
      </trkpt>
      <trkpt lat="47.671696" lon="12.941229">
        <ele>671.20</ele>
        <time>2012-11-04T11:15:58Z</time>
      </trkpt>
      <trkpt lat="47.671696" lon="12.941227">
        <ele>671.20</ele>
        <time>2012-11-04T11:16:00Z</time>
      </trkpt>
      <trkpt lat="47.671673" lon="12.941170">
        <ele>671.20</ele>
        <time>2012-11-04T11:16:03Z</time>
      </trkpt>
      <trkpt lat="47.671642" lon="12.941153">
        <ele>671.20</ele>
        <time>2012-11-04T11:16:07Z</time>
      </trkpt>
      <trkpt lat="47.671635" lon="12.941133">
        <ele>671.20</ele>
        <time>2012-11-04T11:16:08Z</time>
      </trkpt>
      <trkpt lat="47.671650" lon="12.941031">
        <ele>671.20</ele>
        <time>2012-11-04T11:16:12Z</time>
      </trkpt>
      <trkpt lat="47.671669" lon="12.940891">
        <ele>671.20</ele>
        <time>2012-11-04T11:16:16Z</time>
      </trkpt>
      <trkpt lat="47.671669" lon="12.940805">
        <ele>671.20</ele>
        <time>2012-11-04T11:16:18Z</time>
      </trkpt>
      <trkpt lat="47.671661" lon="12.940578">
        <ele>671.20</ele>
        <time>2012-11-04T11:16:22Z</time>
      </trkpt>
      <trkpt lat="47.671665" lon="12.940535">
        <ele>671.20</ele>
        <time>2012-11-04T11:16:23Z</time>
      </trkpt>
      <trkpt lat="47.671700" lon="12.940475">
        <ele>671.20</ele>
        <time>2012-11-04T11:16:25Z</time>
      </trkpt>
      <trkpt lat="47.671734" lon="12.940463">
        <ele>671.20</ele>
        <time>2012-11-04T11:16:26Z</time>
      </trkpt>
      <trkpt lat="47.671822" lon="12.940413">
        <ele>671.20</ele>
        <time>2012-11-04T11:16:29Z</time>
      </trkpt>
      <trkpt lat="47.671925" lon="12.940339">
        <ele>671.20</ele>
        <time>2012-11-04T11:16:33Z</time>
      </trkpt>
      <trkpt lat="47.672127" lon="12.940155">
        <ele>671.20</ele>
        <time>2012-11-04T11:16:40Z</time>
      </trkpt>
      <trkpt lat="47.672272" lon="12.940014">
        <ele>671.20</ele>
        <time>2012-11-04T11:16:45Z</time>
      </trkpt>
      <trkpt lat="47.672367" lon="12.939919">
        <ele>671.20</ele>
        <time>2012-11-04T11:16:48Z</time>
      </trkpt>
      <trkpt lat="47.672604" lon="12.939717">
        <ele>671.20</ele>
        <time>2012-11-04T11:16:55Z</time>
      </trkpt>
      <trkpt lat="47.672836" lon="12.939515">
        <ele>671.20</ele>
        <time>2012-11-04T11:17:02Z</time>
      </trkpt>
      <trkpt lat="47.673042" lon="12.939328">
        <ele>671.20</ele>
        <time>2012-11-04T11:17:09Z</time>
      </trkpt>
      <trkpt lat="47.673069" lon="12.939299">
        <ele>671.20</ele>
        <time>2012-11-04T11:17:10Z</time>
      </trkpt>
      <trkpt lat="47.673218" lon="12.939157">
        <ele>671.20</ele>
        <time>2012-11-04T11:17:16Z</time>
      </trkpt>
      <trkpt lat="47.673306" lon="12.939006">
        <ele>671.20</ele>
        <time>2012-11-04T11:17:22Z</time>
      </trkpt>
      <trkpt lat="47.673405" lon="12.938972">
        <ele>671.60</ele>
        <time>2012-11-04T11:17:25Z</time>
      </trkpt>
      <trkpt lat="47.673443" lon="12.938954">
        <ele>672.40</ele>
        <time>2012-11-04T11:17:26Z</time>
      </trkpt>
      <trkpt lat="47.673481" lon="12.938935">
        <ele>672.80</ele>
        <time>2012-11-04T11:17:27Z</time>
      </trkpt>
      <trkpt lat="47.673519" lon="12.938921">
        <ele>673.20</ele>
        <time>2012-11-04T11:17:28Z</time>
      </trkpt>
      <trkpt lat="47.673710" lon="12.938847">
        <ele>673.20</ele>
        <time>2012-11-04T11:17:33Z</time>
      </trkpt>
      <trkpt lat="47.674038" lon="12.938667">
        <ele>673.20</ele>
        <time>2012-11-04T11:17:42Z</time>
      </trkpt>
      <trkpt lat="47.674110" lon="12.938619">
        <ele>673.60</ele>
        <time>2012-11-04T11:17:44Z</time>
      </trkpt>
      <trkpt lat="47.674145" lon="12.938591">
        <ele>674.00</ele>
        <time>2012-11-04T11:17:45Z</time>
      </trkpt>
      <trkpt lat="47.674175" lon="12.938563">
        <ele>674.40</ele>
        <time>2012-11-04T11:17:46Z</time>
      </trkpt>
      <trkpt lat="47.674210" lon="12.938535">
        <ele>674.80</ele>
        <time>2012-11-04T11:17:47Z</time>
      </trkpt>
      <trkpt lat="47.674240" lon="12.938503">
        <ele>675.20</ele>
        <time>2012-11-04T11:17:48Z</time>
      </trkpt>
      <trkpt lat="47.674305" lon="12.938438">
        <ele>675.20</ele>
        <time>2012-11-04T11:17:50Z</time>
      </trkpt>
      <trkpt lat="47.674526" lon="12.938229">
        <ele>675.20</ele>
        <time>2012-11-04T11:17:57Z</time>
      </trkpt>
      <trkpt lat="47.674652" lon="12.938098">
        <ele>675.60</ele>
        <time>2012-11-04T11:18:01Z</time>
      </trkpt>
      <trkpt lat="47.674686" lon="12.938068">
        <ele>676.00</ele>
        <time>2012-11-04T11:18:02Z</time>
      </trkpt>
      <trkpt lat="47.674717" lon="12.938036">
        <ele>676.60</ele>
        <time>2012-11-04T11:18:03Z</time>
      </trkpt>
      <trkpt lat="47.674751" lon="12.938005">
        <ele>677.00</ele>
        <time>2012-11-04T11:18:04Z</time>
      </trkpt>
      <trkpt lat="47.674782" lon="12.937975">
        <ele>677.40</ele>
        <time>2012-11-04T11:18:05Z</time>
      </trkpt>
      <trkpt lat="47.674816" lon="12.937948">
        <ele>677.40</ele>
        <time>2012-11-04T11:18:06Z</time>
      </trkpt>
      <trkpt lat="47.675098" lon="12.937765">
        <ele>677.40</ele>
        <time>2012-11-04T11:18:14Z</time>
      </trkpt>
      <trkpt lat="47.675217" lon="12.937706">
        <ele>677.40</ele>
        <time>2012-11-04T11:18:17Z</time>
      </trkpt>
      <trkpt lat="47.675331" lon="12.937676">
        <ele>677.40</ele>
        <time>2012-11-04T11:18:20Z</time>
      </trkpt>
      <trkpt lat="47.675373" lon="12.937666">
        <ele>677.80</ele>
        <time>2012-11-04T11:18:21Z</time>
      </trkpt>
      <trkpt lat="47.675415" lon="12.937657">
        <ele>678.20</ele>
        <time>2012-11-04T11:18:22Z</time>
      </trkpt>
      <trkpt lat="47.675457" lon="12.937648">
        <ele>678.60</ele>
        <time>2012-11-04T11:18:23Z</time>
      </trkpt>
      <trkpt lat="47.675499" lon="12.937636">
        <ele>679.00</ele>
        <time>2012-11-04T11:18:24Z</time>
      </trkpt>
      <trkpt lat="47.675541" lon="12.937626">
        <ele>679.40</ele>
        <time>2012-11-04T11:18:25Z</time>
      </trkpt>
      <trkpt lat="47.675713" lon="12.937596">
        <ele>679.40</ele>
        <time>2012-11-04T11:18:29Z</time>
      </trkpt>
      <trkpt lat="47.676048" lon="12.937489">
        <ele>679.40</ele>
        <time>2012-11-04T11:18:37Z</time>
      </trkpt>
      <trkpt lat="47.676304" lon="12.937392">
        <ele>679.40</ele>
        <time>2012-11-04T11:18:43Z</time>
      </trkpt>
      <trkpt lat="47.676346" lon="12.937374">
        <ele>679.40</ele>
        <time>2012-11-04T11:18:44Z</time>
      </trkpt>
      <trkpt lat="47.676617" lon="12.937209">
        <ele>679.40</ele>
        <time>2012-11-04T11:18:51Z</time>
      </trkpt>
      <trkpt lat="47.676655" lon="12.937185">
        <ele>679.40</ele>
        <time>2012-11-04T11:18:52Z</time>
      </trkpt>
      <trkpt lat="47.676899" lon="12.936951">
        <ele>679.40</ele>
        <time>2012-11-04T11:18:59Z</time>
      </trkpt>
      <trkpt lat="47.677067" lon="12.936756">
        <ele>679.80</ele>
        <time>2012-11-04T11:19:04Z</time>
      </trkpt>
      <trkpt lat="47.677101" lon="12.936721">
        <ele>680.60</ele>
        <time>2012-11-04T11:19:05Z</time>
      </trkpt>
      <trkpt lat="47.677135" lon="12.936687">
        <ele>681.00</ele>
        <time>2012-11-04T11:19:06Z</time>
      </trkpt>
      <trkpt lat="47.677166" lon="12.936652">
        <ele>681.40</ele>
        <time>2012-11-04T11:19:07Z</time>
      </trkpt>
      <trkpt lat="47.677383" lon="12.936520">
        <ele>681.40</ele>
        <time>2012-11-04T11:19:13Z</time>
      </trkpt>
      <trkpt lat="47.677578" lon="12.936625">
        <ele>681.40</ele>
        <time>2012-11-04T11:19:18Z</time>
      </trkpt>
      <trkpt lat="47.677719" lon="12.936625">
        <ele>681.40</ele>
        <time>2012-11-04T11:19:22Z</time>
      </trkpt>
      <trkpt lat="47.677933" lon="12.936476">
        <ele>681.40</ele>
        <time>2012-11-04T11:19:29Z</time>
      </trkpt>
      <trkpt lat="47.678112" lon="12.936360">
        <ele>681.40</ele>
        <time>2012-11-04T11:19:34Z</time>
      </trkpt>
      <trkpt lat="47.678394" lon="12.936213">
        <ele>681.40</ele>
        <time>2012-11-04T11:19:41Z</time>
      </trkpt>
      <trkpt lat="47.678585" lon="12.936115">
        <ele>681.40</ele>
        <time>2012-11-04T11:19:46Z</time>
      </trkpt>
      <trkpt lat="47.678623" lon="12.936097">
        <ele>681.80</ele>
        <time>2012-11-04T11:19:47Z</time>
      </trkpt>
      <trkpt lat="47.678661" lon="12.936079">
        <ele>682.20</ele>
        <time>2012-11-04T11:19:48Z</time>
      </trkpt>
      <trkpt lat="47.678696" lon="12.936060">
        <ele>682.60</ele>
        <time>2012-11-04T11:19:49Z</time>
      </trkpt>
      <trkpt lat="47.678734" lon="12.936041">
        <ele>683.00</ele>
        <time>2012-11-04T11:19:50Z</time>
      </trkpt>
      <trkpt lat="47.678772" lon="12.936026">
        <ele>683.40</ele>
        <time>2012-11-04T11:19:51Z</time>
      </trkpt>
      <trkpt lat="47.678810" lon="12.936010">
        <ele>683.40</ele>
        <time>2012-11-04T11:19:52Z</time>
      </trkpt>
      <trkpt lat="47.679085" lon="12.935870">
        <ele>683.40</ele>
        <time>2012-11-04T11:19:59Z</time>
      </trkpt>
      <trkpt lat="47.679432" lon="12.935712">
        <ele>683.80</ele>
        <time>2012-11-04T11:20:08Z</time>
      </trkpt>
      <trkpt lat="47.679474" lon="12.935700">
        <ele>684.20</ele>
        <time>2012-11-04T11:20:09Z</time>
      </trkpt>
      <trkpt lat="47.679512" lon="12.935690">
        <ele>684.60</ele>
        <time>2012-11-04T11:20:10Z</time>
      </trkpt>
      <trkpt lat="47.679550" lon="12.935682">
        <ele>685.00</ele>
        <time>2012-11-04T11:20:11Z</time>
      </trkpt>
      <trkpt lat="47.679588" lon="12.935672">
        <ele>685.40</ele>
        <time>2012-11-04T11:20:12Z</time>
      </trkpt>
      <trkpt lat="47.679783" lon="12.935633">
        <ele>685.40</ele>
        <time>2012-11-04T11:20:17Z</time>
      </trkpt>
      <trkpt lat="47.679974" lon="12.935573">
        <ele>685.40</ele>
        <time>2012-11-04T11:20:22Z</time>
      </trkpt>
      <trkpt lat="47.680134" lon="12.935595">
        <ele>685.80</ele>
        <time>2012-11-04T11:20:26Z</time>
      </trkpt>
      <trkpt lat="47.680168" lon="12.935603">
        <ele>686.20</ele>
        <time>2012-11-04T11:20:27Z</time>
      </trkpt>
      <trkpt lat="47.680206" lon="12.935614">
        <ele>686.60</ele>
        <time>2012-11-04T11:20:28Z</time>
      </trkpt>
      <trkpt lat="47.680241" lon="12.935614">
        <ele>687.00</ele>
        <time>2012-11-04T11:20:29Z</time>
      </trkpt>
      <trkpt lat="47.680275" lon="12.935613">
        <ele>687.40</ele>
        <time>2012-11-04T11:20:30Z</time>
      </trkpt>
      <trkpt lat="47.680416" lon="12.935618">
        <ele>687.80</ele>
        <time>2012-11-04T11:20:34Z</time>
      </trkpt>
      <trkpt lat="47.680450" lon="12.935621">
        <ele>688.20</ele>
        <time>2012-11-04T11:20:35Z</time>
      </trkpt>
      <trkpt lat="47.680489" lon="12.935629">
        <ele>688.60</ele>
        <time>2012-11-04T11:20:36Z</time>
      </trkpt>
      <trkpt lat="47.680523" lon="12.935646">
        <ele>689.20</ele>
        <time>2012-11-04T11:20:37Z</time>
      </trkpt>
      <trkpt lat="47.680553" lon="12.935672">
        <ele>689.60</ele>
        <time>2012-11-04T11:20:38Z</time>
      </trkpt>
      <trkpt lat="47.680584" lon="12.935706">
        <ele>689.60</ele>
        <time>2012-11-04T11:20:39Z</time>
      </trkpt>
      <trkpt lat="47.680798" lon="12.935890">
        <ele>689.60</ele>
        <time>2012-11-04T11:20:44Z</time>
      </trkpt>
      <trkpt lat="47.680840" lon="12.935912">
        <ele>689.60</ele>
        <time>2012-11-04T11:20:45Z</time>
      </trkpt>
      <trkpt lat="47.681011" lon="12.935997">
        <ele>689.60</ele>
        <time>2012-11-04T11:20:49Z</time>
      </trkpt>
      <trkpt lat="47.681286" lon="12.936131">
        <ele>689.60</ele>
        <time>2012-11-04T11:20:56Z</time>
      </trkpt>
      <trkpt lat="47.681519" lon="12.936228">
        <ele>689.60</ele>
        <time>2012-11-04T11:21:02Z</time>
      </trkpt>
      <trkpt lat="47.681778" lon="12.936316">
        <ele>689.60</ele>
        <time>2012-11-04T11:21:09Z</time>
      </trkpt>
      <trkpt lat="47.681850" lon="12.936347">
        <ele>690.00</ele>
        <time>2012-11-04T11:21:11Z</time>
      </trkpt>
      <trkpt lat="47.681885" lon="12.936363">
        <ele>690.40</ele>
        <time>2012-11-04T11:21:12Z</time>
      </trkpt>
      <trkpt lat="47.681919" lon="12.936373">
        <ele>690.80</ele>
        <time>2012-11-04T11:21:13Z</time>
      </trkpt>
      <trkpt lat="47.681957" lon="12.936378">
        <ele>691.20</ele>
        <time>2012-11-04T11:21:14Z</time>
      </trkpt>
      <trkpt lat="47.681995" lon="12.936386">
        <ele>691.60</ele>
        <time>2012-11-04T11:21:15Z</time>
      </trkpt>
      <trkpt lat="47.682034" lon="12.936399">
        <ele>691.60</ele>
        <time>2012-11-04T11:21:16Z</time>
      </trkpt>
      <trkpt lat="47.682247" lon="12.936500">
        <ele>691.60</ele>
        <time>2012-11-04T11:21:22Z</time>
      </trkpt>
      <trkpt lat="47.682487" lon="12.936586">
        <ele>691.60</ele>
        <time>2012-11-04T11:21:28Z</time>
      </trkpt>
      <trkpt lat="47.682755" lon="12.936694">
        <ele>691.60</ele>
        <time>2012-11-04T11:21:35Z</time>
      </trkpt>
      <trkpt lat="47.683018" lon="12.936804">
        <ele>691.60</ele>
        <time>2012-11-04T11:21:41Z</time>
      </trkpt>
      <trkpt lat="47.683125" lon="12.936869">
        <ele>691.60</ele>
        <time>2012-11-04T11:21:43Z</time>
      </trkpt>
      <trkpt lat="47.683212" lon="12.936987">
        <ele>691.60</ele>
        <time>2012-11-04T11:21:45Z</time>
      </trkpt>
      <trkpt lat="47.683372" lon="12.937231">
        <ele>691.60</ele>
        <time>2012-11-04T11:21:49Z</time>
      </trkpt>
      <trkpt lat="47.683407" lon="12.937250">
        <ele>691.60</ele>
        <time>2012-11-04T11:21:50Z</time>
      </trkpt>
      <trkpt lat="47.683613" lon="12.937306">
        <ele>691.60</ele>
        <time>2012-11-04T11:21:56Z</time>
      </trkpt>
      <trkpt lat="47.683647" lon="12.937320">
        <ele>692.60</ele>
        <time>2012-11-04T11:21:57Z</time>
      </trkpt>
      <trkpt lat="47.683681" lon="12.937334">
        <ele>693.00</ele>
        <time>2012-11-04T11:21:58Z</time>
      </trkpt>
      <trkpt lat="47.683716" lon="12.937346">
        <ele>693.40</ele>
        <time>2012-11-04T11:21:59Z</time>
      </trkpt>
      <trkpt lat="47.683754" lon="12.937359">
        <ele>693.80</ele>
        <time>2012-11-04T11:22:00Z</time>
      </trkpt>
      <trkpt lat="47.683941" lon="12.937425">
        <ele>693.80</ele>
        <time>2012-11-04T11:22:05Z</time>
      </trkpt>
      <trkpt lat="47.684204" lon="12.937521">
        <ele>693.80</ele>
        <time>2012-11-04T11:22:12Z</time>
      </trkpt>
      <trkpt lat="47.684319" lon="12.937568">
        <ele>694.20</ele>
        <time>2012-11-04T11:22:16Z</time>
      </trkpt>
      <trkpt lat="47.684341" lon="12.937577">
        <ele>694.60</ele>
        <time>2012-11-04T11:22:17Z</time>
      </trkpt>
      <trkpt lat="47.684364" lon="12.937585">
        <ele>695.00</ele>
        <time>2012-11-04T11:22:18Z</time>
      </trkpt>
      <trkpt lat="47.684387" lon="12.937593">
        <ele>695.40</ele>
        <time>2012-11-04T11:22:19Z</time>
      </trkpt>
      <trkpt lat="47.684410" lon="12.937602">
        <ele>695.80</ele>
        <time>2012-11-04T11:22:20Z</time>
      </trkpt>
      <trkpt lat="47.684490" lon="12.937625">
        <ele>695.80</ele>
        <time>2012-11-04T11:22:23Z</time>
      </trkpt>
      <trkpt lat="47.684578" lon="12.937658">
        <ele>695.80</ele>
        <time>2012-11-04T11:22:27Z</time>
      </trkpt>
      <trkpt lat="47.684628" lon="12.937669">
        <ele>695.80</ele>
        <time>2012-11-04T11:22:32Z</time>
      </trkpt>
      <trkpt lat="47.684628" lon="12.937664">
        <ele>695.80</ele>
        <time>2012-11-04T11:22:39Z</time>
      </trkpt>
      <trkpt lat="47.684628" lon="12.937664">
        <ele>695.80</ele>
        <time>2012-11-04T11:22:43Z</time>
      </trkpt>
      <trkpt lat="47.684628" lon="12.937664">
        <ele>695.80</ele>
        <time>2012-11-04T11:22:48Z</time>
      </trkpt>
      <trkpt lat="47.684628" lon="12.937664">
        <ele>695.80</ele>
        <time>2012-11-04T11:22:54Z</time>
      </trkpt>
      <trkpt lat="47.684628" lon="12.937664">
        <ele>695.80</ele>
        <time>2012-11-04T11:23:01Z</time>
      </trkpt>
      <trkpt lat="47.684628" lon="12.937664">
        <ele>695.80</ele>
        <time>2012-11-04T11:23:03Z</time>
      </trkpt>
      <trkpt lat="47.684628" lon="12.937664">
        <ele>695.80</ele>
        <time>2012-11-04T11:23:10Z</time>
      </trkpt>
      <trkpt lat="47.684616" lon="12.937661">
        <ele>695.80</ele>
        <time>2012-11-04T11:23:15Z</time>
      </trkpt>
      <trkpt lat="47.684616" lon="12.937661">
        <ele>695.80</ele>
        <time>2012-11-04T11:23:16Z</time>
      </trkpt>
      <trkpt lat="47.684616" lon="12.937661">
        <ele>695.80</ele>
        <time>2012-11-04T11:23:20Z</time>
      </trkpt>
      <trkpt lat="47.684616" lon="12.937661">
        <ele>695.80</ele>
        <time>2012-11-04T11:23:28Z</time>
      </trkpt>
      <trkpt lat="47.684616" lon="12.937661">
        <ele>695.80</ele>
        <time>2012-11-04T11:23:29Z</time>
      </trkpt>
      <trkpt lat="47.684616" lon="12.937661">
        <ele>695.80</ele>
        <time>2012-11-04T11:23:45Z</time>
      </trkpt>
      <trkpt lat="47.684616" lon="12.937661">
        <ele>695.80</ele>
        <time>2012-11-04T11:23:47Z</time>
      </trkpt>
      <trkpt lat="47.684612" lon="12.937657">
        <ele>695.80</ele>
        <time>2012-11-04T11:23:59Z</time>
      </trkpt>
      <trkpt lat="47.684612" lon="12.937657">
        <ele>695.80</ele>
        <time>2012-11-04T11:24:11Z</time>
      </trkpt>
      <trkpt lat="47.684612" lon="12.937657">
        <ele>695.80</ele>
        <time>2012-11-04T11:24:14Z</time>
      </trkpt>
      <trkpt lat="47.684612" lon="12.937657">
        <ele>695.80</ele>
        <time>2012-11-04T11:24:24Z</time>
      </trkpt>
      <trkpt lat="47.684612" lon="12.937657">
        <ele>695.80</ele>
        <time>2012-11-04T11:24:26Z</time>
      </trkpt>
      <trkpt lat="47.684612" lon="12.937657">
        <ele>695.80</ele>
        <time>2012-11-04T11:24:29Z</time>
      </trkpt>
      <trkpt lat="47.684628" lon="12.937664">
        <ele>695.80</ele>
        <time>2012-11-04T11:24:36Z</time>
      </trkpt>
      <trkpt lat="47.684628" lon="12.937668">
        <ele>695.80</ele>
        <time>2012-11-04T11:24:40Z</time>
      </trkpt>
      <trkpt lat="47.684628" lon="12.937667">
        <ele>695.80</ele>
        <time>2012-11-04T11:24:42Z</time>
      </trkpt>
      <trkpt lat="47.684628" lon="12.937667">
        <ele>695.80</ele>
        <time>2012-11-04T11:24:46Z</time>
      </trkpt>
      <trkpt lat="47.684628" lon="12.937667">
        <ele>695.80</ele>
        <time>2012-11-04T11:24:51Z</time>
      </trkpt>
      <trkpt lat="47.684635" lon="12.937664">
        <ele>695.80</ele>
        <time>2012-11-04T11:24:53Z</time>
      </trkpt>
      <trkpt lat="47.684643" lon="12.937662">
        <ele>695.80</ele>
        <time>2012-11-04T11:24:59Z</time>
      </trkpt>
      <trkpt lat="47.684658" lon="12.937671">
        <ele>695.80</ele>
        <time>2012-11-04T11:25:00Z</time>
      </trkpt>
      <trkpt lat="47.684753" lon="12.937695">
        <ele>695.80</ele>
        <time>2012-11-04T11:25:04Z</time>
      </trkpt>
      <trkpt lat="47.684937" lon="12.937746">
        <ele>695.80</ele>
        <time>2012-11-04T11:25:10Z</time>
      </trkpt>
      <trkpt lat="47.685188" lon="12.937803">
        <ele>695.80</ele>
        <time>2012-11-04T11:25:17Z</time>
      </trkpt>
      <trkpt lat="47.685257" lon="12.937878">
        <ele>695.80</ele>
        <time>2012-11-04T11:25:20Z</time>
      </trkpt>
      <trkpt lat="47.685257" lon="12.937938">
        <ele>695.80</ele>
        <time>2012-11-04T11:25:21Z</time>
      </trkpt>
      <trkpt lat="47.685226" lon="12.938152">
        <ele>695.80</ele>
        <time>2012-11-04T11:25:24Z</time>
      </trkpt>
      <trkpt lat="47.685242" lon="12.938214">
        <ele>695.80</ele>
        <time>2012-11-04T11:25:25Z</time>
      </trkpt>
      <trkpt lat="47.685322" lon="12.938279">
        <ele>695.40</ele>
        <time>2012-11-04T11:25:27Z</time>
      </trkpt>
      <trkpt lat="47.685368" lon="12.938291">
        <ele>695.00</ele>
        <time>2012-11-04T11:25:28Z</time>
      </trkpt>
      <trkpt lat="47.685417" lon="12.938303">
        <ele>694.60</ele>
        <time>2012-11-04T11:25:29Z</time>
      </trkpt>
      <trkpt lat="47.685463" lon="12.938321">
        <ele>694.00</ele>
        <time>2012-11-04T11:25:30Z</time>
      </trkpt>
      <trkpt lat="47.685513" lon="12.938339">
        <ele>693.60</ele>
        <time>2012-11-04T11:25:31Z</time>
      </trkpt>
      <trkpt lat="47.685558" lon="12.938356">
        <ele>693.60</ele>
        <time>2012-11-04T11:25:32Z</time>
      </trkpt>
      <trkpt lat="47.685802" lon="12.938439">
        <ele>693.60</ele>
        <time>2012-11-04T11:25:37Z</time>
      </trkpt>
      <trkpt lat="47.685940" lon="12.938492">
        <ele>693.60</ele>
        <time>2012-11-04T11:25:40Z</time>
      </trkpt>
      <trkpt lat="47.686302" lon="12.938615">
        <ele>693.60</ele>
        <time>2012-11-04T11:25:48Z</time>
      </trkpt>
      <trkpt lat="47.686615" lon="12.938725">
        <ele>693.60</ele>
        <time>2012-11-04T11:25:55Z</time>
      </trkpt>
      <trkpt lat="47.687004" lon="12.938859">
        <ele>693.60</ele>
        <time>2012-11-04T11:26:03Z</time>
      </trkpt>
      <trkpt lat="47.687298" lon="12.938946">
        <ele>693.60</ele>
        <time>2012-11-04T11:26:09Z</time>
      </trkpt>
      <trkpt lat="47.687344" lon="12.938953">
        <ele>693.60</ele>
        <time>2012-11-04T11:26:10Z</time>
      </trkpt>
      <trkpt lat="47.687588" lon="12.938959">
        <ele>693.60</ele>
        <time>2012-11-04T11:26:16Z</time>
      </trkpt>
      <trkpt lat="47.687603" lon="12.938985">
        <ele>693.60</ele>
        <time>2012-11-04T11:26:17Z</time>
      </trkpt>
      <trkpt lat="47.687607" lon="12.939063">
        <ele>693.60</ele>
        <time>2012-11-04T11:26:19Z</time>
      </trkpt>
      <trkpt lat="47.687611" lon="12.939294">
        <ele>693.60</ele>
        <time>2012-11-04T11:26:24Z</time>
      </trkpt>
      <trkpt lat="47.687622" lon="12.939397">
        <ele>693.60</ele>
        <time>2012-11-04T11:26:26Z</time>
      </trkpt>
      <trkpt lat="47.687660" lon="12.939765">
        <ele>693.60</ele>
        <time>2012-11-04T11:26:33Z</time>
      </trkpt>
      <trkpt lat="47.687637" lon="12.940031">
        <ele>693.60</ele>
        <time>2012-11-04T11:26:38Z</time>
      </trkpt>
      <trkpt lat="47.687572" lon="12.940268">
        <ele>693.60</ele>
        <time>2012-11-04T11:26:43Z</time>
      </trkpt>
      <trkpt lat="47.687622" lon="12.940469">
        <ele>693.60</ele>
        <time>2012-11-04T11:26:47Z</time>
      </trkpt>
      <trkpt lat="47.687767" lon="12.940772">
        <ele>693.60</ele>
        <time>2012-11-04T11:26:54Z</time>
      </trkpt>
      <trkpt lat="47.687931" lon="12.940814">
        <ele>693.60</ele>
        <time>2012-11-04T11:26:58Z</time>
      </trkpt>
      <trkpt lat="47.688263" lon="12.940936">
        <ele>693.60</ele>
        <time>2012-11-04T11:27:05Z</time>
      </trkpt>
      <trkpt lat="47.688480" lon="12.941073">
        <ele>693.60</ele>
        <time>2012-11-04T11:27:10Z</time>
      </trkpt>
      <trkpt lat="47.688580" lon="12.941126">
        <ele>693.60</ele>
        <time>2012-11-04T11:27:12Z</time>
      </trkpt>
      <trkpt lat="47.688892" lon="12.941329">
        <ele>693.60</ele>
        <time>2012-11-04T11:27:19Z</time>
      </trkpt>
      <trkpt lat="47.689228" lon="12.941609">
        <ele>693.60</ele>
        <time>2012-11-04T11:27:27Z</time>
      </trkpt>
      <trkpt lat="47.689442" lon="12.941741">
        <ele>693.60</ele>
        <time>2012-11-04T11:27:32Z</time>
      </trkpt>
      <trkpt lat="47.689484" lon="12.941765">
        <ele>693.60</ele>
        <time>2012-11-04T11:27:33Z</time>
      </trkpt>
      <trkpt lat="47.689823" lon="12.941925">
        <ele>693.60</ele>
        <time>2012-11-04T11:27:41Z</time>
      </trkpt>
      <trkpt lat="47.690117" lon="12.942017">
        <ele>693.60</ele>
        <time>2012-11-04T11:27:48Z</time>
      </trkpt>
      <trkpt lat="47.690449" lon="12.942125">
        <ele>693.60</ele>
        <time>2012-11-04T11:27:56Z</time>
      </trkpt>
      <trkpt lat="47.690708" lon="12.942232">
        <ele>693.20</ele>
        <time>2012-11-04T11:28:02Z</time>
      </trkpt>
      <trkpt lat="47.690754" lon="12.942250">
        <ele>692.80</ele>
        <time>2012-11-04T11:28:03Z</time>
      </trkpt>
      <trkpt lat="47.690796" lon="12.942269">
        <ele>692.40</ele>
        <time>2012-11-04T11:28:04Z</time>
      </trkpt>
      <trkpt lat="47.690838" lon="12.942288">
        <ele>691.80</ele>
        <time>2012-11-04T11:28:05Z</time>
      </trkpt>
      <trkpt lat="47.690880" lon="12.942312">
        <ele>691.40</ele>
        <time>2012-11-04T11:28:06Z</time>
      </trkpt>
      <trkpt lat="47.691074" lon="12.942412">
        <ele>691.40</ele>
        <time>2012-11-04T11:28:11Z</time>
      </trkpt>
      <trkpt lat="47.691380" lon="12.942555">
        <ele>691.40</ele>
        <time>2012-11-04T11:28:19Z</time>
      </trkpt>
      <trkpt lat="47.691582" lon="12.942709">
        <ele>691.40</ele>
        <time>2012-11-04T11:28:25Z</time>
      </trkpt>
      <trkpt lat="47.691799" lon="12.942863">
        <ele>691.40</ele>
        <time>2012-11-04T11:28:32Z</time>
      </trkpt>
      <trkpt lat="47.691887" lon="12.942948">
        <ele>691.40</ele>
        <time>2012-11-04T11:28:38Z</time>
      </trkpt>
      <trkpt lat="47.691967" lon="12.943012">
        <ele>691.40</ele>
        <time>2012-11-04T11:28:42Z</time>
      </trkpt>
      <trkpt lat="47.692036" lon="12.943069">
        <ele>691.40</ele>
        <time>2012-11-04T11:28:45Z</time>
      </trkpt>
      <trkpt lat="47.692131" lon="12.943119">
        <ele>691.40</ele>
        <time>2012-11-04T11:28:49Z</time>
      </trkpt>
      <trkpt lat="47.692192" lon="12.943109">
        <ele>691.40</ele>
        <time>2012-11-04T11:28:51Z</time>
      </trkpt>
      <trkpt lat="47.692261" lon="12.943069">
        <ele>691.80</ele>
        <time>2012-11-04T11:28:53Z</time>
      </trkpt>
      <trkpt lat="47.692287" lon="12.943048">
        <ele>692.40</ele>
        <time>2012-11-04T11:28:54Z</time>
      </trkpt>
      <trkpt lat="47.692307" lon="12.943023">
        <ele>692.80</ele>
        <time>2012-11-04T11:28:55Z</time>
      </trkpt>
      <trkpt lat="47.692329" lon="12.943000">
        <ele>693.20</ele>
        <time>2012-11-04T11:28:56Z</time>
      </trkpt>
      <trkpt lat="47.692348" lon="12.942980">
        <ele>693.60</ele>
        <time>2012-11-04T11:28:57Z</time>
      </trkpt>
      <trkpt lat="47.692486" lon="12.942870">
        <ele>693.60</ele>
        <time>2012-11-04T11:29:02Z</time>
      </trkpt>
      <trkpt lat="47.692513" lon="12.942850">
        <ele>693.60</ele>
        <time>2012-11-04T11:29:03Z</time>
      </trkpt>
      <trkpt lat="47.692650" lon="12.942748">
        <ele>693.60</ele>
        <time>2012-11-04T11:29:08Z</time>
      </trkpt>
      <trkpt lat="47.692692" lon="12.942719">
        <ele>693.60</ele>
        <time>2012-11-04T11:29:10Z</time>
      </trkpt>
      <trkpt lat="47.692856" lon="12.942585">
        <ele>693.60</ele>
        <time>2012-11-04T11:29:16Z</time>
      </trkpt>
      <trkpt lat="47.692905" lon="12.942553">
        <ele>694.00</ele>
        <time>2012-11-04T11:29:18Z</time>
      </trkpt>
      <trkpt lat="47.692932" lon="12.942540">
        <ele>694.40</ele>
        <time>2012-11-04T11:29:19Z</time>
      </trkpt>
      <trkpt lat="47.692959" lon="12.942533">
        <ele>694.80</ele>
        <time>2012-11-04T11:29:20Z</time>
      </trkpt>
      <trkpt lat="47.692982" lon="12.942526">
        <ele>695.20</ele>
        <time>2012-11-04T11:29:21Z</time>
      </trkpt>
      <trkpt lat="47.693008" lon="12.942516">
        <ele>695.80</ele>
        <time>2012-11-04T11:29:22Z</time>
      </trkpt>
      <trkpt lat="47.693035" lon="12.942504">
        <ele>695.80</ele>
        <time>2012-11-04T11:29:23Z</time>
      </trkpt>
      <trkpt lat="47.693169" lon="12.942417">
        <ele>696.20</ele>
        <time>2012-11-04T11:29:29Z</time>
      </trkpt>
      <trkpt lat="47.693203" lon="12.942410">
        <ele>696.60</ele>
        <time>2012-11-04T11:29:30Z</time>
      </trkpt>
      <trkpt lat="47.693230" lon="12.942400">
        <ele>697.00</ele>
        <time>2012-11-04T11:29:31Z</time>
      </trkpt>
      <trkpt lat="47.693260" lon="12.942395">
        <ele>697.40</ele>
        <time>2012-11-04T11:29:32Z</time>
      </trkpt>
      <trkpt lat="47.693287" lon="12.942384">
        <ele>697.80</ele>
        <time>2012-11-04T11:29:33Z</time>
      </trkpt>
      <trkpt lat="47.693439" lon="12.942345">
        <ele>697.80</ele>
        <time>2012-11-04T11:29:38Z</time>
      </trkpt>
      <trkpt lat="47.693634" lon="12.942309">
        <ele>697.80</ele>
        <time>2012-11-04T11:29:45Z</time>
      </trkpt>
      <trkpt lat="47.693871" lon="12.942306">
        <ele>697.80</ele>
        <time>2012-11-04T11:29:52Z</time>
      </trkpt>
      <trkpt lat="47.694054" lon="12.942362">
        <ele>697.80</ele>
        <time>2012-11-04T11:29:57Z</time>
      </trkpt>
      <trkpt lat="47.694221" lon="12.942440">
        <ele>698.20</ele>
        <time>2012-11-04T11:30:02Z</time>
      </trkpt>
      <trkpt lat="47.694256" lon="12.942458">
        <ele>698.60</ele>
        <time>2012-11-04T11:30:03Z</time>
      </trkpt>
      <trkpt lat="47.694286" lon="12.942473">
        <ele>699.00</ele>
        <time>2012-11-04T11:30:04Z</time>
      </trkpt>
      <trkpt lat="47.694317" lon="12.942485">
        <ele>699.40</ele>
        <time>2012-11-04T11:30:05Z</time>
      </trkpt>
      <trkpt lat="47.694351" lon="12.942503">
        <ele>699.80</ele>
        <time>2012-11-04T11:30:06Z</time>
      </trkpt>
      <trkpt lat="47.694500" lon="12.942582">
        <ele>699.80</ele>
        <time>2012-11-04T11:30:11Z</time>
      </trkpt>
      <trkpt lat="47.694706" lon="12.942681">
        <ele>699.80</ele>
        <time>2012-11-04T11:30:18Z</time>
      </trkpt>
      <trkpt lat="47.694901" lon="12.942736">
        <ele>699.80</ele>
        <time>2012-11-04T11:30:24Z</time>
      </trkpt>
      <trkpt lat="47.695026" lon="12.942763">
        <ele>699.80</ele>
        <time>2012-11-04T11:30:27Z</time>
      </trkpt>
      <trkpt lat="47.695148" lon="12.942797">
        <ele>699.80</ele>
        <time>2012-11-04T11:30:30Z</time>
      </trkpt>
      <trkpt lat="47.695305" lon="12.942838">
        <ele>700.20</ele>
        <time>2012-11-04T11:30:35Z</time>
      </trkpt>
      <trkpt lat="47.695335" lon="12.942849">
        <ele>700.60</ele>
        <time>2012-11-04T11:30:36Z</time>
      </trkpt>
      <trkpt lat="47.695362" lon="12.942863">
        <ele>701.40</ele>
        <time>2012-11-04T11:30:37Z</time>
      </trkpt>
      <trkpt lat="47.695393" lon="12.942871">
        <ele>701.80</ele>
        <time>2012-11-04T11:30:38Z</time>
      </trkpt>
      <trkpt lat="47.695473" lon="12.942875">
        <ele>702.20</ele>
        <time>2012-11-04T11:30:41Z</time>
      </trkpt>
      <trkpt lat="47.695499" lon="12.942859">
        <ele>702.80</ele>
        <time>2012-11-04T11:30:42Z</time>
      </trkpt>
      <trkpt lat="47.695515" lon="12.942830">
        <ele>703.20</ele>
        <time>2012-11-04T11:30:43Z</time>
      </trkpt>
      <trkpt lat="47.695530" lon="12.942797">
        <ele>703.60</ele>
        <time>2012-11-04T11:30:44Z</time>
      </trkpt>
      <trkpt lat="47.695530" lon="12.942738">
        <ele>704.00</ele>
        <time>2012-11-04T11:30:45Z</time>
      </trkpt>
      <trkpt lat="47.695530" lon="12.942668">
        <ele>704.00</ele>
        <time>2012-11-04T11:30:46Z</time>
      </trkpt>
      <trkpt lat="47.695553" lon="12.942521">
        <ele>704.00</ele>
        <time>2012-11-04T11:30:48Z</time>
      </trkpt>
      <trkpt lat="47.695610" lon="12.942402">
        <ele>704.00</ele>
        <time>2012-11-04T11:30:50Z</time>
      </trkpt>
      <trkpt lat="47.695683" lon="12.942294">
        <ele>704.00</ele>
        <time>2012-11-04T11:30:52Z</time>
      </trkpt>
      <trkpt lat="47.695724" lon="12.942242">
        <ele>704.00</ele>
        <time>2012-11-04T11:30:53Z</time>
      </trkpt>
      <trkpt lat="47.695812" lon="12.942147">
        <ele>704.00</ele>
        <time>2012-11-04T11:30:55Z</time>
      </trkpt>
      <trkpt lat="47.695896" lon="12.942048">
        <ele>703.60</ele>
        <time>2012-11-04T11:30:57Z</time>
      </trkpt>
      <trkpt lat="47.695938" lon="12.942009">
        <ele>703.20</ele>
        <time>2012-11-04T11:30:58Z</time>
      </trkpt>
      <trkpt lat="47.695984" lon="12.941966">
        <ele>702.80</ele>
        <time>2012-11-04T11:30:59Z</time>
      </trkpt>
      <trkpt lat="47.696030" lon="12.941921">
        <ele>702.40</ele>
        <time>2012-11-04T11:31:00Z</time>
      </trkpt>
      <trkpt lat="47.696075" lon="12.941880">
        <ele>702.00</ele>
        <time>2012-11-04T11:31:01Z</time>
      </trkpt>
      <trkpt lat="47.696201" lon="12.941749">
        <ele>701.60</ele>
        <time>2012-11-04T11:31:04Z</time>
      </trkpt>
      <trkpt lat="47.696243" lon="12.941716">
        <ele>701.20</ele>
        <time>2012-11-04T11:31:05Z</time>
      </trkpt>
      <trkpt lat="47.696281" lon="12.941683">
        <ele>700.60</ele>
        <time>2012-11-04T11:31:06Z</time>
      </trkpt>
      <trkpt lat="47.696327" lon="12.941658">
        <ele>700.20</ele>
        <time>2012-11-04T11:31:07Z</time>
      </trkpt>
      <trkpt lat="47.696377" lon="12.941633">
        <ele>699.80</ele>
        <time>2012-11-04T11:31:08Z</time>
      </trkpt>
      <trkpt lat="47.696430" lon="12.941611">
        <ele>699.40</ele>
        <time>2012-11-04T11:31:09Z</time>
      </trkpt>
      <trkpt lat="47.696487" lon="12.941579">
        <ele>698.80</ele>
        <time>2012-11-04T11:31:10Z</time>
      </trkpt>
      <trkpt lat="47.696537" lon="12.941548">
        <ele>698.40</ele>
        <time>2012-11-04T11:31:11Z</time>
      </trkpt>
      <trkpt lat="47.696594" lon="12.941525">
        <ele>697.80</ele>
        <time>2012-11-04T11:31:12Z</time>
      </trkpt>
      <trkpt lat="47.696651" lon="12.941499">
        <ele>697.40</ele>
        <time>2012-11-04T11:31:13Z</time>
      </trkpt>
      <trkpt lat="47.696709" lon="12.941463">
        <ele>697.00</ele>
        <time>2012-11-04T11:31:14Z</time>
      </trkpt>
      <trkpt lat="47.696770" lon="12.941415">
        <ele>696.60</ele>
        <time>2012-11-04T11:31:15Z</time>
      </trkpt>
      <trkpt lat="47.696827" lon="12.941367">
        <ele>696.00</ele>
        <time>2012-11-04T11:31:16Z</time>
      </trkpt>
      <trkpt lat="47.696884" lon="12.941318">
        <ele>695.60</ele>
        <time>2012-11-04T11:31:17Z</time>
      </trkpt>
      <trkpt lat="47.696938" lon="12.941260">
        <ele>695.20</ele>
        <time>2012-11-04T11:31:18Z</time>
      </trkpt>
      <trkpt lat="47.696987" lon="12.941203">
        <ele>695.20</ele>
        <time>2012-11-04T11:31:19Z</time>
      </trkpt>
      <trkpt lat="47.697033" lon="12.941129">
        <ele>694.60</ele>
        <time>2012-11-04T11:31:20Z</time>
      </trkpt>
      <trkpt lat="47.697075" lon="12.941050">
        <ele>694.20</ele>
        <time>2012-11-04T11:31:21Z</time>
      </trkpt>
      <trkpt lat="47.697117" lon="12.940964">
        <ele>693.80</ele>
        <time>2012-11-04T11:31:22Z</time>
      </trkpt>
      <trkpt lat="47.697155" lon="12.940874">
        <ele>693.40</ele>
        <time>2012-11-04T11:31:23Z</time>
      </trkpt>
      <trkpt lat="47.697193" lon="12.940800">
        <ele>693.00</ele>
        <time>2012-11-04T11:31:24Z</time>
      </trkpt>
      <trkpt lat="47.697266" lon="12.940681">
        <ele>693.00</ele>
        <time>2012-11-04T11:31:26Z</time>
      </trkpt>
      <trkpt lat="47.697300" lon="12.940626">
        <ele>692.40</ele>
        <time>2012-11-04T11:31:27Z</time>
      </trkpt>
      <trkpt lat="47.697338" lon="12.940579">
        <ele>692.00</ele>
        <time>2012-11-04T11:31:28Z</time>
      </trkpt>
      <trkpt lat="47.697380" lon="12.940541">
        <ele>691.60</ele>
        <time>2012-11-04T11:31:29Z</time>
      </trkpt>
      <trkpt lat="47.697422" lon="12.940503">
        <ele>691.20</ele>
        <time>2012-11-04T11:31:30Z</time>
      </trkpt>
      <trkpt lat="47.697468" lon="12.940453">
        <ele>690.80</ele>
        <time>2012-11-04T11:31:31Z</time>
      </trkpt>
      <trkpt lat="47.697517" lon="12.940411">
        <ele>690.80</ele>
        <time>2012-11-04T11:31:32Z</time>
      </trkpt>
      <trkpt lat="47.697701" lon="12.940259">
        <ele>690.40</ele>
        <time>2012-11-04T11:31:36Z</time>
      </trkpt>
      <trkpt lat="47.697746" lon="12.940213">
        <ele>690.00</ele>
        <time>2012-11-04T11:31:37Z</time>
      </trkpt>
      <trkpt lat="47.697788" lon="12.940167">
        <ele>689.60</ele>
        <time>2012-11-04T11:31:38Z</time>
      </trkpt>
      <trkpt lat="47.697830" lon="12.940126">
        <ele>689.20</ele>
        <time>2012-11-04T11:31:39Z</time>
      </trkpt>
      <trkpt lat="47.697868" lon="12.940078">
        <ele>688.80</ele>
        <time>2012-11-04T11:31:40Z</time>
      </trkpt>
      <trkpt lat="47.697926" lon="12.939971">
        <ele>688.80</ele>
        <time>2012-11-04T11:31:42Z</time>
      </trkpt>
      <trkpt lat="47.697987" lon="12.939752">
        <ele>688.80</ele>
        <time>2012-11-04T11:31:46Z</time>
      </trkpt>
      <trkpt lat="47.697998" lon="12.939701">
        <ele>688.80</ele>
        <time>2012-11-04T11:31:47Z</time>
      </trkpt>
      <trkpt lat="47.698025" lon="12.939500">
        <ele>688.80</ele>
        <time>2012-11-04T11:31:51Z</time>
      </trkpt>
      <trkpt lat="47.698029" lon="12.939445">
        <ele>689.20</ele>
        <time>2012-11-04T11:31:52Z</time>
      </trkpt>
      <trkpt lat="47.698036" lon="12.939390">
        <ele>689.60</ele>
        <time>2012-11-04T11:31:53Z</time>
      </trkpt>
      <trkpt lat="47.698044" lon="12.939342">
        <ele>690.00</ele>
        <time>2012-11-04T11:31:54Z</time>
      </trkpt>
      <trkpt lat="47.698055" lon="12.939284">
        <ele>690.40</ele>
        <time>2012-11-04T11:31:55Z</time>
      </trkpt>
      <trkpt lat="47.698074" lon="12.939223">
        <ele>690.80</ele>
        <time>2012-11-04T11:31:56Z</time>
      </trkpt>
      <trkpt lat="47.698124" lon="12.939049">
        <ele>690.80</ele>
        <time>2012-11-04T11:31:59Z</time>
      </trkpt>
      <trkpt lat="47.698231" lon="12.938704">
        <ele>690.80</ele>
        <time>2012-11-04T11:32:06Z</time>
      </trkpt>
      <trkpt lat="47.698338" lon="12.938522">
        <ele>690.80</ele>
        <time>2012-11-04T11:32:11Z</time>
      </trkpt>
      <trkpt lat="47.698387" lon="12.938458">
        <ele>691.20</ele>
        <time>2012-11-04T11:32:13Z</time>
      </trkpt>
      <trkpt lat="47.698410" lon="12.938432">
        <ele>691.60</ele>
        <time>2012-11-04T11:32:14Z</time>
      </trkpt>
      <trkpt lat="47.698433" lon="12.938402">
        <ele>692.40</ele>
        <time>2012-11-04T11:32:15Z</time>
      </trkpt>
      <trkpt lat="47.698456" lon="12.938374">
        <ele>692.80</ele>
        <time>2012-11-04T11:32:16Z</time>
      </trkpt>
      <trkpt lat="47.698483" lon="12.938345">
        <ele>692.80</ele>
        <time>2012-11-04T11:32:17Z</time>
      </trkpt>
      <trkpt lat="47.698551" lon="12.938237">
        <ele>693.20</ele>
        <time>2012-11-04T11:32:20Z</time>
      </trkpt>
      <trkpt lat="47.698578" lon="12.938207">
        <ele>693.80</ele>
        <time>2012-11-04T11:32:21Z</time>
      </trkpt>
      <trkpt lat="47.698605" lon="12.938177">
        <ele>694.20</ele>
        <time>2012-11-04T11:32:22Z</time>
      </trkpt>
      <trkpt lat="47.698624" lon="12.938146">
        <ele>694.60</ele>
        <time>2012-11-04T11:32:23Z</time>
      </trkpt>
      <trkpt lat="47.698639" lon="12.938112">
        <ele>695.00</ele>
        <time>2012-11-04T11:32:24Z</time>
      </trkpt>
      <trkpt lat="47.698723" lon="12.937980">
        <ele>695.00</ele>
        <time>2012-11-04T11:32:28Z</time>
      </trkpt>
      <trkpt lat="47.698765" lon="12.937919">
        <ele>695.60</ele>
        <time>2012-11-04T11:32:30Z</time>
      </trkpt>
      <trkpt lat="47.698784" lon="12.937881">
        <ele>696.00</ele>
        <time>2012-11-04T11:32:31Z</time>
      </trkpt>
      <trkpt lat="47.698803" lon="12.937843">
        <ele>696.40</ele>
        <time>2012-11-04T11:32:32Z</time>
      </trkpt>
      <trkpt lat="47.698822" lon="12.937806">
        <ele>696.80</ele>
        <time>2012-11-04T11:32:33Z</time>
      </trkpt>
      <trkpt lat="47.698841" lon="12.937773">
        <ele>697.20</ele>
        <time>2012-11-04T11:32:34Z</time>
      </trkpt>
      <trkpt lat="47.698948" lon="12.937634">
        <ele>697.20</ele>
        <time>2012-11-04T11:32:38Z</time>
      </trkpt>
      <trkpt lat="47.699081" lon="12.937436">
        <ele>697.20</ele>
        <time>2012-11-04T11:32:44Z</time>
      </trkpt>
      <trkpt lat="47.699261" lon="12.937230">
        <ele>697.20</ele>
        <time>2012-11-04T11:32:51Z</time>
      </trkpt>
      <trkpt lat="47.699280" lon="12.937205">
        <ele>697.60</ele>
        <time>2012-11-04T11:32:52Z</time>
      </trkpt>
      <trkpt lat="47.699306" lon="12.937185">
        <ele>698.00</ele>
        <time>2012-11-04T11:32:53Z</time>
      </trkpt>
      <trkpt lat="47.699333" lon="12.937173">
        <ele>698.40</ele>
        <time>2012-11-04T11:32:54Z</time>
      </trkpt>
      <trkpt lat="47.699364" lon="12.937160">
        <ele>698.80</ele>
        <time>2012-11-04T11:32:55Z</time>
      </trkpt>
      <trkpt lat="47.699394" lon="12.937143">
        <ele>699.20</ele>
        <time>2012-11-04T11:32:56Z</time>
      </trkpt>
      <trkpt lat="47.699425" lon="12.937131">
        <ele>699.20</ele>
        <time>2012-11-04T11:32:57Z</time>
      </trkpt>
      <trkpt lat="47.699650" lon="12.937036">
        <ele>699.20</ele>
        <time>2012-11-04T11:33:04Z</time>
      </trkpt>
      <trkpt lat="47.699867" lon="12.936955">
        <ele>699.20</ele>
        <time>2012-11-04T11:33:10Z</time>
      </trkpt>
      <trkpt lat="47.700077" lon="12.936899">
        <ele>699.20</ele>
        <time>2012-11-04T11:33:16Z</time>
      </trkpt>
      <trkpt lat="47.700272" lon="12.936825">
        <ele>699.20</ele>
        <time>2012-11-04T11:33:22Z</time>
      </trkpt>
      <trkpt lat="47.700298" lon="12.936793">
        <ele>699.80</ele>
        <time>2012-11-04T11:33:23Z</time>
      </trkpt>
      <trkpt lat="47.700321" lon="12.936757">
        <ele>700.20</ele>
        <time>2012-11-04T11:33:24Z</time>
      </trkpt>
      <trkpt lat="47.700336" lon="12.936722">
        <ele>700.60</ele>
        <time>2012-11-04T11:33:25Z</time>
      </trkpt>
      <trkpt lat="47.700348" lon="12.936682">
        <ele>701.20</ele>
        <time>2012-11-04T11:33:26Z</time>
      </trkpt>
      <trkpt lat="47.700363" lon="12.936643">
        <ele>701.60</ele>
        <time>2012-11-04T11:33:27Z</time>
      </trkpt>
      <trkpt lat="47.700447" lon="12.936380">
        <ele>702.00</ele>
        <time>2012-11-04T11:33:33Z</time>
      </trkpt>
      <trkpt lat="47.700462" lon="12.936336">
        <ele>702.40</ele>
        <time>2012-11-04T11:33:34Z</time>
      </trkpt>
      <trkpt lat="47.700478" lon="12.936287">
        <ele>702.80</ele>
        <time>2012-11-04T11:33:35Z</time>
      </trkpt>
      <trkpt lat="47.700493" lon="12.936245">
        <ele>703.20</ele>
        <time>2012-11-04T11:33:36Z</time>
      </trkpt>
      <trkpt lat="47.700508" lon="12.936202">
        <ele>703.60</ele>
        <time>2012-11-04T11:33:37Z</time>
      </trkpt>
      <trkpt lat="47.700539" lon="12.936111">
        <ele>703.60</ele>
        <time>2012-11-04T11:33:39Z</time>
      </trkpt>
      <trkpt lat="47.700615" lon="12.935910">
        <ele>704.20</ele>
        <time>2012-11-04T11:33:44Z</time>
      </trkpt>
      <trkpt lat="47.700634" lon="12.935879">
        <ele>704.60</ele>
        <time>2012-11-04T11:33:45Z</time>
      </trkpt>
      <trkpt lat="47.700645" lon="12.935843">
        <ele>705.00</ele>
        <time>2012-11-04T11:33:46Z</time>
      </trkpt>
      <trkpt lat="47.700661" lon="12.935807">
        <ele>705.40</ele>
        <time>2012-11-04T11:33:47Z</time>
      </trkpt>
      <trkpt lat="47.700676" lon="12.935770">
        <ele>705.80</ele>
        <time>2012-11-04T11:33:48Z</time>
      </trkpt>
      <trkpt lat="47.700722" lon="12.935676">
        <ele>706.20</ele>
        <time>2012-11-04T11:33:51Z</time>
      </trkpt>
      <trkpt lat="47.700737" lon="12.935655">
        <ele>706.80</ele>
        <time>2012-11-04T11:33:52Z</time>
      </trkpt>
      <trkpt lat="47.700745" lon="12.935625">
        <ele>707.20</ele>
        <time>2012-11-04T11:33:53Z</time>
      </trkpt>
      <trkpt lat="47.700752" lon="12.935596">
        <ele>708.20</ele>
        <time>2012-11-04T11:33:54Z</time>
      </trkpt>
      <trkpt lat="47.700764" lon="12.935528">
        <ele>708.20</ele>
        <time>2012-11-04T11:33:56Z</time>
      </trkpt>
      <trkpt lat="47.700832" lon="12.935304">
        <ele>708.20</ele>
        <time>2012-11-04T11:34:02Z</time>
      </trkpt>
      <trkpt lat="47.700912" lon="12.935095">
        <ele>708.20</ele>
        <time>2012-11-04T11:34:08Z</time>
      </trkpt>
      <trkpt lat="47.700993" lon="12.934853">
        <ele>708.20</ele>
        <time>2012-11-04T11:34:14Z</time>
      </trkpt>
      <trkpt lat="47.701012" lon="12.934613">
        <ele>708.20</ele>
        <time>2012-11-04T11:34:18Z</time>
      </trkpt>
      <trkpt lat="47.701073" lon="12.934438">
        <ele>708.20</ele>
        <time>2012-11-04T11:34:21Z</time>
      </trkpt>
      <trkpt lat="47.701103" lon="12.934380">
        <ele>708.20</ele>
        <time>2012-11-04T11:34:22Z</time>
      </trkpt>
      <trkpt lat="47.701309" lon="12.934082">
        <ele>708.20</ele>
        <time>2012-11-04T11:34:28Z</time>
      </trkpt>
      <trkpt lat="47.701477" lon="12.933934">
        <ele>708.20</ele>
        <time>2012-11-04T11:34:33Z</time>
      </trkpt>
      <trkpt lat="47.701550" lon="12.933873">
        <ele>708.20</ele>
        <time>2012-11-04T11:34:35Z</time>
      </trkpt>
      <trkpt lat="47.701637" lon="12.933820">
        <ele>708.20</ele>
        <time>2012-11-04T11:34:37Z</time>
      </trkpt>
      <trkpt lat="47.701763" lon="12.933779">
        <ele>708.20</ele>
        <time>2012-11-04T11:34:40Z</time>
      </trkpt>
      <trkpt lat="47.701801" lon="12.933766">
        <ele>708.20</ele>
        <time>2012-11-04T11:34:41Z</time>
      </trkpt>
      <trkpt lat="47.702015" lon="12.933652">
        <ele>708.20</ele>
        <time>2012-11-04T11:34:47Z</time>
      </trkpt>
      <trkpt lat="47.702236" lon="12.933542">
        <ele>708.20</ele>
        <time>2012-11-04T11:34:53Z</time>
      </trkpt>
      <trkpt lat="47.702274" lon="12.933517">
        <ele>708.20</ele>
        <time>2012-11-04T11:34:54Z</time>
      </trkpt>
      <trkpt lat="47.702431" lon="12.933411">
        <ele>708.20</ele>
        <time>2012-11-04T11:34:58Z</time>
      </trkpt>
      <trkpt lat="47.702538" lon="12.933350">
        <ele>708.20</ele>
        <time>2012-11-04T11:35:01Z</time>
      </trkpt>
      <trkpt lat="47.702656" lon="12.933280">
        <ele>708.20</ele>
        <time>2012-11-04T11:35:05Z</time>
      </trkpt>
      <trkpt lat="47.702679" lon="12.933272">
        <ele>707.80</ele>
        <time>2012-11-04T11:35:06Z</time>
      </trkpt>
      <trkpt lat="47.702702" lon="12.933269">
        <ele>707.20</ele>
        <time>2012-11-04T11:35:07Z</time>
      </trkpt>
      <trkpt lat="47.702717" lon="12.933259">
        <ele>706.80</ele>
        <time>2012-11-04T11:35:08Z</time>
      </trkpt>
      <trkpt lat="47.702736" lon="12.933249">
        <ele>706.00</ele>
        <time>2012-11-04T11:35:09Z</time>
      </trkpt>
      <trkpt lat="47.702755" lon="12.933228">
        <ele>706.00</ele>
        <time>2012-11-04T11:35:10Z</time>
      </trkpt>
      <trkpt lat="47.702816" lon="12.933182">
        <ele>706.00</ele>
        <time>2012-11-04T11:35:12Z</time>
      </trkpt>
      <trkpt lat="47.702927" lon="12.933080">
        <ele>706.00</ele>
        <time>2012-11-04T11:35:15Z</time>
      </trkpt>
      <trkpt lat="47.703018" lon="12.932983">
        <ele>706.00</ele>
        <time>2012-11-04T11:35:17Z</time>
      </trkpt>
      <trkpt lat="47.703205" lon="12.932813">
        <ele>705.60</ele>
        <time>2012-11-04T11:35:20Z</time>
      </trkpt>
      <trkpt lat="47.703281" lon="12.932750">
        <ele>705.20</ele>
        <time>2012-11-04T11:35:21Z</time>
      </trkpt>
      <trkpt lat="47.703365" lon="12.932691">
        <ele>704.60</ele>
        <time>2012-11-04T11:35:22Z</time>
      </trkpt>
      <trkpt lat="47.703453" lon="12.932638">
        <ele>704.20</ele>
        <time>2012-11-04T11:35:23Z</time>
      </trkpt>
      <trkpt lat="47.703533" lon="12.932586">
        <ele>703.60</ele>
        <time>2012-11-04T11:35:24Z</time>
      </trkpt>
      <trkpt lat="47.703617" lon="12.932534">
        <ele>703.00</ele>
        <time>2012-11-04T11:35:25Z</time>
      </trkpt>
      <trkpt lat="47.703697" lon="12.932477">
        <ele>702.60</ele>
        <time>2012-11-04T11:35:26Z</time>
      </trkpt>
      <trkpt lat="47.703781" lon="12.932411">
        <ele>702.00</ele>
        <time>2012-11-04T11:35:27Z</time>
      </trkpt>
      <trkpt lat="47.703857" lon="12.932343">
        <ele>701.40</ele>
        <time>2012-11-04T11:35:28Z</time>
      </trkpt>
      <trkpt lat="47.704014" lon="12.932195">
        <ele>700.80</ele>
        <time>2012-11-04T11:35:30Z</time>
      </trkpt>
      <trkpt lat="47.704090" lon="12.932114">
        <ele>700.40</ele>
        <time>2012-11-04T11:35:31Z</time>
      </trkpt>
      <trkpt lat="47.704166" lon="12.932033">
        <ele>699.80</ele>
        <time>2012-11-04T11:35:32Z</time>
      </trkpt>
      <trkpt lat="47.704239" lon="12.931949">
        <ele>699.40</ele>
        <time>2012-11-04T11:35:33Z</time>
      </trkpt>
      <trkpt lat="47.704315" lon="12.931856">
        <ele>698.80</ele>
        <time>2012-11-04T11:35:34Z</time>
      </trkpt>
      <trkpt lat="47.704380" lon="12.931760">
        <ele>698.40</ele>
        <time>2012-11-04T11:35:35Z</time>
      </trkpt>
      <trkpt lat="47.704441" lon="12.931658">
        <ele>698.00</ele>
        <time>2012-11-04T11:35:36Z</time>
      </trkpt>
      <trkpt lat="47.704502" lon="12.931557">
        <ele>697.60</ele>
        <time>2012-11-04T11:35:37Z</time>
      </trkpt>
      <trkpt lat="47.704563" lon="12.931458">
        <ele>697.00</ele>
        <time>2012-11-04T11:35:38Z</time>
      </trkpt>
      <trkpt lat="47.704632" lon="12.931369">
        <ele>696.40</ele>
        <time>2012-11-04T11:35:39Z</time>
      </trkpt>
      <trkpt lat="47.704697" lon="12.931279">
        <ele>695.80</ele>
        <time>2012-11-04T11:35:40Z</time>
      </trkpt>
      <trkpt lat="47.704769" lon="12.931194">
        <ele>695.20</ele>
        <time>2012-11-04T11:35:41Z</time>
      </trkpt>
      <trkpt lat="47.704849" lon="12.931109">
        <ele>694.60</ele>
        <time>2012-11-04T11:35:42Z</time>
      </trkpt>
      <trkpt lat="47.704926" lon="12.931031">
        <ele>694.00</ele>
        <time>2012-11-04T11:35:43Z</time>
      </trkpt>
      <trkpt lat="47.705002" lon="12.930961">
        <ele>693.40</ele>
        <time>2012-11-04T11:35:44Z</time>
      </trkpt>
      <trkpt lat="47.705074" lon="12.930892">
        <ele>692.80</ele>
        <time>2012-11-04T11:35:45Z</time>
      </trkpt>
      <trkpt lat="47.705135" lon="12.930823">
        <ele>692.20</ele>
        <time>2012-11-04T11:35:46Z</time>
      </trkpt>
      <trkpt lat="47.705189" lon="12.930753">
        <ele>691.60</ele>
        <time>2012-11-04T11:35:47Z</time>
      </trkpt>
      <trkpt lat="47.705235" lon="12.930681">
        <ele>691.20</ele>
        <time>2012-11-04T11:35:48Z</time>
      </trkpt>
      <trkpt lat="47.705273" lon="12.930612">
        <ele>690.60</ele>
        <time>2012-11-04T11:35:49Z</time>
      </trkpt>
      <trkpt lat="47.705307" lon="12.930558">
        <ele>690.00</ele>
        <time>2012-11-04T11:35:50Z</time>
      </trkpt>
      <trkpt lat="47.705341" lon="12.930522">
        <ele>689.40</ele>
        <time>2012-11-04T11:35:51Z</time>
      </trkpt>
      <trkpt lat="47.705376" lon="12.930491">
        <ele>688.80</ele>
        <time>2012-11-04T11:35:52Z</time>
      </trkpt>
      <trkpt lat="47.705410" lon="12.930460">
        <ele>688.20</ele>
        <time>2012-11-04T11:35:53Z</time>
      </trkpt>
      <trkpt lat="47.705444" lon="12.930441">
        <ele>687.60</ele>
        <time>2012-11-04T11:35:54Z</time>
      </trkpt>
      <trkpt lat="47.705471" lon="12.930424">
        <ele>687.20</ele>
        <time>2012-11-04T11:35:55Z</time>
      </trkpt>
      <trkpt lat="47.705498" lon="12.930410">
        <ele>686.80</ele>
        <time>2012-11-04T11:35:56Z</time>
      </trkpt>
      <trkpt lat="47.705521" lon="12.930398">
        <ele>686.20</ele>
        <time>2012-11-04T11:35:57Z</time>
      </trkpt>
      <trkpt lat="47.705544" lon="12.930378">
        <ele>685.80</ele>
        <time>2012-11-04T11:35:58Z</time>
      </trkpt>
      <trkpt lat="47.705570" lon="12.930353">
        <ele>684.80</ele>
        <time>2012-11-04T11:35:59Z</time>
      </trkpt>
      <trkpt lat="47.705620" lon="12.930327">
        <ele>684.40</ele>
        <time>2012-11-04T11:36:00Z</time>
      </trkpt>
      <trkpt lat="47.705677" lon="12.930306">
        <ele>683.80</ele>
        <time>2012-11-04T11:36:01Z</time>
      </trkpt>
      <trkpt lat="47.705734" lon="12.930291">
        <ele>683.00</ele>
        <time>2012-11-04T11:36:02Z</time>
      </trkpt>
      <trkpt lat="47.705780" lon="12.930272">
        <ele>682.40</ele>
        <time>2012-11-04T11:36:03Z</time>
      </trkpt>
      <trkpt lat="47.705830" lon="12.930252">
        <ele>681.60</ele>
        <time>2012-11-04T11:36:04Z</time>
      </trkpt>
      <trkpt lat="47.705879" lon="12.930226">
        <ele>680.80</ele>
        <time>2012-11-04T11:36:05Z</time>
      </trkpt>
      <trkpt lat="47.705929" lon="12.930195">
        <ele>680.20</ele>
        <time>2012-11-04T11:36:06Z</time>
      </trkpt>
      <trkpt lat="47.705982" lon="12.930167">
        <ele>679.40</ele>
        <time>2012-11-04T11:36:07Z</time>
      </trkpt>
      <trkpt lat="47.706036" lon="12.930133">
        <ele>678.60</ele>
        <time>2012-11-04T11:36:08Z</time>
      </trkpt>
      <trkpt lat="47.706085" lon="12.930095">
        <ele>678.00</ele>
        <time>2012-11-04T11:36:09Z</time>
      </trkpt>
      <trkpt lat="47.706135" lon="12.930055">
        <ele>677.40</ele>
        <time>2012-11-04T11:36:10Z</time>
      </trkpt>
      <trkpt lat="47.706181" lon="12.930006">
        <ele>676.60</ele>
        <time>2012-11-04T11:36:11Z</time>
      </trkpt>
      <trkpt lat="47.706230" lon="12.929965">
        <ele>676.00</ele>
        <time>2012-11-04T11:36:12Z</time>
      </trkpt>
      <trkpt lat="47.706276" lon="12.929922">
        <ele>675.20</ele>
        <time>2012-11-04T11:36:13Z</time>
      </trkpt>
      <trkpt lat="47.706333" lon="12.929897">
        <ele>674.40</ele>
        <time>2012-11-04T11:36:14Z</time>
      </trkpt>
      <trkpt lat="47.706383" lon="12.929884">
        <ele>673.60</ele>
        <time>2012-11-04T11:36:15Z</time>
      </trkpt>
      <trkpt lat="47.706440" lon="12.929880">
        <ele>672.80</ele>
        <time>2012-11-04T11:36:16Z</time>
      </trkpt>
      <trkpt lat="47.706501" lon="12.929881">
        <ele>671.80</ele>
        <time>2012-11-04T11:36:17Z</time>
      </trkpt>
      <trkpt lat="47.706554" lon="12.929884">
        <ele>671.00</ele>
        <time>2012-11-04T11:36:18Z</time>
      </trkpt>
      <trkpt lat="47.706612" lon="12.929887">
        <ele>670.20</ele>
        <time>2012-11-04T11:36:19Z</time>
      </trkpt>
      <trkpt lat="47.706726" lon="12.929871">
        <ele>670.20</ele>
        <time>2012-11-04T11:36:21Z</time>
      </trkpt>
      <trkpt lat="47.706791" lon="12.929840">
        <ele>669.60</ele>
        <time>2012-11-04T11:36:22Z</time>
      </trkpt>
      <trkpt lat="47.706860" lon="12.929816">
        <ele>668.80</ele>
        <time>2012-11-04T11:36:23Z</time>
      </trkpt>
      <trkpt lat="47.706921" lon="12.929798">
        <ele>668.40</ele>
        <time>2012-11-04T11:36:24Z</time>
      </trkpt>
      <trkpt lat="47.706978" lon="12.929779">
        <ele>668.00</ele>
        <time>2012-11-04T11:36:25Z</time>
      </trkpt>
      <trkpt lat="47.707081" lon="12.929748">
        <ele>668.00</ele>
        <time>2012-11-04T11:36:27Z</time>
      </trkpt>
      <trkpt lat="47.707233" lon="12.929705">
        <ele>668.00</ele>
        <time>2012-11-04T11:36:31Z</time>
      </trkpt>
      <trkpt lat="47.707439" lon="12.929594">
        <ele>668.00</ele>
        <time>2012-11-04T11:36:36Z</time>
      </trkpt>
      <trkpt lat="47.707481" lon="12.929546">
        <ele>668.00</ele>
        <time>2012-11-04T11:36:37Z</time>
      </trkpt>
      <trkpt lat="47.707581" lon="12.929335">
        <ele>667.60</ele>
        <time>2012-11-04T11:36:40Z</time>
      </trkpt>
      <trkpt lat="47.707619" lon="12.929254">
        <ele>667.00</ele>
        <time>2012-11-04T11:36:41Z</time>
      </trkpt>
      <trkpt lat="47.707653" lon="12.929179">
        <ele>666.60</ele>
        <time>2012-11-04T11:36:42Z</time>
      </trkpt>
      <trkpt lat="47.707684" lon="12.929111">
        <ele>666.00</ele>
        <time>2012-11-04T11:36:43Z</time>
      </trkpt>
      <trkpt lat="47.707718" lon="12.929050">
        <ele>665.40</ele>
        <time>2012-11-04T11:36:44Z</time>
      </trkpt>
      <trkpt lat="47.707745" lon="12.928987">
        <ele>664.80</ele>
        <time>2012-11-04T11:36:45Z</time>
      </trkpt>
      <trkpt lat="47.707767" lon="12.928906">
        <ele>664.20</ele>
        <time>2012-11-04T11:36:46Z</time>
      </trkpt>
      <trkpt lat="47.707783" lon="12.928820">
        <ele>663.60</ele>
        <time>2012-11-04T11:36:47Z</time>
      </trkpt>
      <trkpt lat="47.707829" lon="12.928612">
        <ele>662.60</ele>
        <time>2012-11-04T11:36:49Z</time>
      </trkpt>
      <trkpt lat="47.707855" lon="12.928513">
        <ele>662.20</ele>
        <time>2012-11-04T11:36:50Z</time>
      </trkpt>
      <trkpt lat="47.707882" lon="12.928437">
        <ele>661.80</ele>
        <time>2012-11-04T11:36:51Z</time>
      </trkpt>
      <trkpt lat="47.707912" lon="12.928369">
        <ele>661.40</ele>
        <time>2012-11-04T11:36:52Z</time>
      </trkpt>
      <trkpt lat="47.707981" lon="12.928252">
        <ele>660.80</ele>
        <time>2012-11-04T11:36:54Z</time>
      </trkpt>
      <trkpt lat="47.708015" lon="12.928204">
        <ele>660.40</ele>
        <time>2012-11-04T11:36:55Z</time>
      </trkpt>
      <trkpt lat="47.708042" lon="12.928161">
        <ele>659.80</ele>
        <time>2012-11-04T11:36:56Z</time>
      </trkpt>
      <trkpt lat="47.708073" lon="12.928122">
        <ele>659.00</ele>
        <time>2012-11-04T11:36:57Z</time>
      </trkpt>
      <trkpt lat="47.708103" lon="12.928075">
        <ele>658.40</ele>
        <time>2012-11-04T11:36:58Z</time>
      </trkpt>
      <trkpt lat="47.708134" lon="12.928025">
        <ele>657.80</ele>
        <time>2012-11-04T11:36:59Z</time>
      </trkpt>
      <trkpt lat="47.708157" lon="12.927980">
        <ele>657.00</ele>
        <time>2012-11-04T11:37:00Z</time>
      </trkpt>
      <trkpt lat="47.708176" lon="12.927951">
        <ele>656.20</ele>
        <time>2012-11-04T11:37:01Z</time>
      </trkpt>
      <trkpt lat="47.708206" lon="12.927932">
        <ele>655.40</ele>
        <time>2012-11-04T11:37:02Z</time>
      </trkpt>
      <trkpt lat="47.708241" lon="12.927927">
        <ele>654.60</ele>
        <time>2012-11-04T11:37:03Z</time>
      </trkpt>
      <trkpt lat="47.708282" lon="12.927943">
        <ele>654.00</ele>
        <time>2012-11-04T11:37:04Z</time>
      </trkpt>
      <trkpt lat="47.708332" lon="12.927949">
        <ele>653.40</ele>
        <time>2012-11-04T11:37:05Z</time>
      </trkpt>
      <trkpt lat="47.708382" lon="12.927955">
        <ele>652.80</ele>
        <time>2012-11-04T11:37:06Z</time>
      </trkpt>
      <trkpt lat="47.708431" lon="12.927945">
        <ele>652.40</ele>
        <time>2012-11-04T11:37:07Z</time>
      </trkpt>
      <trkpt lat="47.708485" lon="12.927925">
        <ele>651.80</ele>
        <time>2012-11-04T11:37:08Z</time>
      </trkpt>
      <trkpt lat="47.708611" lon="12.927882">
        <ele>651.80</ele>
        <time>2012-11-04T11:37:10Z</time>
      </trkpt>
      <trkpt lat="47.708675" lon="12.927872">
        <ele>651.40</ele>
        <time>2012-11-04T11:37:11Z</time>
      </trkpt>
      <trkpt lat="47.708744" lon="12.927861">
        <ele>651.00</ele>
        <time>2012-11-04T11:37:12Z</time>
      </trkpt>
      <trkpt lat="47.708828" lon="12.927849">
        <ele>650.20</ele>
        <time>2012-11-04T11:37:13Z</time>
      </trkpt>
      <trkpt lat="47.708897" lon="12.927843">
        <ele>649.60</ele>
        <time>2012-11-04T11:37:14Z</time>
      </trkpt>
      <trkpt lat="47.708969" lon="12.927831">
        <ele>649.20</ele>
        <time>2012-11-04T11:37:15Z</time>
      </trkpt>
      <trkpt lat="47.709030" lon="12.927819">
        <ele>648.80</ele>
        <time>2012-11-04T11:37:16Z</time>
      </trkpt>
      <trkpt lat="47.709087" lon="12.927807">
        <ele>648.20</ele>
        <time>2012-11-04T11:37:17Z</time>
      </trkpt>
      <trkpt lat="47.709141" lon="12.927794">
        <ele>647.60</ele>
        <time>2012-11-04T11:37:18Z</time>
      </trkpt>
      <trkpt lat="47.709194" lon="12.927776">
        <ele>647.00</ele>
        <time>2012-11-04T11:37:19Z</time>
      </trkpt>
      <trkpt lat="47.709244" lon="12.927742">
        <ele>646.20</ele>
        <time>2012-11-04T11:37:20Z</time>
      </trkpt>
      <trkpt lat="47.709297" lon="12.927706">
        <ele>645.60</ele>
        <time>2012-11-04T11:37:21Z</time>
      </trkpt>
      <trkpt lat="47.709343" lon="12.927664">
        <ele>645.00</ele>
        <time>2012-11-04T11:37:22Z</time>
      </trkpt>
      <trkpt lat="47.709393" lon="12.927612">
        <ele>644.40</ele>
        <time>2012-11-04T11:37:23Z</time>
      </trkpt>
      <trkpt lat="47.709438" lon="12.927557">
        <ele>643.60</ele>
        <time>2012-11-04T11:37:24Z</time>
      </trkpt>
      <trkpt lat="47.709484" lon="12.927499">
        <ele>642.80</ele>
        <time>2012-11-04T11:37:25Z</time>
      </trkpt>
      <trkpt lat="47.709530" lon="12.927435">
        <ele>642.00</ele>
        <time>2012-11-04T11:37:26Z</time>
      </trkpt>
      <trkpt lat="47.709572" lon="12.927361">
        <ele>641.20</ele>
        <time>2012-11-04T11:37:27Z</time>
      </trkpt>
      <trkpt lat="47.709618" lon="12.927282">
        <ele>640.40</ele>
        <time>2012-11-04T11:37:28Z</time>
      </trkpt>
      <trkpt lat="47.709656" lon="12.927204">
        <ele>639.40</ele>
        <time>2012-11-04T11:37:29Z</time>
      </trkpt>
      <trkpt lat="47.709694" lon="12.927124">
        <ele>638.40</ele>
        <time>2012-11-04T11:37:30Z</time>
      </trkpt>
      <trkpt lat="47.709724" lon="12.927050">
        <ele>637.40</ele>
        <time>2012-11-04T11:37:31Z</time>
      </trkpt>
      <trkpt lat="47.709759" lon="12.926971">
        <ele>636.40</ele>
        <time>2012-11-04T11:37:32Z</time>
      </trkpt>
      <trkpt lat="47.709793" lon="12.926898">
        <ele>635.40</ele>
        <time>2012-11-04T11:37:33Z</time>
      </trkpt>
      <trkpt lat="47.709827" lon="12.926819">
        <ele>634.40</ele>
        <time>2012-11-04T11:37:34Z</time>
      </trkpt>
      <trkpt lat="47.709854" lon="12.926739">
        <ele>633.60</ele>
        <time>2012-11-04T11:37:35Z</time>
      </trkpt>
      <trkpt lat="47.709881" lon="12.926659">
        <ele>632.60</ele>
        <time>2012-11-04T11:37:36Z</time>
      </trkpt>
      <trkpt lat="47.709908" lon="12.926579">
        <ele>631.80</ele>
        <time>2012-11-04T11:37:37Z</time>
      </trkpt>
      <trkpt lat="47.709934" lon="12.926496">
        <ele>630.00</ele>
        <time>2012-11-04T11:37:38Z</time>
      </trkpt>
      <trkpt lat="47.709969" lon="12.926405">
        <ele>629.20</ele>
        <time>2012-11-04T11:37:39Z</time>
      </trkpt>
      <trkpt lat="47.709999" lon="12.926316">
        <ele>628.40</ele>
        <time>2012-11-04T11:37:40Z</time>
      </trkpt>
      <trkpt lat="47.710030" lon="12.926231">
        <ele>627.40</ele>
        <time>2012-11-04T11:37:41Z</time>
      </trkpt>
      <trkpt lat="47.710056" lon="12.926158">
        <ele>626.60</ele>
        <time>2012-11-04T11:37:42Z</time>
      </trkpt>
      <trkpt lat="47.710091" lon="12.926078">
        <ele>625.60</ele>
        <time>2012-11-04T11:37:43Z</time>
      </trkpt>
      <trkpt lat="47.710117" lon="12.926001">
        <ele>624.80</ele>
        <time>2012-11-04T11:37:44Z</time>
      </trkpt>
      <trkpt lat="47.710152" lon="12.925924">
        <ele>623.80</ele>
        <time>2012-11-04T11:37:45Z</time>
      </trkpt>
      <trkpt lat="47.710190" lon="12.925841">
        <ele>623.00</ele>
        <time>2012-11-04T11:37:46Z</time>
      </trkpt>
      <trkpt lat="47.710224" lon="12.925751">
        <ele>622.40</ele>
        <time>2012-11-04T11:37:47Z</time>
      </trkpt>
      <trkpt lat="47.710251" lon="12.925653">
        <ele>621.60</ele>
        <time>2012-11-04T11:37:48Z</time>
      </trkpt>
      <trkpt lat="47.710274" lon="12.925557">
        <ele>621.00</ele>
        <time>2012-11-04T11:37:49Z</time>
      </trkpt>
      <trkpt lat="47.710281" lon="12.925452">
        <ele>620.40</ele>
        <time>2012-11-04T11:37:50Z</time>
      </trkpt>
      <trkpt lat="47.710285" lon="12.925356">
        <ele>619.80</ele>
        <time>2012-11-04T11:37:51Z</time>
      </trkpt>
      <trkpt lat="47.710285" lon="12.925164">
        <ele>619.80</ele>
        <time>2012-11-04T11:37:53Z</time>
      </trkpt>
      <trkpt lat="47.710293" lon="12.924890">
        <ele>619.80</ele>
        <time>2012-11-04T11:37:56Z</time>
      </trkpt>
      <trkpt lat="47.710308" lon="12.924812">
        <ele>619.40</ele>
        <time>2012-11-04T11:37:57Z</time>
      </trkpt>
      <trkpt lat="47.710327" lon="12.924741">
        <ele>619.00</ele>
        <time>2012-11-04T11:37:58Z</time>
      </trkpt>
      <trkpt lat="47.710342" lon="12.924683">
        <ele>618.60</ele>
        <time>2012-11-04T11:37:59Z</time>
      </trkpt>
      <trkpt lat="47.710354" lon="12.924629">
        <ele>618.00</ele>
        <time>2012-11-04T11:38:00Z</time>
      </trkpt>
      <trkpt lat="47.710365" lon="12.924591">
        <ele>617.60</ele>
        <time>2012-11-04T11:38:01Z</time>
      </trkpt>
      <trkpt lat="47.710381" lon="12.924555">
        <ele>617.60</ele>
        <time>2012-11-04T11:38:02Z</time>
      </trkpt>
      <trkpt lat="47.710461" lon="12.924500">
        <ele>617.60</ele>
        <time>2012-11-04T11:38:06Z</time>
      </trkpt>
      <trkpt lat="47.710617" lon="12.924437">
        <ele>617.60</ele>
        <time>2012-11-04T11:38:11Z</time>
      </trkpt>
      <trkpt lat="47.710884" lon="12.924279">
        <ele>617.60</ele>
        <time>2012-11-04T11:38:18Z</time>
      </trkpt>
      <trkpt lat="47.710930" lon="12.924251">
        <ele>617.60</ele>
        <time>2012-11-04T11:38:19Z</time>
      </trkpt>
      <trkpt lat="47.711029" lon="12.924173">
        <ele>617.20</ele>
        <time>2012-11-04T11:38:21Z</time>
      </trkpt>
      <trkpt lat="47.711086" lon="12.924139">
        <ele>616.80</ele>
        <time>2012-11-04T11:38:22Z</time>
      </trkpt>
      <trkpt lat="47.711140" lon="12.924094">
        <ele>616.40</ele>
        <time>2012-11-04T11:38:23Z</time>
      </trkpt>
      <trkpt lat="47.711193" lon="12.924048">
        <ele>616.00</ele>
        <time>2012-11-04T11:38:24Z</time>
      </trkpt>
      <trkpt lat="47.711254" lon="12.924001">
        <ele>615.60</ele>
        <time>2012-11-04T11:38:25Z</time>
      </trkpt>
      <trkpt lat="47.711441" lon="12.923844">
        <ele>615.00</ele>
        <time>2012-11-04T11:38:28Z</time>
      </trkpt>
      <trkpt lat="47.711510" lon="12.923781">
        <ele>614.60</ele>
        <time>2012-11-04T11:38:29Z</time>
      </trkpt>
      <trkpt lat="47.711575" lon="12.923726">
        <ele>614.20</ele>
        <time>2012-11-04T11:38:30Z</time>
      </trkpt>
      <trkpt lat="47.711643" lon="12.923664">
        <ele>613.80</ele>
        <time>2012-11-04T11:38:31Z</time>
      </trkpt>
      <trkpt lat="47.711712" lon="12.923599">
        <ele>613.40</ele>
        <time>2012-11-04T11:38:32Z</time>
      </trkpt>
      <trkpt lat="47.711842" lon="12.923476">
        <ele>613.00</ele>
        <time>2012-11-04T11:38:34Z</time>
      </trkpt>
      <trkpt lat="47.711910" lon="12.923412">
        <ele>612.40</ele>
        <time>2012-11-04T11:38:35Z</time>
      </trkpt>
      <trkpt lat="47.711975" lon="12.923349">
        <ele>612.00</ele>
        <time>2012-11-04T11:38:36Z</time>
      </trkpt>
      <trkpt lat="47.712036" lon="12.923288">
        <ele>611.60</ele>
        <time>2012-11-04T11:38:37Z</time>
      </trkpt>
      <trkpt lat="47.712097" lon="12.923230">
        <ele>611.20</ele>
        <time>2012-11-04T11:38:38Z</time>
      </trkpt>
      <trkpt lat="47.712292" lon="12.923066">
        <ele>611.20</ele>
        <time>2012-11-04T11:38:41Z</time>
      </trkpt>
      <trkpt lat="47.712360" lon="12.923012">
        <ele>610.80</ele>
        <time>2012-11-04T11:38:42Z</time>
      </trkpt>
      <trkpt lat="47.712421" lon="12.922962">
        <ele>610.40</ele>
        <time>2012-11-04T11:38:43Z</time>
      </trkpt>
      <trkpt lat="47.712475" lon="12.922908">
        <ele>609.80</ele>
        <time>2012-11-04T11:38:44Z</time>
      </trkpt>
      <trkpt lat="47.712532" lon="12.922857">
        <ele>609.40</ele>
        <time>2012-11-04T11:38:45Z</time>
      </trkpt>
      <trkpt lat="47.712585" lon="12.922801">
        <ele>609.00</ele>
        <time>2012-11-04T11:38:46Z</time>
      </trkpt>
      <trkpt lat="47.712635" lon="12.922735">
        <ele>608.40</ele>
        <time>2012-11-04T11:38:47Z</time>
      </trkpt>
      <trkpt lat="47.712685" lon="12.922665">
        <ele>608.00</ele>
        <time>2012-11-04T11:38:48Z</time>
      </trkpt>
      <trkpt lat="47.712727" lon="12.922582">
        <ele>607.60</ele>
        <time>2012-11-04T11:38:49Z</time>
      </trkpt>
      <trkpt lat="47.712769" lon="12.922498">
        <ele>607.20</ele>
        <time>2012-11-04T11:38:50Z</time>
      </trkpt>
      <trkpt lat="47.712811" lon="12.922410">
        <ele>606.80</ele>
        <time>2012-11-04T11:38:51Z</time>
      </trkpt>
      <trkpt lat="47.712860" lon="12.922332">
        <ele>606.80</ele>
        <time>2012-11-04T11:38:52Z</time>
      </trkpt>
      <trkpt lat="47.713028" lon="12.922092">
        <ele>606.40</ele>
        <time>2012-11-04T11:38:55Z</time>
      </trkpt>
      <trkpt lat="47.713081" lon="12.922007">
        <ele>605.80</ele>
        <time>2012-11-04T11:38:56Z</time>
      </trkpt>
      <trkpt lat="47.713139" lon="12.921921">
        <ele>605.40</ele>
        <time>2012-11-04T11:38:57Z</time>
      </trkpt>
      <trkpt lat="47.713192" lon="12.921825">
        <ele>604.80</ele>
        <time>2012-11-04T11:38:58Z</time>
      </trkpt>
      <trkpt lat="47.713242" lon="12.921736">
        <ele>604.40</ele>
        <time>2012-11-04T11:38:59Z</time>
      </trkpt>
      <trkpt lat="47.713287" lon="12.921650">
        <ele>604.00</ele>
        <time>2012-11-04T11:39:00Z</time>
      </trkpt>
      <trkpt lat="47.713326" lon="12.921572">
        <ele>603.40</ele>
        <time>2012-11-04T11:39:01Z</time>
      </trkpt>
      <trkpt lat="47.713364" lon="12.921497">
        <ele>603.00</ele>
        <time>2012-11-04T11:39:02Z</time>
      </trkpt>
      <trkpt lat="47.713402" lon="12.921426">
        <ele>602.60</ele>
        <time>2012-11-04T11:39:03Z</time>
      </trkpt>
      <trkpt lat="47.713440" lon="12.921343">
        <ele>602.00</ele>
        <time>2012-11-04T11:39:04Z</time>
      </trkpt>
      <trkpt lat="47.713478" lon="12.921256">
        <ele>601.60</ele>
        <time>2012-11-04T11:39:05Z</time>
      </trkpt>
      <trkpt lat="47.713520" lon="12.921159">
        <ele>601.00</ele>
        <time>2012-11-04T11:39:06Z</time>
      </trkpt>
      <trkpt lat="47.713558" lon="12.921061">
        <ele>600.60</ele>
        <time>2012-11-04T11:39:07Z</time>
      </trkpt>
      <trkpt lat="47.713596" lon="12.920956">
        <ele>600.00</ele>
        <time>2012-11-04T11:39:08Z</time>
      </trkpt>
      <trkpt lat="47.713699" lon="12.920644">
        <ele>599.60</ele>
        <time>2012-11-04T11:39:11Z</time>
      </trkpt>
      <trkpt lat="47.713734" lon="12.920542">
        <ele>599.00</ele>
        <time>2012-11-04T11:39:12Z</time>
      </trkpt>
      <trkpt lat="47.713772" lon="12.920439">
        <ele>598.60</ele>
        <time>2012-11-04T11:39:13Z</time>
      </trkpt>
      <trkpt lat="47.713814" lon="12.920331">
        <ele>598.20</ele>
        <time>2012-11-04T11:39:14Z</time>
      </trkpt>
      <trkpt lat="47.713848" lon="12.920232">
        <ele>597.60</ele>
        <time>2012-11-04T11:39:15Z</time>
      </trkpt>
      <trkpt lat="47.713886" lon="12.920131">
        <ele>597.60</ele>
        <time>2012-11-04T11:39:16Z</time>
      </trkpt>
      <trkpt lat="47.713921" lon="12.920032">
        <ele>597.20</ele>
        <time>2012-11-04T11:39:17Z</time>
      </trkpt>
      <trkpt lat="47.713955" lon="12.919930">
        <ele>596.80</ele>
        <time>2012-11-04T11:39:18Z</time>
      </trkpt>
      <trkpt lat="47.713993" lon="12.919832">
        <ele>596.40</ele>
        <time>2012-11-04T11:39:19Z</time>
      </trkpt>
      <trkpt lat="47.714027" lon="12.919733">
        <ele>596.00</ele>
        <time>2012-11-04T11:39:20Z</time>
      </trkpt>
      <trkpt lat="47.714066" lon="12.919633">
        <ele>595.60</ele>
        <time>2012-11-04T11:39:21Z</time>
      </trkpt>
      <trkpt lat="47.714195" lon="12.919227">
        <ele>595.20</ele>
        <time>2012-11-04T11:39:25Z</time>
      </trkpt>
      <trkpt lat="47.714226" lon="12.919129">
        <ele>594.60</ele>
        <time>2012-11-04T11:39:26Z</time>
      </trkpt>
      <trkpt lat="47.714260" lon="12.919036">
        <ele>594.20</ele>
        <time>2012-11-04T11:39:27Z</time>
      </trkpt>
      <trkpt lat="47.714294" lon="12.918941">
        <ele>593.80</ele>
        <time>2012-11-04T11:39:28Z</time>
      </trkpt>
      <trkpt lat="47.714325" lon="12.918844">
        <ele>593.40</ele>
        <time>2012-11-04T11:39:29Z</time>
      </trkpt>
      <trkpt lat="47.714428" lon="12.918558">
        <ele>593.00</ele>
        <time>2012-11-04T11:39:32Z</time>
      </trkpt>
      <trkpt lat="47.714462" lon="12.918464">
        <ele>592.60</ele>
        <time>2012-11-04T11:39:33Z</time>
      </trkpt>
      <trkpt lat="47.714504" lon="12.918369">
        <ele>592.00</ele>
        <time>2012-11-04T11:39:34Z</time>
      </trkpt>
      <trkpt lat="47.714542" lon="12.918274">
        <ele>591.60</ele>
        <time>2012-11-04T11:39:35Z</time>
      </trkpt>
      <trkpt lat="47.714584" lon="12.918178">
        <ele>591.20</ele>
        <time>2012-11-04T11:39:36Z</time>
      </trkpt>
      <trkpt lat="47.714672" lon="12.917981">
        <ele>590.80</ele>
        <time>2012-11-04T11:39:38Z</time>
      </trkpt>
      <trkpt lat="47.714714" lon="12.917889">
        <ele>590.20</ele>
        <time>2012-11-04T11:39:39Z</time>
      </trkpt>
      <trkpt lat="47.714760" lon="12.917797">
        <ele>589.80</ele>
        <time>2012-11-04T11:39:40Z</time>
      </trkpt>
      <trkpt lat="47.714806" lon="12.917704">
        <ele>589.20</ele>
        <time>2012-11-04T11:39:41Z</time>
      </trkpt>
      <trkpt lat="47.714848" lon="12.917615">
        <ele>588.80</ele>
        <time>2012-11-04T11:39:42Z</time>
      </trkpt>
      <trkpt lat="47.714890" lon="12.917524">
        <ele>588.80</ele>
        <time>2012-11-04T11:39:43Z</time>
      </trkpt>
      <trkpt lat="47.714973" lon="12.917340">
        <ele>588.40</ele>
        <time>2012-11-04T11:39:45Z</time>
      </trkpt>
      <trkpt lat="47.715008" lon="12.917250">
        <ele>588.00</ele>
        <time>2012-11-04T11:39:46Z</time>
      </trkpt>
      <trkpt lat="47.715042" lon="12.917159">
        <ele>587.60</ele>
        <time>2012-11-04T11:39:47Z</time>
      </trkpt>
      <trkpt lat="47.715076" lon="12.917071">
        <ele>587.20</ele>
        <time>2012-11-04T11:39:48Z</time>
      </trkpt>
      <trkpt lat="47.715111" lon="12.916985">
        <ele>586.80</ele>
        <time>2012-11-04T11:39:49Z</time>
      </trkpt>
      <trkpt lat="47.715145" lon="12.916896">
        <ele>586.80</ele>
        <time>2012-11-04T11:39:50Z</time>
      </trkpt>
      <trkpt lat="47.715317" lon="12.916431">
        <ele>586.20</ele>
        <time>2012-11-04T11:39:55Z</time>
      </trkpt>
      <trkpt lat="47.715355" lon="12.916338">
        <ele>585.80</ele>
        <time>2012-11-04T11:39:56Z</time>
      </trkpt>
      <trkpt lat="47.715393" lon="12.916250">
        <ele>585.40</ele>
        <time>2012-11-04T11:39:57Z</time>
      </trkpt>
      <trkpt lat="47.715427" lon="12.916168">
        <ele>585.00</ele>
        <time>2012-11-04T11:39:58Z</time>
      </trkpt>
      <trkpt lat="47.715462" lon="12.916091">
        <ele>584.60</ele>
        <time>2012-11-04T11:39:59Z</time>
      </trkpt>
      <trkpt lat="47.715637" lon="12.915668">
        <ele>584.20</ele>
        <time>2012-11-04T11:40:04Z</time>
      </trkpt>
      <trkpt lat="47.715675" lon="12.915583">
        <ele>583.80</ele>
        <time>2012-11-04T11:40:05Z</time>
      </trkpt>
      <trkpt lat="47.715714" lon="12.915502">
        <ele>583.00</ele>
        <time>2012-11-04T11:40:06Z</time>
      </trkpt>
      <trkpt lat="47.715763" lon="12.915418">
        <ele>582.60</ele>
        <time>2012-11-04T11:40:07Z</time>
      </trkpt>
      <trkpt lat="47.715923" lon="12.915074">
        <ele>582.60</ele>
        <time>2012-11-04T11:40:11Z</time>
      </trkpt>
      <trkpt lat="47.716049" lon="12.914822">
        <ele>582.20</ele>
        <time>2012-11-04T11:40:14Z</time>
      </trkpt>
      <trkpt lat="47.716091" lon="12.914734">
        <ele>581.60</ele>
        <time>2012-11-04T11:40:15Z</time>
      </trkpt>
      <trkpt lat="47.716133" lon="12.914650">
        <ele>581.20</ele>
        <time>2012-11-04T11:40:16Z</time>
      </trkpt>
      <trkpt lat="47.716175" lon="12.914562">
        <ele>580.80</ele>
        <time>2012-11-04T11:40:17Z</time>
      </trkpt>
      <trkpt lat="47.716221" lon="12.914477">
        <ele>580.40</ele>
        <time>2012-11-04T11:40:18Z</time>
      </trkpt>
      <trkpt lat="47.716324" lon="12.914310">
        <ele>580.40</ele>
        <time>2012-11-04T11:40:20Z</time>
      </trkpt>
      <trkpt lat="47.716373" lon="12.914222">
        <ele>580.00</ele>
        <time>2012-11-04T11:40:21Z</time>
      </trkpt>
      <trkpt lat="47.716419" lon="12.914133">
        <ele>579.40</ele>
        <time>2012-11-04T11:40:22Z</time>
      </trkpt>
      <trkpt lat="47.716469" lon="12.914034">
        <ele>578.80</ele>
        <time>2012-11-04T11:40:23Z</time>
      </trkpt>
      <trkpt lat="47.716515" lon="12.913946">
        <ele>578.40</ele>
        <time>2012-11-04T11:40:24Z</time>
      </trkpt>
      <trkpt lat="47.716557" lon="12.913862">
        <ele>577.80</ele>
        <time>2012-11-04T11:40:25Z</time>
      </trkpt>
      <trkpt lat="47.716633" lon="12.913711">
        <ele>577.40</ele>
        <time>2012-11-04T11:40:27Z</time>
      </trkpt>
      <trkpt lat="47.716667" lon="12.913649">
        <ele>577.00</ele>
        <time>2012-11-04T11:40:28Z</time>
      </trkpt>
      <trkpt lat="47.716698" lon="12.913600">
        <ele>576.60</ele>
        <time>2012-11-04T11:40:29Z</time>
      </trkpt>
      <trkpt lat="47.716728" lon="12.913559">
        <ele>576.20</ele>
        <time>2012-11-04T11:40:30Z</time>
      </trkpt>
      <trkpt lat="47.716755" lon="12.913523">
        <ele>575.00</ele>
        <time>2012-11-04T11:40:31Z</time>
      </trkpt>
      <trkpt lat="47.716774" lon="12.913497">
        <ele>574.60</ele>
        <time>2012-11-04T11:40:32Z</time>
      </trkpt>
      <trkpt lat="47.716797" lon="12.913471">
        <ele>574.00</ele>
        <time>2012-11-04T11:40:33Z</time>
      </trkpt>
      <trkpt lat="47.716820" lon="12.913444">
        <ele>573.40</ele>
        <time>2012-11-04T11:40:34Z</time>
      </trkpt>
      <trkpt lat="47.716846" lon="12.913417">
        <ele>573.00</ele>
        <time>2012-11-04T11:40:35Z</time>
      </trkpt>
      <trkpt lat="47.716873" lon="12.913388">
        <ele>572.60</ele>
        <time>2012-11-04T11:40:36Z</time>
      </trkpt>
      <trkpt lat="47.716911" lon="12.913351">
        <ele>572.20</ele>
        <time>2012-11-04T11:40:37Z</time>
      </trkpt>
      <trkpt lat="47.716946" lon="12.913313">
        <ele>571.80</ele>
        <time>2012-11-04T11:40:38Z</time>
      </trkpt>
      <trkpt lat="47.716984" lon="12.913284">
        <ele>571.20</ele>
        <time>2012-11-04T11:40:39Z</time>
      </trkpt>
      <trkpt lat="47.717026" lon="12.913261">
        <ele>570.60</ele>
        <time>2012-11-04T11:40:40Z</time>
      </trkpt>
      <trkpt lat="47.717060" lon="12.913245">
        <ele>570.00</ele>
        <time>2012-11-04T11:40:41Z</time>
      </trkpt>
      <trkpt lat="47.717098" lon="12.913230">
        <ele>569.40</ele>
        <time>2012-11-04T11:40:42Z</time>
      </trkpt>
      <trkpt lat="47.717144" lon="12.913218">
        <ele>568.80</ele>
        <time>2012-11-04T11:40:43Z</time>
      </trkpt>
      <trkpt lat="47.717186" lon="12.913211">
        <ele>568.20</ele>
        <time>2012-11-04T11:40:44Z</time>
      </trkpt>
      <trkpt lat="47.717239" lon="12.913211">
        <ele>567.60</ele>
        <time>2012-11-04T11:40:45Z</time>
      </trkpt>
      <trkpt lat="47.717293" lon="12.913217">
        <ele>567.00</ele>
        <time>2012-11-04T11:40:46Z</time>
      </trkpt>
      <trkpt lat="47.717342" lon="12.913216">
        <ele>566.60</ele>
        <time>2012-11-04T11:40:47Z</time>
      </trkpt>
      <trkpt lat="47.717491" lon="12.913136">
        <ele>566.20</ele>
        <time>2012-11-04T11:40:50Z</time>
      </trkpt>
      <trkpt lat="47.717541" lon="12.913089">
        <ele>565.80</ele>
        <time>2012-11-04T11:40:51Z</time>
      </trkpt>
      <trkpt lat="47.717583" lon="12.913059">
        <ele>565.20</ele>
        <time>2012-11-04T11:40:52Z</time>
      </trkpt>
      <trkpt lat="47.717628" lon="12.913050">
        <ele>564.80</ele>
        <time>2012-11-04T11:40:53Z</time>
      </trkpt>
      <trkpt lat="47.717678" lon="12.913044">
        <ele>564.40</ele>
        <time>2012-11-04T11:40:54Z</time>
      </trkpt>
      <trkpt lat="47.717724" lon="12.913039">
        <ele>564.40</ele>
        <time>2012-11-04T11:40:55Z</time>
      </trkpt>
      <trkpt lat="47.717857" lon="12.913042">
        <ele>564.40</ele>
        <time>2012-11-04T11:40:59Z</time>
      </trkpt>
      <trkpt lat="47.717999" lon="12.912966">
        <ele>564.40</ele>
        <time>2012-11-04T11:41:03Z</time>
      </trkpt>
      <trkpt lat="47.718048" lon="12.912946">
        <ele>564.40</ele>
        <time>2012-11-04T11:41:04Z</time>
      </trkpt>
      <trkpt lat="47.718227" lon="12.912888">
        <ele>564.40</ele>
        <time>2012-11-04T11:41:07Z</time>
      </trkpt>
      <trkpt lat="47.718300" lon="12.912861">
        <ele>564.00</ele>
        <time>2012-11-04T11:41:08Z</time>
      </trkpt>
      <trkpt lat="47.718380" lon="12.912850">
        <ele>563.40</ele>
        <time>2012-11-04T11:41:09Z</time>
      </trkpt>
      <trkpt lat="47.718460" lon="12.912841">
        <ele>562.80</ele>
        <time>2012-11-04T11:41:10Z</time>
      </trkpt>
      <trkpt lat="47.718540" lon="12.912814">
        <ele>562.40</ele>
        <time>2012-11-04T11:41:11Z</time>
      </trkpt>
      <trkpt lat="47.718609" lon="12.912773">
        <ele>561.80</ele>
        <time>2012-11-04T11:41:12Z</time>
      </trkpt>
      <trkpt lat="47.718739" lon="12.912656">
        <ele>561.40</ele>
        <time>2012-11-04T11:41:14Z</time>
      </trkpt>
      <trkpt lat="47.718796" lon="12.912594">
        <ele>561.00</ele>
        <time>2012-11-04T11:41:15Z</time>
      </trkpt>
      <trkpt lat="47.718849" lon="12.912516">
        <ele>560.40</ele>
        <time>2012-11-04T11:41:16Z</time>
      </trkpt>
      <trkpt lat="47.718906" lon="12.912437">
        <ele>560.00</ele>
        <time>2012-11-04T11:41:17Z</time>
      </trkpt>
      <trkpt lat="47.718967" lon="12.912376">
        <ele>559.60</ele>
        <time>2012-11-04T11:41:18Z</time>
      </trkpt>
      <trkpt lat="47.719234" lon="12.912147">
        <ele>559.60</ele>
        <time>2012-11-04T11:41:23Z</time>
      </trkpt>
      <trkpt lat="47.719326" lon="12.912117">
        <ele>559.60</ele>
        <time>2012-11-04T11:41:25Z</time>
      </trkpt>
      <trkpt lat="47.719425" lon="12.912141">
        <ele>559.60</ele>
        <time>2012-11-04T11:41:27Z</time>
      </trkpt>
      <trkpt lat="47.719643" lon="12.912200">
        <ele>559.60</ele>
        <time>2012-11-04T11:41:31Z</time>
      </trkpt>
      <trkpt lat="47.719688" lon="12.912205">
        <ele>559.20</ele>
        <time>2012-11-04T11:41:32Z</time>
      </trkpt>
      <trkpt lat="47.719730" lon="12.912198">
        <ele>558.80</ele>
        <time>2012-11-04T11:41:33Z</time>
      </trkpt>
      <trkpt lat="47.719776" lon="12.912178">
        <ele>558.20</ele>
        <time>2012-11-04T11:41:34Z</time>
      </trkpt>
      <trkpt lat="47.719818" lon="12.912143">
        <ele>557.80</ele>
        <time>2012-11-04T11:41:35Z</time>
      </trkpt>
      <trkpt lat="47.719856" lon="12.912103">
        <ele>557.40</ele>
        <time>2012-11-04T11:41:36Z</time>
      </trkpt>
      <trkpt lat="47.719894" lon="12.912059">
        <ele>557.40</ele>
        <time>2012-11-04T11:41:37Z</time>
      </trkpt>
      <trkpt lat="47.720047" lon="12.911798">
        <ele>557.00</ele>
        <time>2012-11-04T11:41:41Z</time>
      </trkpt>
      <trkpt lat="47.720093" lon="12.911719">
        <ele>556.40</ele>
        <time>2012-11-04T11:41:42Z</time>
      </trkpt>
      <trkpt lat="47.720139" lon="12.911636">
        <ele>556.00</ele>
        <time>2012-11-04T11:41:43Z</time>
      </trkpt>
      <trkpt lat="47.720192" lon="12.911565">
        <ele>555.60</ele>
        <time>2012-11-04T11:41:44Z</time>
      </trkpt>
      <trkpt lat="47.720234" lon="12.911486">
        <ele>555.20</ele>
        <time>2012-11-04T11:41:45Z</time>
      </trkpt>
      <trkpt lat="47.720272" lon="12.911392">
        <ele>554.60</ele>
        <time>2012-11-04T11:41:46Z</time>
      </trkpt>
      <trkpt lat="47.720306" lon="12.911293">
        <ele>554.20</ele>
        <time>2012-11-04T11:41:47Z</time>
      </trkpt>
      <trkpt lat="47.720341" lon="12.911201">
        <ele>553.60</ele>
        <time>2012-11-04T11:41:48Z</time>
      </trkpt>
      <trkpt lat="47.720383" lon="12.911113">
        <ele>553.20</ele>
        <time>2012-11-04T11:41:49Z</time>
      </trkpt>
      <trkpt lat="47.720428" lon="12.911029">
        <ele>552.60</ele>
        <time>2012-11-04T11:41:50Z</time>
      </trkpt>
      <trkpt lat="47.720478" lon="12.910959">
        <ele>552.60</ele>
        <time>2012-11-04T11:41:51Z</time>
      </trkpt>
      <trkpt lat="47.720528" lon="12.910903">
        <ele>552.20</ele>
        <time>2012-11-04T11:41:52Z</time>
      </trkpt>
      <trkpt lat="47.720573" lon="12.910866">
        <ele>551.80</ele>
        <time>2012-11-04T11:41:53Z</time>
      </trkpt>
      <trkpt lat="47.720615" lon="12.910846">
        <ele>551.20</ele>
        <time>2012-11-04T11:41:54Z</time>
      </trkpt>
      <trkpt lat="47.720650" lon="12.910845">
        <ele>550.80</ele>
        <time>2012-11-04T11:41:55Z</time>
      </trkpt>
      <trkpt lat="47.720680" lon="12.910858">
        <ele>550.40</ele>
        <time>2012-11-04T11:41:56Z</time>
      </trkpt>
      <trkpt lat="47.720707" lon="12.910888">
        <ele>550.40</ele>
        <time>2012-11-04T11:41:57Z</time>
      </trkpt>
      <trkpt lat="47.720753" lon="12.910965">
        <ele>550.40</ele>
        <time>2012-11-04T11:41:59Z</time>
      </trkpt>
      <trkpt lat="47.720776" lon="12.911061">
        <ele>550.40</ele>
        <time>2012-11-04T11:42:01Z</time>
      </trkpt>
      <trkpt lat="47.720779" lon="12.911110">
        <ele>550.40</ele>
        <time>2012-11-04T11:42:02Z</time>
      </trkpt>
      <trkpt lat="47.720795" lon="12.911236">
        <ele>550.40</ele>
        <time>2012-11-04T11:42:05Z</time>
      </trkpt>
      <trkpt lat="47.720818" lon="12.911327">
        <ele>550.80</ele>
        <time>2012-11-04T11:42:07Z</time>
      </trkpt>
      <trkpt lat="47.720833" lon="12.911363">
        <ele>551.20</ele>
        <time>2012-11-04T11:42:08Z</time>
      </trkpt>
      <trkpt lat="47.720852" lon="12.911397">
        <ele>551.60</ele>
        <time>2012-11-04T11:42:09Z</time>
      </trkpt>
      <trkpt lat="47.720871" lon="12.911427">
        <ele>552.60</ele>
        <time>2012-11-04T11:42:10Z</time>
      </trkpt>
      <trkpt lat="47.720924" lon="12.911495">
        <ele>552.60</ele>
        <time>2012-11-04T11:42:12Z</time>
      </trkpt>
      <trkpt lat="47.721107" lon="12.911662">
        <ele>552.60</ele>
        <time>2012-11-04T11:42:18Z</time>
      </trkpt>
      <trkpt lat="47.721264" lon="12.911731">
        <ele>552.60</ele>
        <time>2012-11-04T11:42:22Z</time>
      </trkpt>
      <trkpt lat="47.721306" lon="12.911748">
        <ele>552.60</ele>
        <time>2012-11-04T11:42:23Z</time>
      </trkpt>
      <trkpt lat="47.721397" lon="12.911769">
        <ele>552.60</ele>
        <time>2012-11-04T11:42:25Z</time>
      </trkpt>
      <trkpt lat="47.721497" lon="12.911767">
        <ele>552.60</ele>
        <time>2012-11-04T11:42:27Z</time>
      </trkpt>
      <trkpt lat="47.721546" lon="12.911761">
        <ele>552.60</ele>
        <time>2012-11-04T11:42:28Z</time>
      </trkpt>
      <trkpt lat="47.721931" lon="12.911675">
        <ele>552.60</ele>
        <time>2012-11-04T11:42:35Z</time>
      </trkpt>
      <trkpt lat="47.721989" lon="12.911647">
        <ele>552.60</ele>
        <time>2012-11-04T11:42:36Z</time>
      </trkpt>
      <trkpt lat="47.722195" lon="12.911480">
        <ele>552.60</ele>
        <time>2012-11-04T11:42:40Z</time>
      </trkpt>
      <trkpt lat="47.722298" lon="12.911395">
        <ele>552.00</ele>
        <time>2012-11-04T11:42:42Z</time>
      </trkpt>
      <trkpt lat="47.722343" lon="12.911356">
        <ele>551.60</ele>
        <time>2012-11-04T11:42:43Z</time>
      </trkpt>
      <trkpt lat="47.722393" lon="12.911309">
        <ele>551.20</ele>
        <time>2012-11-04T11:42:44Z</time>
      </trkpt>
      <trkpt lat="47.722446" lon="12.911265">
        <ele>550.80</ele>
        <time>2012-11-04T11:42:45Z</time>
      </trkpt>
      <trkpt lat="47.722504" lon="12.911223">
        <ele>550.20</ele>
        <time>2012-11-04T11:42:46Z</time>
      </trkpt>
      <trkpt lat="47.722557" lon="12.911184">
        <ele>550.20</ele>
        <time>2012-11-04T11:42:47Z</time>
      </trkpt>
      <trkpt lat="47.722813" lon="12.911018">
        <ele>549.80</ele>
        <time>2012-11-04T11:42:52Z</time>
      </trkpt>
      <trkpt lat="47.722858" lon="12.910988">
        <ele>549.40</ele>
        <time>2012-11-04T11:42:53Z</time>
      </trkpt>
      <trkpt lat="47.722900" lon="12.910945">
        <ele>549.00</ele>
        <time>2012-11-04T11:42:54Z</time>
      </trkpt>
      <trkpt lat="47.722939" lon="12.910891">
        <ele>548.60</ele>
        <time>2012-11-04T11:42:55Z</time>
      </trkpt>
      <trkpt lat="47.722973" lon="12.910831">
        <ele>548.20</ele>
        <time>2012-11-04T11:42:56Z</time>
      </trkpt>
      <trkpt lat="47.723061" lon="12.910625">
        <ele>548.20</ele>
        <time>2012-11-04T11:42:59Z</time>
      </trkpt>
      <trkpt lat="47.723083" lon="12.910552">
        <ele>548.20</ele>
        <time>2012-11-04T11:43:00Z</time>
      </trkpt>
      <trkpt lat="47.723103" lon="12.910467">
        <ele>548.20</ele>
        <time>2012-11-04T11:43:01Z</time>
      </trkpt>
      <trkpt lat="47.723183" lon="12.909989">
        <ele>548.20</ele>
        <time>2012-11-04T11:43:06Z</time>
      </trkpt>
      <trkpt lat="47.723209" lon="12.909791">
        <ele>547.80</ele>
        <time>2012-11-04T11:43:08Z</time>
      </trkpt>
      <trkpt lat="47.723225" lon="12.909698">
        <ele>547.40</ele>
        <time>2012-11-04T11:43:09Z</time>
      </trkpt>
      <trkpt lat="47.723240" lon="12.909605">
        <ele>546.80</ele>
        <time>2012-11-04T11:43:10Z</time>
      </trkpt>
      <trkpt lat="47.723251" lon="12.909511">
        <ele>546.40</ele>
        <time>2012-11-04T11:43:11Z</time>
      </trkpt>
      <trkpt lat="47.723263" lon="12.909423">
        <ele>546.00</ele>
        <time>2012-11-04T11:43:12Z</time>
      </trkpt>
      <trkpt lat="47.723289" lon="12.909185">
        <ele>546.00</ele>
        <time>2012-11-04T11:43:15Z</time>
      </trkpt>
      <trkpt lat="47.723305" lon="12.909101">
        <ele>546.00</ele>
        <time>2012-11-04T11:43:16Z</time>
      </trkpt>
      <trkpt lat="47.723320" lon="12.909022">
        <ele>545.60</ele>
        <time>2012-11-04T11:43:17Z</time>
      </trkpt>
      <trkpt lat="47.723343" lon="12.908939">
        <ele>545.00</ele>
        <time>2012-11-04T11:43:18Z</time>
      </trkpt>
      <trkpt lat="47.723373" lon="12.908865">
        <ele>544.60</ele>
        <time>2012-11-04T11:43:19Z</time>
      </trkpt>
      <trkpt lat="47.723408" lon="12.908792">
        <ele>544.20</ele>
        <time>2012-11-04T11:43:20Z</time>
      </trkpt>
      <trkpt lat="47.723446" lon="12.908722">
        <ele>543.60</ele>
        <time>2012-11-04T11:43:21Z</time>
      </trkpt>
      <trkpt lat="47.723541" lon="12.908599">
        <ele>543.60</ele>
        <time>2012-11-04T11:43:23Z</time>
      </trkpt>
      <trkpt lat="47.723621" lon="12.908462">
        <ele>543.60</ele>
        <time>2012-11-04T11:43:25Z</time>
      </trkpt>
      <trkpt lat="47.723660" lon="12.908396">
        <ele>543.60</ele>
        <time>2012-11-04T11:43:26Z</time>
      </trkpt>
      <trkpt lat="47.723736" lon="12.908256">
        <ele>543.60</ele>
        <time>2012-11-04T11:43:28Z</time>
      </trkpt>
      <trkpt lat="47.723751" lon="12.908157">
        <ele>543.20</ele>
        <time>2012-11-04T11:43:29Z</time>
      </trkpt>
      <trkpt lat="47.723766" lon="12.908061">
        <ele>542.80</ele>
        <time>2012-11-04T11:43:30Z</time>
      </trkpt>
      <trkpt lat="47.723785" lon="12.907957">
        <ele>542.40</ele>
        <time>2012-11-04T11:43:31Z</time>
      </trkpt>
      <trkpt lat="47.723801" lon="12.907866">
        <ele>542.00</ele>
        <time>2012-11-04T11:43:32Z</time>
      </trkpt>
      <trkpt lat="47.723820" lon="12.907774">
        <ele>541.60</ele>
        <time>2012-11-04T11:43:33Z</time>
      </trkpt>
      <trkpt lat="47.723862" lon="12.907599">
        <ele>541.60</ele>
        <time>2012-11-04T11:43:35Z</time>
      </trkpt>
      <trkpt lat="47.723934" lon="12.907454">
        <ele>541.60</ele>
        <time>2012-11-04T11:43:37Z</time>
      </trkpt>
      <trkpt lat="47.724075" lon="12.907291">
        <ele>541.60</ele>
        <time>2012-11-04T11:43:40Z</time>
      </trkpt>
      <trkpt lat="47.724121" lon="12.907246">
        <ele>541.60</ele>
        <time>2012-11-04T11:43:41Z</time>
      </trkpt>
      <trkpt lat="47.724266" lon="12.907101">
        <ele>541.20</ele>
        <time>2012-11-04T11:43:44Z</time>
      </trkpt>
      <trkpt lat="47.724312" lon="12.907055">
        <ele>540.80</ele>
        <time>2012-11-04T11:43:45Z</time>
      </trkpt>
      <trkpt lat="47.724358" lon="12.907014">
        <ele>540.40</ele>
        <time>2012-11-04T11:43:46Z</time>
      </trkpt>
      <trkpt lat="47.724400" lon="12.906976">
        <ele>540.00</ele>
        <time>2012-11-04T11:43:47Z</time>
      </trkpt>
      <trkpt lat="47.724434" lon="12.906937">
        <ele>539.60</ele>
        <time>2012-11-04T11:43:48Z</time>
      </trkpt>
      <trkpt lat="47.724487" lon="12.906868">
        <ele>539.20</ele>
        <time>2012-11-04T11:43:50Z</time>
      </trkpt>
      <trkpt lat="47.724510" lon="12.906844">
        <ele>538.80</ele>
        <time>2012-11-04T11:43:51Z</time>
      </trkpt>
      <trkpt lat="47.724522" lon="12.906825">
        <ele>538.20</ele>
        <time>2012-11-04T11:43:52Z</time>
      </trkpt>
      <trkpt lat="47.724537" lon="12.906816">
        <ele>537.80</ele>
        <time>2012-11-04T11:43:53Z</time>
      </trkpt>
      <trkpt lat="47.724545" lon="12.906827">
        <ele>537.40</ele>
        <time>2012-11-04T11:43:54Z</time>
      </trkpt>
      <trkpt lat="47.724556" lon="12.906847">
        <ele>537.40</ele>
        <time>2012-11-04T11:43:57Z</time>
      </trkpt>
      <trkpt lat="47.724556" lon="12.906847">
        <ele>537.40</ele>
        <time>2012-11-04T11:44:01Z</time>
      </trkpt>
      <trkpt lat="47.724556" lon="12.906847">
        <ele>537.40</ele>
        <time>2012-11-04T11:44:09Z</time>
      </trkpt>
      <trkpt lat="47.724556" lon="12.906847">
        <ele>537.40</ele>
        <time>2012-11-04T11:44:17Z</time>
      </trkpt>
      <trkpt lat="47.724545" lon="12.906855">
        <ele>537.40</ele>
        <time>2012-11-04T11:44:20Z</time>
      </trkpt>
      <trkpt lat="47.724560" lon="12.906915">
        <ele>537.40</ele>
        <time>2012-11-04T11:44:22Z</time>
      </trkpt>
      <trkpt lat="47.724594" lon="12.907043">
        <ele>537.40</ele>
        <time>2012-11-04T11:44:25Z</time>
      </trkpt>
      <trkpt lat="47.724625" lon="12.907124">
        <ele>537.40</ele>
        <time>2012-11-04T11:44:27Z</time>
      </trkpt>
      <trkpt lat="47.724804" lon="12.907500">
        <ele>537.40</ele>
        <time>2012-11-04T11:44:36Z</time>
      </trkpt>
      <trkpt lat="47.724949" lon="12.907892">
        <ele>537.40</ele>
        <time>2012-11-04T11:44:44Z</time>
      </trkpt>
      <trkpt lat="47.725040" lon="12.908135">
        <ele>537.40</ele>
        <time>2012-11-04T11:44:49Z</time>
      </trkpt>
      <trkpt lat="47.725082" lon="12.908228">
        <ele>537.40</ele>
        <time>2012-11-04T11:44:51Z</time>
      </trkpt>
      <trkpt lat="47.725193" lon="12.908513">
        <ele>537.40</ele>
        <time>2012-11-04T11:44:57Z</time>
      </trkpt>
      <trkpt lat="47.725204" lon="12.908560">
        <ele>537.40</ele>
        <time>2012-11-04T11:44:58Z</time>
      </trkpt>
      <trkpt lat="47.725269" lon="12.908866">
        <ele>537.40</ele>
        <time>2012-11-04T11:45:05Z</time>
      </trkpt>
      <trkpt lat="47.725285" lon="12.908972">
        <ele>537.80</ele>
        <time>2012-11-04T11:45:07Z</time>
      </trkpt>
      <trkpt lat="47.725288" lon="12.909023">
        <ele>538.20</ele>
        <time>2012-11-04T11:45:08Z</time>
      </trkpt>
      <trkpt lat="47.725292" lon="12.909079">
        <ele>538.60</ele>
        <time>2012-11-04T11:45:09Z</time>
      </trkpt>
      <trkpt lat="47.725300" lon="12.909129">
        <ele>539.00</ele>
        <time>2012-11-04T11:45:10Z</time>
      </trkpt>
      <trkpt lat="47.725307" lon="12.909181">
        <ele>539.40</ele>
        <time>2012-11-04T11:45:11Z</time>
      </trkpt>
      <trkpt lat="47.725307" lon="12.909233">
        <ele>539.40</ele>
        <time>2012-11-04T11:45:12Z</time>
      </trkpt>
      <trkpt lat="47.725315" lon="12.909364">
        <ele>539.40</ele>
        <time>2012-11-04T11:45:15Z</time>
      </trkpt>
      <trkpt lat="47.725315" lon="12.909409">
        <ele>539.80</ele>
        <time>2012-11-04T11:45:16Z</time>
      </trkpt>
      <trkpt lat="47.725315" lon="12.909454">
        <ele>540.20</ele>
        <time>2012-11-04T11:45:17Z</time>
      </trkpt>
      <trkpt lat="47.725319" lon="12.909495">
        <ele>540.60</ele>
        <time>2012-11-04T11:45:18Z</time>
      </trkpt>
      <trkpt lat="47.725319" lon="12.909537">
        <ele>541.00</ele>
        <time>2012-11-04T11:45:19Z</time>
      </trkpt>
      <trkpt lat="47.725319" lon="12.909582">
        <ele>541.40</ele>
        <time>2012-11-04T11:45:20Z</time>
      </trkpt>
      <trkpt lat="47.725319" lon="12.909728">
        <ele>541.40</ele>
        <time>2012-11-04T11:45:23Z</time>
      </trkpt>
      <trkpt lat="47.725327" lon="12.909879">
        <ele>541.80</ele>
        <time>2012-11-04T11:45:26Z</time>
      </trkpt>
      <trkpt lat="47.725330" lon="12.909929">
        <ele>542.60</ele>
        <time>2012-11-04T11:45:27Z</time>
      </trkpt>
      <trkpt lat="47.725334" lon="12.909981">
        <ele>543.00</ele>
        <time>2012-11-04T11:45:28Z</time>
      </trkpt>
      <trkpt lat="47.725338" lon="12.910033">
        <ele>543.40</ele>
        <time>2012-11-04T11:45:29Z</time>
      </trkpt>
      <trkpt lat="47.725361" lon="12.910291">
        <ele>543.40</ele>
        <time>2012-11-04T11:45:34Z</time>
      </trkpt>
      <trkpt lat="47.725388" lon="12.910607">
        <ele>543.40</ele>
        <time>2012-11-04T11:45:40Z</time>
      </trkpt>
      <trkpt lat="47.725491" lon="12.910918">
        <ele>543.40</ele>
        <time>2012-11-04T11:45:46Z</time>
      </trkpt>
      <trkpt lat="47.725513" lon="12.910975">
        <ele>543.40</ele>
        <time>2012-11-04T11:45:47Z</time>
      </trkpt>
      <trkpt lat="47.725685" lon="12.911363">
        <ele>543.40</ele>
        <time>2012-11-04T11:45:53Z</time>
      </trkpt>
      <trkpt lat="47.725891" lon="12.911821">
        <ele>543.40</ele>
        <time>2012-11-04T11:45:59Z</time>
      </trkpt>
      <trkpt lat="47.726055" lon="12.912267">
        <ele>543.40</ele>
        <time>2012-11-04T11:46:04Z</time>
      </trkpt>
      <trkpt lat="47.726109" lon="12.912448">
        <ele>543.00</ele>
        <time>2012-11-04T11:46:06Z</time>
      </trkpt>
      <trkpt lat="47.726131" lon="12.912537">
        <ele>542.60</ele>
        <time>2012-11-04T11:46:07Z</time>
      </trkpt>
      <trkpt lat="47.726154" lon="12.912622">
        <ele>542.20</ele>
        <time>2012-11-04T11:46:08Z</time>
      </trkpt>
      <trkpt lat="47.726181" lon="12.912701">
        <ele>541.80</ele>
        <time>2012-11-04T11:46:09Z</time>
      </trkpt>
      <trkpt lat="47.726200" lon="12.912788">
        <ele>541.40</ele>
        <time>2012-11-04T11:46:10Z</time>
      </trkpt>
      <trkpt lat="47.726257" lon="12.913019">
        <ele>541.40</ele>
        <time>2012-11-04T11:46:13Z</time>
      </trkpt>
      <trkpt lat="47.726295" lon="12.913171">
        <ele>541.40</ele>
        <time>2012-11-04T11:46:15Z</time>
      </trkpt>
      <trkpt lat="47.726421" lon="12.913530">
        <ele>541.40</ele>
        <time>2012-11-04T11:46:20Z</time>
      </trkpt>
      <trkpt lat="47.726475" lon="12.913662">
        <ele>541.40</ele>
        <time>2012-11-04T11:46:22Z</time>
      </trkpt>
      <trkpt lat="47.726627" lon="12.914021">
        <ele>541.40</ele>
        <time>2012-11-04T11:46:28Z</time>
      </trkpt>
      <trkpt lat="47.726879" lon="12.914475">
        <ele>541.40</ele>
        <time>2012-11-04T11:46:36Z</time>
      </trkpt>
      <trkpt lat="47.726917" lon="12.914524">
        <ele>541.40</ele>
        <time>2012-11-04T11:46:37Z</time>
      </trkpt>
      <trkpt lat="47.727131" lon="12.914817">
        <ele>541.40</ele>
        <time>2012-11-04T11:46:43Z</time>
      </trkpt>
      <trkpt lat="47.727386" lon="12.915122">
        <ele>541.40</ele>
        <time>2012-11-04T11:46:50Z</time>
      </trkpt>
      <trkpt lat="47.727722" lon="12.915509">
        <ele>541.40</ele>
        <time>2012-11-04T11:46:59Z</time>
      </trkpt>
      <trkpt lat="47.727940" lon="12.915864">
        <ele>541.40</ele>
        <time>2012-11-04T11:47:06Z</time>
      </trkpt>
      <trkpt lat="47.728065" lon="12.916285">
        <ele>541.40</ele>
        <time>2012-11-04T11:47:13Z</time>
      </trkpt>
      <trkpt lat="47.728111" lon="12.916538">
        <ele>541.40</ele>
        <time>2012-11-04T11:47:17Z</time>
      </trkpt>
      <trkpt lat="47.728123" lon="12.916608">
        <ele>541.80</ele>
        <time>2012-11-04T11:47:18Z</time>
      </trkpt>
      <trkpt lat="47.728134" lon="12.916677">
        <ele>542.40</ele>
        <time>2012-11-04T11:47:19Z</time>
      </trkpt>
      <trkpt lat="47.728142" lon="12.916745">
        <ele>542.80</ele>
        <time>2012-11-04T11:47:20Z</time>
      </trkpt>
      <trkpt lat="47.728153" lon="12.916810">
        <ele>543.20</ele>
        <time>2012-11-04T11:47:21Z</time>
      </trkpt>
      <trkpt lat="47.728161" lon="12.916875">
        <ele>543.60</ele>
        <time>2012-11-04T11:47:22Z</time>
      </trkpt>
      <trkpt lat="47.728222" lon="12.917192">
        <ele>543.60</ele>
        <time>2012-11-04T11:47:27Z</time>
      </trkpt>
      <trkpt lat="47.728249" lon="12.917318">
        <ele>543.60</ele>
        <time>2012-11-04T11:47:29Z</time>
      </trkpt>
      <trkpt lat="47.728271" lon="12.917582">
        <ele>543.60</ele>
        <time>2012-11-04T11:47:33Z</time>
      </trkpt>
      <trkpt lat="47.728374" lon="12.917985">
        <ele>543.60</ele>
        <time>2012-11-04T11:47:40Z</time>
      </trkpt>
      <trkpt lat="47.728477" lon="12.918431">
        <ele>543.60</ele>
        <time>2012-11-04T11:47:48Z</time>
      </trkpt>
      <trkpt lat="47.728519" lon="12.918600">
        <ele>543.60</ele>
        <time>2012-11-04T11:47:52Z</time>
      </trkpt>
      <trkpt lat="47.728539" lon="12.918680">
        <ele>543.60</ele>
        <time>2012-11-04T11:47:54Z</time>
      </trkpt>
      <trkpt lat="47.728573" lon="12.918865">
        <ele>544.00</ele>
        <time>2012-11-04T11:47:58Z</time>
      </trkpt>
      <trkpt lat="47.728580" lon="12.918909">
        <ele>544.40</ele>
        <time>2012-11-04T11:47:59Z</time>
      </trkpt>
      <trkpt lat="47.728584" lon="12.918951">
        <ele>545.00</ele>
        <time>2012-11-04T11:48:00Z</time>
      </trkpt>
      <trkpt lat="47.728592" lon="12.918988">
        <ele>545.40</ele>
        <time>2012-11-04T11:48:01Z</time>
      </trkpt>
      <trkpt lat="47.728600" lon="12.919025">
        <ele>545.80</ele>
        <time>2012-11-04T11:48:02Z</time>
      </trkpt>
      <trkpt lat="47.728649" lon="12.919272">
        <ele>545.80</ele>
        <time>2012-11-04T11:48:08Z</time>
      </trkpt>
      <trkpt lat="47.728733" lon="12.919535">
        <ele>545.80</ele>
        <time>2012-11-04T11:48:15Z</time>
      </trkpt>
      <trkpt lat="47.728825" lon="12.919844">
        <ele>545.80</ele>
        <time>2012-11-04T11:48:22Z</time>
      </trkpt>
      <trkpt lat="47.728840" lon="12.919888">
        <ele>546.20</ele>
        <time>2012-11-04T11:48:23Z</time>
      </trkpt>
      <trkpt lat="47.728848" lon="12.919933">
        <ele>546.60</ele>
        <time>2012-11-04T11:48:24Z</time>
      </trkpt>
      <trkpt lat="47.728863" lon="12.919977">
        <ele>547.00</ele>
        <time>2012-11-04T11:48:25Z</time>
      </trkpt>
      <trkpt lat="47.728878" lon="12.920024">
        <ele>547.40</ele>
        <time>2012-11-04T11:48:26Z</time>
      </trkpt>
      <trkpt lat="47.728889" lon="12.920070">
        <ele>547.80</ele>
        <time>2012-11-04T11:48:27Z</time>
      </trkpt>
      <trkpt lat="47.728901" lon="12.920115">
        <ele>547.80</ele>
        <time>2012-11-04T11:48:28Z</time>
      </trkpt>
      <trkpt lat="47.729015" lon="12.920524">
        <ele>547.80</ele>
        <time>2012-11-04T11:48:37Z</time>
      </trkpt>
      <trkpt lat="47.729107" lon="12.920845">
        <ele>547.80</ele>
        <time>2012-11-04T11:48:44Z</time>
      </trkpt>
      <trkpt lat="47.729118" lon="12.920884">
        <ele>548.40</ele>
        <time>2012-11-04T11:48:45Z</time>
      </trkpt>
      <trkpt lat="47.729134" lon="12.920929">
        <ele>548.80</ele>
        <time>2012-11-04T11:48:46Z</time>
      </trkpt>
      <trkpt lat="47.729149" lon="12.920973">
        <ele>549.20</ele>
        <time>2012-11-04T11:48:47Z</time>
      </trkpt>
      <trkpt lat="47.729164" lon="12.921017">
        <ele>549.60</ele>
        <time>2012-11-04T11:48:48Z</time>
      </trkpt>
      <trkpt lat="47.729179" lon="12.921063">
        <ele>550.00</ele>
        <time>2012-11-04T11:48:49Z</time>
      </trkpt>
      <trkpt lat="47.729195" lon="12.921104">
        <ele>550.00</ele>
        <time>2012-11-04T11:48:50Z</time>
      </trkpt>
      <trkpt lat="47.729275" lon="12.921356">
        <ele>550.00</ele>
        <time>2012-11-04T11:48:56Z</time>
      </trkpt>
      <trkpt lat="47.729397" lon="12.921670">
        <ele>550.00</ele>
        <time>2012-11-04T11:49:03Z</time>
      </trkpt>
      <trkpt lat="47.729530" lon="12.921963">
        <ele>550.40</ele>
        <time>2012-11-04T11:49:10Z</time>
      </trkpt>
      <trkpt lat="47.729549" lon="12.922000">
        <ele>550.80</ele>
        <time>2012-11-04T11:49:11Z</time>
      </trkpt>
      <trkpt lat="47.729568" lon="12.922039">
        <ele>551.20</ele>
        <time>2012-11-04T11:49:12Z</time>
      </trkpt>
      <trkpt lat="47.729588" lon="12.922082">
        <ele>551.60</ele>
        <time>2012-11-04T11:49:13Z</time>
      </trkpt>
      <trkpt lat="47.729610" lon="12.922117">
        <ele>552.00</ele>
        <time>2012-11-04T11:49:14Z</time>
      </trkpt>
      <trkpt lat="47.729725" lon="12.922313">
        <ele>552.00</ele>
        <time>2012-11-04T11:49:19Z</time>
      </trkpt>
      <trkpt lat="47.729893" lon="12.922565">
        <ele>552.00</ele>
        <time>2012-11-04T11:49:26Z</time>
      </trkpt>
      <trkpt lat="47.730103" lon="12.922847">
        <ele>552.00</ele>
        <time>2012-11-04T11:49:34Z</time>
      </trkpt>
      <trkpt lat="47.730129" lon="12.922874">
        <ele>552.40</ele>
        <time>2012-11-04T11:49:35Z</time>
      </trkpt>
      <trkpt lat="47.730152" lon="12.922905">
        <ele>552.80</ele>
        <time>2012-11-04T11:49:36Z</time>
      </trkpt>
      <trkpt lat="47.730179" lon="12.922932">
        <ele>553.20</ele>
        <time>2012-11-04T11:49:37Z</time>
      </trkpt>
      <trkpt lat="47.730206" lon="12.922968">
        <ele>553.60</ele>
        <time>2012-11-04T11:49:38Z</time>
      </trkpt>
      <trkpt lat="47.730232" lon="12.923005">
        <ele>554.20</ele>
        <time>2012-11-04T11:49:39Z</time>
      </trkpt>
      <trkpt lat="47.730297" lon="12.923070">
        <ele>554.20</ele>
        <time>2012-11-04T11:49:41Z</time>
      </trkpt>
      <trkpt lat="47.730618" lon="12.923370">
        <ele>554.20</ele>
        <time>2012-11-04T11:49:51Z</time>
      </trkpt>
      <trkpt lat="47.730846" lon="12.923539">
        <ele>554.20</ele>
        <time>2012-11-04T11:49:58Z</time>
      </trkpt>
      <trkpt lat="47.730919" lon="12.923587">
        <ele>554.20</ele>
        <time>2012-11-04T11:50:00Z</time>
      </trkpt>
      <trkpt lat="47.731033" lon="12.923652">
        <ele>554.20</ele>
        <time>2012-11-04T11:50:03Z</time>
      </trkpt>
      <trkpt lat="47.731071" lon="12.923674">
        <ele>554.60</ele>
        <time>2012-11-04T11:50:04Z</time>
      </trkpt>
      <trkpt lat="47.731110" lon="12.923697">
        <ele>555.00</ele>
        <time>2012-11-04T11:50:05Z</time>
      </trkpt>
      <trkpt lat="47.731152" lon="12.923725">
        <ele>555.40</ele>
        <time>2012-11-04T11:50:06Z</time>
      </trkpt>
      <trkpt lat="47.731194" lon="12.923752">
        <ele>555.80</ele>
        <time>2012-11-04T11:50:07Z</time>
      </trkpt>
      <trkpt lat="47.731236" lon="12.923780">
        <ele>556.20</ele>
        <time>2012-11-04T11:50:08Z</time>
      </trkpt>
      <trkpt lat="47.731361" lon="12.923861">
        <ele>556.20</ele>
        <time>2012-11-04T11:50:11Z</time>
      </trkpt>
      <trkpt lat="47.731678" lon="12.923981">
        <ele>556.20</ele>
        <time>2012-11-04T11:50:19Z</time>
      </trkpt>
      <trkpt lat="47.731968" lon="12.924058">
        <ele>556.20</ele>
        <time>2012-11-04T11:50:26Z</time>
      </trkpt>
      <trkpt lat="47.732254" lon="12.924108">
        <ele>556.20</ele>
        <time>2012-11-04T11:50:33Z</time>
      </trkpt>
      <trkpt lat="47.732624" lon="12.924133">
        <ele>556.20</ele>
        <time>2012-11-04T11:50:41Z</time>
      </trkpt>
      <trkpt lat="47.732986" lon="12.924087">
        <ele>556.20</ele>
        <time>2012-11-04T11:50:49Z</time>
      </trkpt>
      <trkpt lat="47.733204" lon="12.924013">
        <ele>556.20</ele>
        <time>2012-11-04T11:50:54Z</time>
      </trkpt>
      <trkpt lat="47.733250" lon="12.923996">
        <ele>556.20</ele>
        <time>2012-11-04T11:50:55Z</time>
      </trkpt>
      <trkpt lat="47.733582" lon="12.923866">
        <ele>556.20</ele>
        <time>2012-11-04T11:51:02Z</time>
      </trkpt>
      <trkpt lat="47.733929" lon="12.923743">
        <ele>556.20</ele>
        <time>2012-11-04T11:51:09Z</time>
      </trkpt>
      <trkpt lat="47.734264" lon="12.923619">
        <ele>556.20</ele>
        <time>2012-11-04T11:51:16Z</time>
      </trkpt>
      <trkpt lat="47.734661" lon="12.923482">
        <ele>556.20</ele>
        <time>2012-11-04T11:51:24Z</time>
      </trkpt>
      <trkpt lat="47.734970" lon="12.923379">
        <ele>556.20</ele>
        <time>2012-11-04T11:51:30Z</time>
      </trkpt>
      <trkpt lat="47.735023" lon="12.923368">
        <ele>556.20</ele>
        <time>2012-11-04T11:51:31Z</time>
      </trkpt>
      <trkpt lat="47.735115" lon="12.923357">
        <ele>556.20</ele>
        <time>2012-11-04T11:51:33Z</time>
      </trkpt>
      <trkpt lat="47.735302" lon="12.923317">
        <ele>556.20</ele>
        <time>2012-11-04T11:51:37Z</time>
      </trkpt>
      <trkpt lat="47.735390" lon="12.923299">
        <ele>555.80</ele>
        <time>2012-11-04T11:51:39Z</time>
      </trkpt>
      <trkpt lat="47.735432" lon="12.923277">
        <ele>555.40</ele>
        <time>2012-11-04T11:51:40Z</time>
      </trkpt>
      <trkpt lat="47.735477" lon="12.923264">
        <ele>555.00</ele>
        <time>2012-11-04T11:51:41Z</time>
      </trkpt>
      <trkpt lat="47.735531" lon="12.923247">
        <ele>554.60</ele>
        <time>2012-11-04T11:51:42Z</time>
      </trkpt>
      <trkpt lat="47.735584" lon="12.923244">
        <ele>554.20</ele>
        <time>2012-11-04T11:51:43Z</time>
      </trkpt>
      <trkpt lat="47.735886" lon="12.923287">
        <ele>554.20</ele>
        <time>2012-11-04T11:51:49Z</time>
      </trkpt>
      <trkpt lat="47.736134" lon="12.923349">
        <ele>554.20</ele>
        <time>2012-11-04T11:51:54Z</time>
      </trkpt>
      <trkpt lat="47.736195" lon="12.923359">
        <ele>554.20</ele>
        <time>2012-11-04T11:51:55Z</time>
      </trkpt>
      <trkpt lat="47.736439" lon="12.923413">
        <ele>554.20</ele>
        <time>2012-11-04T11:51:59Z</time>
      </trkpt>
      <trkpt lat="47.736557" lon="12.923446">
        <ele>554.20</ele>
        <time>2012-11-04T11:52:01Z</time>
      </trkpt>
      <trkpt lat="47.736687" lon="12.923469">
        <ele>553.80</ele>
        <time>2012-11-04T11:52:03Z</time>
      </trkpt>
      <trkpt lat="47.736744" lon="12.923480">
        <ele>553.40</ele>
        <time>2012-11-04T11:52:04Z</time>
      </trkpt>
      <trkpt lat="47.736805" lon="12.923497">
        <ele>553.00</ele>
        <time>2012-11-04T11:52:05Z</time>
      </trkpt>
      <trkpt lat="47.736862" lon="12.923513">
        <ele>552.60</ele>
        <time>2012-11-04T11:52:06Z</time>
      </trkpt>
      <trkpt lat="47.736919" lon="12.923524">
        <ele>552.20</ele>
        <time>2012-11-04T11:52:07Z</time>
      </trkpt>
      <trkpt lat="47.737335" lon="12.923652">
        <ele>552.20</ele>
        <time>2012-11-04T11:52:14Z</time>
      </trkpt>
      <trkpt lat="47.737656" lon="12.923889">
        <ele>551.80</ele>
        <time>2012-11-04T11:52:20Z</time>
      </trkpt>
      <trkpt lat="47.737709" lon="12.923944">
        <ele>551.40</ele>
        <time>2012-11-04T11:52:21Z</time>
      </trkpt>
      <trkpt lat="47.737755" lon="12.923995">
        <ele>551.00</ele>
        <time>2012-11-04T11:52:22Z</time>
      </trkpt>
      <trkpt lat="47.737801" lon="12.924046">
        <ele>550.60</ele>
        <time>2012-11-04T11:52:23Z</time>
      </trkpt>
      <trkpt lat="47.737843" lon="12.924096">
        <ele>550.00</ele>
        <time>2012-11-04T11:52:24Z</time>
      </trkpt>
      <trkpt lat="47.737949" lon="12.924268">
        <ele>550.00</ele>
        <time>2012-11-04T11:52:27Z</time>
      </trkpt>
      <trkpt lat="47.738159" lon="12.924672">
        <ele>550.00</ele>
        <time>2012-11-04T11:52:34Z</time>
      </trkpt>
      <trkpt lat="47.738369" lon="12.925170">
        <ele>550.00</ele>
        <time>2012-11-04T11:52:41Z</time>
      </trkpt>
      <trkpt lat="47.738586" lon="12.925544">
        <ele>550.00</ele>
        <time>2012-11-04T11:52:47Z</time>
      </trkpt>
      <trkpt lat="47.738796" lon="12.925832">
        <ele>550.00</ele>
        <time>2012-11-04T11:52:52Z</time>
      </trkpt>
      <trkpt lat="47.738922" lon="12.926010">
        <ele>550.00</ele>
        <time>2012-11-04T11:52:55Z</time>
      </trkpt>
      <trkpt lat="47.739002" lon="12.926136">
        <ele>549.60</ele>
        <time>2012-11-04T11:52:57Z</time>
      </trkpt>
      <trkpt lat="47.739044" lon="12.926198">
        <ele>549.20</ele>
        <time>2012-11-04T11:52:58Z</time>
      </trkpt>
      <trkpt lat="47.739082" lon="12.926261">
        <ele>548.80</ele>
        <time>2012-11-04T11:52:59Z</time>
      </trkpt>
      <trkpt lat="47.739124" lon="12.926325">
        <ele>548.40</ele>
        <time>2012-11-04T11:53:00Z</time>
      </trkpt>
      <trkpt lat="47.739162" lon="12.926390">
        <ele>547.80</ele>
        <time>2012-11-04T11:53:01Z</time>
      </trkpt>
      <trkpt lat="47.739239" lon="12.926517">
        <ele>547.80</ele>
        <time>2012-11-04T11:53:03Z</time>
      </trkpt>
      <trkpt lat="47.739445" lon="12.926824">
        <ele>547.80</ele>
        <time>2012-11-04T11:53:08Z</time>
      </trkpt>
      <trkpt lat="47.739563" lon="12.927055">
        <ele>547.80</ele>
        <time>2012-11-04T11:53:11Z</time>
      </trkpt>
      <trkpt lat="47.739681" lon="12.927393">
        <ele>547.80</ele>
        <time>2012-11-04T11:53:15Z</time>
      </trkpt>
      <trkpt lat="47.739700" lon="12.927477">
        <ele>547.40</ele>
        <time>2012-11-04T11:53:16Z</time>
      </trkpt>
      <trkpt lat="47.739719" lon="12.927554">
        <ele>547.00</ele>
        <time>2012-11-04T11:53:17Z</time>
      </trkpt>
      <trkpt lat="47.739742" lon="12.927634">
        <ele>546.40</ele>
        <time>2012-11-04T11:53:18Z</time>
      </trkpt>
      <trkpt lat="47.739765" lon="12.927709">
        <ele>546.00</ele>
        <time>2012-11-04T11:53:19Z</time>
      </trkpt>
      <trkpt lat="47.739784" lon="12.927784">
        <ele>545.60</ele>
        <time>2012-11-04T11:53:20Z</time>
      </trkpt>
      <trkpt lat="47.739822" lon="12.927937">
        <ele>545.60</ele>
        <time>2012-11-04T11:53:22Z</time>
      </trkpt>
      <trkpt lat="47.739880" lon="12.928158">
        <ele>545.60</ele>
        <time>2012-11-04T11:53:25Z</time>
      </trkpt>
      <trkpt lat="47.739986" lon="12.928543">
        <ele>545.60</ele>
        <time>2012-11-04T11:53:30Z</time>
      </trkpt>
      <trkpt lat="47.740143" lon="12.928982">
        <ele>545.20</ele>
        <time>2012-11-04T11:53:36Z</time>
      </trkpt>
      <trkpt lat="47.740173" lon="12.929052">
        <ele>544.60</ele>
        <time>2012-11-04T11:53:37Z</time>
      </trkpt>
      <trkpt lat="47.740204" lon="12.929125">
        <ele>544.20</ele>
        <time>2012-11-04T11:53:38Z</time>
      </trkpt>
      <trkpt lat="47.740234" lon="12.929197">
        <ele>543.80</ele>
        <time>2012-11-04T11:53:39Z</time>
      </trkpt>
      <trkpt lat="47.740269" lon="12.929270">
        <ele>543.40</ele>
        <time>2012-11-04T11:53:40Z</time>
      </trkpt>
      <trkpt lat="47.740440" lon="12.929559">
        <ele>543.40</ele>
        <time>2012-11-04T11:53:44Z</time>
      </trkpt>
      <trkpt lat="47.740490" lon="12.929627">
        <ele>543.40</ele>
        <time>2012-11-04T11:53:45Z</time>
      </trkpt>
      <trkpt lat="47.740746" lon="12.929961">
        <ele>543.00</ele>
        <time>2012-11-04T11:53:50Z</time>
      </trkpt>
      <trkpt lat="47.740807" lon="12.930024">
        <ele>542.40</ele>
        <time>2012-11-04T11:53:51Z</time>
      </trkpt>
      <trkpt lat="47.740868" lon="12.930084">
        <ele>542.00</ele>
        <time>2012-11-04T11:53:52Z</time>
      </trkpt>
      <trkpt lat="47.740932" lon="12.930141">
        <ele>541.60</ele>
        <time>2012-11-04T11:53:53Z</time>
      </trkpt>
      <trkpt lat="47.741001" lon="12.930195">
        <ele>541.00</ele>
        <time>2012-11-04T11:53:54Z</time>
      </trkpt>
      <trkpt lat="47.741066" lon="12.930247">
        <ele>540.60</ele>
        <time>2012-11-04T11:53:55Z</time>
      </trkpt>
      <trkpt lat="47.741138" lon="12.930298">
        <ele>540.00</ele>
        <time>2012-11-04T11:53:56Z</time>
      </trkpt>
      <trkpt lat="47.741207" lon="12.930346">
        <ele>539.40</ele>
        <time>2012-11-04T11:53:57Z</time>
      </trkpt>
      <trkpt lat="47.741287" lon="12.930385">
        <ele>539.00</ele>
        <time>2012-11-04T11:53:58Z</time>
      </trkpt>
      <trkpt lat="47.741367" lon="12.930421">
        <ele>538.60</ele>
        <time>2012-11-04T11:53:59Z</time>
      </trkpt>
      <trkpt lat="47.741455" lon="12.930452">
        <ele>538.00</ele>
        <time>2012-11-04T11:54:00Z</time>
      </trkpt>
      <trkpt lat="47.741539" lon="12.930483">
        <ele>537.60</ele>
        <time>2012-11-04T11:54:01Z</time>
      </trkpt>
      <trkpt lat="47.741627" lon="12.930512">
        <ele>537.00</ele>
        <time>2012-11-04T11:54:02Z</time>
      </trkpt>
      <trkpt lat="47.741714" lon="12.930541">
        <ele>536.40</ele>
        <time>2012-11-04T11:54:03Z</time>
      </trkpt>
      <trkpt lat="47.741806" lon="12.930566">
        <ele>535.80</ele>
        <time>2012-11-04T11:54:04Z</time>
      </trkpt>
      <trkpt lat="47.741901" lon="12.930586">
        <ele>534.60</ele>
        <time>2012-11-04T11:54:05Z</time>
      </trkpt>
      <trkpt lat="47.741993" lon="12.930601">
        <ele>533.80</ele>
        <time>2012-11-04T11:54:06Z</time>
      </trkpt>
      <trkpt lat="47.742096" lon="12.930607">
        <ele>533.00</ele>
        <time>2012-11-04T11:54:07Z</time>
      </trkpt>
      <trkpt lat="47.742199" lon="12.930614">
        <ele>532.20</ele>
        <time>2012-11-04T11:54:08Z</time>
      </trkpt>
      <trkpt lat="47.742302" lon="12.930621">
        <ele>531.20</ele>
        <time>2012-11-04T11:54:09Z</time>
      </trkpt>
      <trkpt lat="47.742401" lon="12.930627">
        <ele>530.40</ele>
        <time>2012-11-04T11:54:10Z</time>
      </trkpt>
      <trkpt lat="47.742500" lon="12.930632">
        <ele>529.40</ele>
        <time>2012-11-04T11:54:11Z</time>
      </trkpt>
      <trkpt lat="47.742599" lon="12.930636">
        <ele>528.20</ele>
        <time>2012-11-04T11:54:12Z</time>
      </trkpt>
      <trkpt lat="47.742691" lon="12.930643">
        <ele>527.20</ele>
        <time>2012-11-04T11:54:13Z</time>
      </trkpt>
      <trkpt lat="47.742786" lon="12.930655">
        <ele>526.20</ele>
        <time>2012-11-04T11:54:14Z</time>
      </trkpt>
      <trkpt lat="47.742874" lon="12.930668">
        <ele>525.00</ele>
        <time>2012-11-04T11:54:15Z</time>
      </trkpt>
      <trkpt lat="47.742958" lon="12.930681">
        <ele>524.00</ele>
        <time>2012-11-04T11:54:16Z</time>
      </trkpt>
      <trkpt lat="47.743042" lon="12.930699">
        <ele>522.80</ele>
        <time>2012-11-04T11:54:17Z</time>
      </trkpt>
      <trkpt lat="47.743126" lon="12.930726">
        <ele>521.80</ele>
        <time>2012-11-04T11:54:18Z</time>
      </trkpt>
      <trkpt lat="47.743202" lon="12.930756">
        <ele>521.00</ele>
        <time>2012-11-04T11:54:19Z</time>
      </trkpt>
      <trkpt lat="47.743279" lon="12.930788">
        <ele>520.00</ele>
        <time>2012-11-04T11:54:20Z</time>
      </trkpt>
      <trkpt lat="47.743359" lon="12.930816">
        <ele>519.20</ele>
        <time>2012-11-04T11:54:21Z</time>
      </trkpt>
      <trkpt lat="47.743443" lon="12.930832">
        <ele>518.60</ele>
        <time>2012-11-04T11:54:22Z</time>
      </trkpt>
      <trkpt lat="47.743519" lon="12.930839">
        <ele>517.80</ele>
        <time>2012-11-04T11:54:23Z</time>
      </trkpt>
      <trkpt lat="47.743599" lon="12.930851">
        <ele>517.00</ele>
        <time>2012-11-04T11:54:24Z</time>
      </trkpt>
      <trkpt lat="47.743675" lon="12.930876">
        <ele>516.20</ele>
        <time>2012-11-04T11:54:25Z</time>
      </trkpt>
      <trkpt lat="47.743748" lon="12.930906">
        <ele>515.60</ele>
        <time>2012-11-04T11:54:26Z</time>
      </trkpt>
      <trkpt lat="47.743820" lon="12.930940">
        <ele>515.00</ele>
        <time>2012-11-04T11:54:27Z</time>
      </trkpt>
      <trkpt lat="47.743896" lon="12.930974">
        <ele>514.60</ele>
        <time>2012-11-04T11:54:28Z</time>
      </trkpt>
      <trkpt lat="47.743969" lon="12.931015">
        <ele>514.20</ele>
        <time>2012-11-04T11:54:29Z</time>
      </trkpt>
      <trkpt lat="47.744041" lon="12.931056">
        <ele>513.20</ele>
        <time>2012-11-04T11:54:30Z</time>
      </trkpt>
      <trkpt lat="47.744244" lon="12.931196">
        <ele>512.80</ele>
        <time>2012-11-04T11:54:33Z</time>
      </trkpt>
      <trkpt lat="47.744305" lon="12.931257">
        <ele>512.40</ele>
        <time>2012-11-04T11:54:34Z</time>
      </trkpt>
      <trkpt lat="47.744366" lon="12.931318">
        <ele>512.00</ele>
        <time>2012-11-04T11:54:35Z</time>
      </trkpt>
      <trkpt lat="47.744427" lon="12.931374">
        <ele>511.60</ele>
        <time>2012-11-04T11:54:36Z</time>
      </trkpt>
      <trkpt lat="47.744488" lon="12.931425">
        <ele>511.20</ele>
        <time>2012-11-04T11:54:37Z</time>
      </trkpt>
      <trkpt lat="47.744614" lon="12.931532">
        <ele>510.80</ele>
        <time>2012-11-04T11:54:39Z</time>
      </trkpt>
      <trkpt lat="47.744671" lon="12.931587">
        <ele>510.40</ele>
        <time>2012-11-04T11:54:40Z</time>
      </trkpt>
      <trkpt lat="47.744728" lon="12.931644">
        <ele>509.80</ele>
        <time>2012-11-04T11:54:41Z</time>
      </trkpt>
      <trkpt lat="47.744781" lon="12.931700">
        <ele>509.40</ele>
        <time>2012-11-04T11:54:42Z</time>
      </trkpt>
      <trkpt lat="47.744835" lon="12.931755">
        <ele>509.00</ele>
        <time>2012-11-04T11:54:43Z</time>
      </trkpt>
      <trkpt lat="47.744884" lon="12.931808">
        <ele>509.00</ele>
        <time>2012-11-04T11:54:44Z</time>
      </trkpt>
      <trkpt lat="47.745094" lon="12.932032">
        <ele>508.60</ele>
        <time>2012-11-04T11:54:48Z</time>
      </trkpt>
      <trkpt lat="47.745148" lon="12.932098">
        <ele>508.20</ele>
        <time>2012-11-04T11:54:49Z</time>
      </trkpt>
      <trkpt lat="47.745201" lon="12.932166">
        <ele>507.60</ele>
        <time>2012-11-04T11:54:50Z</time>
      </trkpt>
      <trkpt lat="47.745251" lon="12.932228">
        <ele>507.20</ele>
        <time>2012-11-04T11:54:51Z</time>
      </trkpt>
      <trkpt lat="47.745300" lon="12.932293">
        <ele>506.80</ele>
        <time>2012-11-04T11:54:52Z</time>
      </trkpt>
      <trkpt lat="47.745537" lon="12.932637">
        <ele>506.80</ele>
        <time>2012-11-04T11:54:57Z</time>
      </trkpt>
      <trkpt lat="47.745583" lon="12.932709">
        <ele>506.40</ele>
        <time>2012-11-04T11:54:58Z</time>
      </trkpt>
      <trkpt lat="47.745628" lon="12.932781">
        <ele>506.00</ele>
        <time>2012-11-04T11:54:59Z</time>
      </trkpt>
      <trkpt lat="47.745674" lon="12.932853">
        <ele>505.60</ele>
        <time>2012-11-04T11:55:00Z</time>
      </trkpt>
      <trkpt lat="47.745720" lon="12.932930">
        <ele>505.20</ele>
        <time>2012-11-04T11:55:01Z</time>
      </trkpt>
      <trkpt lat="47.745758" lon="12.933005">
        <ele>504.80</ele>
        <time>2012-11-04T11:55:02Z</time>
      </trkpt>
      <trkpt lat="47.745884" lon="12.933228">
        <ele>504.80</ele>
        <time>2012-11-04T11:55:05Z</time>
      </trkpt>
      <trkpt lat="47.745922" lon="12.933302">
        <ele>504.40</ele>
        <time>2012-11-04T11:55:06Z</time>
      </trkpt>
      <trkpt lat="47.745960" lon="12.933377">
        <ele>504.00</ele>
        <time>2012-11-04T11:55:07Z</time>
      </trkpt>
      <trkpt lat="47.746002" lon="12.933456">
        <ele>503.60</ele>
        <time>2012-11-04T11:55:08Z</time>
      </trkpt>
      <trkpt lat="47.746037" lon="12.933532">
        <ele>503.00</ele>
        <time>2012-11-04T11:55:09Z</time>
      </trkpt>
      <trkpt lat="47.746075" lon="12.933607">
        <ele>502.60</ele>
        <time>2012-11-04T11:55:10Z</time>
      </trkpt>
      <trkpt lat="47.746181" lon="12.933837">
        <ele>502.60</ele>
        <time>2012-11-04T11:55:13Z</time>
      </trkpt>
      <trkpt lat="47.746338" lon="12.934233">
        <ele>502.20</ele>
        <time>2012-11-04T11:55:18Z</time>
      </trkpt>
      <trkpt lat="47.746372" lon="12.934311">
        <ele>501.80</ele>
        <time>2012-11-04T11:55:19Z</time>
      </trkpt>
      <trkpt lat="47.746403" lon="12.934391">
        <ele>500.80</ele>
        <time>2012-11-04T11:55:20Z</time>
      </trkpt>
      <trkpt lat="47.746433" lon="12.934475">
        <ele>500.40</ele>
        <time>2012-11-04T11:55:21Z</time>
      </trkpt>
      <trkpt lat="47.746616" lon="12.934982">
        <ele>500.40</ele>
        <time>2012-11-04T11:55:27Z</time>
      </trkpt>
      <trkpt lat="47.746670" lon="12.935140">
        <ele>500.00</ele>
        <time>2012-11-04T11:55:29Z</time>
      </trkpt>
      <trkpt lat="47.746693" lon="12.935207">
        <ele>499.40</ele>
        <time>2012-11-04T11:55:30Z</time>
      </trkpt>
      <trkpt lat="47.746716" lon="12.935267">
        <ele>499.00</ele>
        <time>2012-11-04T11:55:31Z</time>
      </trkpt>
      <trkpt lat="47.746742" lon="12.935316">
        <ele>498.60</ele>
        <time>2012-11-04T11:55:32Z</time>
      </trkpt>
      <trkpt lat="47.746769" lon="12.935365">
        <ele>498.20</ele>
        <time>2012-11-04T11:55:33Z</time>
      </trkpt>
      <trkpt lat="47.746815" lon="12.935480">
        <ele>498.20</ele>
        <time>2012-11-04T11:55:35Z</time>
      </trkpt>
      <trkpt lat="47.746876" lon="12.935666">
        <ele>498.20</ele>
        <time>2012-11-04T11:55:38Z</time>
      </trkpt>
      <trkpt lat="47.746895" lon="12.935802">
        <ele>497.80</ele>
        <time>2012-11-04T11:55:40Z</time>
      </trkpt>
      <trkpt lat="47.746899" lon="12.935866">
        <ele>497.40</ele>
        <time>2012-11-04T11:55:41Z</time>
      </trkpt>
      <trkpt lat="47.746902" lon="12.935924">
        <ele>497.00</ele>
        <time>2012-11-04T11:55:42Z</time>
      </trkpt>
      <trkpt lat="47.746914" lon="12.935977">
        <ele>496.60</ele>
        <time>2012-11-04T11:55:43Z</time>
      </trkpt>
      <trkpt lat="47.746933" lon="12.936026">
        <ele>496.20</ele>
        <time>2012-11-04T11:55:44Z</time>
      </trkpt>
      <trkpt lat="47.747032" lon="12.936123">
        <ele>496.20</ele>
        <time>2012-11-04T11:55:47Z</time>
      </trkpt>
      <trkpt lat="47.747139" lon="12.936337">
        <ele>496.20</ele>
        <time>2012-11-04T11:55:51Z</time>
      </trkpt>
      <trkpt lat="47.747162" lon="12.936396">
        <ele>496.20</ele>
        <time>2012-11-04T11:55:52Z</time>
      </trkpt>
      <trkpt lat="47.747261" lon="12.936622">
        <ele>495.80</ele>
        <time>2012-11-04T11:55:56Z</time>
      </trkpt>
      <trkpt lat="47.747288" lon="12.936677">
        <ele>495.40</ele>
        <time>2012-11-04T11:55:57Z</time>
      </trkpt>
      <trkpt lat="47.747318" lon="12.936735">
        <ele>494.80</ele>
        <time>2012-11-04T11:55:58Z</time>
      </trkpt>
      <trkpt lat="47.747356" lon="12.936794">
        <ele>494.40</ele>
        <time>2012-11-04T11:55:59Z</time>
      </trkpt>
      <trkpt lat="47.747395" lon="12.936855">
        <ele>494.00</ele>
        <time>2012-11-04T11:56:00Z</time>
      </trkpt>
      <trkpt lat="47.747478" lon="12.936989">
        <ele>494.00</ele>
        <time>2012-11-04T11:56:02Z</time>
      </trkpt>
      <trkpt lat="47.747631" lon="12.937247">
        <ele>494.00</ele>
        <time>2012-11-04T11:56:06Z</time>
      </trkpt>
      <trkpt lat="47.747738" lon="12.937443">
        <ele>494.00</ele>
        <time>2012-11-04T11:56:09Z</time>
      </trkpt>
      <trkpt lat="47.747917" lon="12.937811">
        <ele>494.00</ele>
        <time>2012-11-04T11:56:15Z</time>
      </trkpt>
      <trkpt lat="47.748131" lon="12.938267">
        <ele>494.00</ele>
        <time>2012-11-04T11:56:22Z</time>
      </trkpt>
      <trkpt lat="47.748249" lon="12.938546">
        <ele>494.00</ele>
        <time>2012-11-04T11:56:26Z</time>
      </trkpt>
      <trkpt lat="47.748299" lon="12.938684">
        <ele>494.00</ele>
        <time>2012-11-04T11:56:28Z</time>
      </trkpt>
      <trkpt lat="47.748405" lon="12.938980">
        <ele>494.00</ele>
        <time>2012-11-04T11:56:32Z</time>
      </trkpt>
      <trkpt lat="47.748489" lon="12.939256">
        <ele>494.00</ele>
        <time>2012-11-04T11:56:36Z</time>
      </trkpt>
      <trkpt lat="47.748566" lon="12.939514">
        <ele>494.00</ele>
        <time>2012-11-04T11:56:40Z</time>
      </trkpt>
      <trkpt lat="47.748592" lon="12.939630">
        <ele>494.00</ele>
        <time>2012-11-04T11:56:42Z</time>
      </trkpt>
      <trkpt lat="47.748653" lon="12.939913">
        <ele>494.00</ele>
        <time>2012-11-04T11:56:46Z</time>
      </trkpt>
      <trkpt lat="47.748669" lon="12.939993">
        <ele>494.00</ele>
        <time>2012-11-04T11:56:47Z</time>
      </trkpt>
      <trkpt lat="47.748718" lon="12.940246">
        <ele>494.00</ele>
        <time>2012-11-04T11:56:50Z</time>
      </trkpt>
      <trkpt lat="47.748734" lon="12.940333">
        <ele>493.60</ele>
        <time>2012-11-04T11:56:51Z</time>
      </trkpt>
      <trkpt lat="47.748753" lon="12.940420">
        <ele>493.20</ele>
        <time>2012-11-04T11:56:52Z</time>
      </trkpt>
      <trkpt lat="47.748768" lon="12.940511">
        <ele>492.80</ele>
        <time>2012-11-04T11:56:53Z</time>
      </trkpt>
      <trkpt lat="47.748783" lon="12.940606">
        <ele>492.40</ele>
        <time>2012-11-04T11:56:54Z</time>
      </trkpt>
      <trkpt lat="47.748798" lon="12.940696">
        <ele>492.00</ele>
        <time>2012-11-04T11:56:55Z</time>
      </trkpt>
      <trkpt lat="47.748856" lon="12.940947">
        <ele>492.00</ele>
        <time>2012-11-04T11:56:58Z</time>
      </trkpt>
      <trkpt lat="47.748886" lon="12.941111">
        <ele>492.00</ele>
        <time>2012-11-04T11:57:00Z</time>
      </trkpt>
      <trkpt lat="47.748943" lon="12.941418">
        <ele>492.00</ele>
        <time>2012-11-04T11:57:05Z</time>
      </trkpt>
      <trkpt lat="47.749008" lon="12.941693">
        <ele>492.00</ele>
        <time>2012-11-04T11:57:10Z</time>
      </trkpt>
      <trkpt lat="47.749111" lon="12.942033">
        <ele>492.00</ele>
        <time>2012-11-04T11:57:14Z</time>
      </trkpt>
      <trkpt lat="47.749271" lon="12.942422">
        <ele>491.60</ele>
        <time>2012-11-04T11:57:19Z</time>
      </trkpt>
      <trkpt lat="47.749306" lon="12.942494">
        <ele>491.20</ele>
        <time>2012-11-04T11:57:20Z</time>
      </trkpt>
      <trkpt lat="47.749340" lon="12.942565">
        <ele>490.80</ele>
        <time>2012-11-04T11:57:21Z</time>
      </trkpt>
      <trkpt lat="47.749374" lon="12.942632">
        <ele>490.20</ele>
        <time>2012-11-04T11:57:22Z</time>
      </trkpt>
      <trkpt lat="47.749413" lon="12.942697">
        <ele>489.80</ele>
        <time>2012-11-04T11:57:23Z</time>
      </trkpt>
      <trkpt lat="47.749523" lon="12.942875">
        <ele>489.80</ele>
        <time>2012-11-04T11:57:26Z</time>
      </trkpt>
      <trkpt lat="47.749729" lon="12.943189">
        <ele>489.80</ele>
        <time>2012-11-04T11:57:32Z</time>
      </trkpt>
      <trkpt lat="47.749809" lon="12.943298">
        <ele>489.80</ele>
        <time>2012-11-04T11:57:34Z</time>
      </trkpt>
      <trkpt lat="47.749939" lon="12.943424">
        <ele>489.80</ele>
        <time>2012-11-04T11:57:37Z</time>
      </trkpt>
      <trkpt lat="47.750095" lon="12.943574">
        <ele>489.80</ele>
        <time>2012-11-04T11:57:41Z</time>
      </trkpt>
      <trkpt lat="47.750130" lon="12.943604">
        <ele>489.80</ele>
        <time>2012-11-04T11:57:42Z</time>
      </trkpt>
      <trkpt lat="47.750198" lon="12.943660">
        <ele>489.80</ele>
        <time>2012-11-04T11:57:44Z</time>
      </trkpt>
      <trkpt lat="47.750362" lon="12.943780">
        <ele>489.80</ele>
        <time>2012-11-04T11:57:48Z</time>
      </trkpt>
      <trkpt lat="47.750401" lon="12.943817">
        <ele>489.80</ele>
        <time>2012-11-04T11:57:49Z</time>
      </trkpt>
      <trkpt lat="47.750473" lon="12.943899">
        <ele>489.80</ele>
        <time>2012-11-04T11:57:51Z</time>
      </trkpt>
      <trkpt lat="47.750542" lon="12.943990">
        <ele>489.80</ele>
        <time>2012-11-04T11:57:53Z</time>
      </trkpt>
      <trkpt lat="47.750580" lon="12.944024">
        <ele>489.80</ele>
        <time>2012-11-04T11:57:54Z</time>
      </trkpt>
      <trkpt lat="47.750713" lon="12.944096">
        <ele>489.80</ele>
        <time>2012-11-04T11:57:57Z</time>
      </trkpt>
      <trkpt lat="47.751125" lon="12.944259">
        <ele>489.80</ele>
        <time>2012-11-04T11:58:06Z</time>
      </trkpt>
      <trkpt lat="47.751328" lon="12.944345">
        <ele>489.80</ele>
        <time>2012-11-04T11:58:10Z</time>
      </trkpt>
      <trkpt lat="47.751476" lon="12.944374">
        <ele>489.80</ele>
        <time>2012-11-04T11:58:13Z</time>
      </trkpt>
      <trkpt lat="47.751526" lon="12.944377">
        <ele>489.80</ele>
        <time>2012-11-04T11:58:14Z</time>
      </trkpt>
      <trkpt lat="47.751701" lon="12.944405">
        <ele>489.80</ele>
        <time>2012-11-04T11:58:18Z</time>
      </trkpt>
      <trkpt lat="47.751827" lon="12.944438">
        <ele>489.80</ele>
        <time>2012-11-04T11:58:22Z</time>
      </trkpt>
      <trkpt lat="47.751854" lon="12.944445">
        <ele>489.80</ele>
        <time>2012-11-04T11:58:23Z</time>
      </trkpt>
      <trkpt lat="47.752018" lon="12.944476">
        <ele>489.80</ele>
        <time>2012-11-04T11:58:28Z</time>
      </trkpt>
      <trkpt lat="47.752052" lon="12.944486">
        <ele>489.80</ele>
        <time>2012-11-04T11:58:29Z</time>
      </trkpt>
      <trkpt lat="47.752155" lon="12.944489">
        <ele>489.80</ele>
        <time>2012-11-04T11:58:32Z</time>
      </trkpt>
      <trkpt lat="47.752213" lon="12.944456">
        <ele>489.80</ele>
        <time>2012-11-04T11:58:34Z</time>
      </trkpt>
      <trkpt lat="47.752235" lon="12.944437">
        <ele>489.40</ele>
        <time>2012-11-04T11:58:35Z</time>
      </trkpt>
      <trkpt lat="47.752266" lon="12.944412">
        <ele>489.00</ele>
        <time>2012-11-04T11:58:36Z</time>
      </trkpt>
      <trkpt lat="47.752296" lon="12.944386">
        <ele>488.60</ele>
        <time>2012-11-04T11:58:37Z</time>
      </trkpt>
      <trkpt lat="47.752335" lon="12.944364">
        <ele>487.60</ele>
        <time>2012-11-04T11:58:38Z</time>
      </trkpt>
      <trkpt lat="47.752377" lon="12.944347">
        <ele>487.60</ele>
        <time>2012-11-04T11:58:39Z</time>
      </trkpt>
      <trkpt lat="47.752419" lon="12.944340">
        <ele>487.60</ele>
        <time>2012-11-04T11:58:40Z</time>
      </trkpt>
      <trkpt lat="47.752583" lon="12.944334">
        <ele>487.60</ele>
        <time>2012-11-04T11:58:44Z</time>
      </trkpt>
      <trkpt lat="47.752895" lon="12.944365">
        <ele>487.60</ele>
        <time>2012-11-04T11:58:52Z</time>
      </trkpt>
      <trkpt lat="47.753052" lon="12.944378">
        <ele>487.60</ele>
        <time>2012-11-04T11:58:56Z</time>
      </trkpt>
      <trkpt lat="47.753132" lon="12.944372">
        <ele>487.60</ele>
        <time>2012-11-04T11:58:58Z</time>
      </trkpt>
      <trkpt lat="47.753410" lon="12.944383">
        <ele>487.60</ele>
        <time>2012-11-04T11:59:05Z</time>
      </trkpt>
      <trkpt lat="47.753613" lon="12.944400">
        <ele>487.60</ele>
        <time>2012-11-04T11:59:10Z</time>
      </trkpt>
      <trkpt lat="47.753693" lon="12.944410">
        <ele>487.60</ele>
        <time>2012-11-04T11:59:12Z</time>
      </trkpt>
      <trkpt lat="47.753811" lon="12.944448">
        <ele>488.00</ele>
        <time>2012-11-04T11:59:15Z</time>
      </trkpt>
      <trkpt lat="47.753849" lon="12.944461">
        <ele>488.40</ele>
        <time>2012-11-04T11:59:16Z</time>
      </trkpt>
      <trkpt lat="47.753887" lon="12.944464">
        <ele>489.00</ele>
        <time>2012-11-04T11:59:17Z</time>
      </trkpt>
      <trkpt lat="47.753929" lon="12.944466">
        <ele>489.40</ele>
        <time>2012-11-04T11:59:18Z</time>
      </trkpt>
      <trkpt lat="47.753975" lon="12.944472">
        <ele>489.80</ele>
        <time>2012-11-04T11:59:19Z</time>
      </trkpt>
      <trkpt lat="47.754196" lon="12.944502">
        <ele>489.80</ele>
        <time>2012-11-04T11:59:24Z</time>
      </trkpt>
      <trkpt lat="47.754288" lon="12.944526">
        <ele>489.80</ele>
        <time>2012-11-04T11:59:26Z</time>
      </trkpt>
      <trkpt lat="47.754478" lon="12.944559">
        <ele>489.80</ele>
        <time>2012-11-04T11:59:30Z</time>
      </trkpt>
      <trkpt lat="47.754562" lon="12.944576">
        <ele>489.80</ele>
        <time>2012-11-04T11:59:32Z</time>
      </trkpt>
      <trkpt lat="47.754646" lon="12.944598">
        <ele>489.80</ele>
        <time>2012-11-04T11:59:34Z</time>
      </trkpt>
      <trkpt lat="47.754837" lon="12.944633">
        <ele>489.80</ele>
        <time>2012-11-04T11:59:38Z</time>
      </trkpt>
      <trkpt lat="47.754932" lon="12.944649">
        <ele>489.80</ele>
        <time>2012-11-04T11:59:40Z</time>
      </trkpt>
      <trkpt lat="47.755199" lon="12.944708">
        <ele>489.80</ele>
        <time>2012-11-04T11:59:46Z</time>
      </trkpt>
      <trkpt lat="47.755581" lon="12.944771">
        <ele>489.80</ele>
        <time>2012-11-04T11:59:54Z</time>
      </trkpt>
      <trkpt lat="47.755909" lon="12.944832">
        <ele>489.80</ele>
        <time>2012-11-04T12:00:01Z</time>
      </trkpt>
      <trkpt lat="47.756168" lon="12.944879">
        <ele>489.80</ele>
        <time>2012-11-04T12:00:06Z</time>
      </trkpt>
      <trkpt lat="47.756268" lon="12.944897">
        <ele>489.80</ele>
        <time>2012-11-04T12:00:08Z</time>
      </trkpt>
      <trkpt lat="47.756580" lon="12.944954">
        <ele>489.80</ele>
        <time>2012-11-04T12:00:15Z</time>
      </trkpt>
      <trkpt lat="47.756744" lon="12.944983">
        <ele>489.80</ele>
        <time>2012-11-04T12:00:19Z</time>
      </trkpt>
      <trkpt lat="47.756794" lon="12.944994">
        <ele>489.80</ele>
        <time>2012-11-04T12:00:20Z</time>
      </trkpt>
      <trkpt lat="47.757030" lon="12.945045">
        <ele>489.80</ele>
        <time>2012-11-04T12:00:25Z</time>
      </trkpt>
      <trkpt lat="47.757122" lon="12.945078">
        <ele>489.80</ele>
        <time>2012-11-04T12:00:27Z</time>
      </trkpt>
      <trkpt lat="47.757252" lon="12.945142">
        <ele>489.80</ele>
        <time>2012-11-04T12:00:30Z</time>
      </trkpt>
      <trkpt lat="47.757343" lon="12.945146">
        <ele>489.80</ele>
        <time>2012-11-04T12:00:32Z</time>
      </trkpt>
      <trkpt lat="47.757526" lon="12.945130">
        <ele>489.40</ele>
        <time>2012-11-04T12:00:36Z</time>
      </trkpt>
      <trkpt lat="47.757568" lon="12.945135">
        <ele>489.00</ele>
        <time>2012-11-04T12:00:37Z</time>
      </trkpt>
      <trkpt lat="47.757610" lon="12.945139">
        <ele>488.60</ele>
        <time>2012-11-04T12:00:38Z</time>
      </trkpt>
      <trkpt lat="47.757652" lon="12.945144">
        <ele>488.20</ele>
        <time>2012-11-04T12:00:39Z</time>
      </trkpt>
      <trkpt lat="47.757690" lon="12.945148">
        <ele>487.80</ele>
        <time>2012-11-04T12:00:40Z</time>
      </trkpt>
      <trkpt lat="47.757782" lon="12.945163">
        <ele>487.80</ele>
        <time>2012-11-04T12:00:42Z</time>
      </trkpt>
      <trkpt lat="47.758102" lon="12.945210">
        <ele>487.80</ele>
        <time>2012-11-04T12:00:48Z</time>
      </trkpt>
      <trkpt lat="47.758221" lon="12.945215">
        <ele>487.80</ele>
        <time>2012-11-04T12:00:50Z</time>
      </trkpt>
      <trkpt lat="47.758408" lon="12.945211">
        <ele>487.20</ele>
        <time>2012-11-04T12:00:53Z</time>
      </trkpt>
      <trkpt lat="47.758472" lon="12.945220">
        <ele>486.80</ele>
        <time>2012-11-04T12:00:54Z</time>
      </trkpt>
      <trkpt lat="47.758530" lon="12.945227">
        <ele>486.40</ele>
        <time>2012-11-04T12:00:55Z</time>
      </trkpt>
      <trkpt lat="47.758579" lon="12.945236">
        <ele>486.00</ele>
        <time>2012-11-04T12:00:56Z</time>
      </trkpt>
      <trkpt lat="47.758633" lon="12.945244">
        <ele>485.60</ele>
        <time>2012-11-04T12:00:57Z</time>
      </trkpt>
      <trkpt lat="47.758682" lon="12.945251">
        <ele>485.60</ele>
        <time>2012-11-04T12:00:58Z</time>
      </trkpt>
      <trkpt lat="47.759117" lon="12.945354">
        <ele>485.60</ele>
        <time>2012-11-04T12:01:06Z</time>
      </trkpt>
      <trkpt lat="47.759220" lon="12.945398">
        <ele>485.60</ele>
        <time>2012-11-04T12:01:08Z</time>
      </trkpt>
      <trkpt lat="47.759399" lon="12.945496">
        <ele>485.60</ele>
        <time>2012-11-04T12:01:12Z</time>
      </trkpt>
      <trkpt lat="47.759491" lon="12.945530">
        <ele>485.60</ele>
        <time>2012-11-04T12:01:14Z</time>
      </trkpt>
      <trkpt lat="47.759666" lon="12.945602">
        <ele>485.60</ele>
        <time>2012-11-04T12:01:18Z</time>
      </trkpt>
      <trkpt lat="47.759827" lon="12.945683">
        <ele>485.60</ele>
        <time>2012-11-04T12:01:22Z</time>
      </trkpt>
      <trkpt lat="47.760025" lon="12.945804">
        <ele>486.00</ele>
        <time>2012-11-04T12:01:27Z</time>
      </trkpt>
      <trkpt lat="47.760063" lon="12.945835">
        <ele>486.40</ele>
        <time>2012-11-04T12:01:28Z</time>
      </trkpt>
      <trkpt lat="47.760105" lon="12.945868">
        <ele>486.80</ele>
        <time>2012-11-04T12:01:29Z</time>
      </trkpt>
      <trkpt lat="47.760147" lon="12.945902">
        <ele>487.60</ele>
        <time>2012-11-04T12:01:30Z</time>
      </trkpt>
      <trkpt lat="47.760426" lon="12.946143">
        <ele>487.60</ele>
        <time>2012-11-04T12:01:37Z</time>
      </trkpt>
      <trkpt lat="47.760685" lon="12.946374">
        <ele>487.60</ele>
        <time>2012-11-04T12:01:43Z</time>
      </trkpt>
      <trkpt lat="47.760822" lon="12.946496">
        <ele>487.60</ele>
        <time>2012-11-04T12:01:46Z</time>
      </trkpt>
      <trkpt lat="47.761227" lon="12.946863">
        <ele>487.60</ele>
        <time>2012-11-04T12:01:55Z</time>
      </trkpt>
      <trkpt lat="47.761364" lon="12.946981">
        <ele>487.60</ele>
        <time>2012-11-04T12:01:58Z</time>
      </trkpt>
      <trkpt lat="47.761452" lon="12.947061">
        <ele>487.20</ele>
        <time>2012-11-04T12:02:00Z</time>
      </trkpt>
      <trkpt lat="47.761497" lon="12.947103">
        <ele>486.80</ele>
        <time>2012-11-04T12:02:01Z</time>
      </trkpt>
      <trkpt lat="47.761539" lon="12.947143">
        <ele>486.40</ele>
        <time>2012-11-04T12:02:02Z</time>
      </trkpt>
      <trkpt lat="47.761585" lon="12.947183">
        <ele>486.00</ele>
        <time>2012-11-04T12:02:03Z</time>
      </trkpt>
      <trkpt lat="47.761627" lon="12.947224">
        <ele>485.60</ele>
        <time>2012-11-04T12:02:04Z</time>
      </trkpt>
      <trkpt lat="47.761745" lon="12.947356">
        <ele>485.60</ele>
        <time>2012-11-04T12:02:07Z</time>
      </trkpt>
      <trkpt lat="47.761784" lon="12.947393">
        <ele>485.60</ele>
        <time>2012-11-04T12:02:08Z</time>
      </trkpt>
      <trkpt lat="47.761826" lon="12.947426">
        <ele>485.60</ele>
        <time>2012-11-04T12:02:09Z</time>
      </trkpt>
      <trkpt lat="47.761871" lon="12.947456">
        <ele>485.20</ele>
        <time>2012-11-04T12:02:10Z</time>
      </trkpt>
      <trkpt lat="47.761917" lon="12.947491">
        <ele>484.80</ele>
        <time>2012-11-04T12:02:11Z</time>
      </trkpt>
      <trkpt lat="47.761963" lon="12.947534">
        <ele>484.40</ele>
        <time>2012-11-04T12:02:12Z</time>
      </trkpt>
      <trkpt lat="47.762009" lon="12.947578">
        <ele>484.00</ele>
        <time>2012-11-04T12:02:13Z</time>
      </trkpt>
      <trkpt lat="47.762058" lon="12.947624">
        <ele>483.40</ele>
        <time>2012-11-04T12:02:14Z</time>
      </trkpt>
      <trkpt lat="47.762150" lon="12.947707">
        <ele>483.40</ele>
        <time>2012-11-04T12:02:16Z</time>
      </trkpt>
      <trkpt lat="47.762249" lon="12.947735">
        <ele>483.40</ele>
        <time>2012-11-04T12:02:18Z</time>
      </trkpt>
      <trkpt lat="47.762352" lon="12.947755">
        <ele>483.00</ele>
        <time>2012-11-04T12:02:20Z</time>
      </trkpt>
      <trkpt lat="47.762398" lon="12.947792">
        <ele>482.60</ele>
        <time>2012-11-04T12:02:21Z</time>
      </trkpt>
      <trkpt lat="47.762436" lon="12.947835">
        <ele>482.20</ele>
        <time>2012-11-04T12:02:22Z</time>
      </trkpt>
      <trkpt lat="47.762478" lon="12.947882">
        <ele>481.80</ele>
        <time>2012-11-04T12:02:23Z</time>
      </trkpt>
      <trkpt lat="47.762520" lon="12.947932">
        <ele>481.40</ele>
        <time>2012-11-04T12:02:24Z</time>
      </trkpt>
      <trkpt lat="47.762672" lon="12.948116">
        <ele>481.40</ele>
        <time>2012-11-04T12:02:28Z</time>
      </trkpt>
      <trkpt lat="47.762905" lon="12.948423">
        <ele>481.40</ele>
        <time>2012-11-04T12:02:34Z</time>
      </trkpt>
      <trkpt lat="47.763241" lon="12.948862">
        <ele>481.40</ele>
        <time>2012-11-04T12:02:43Z</time>
      </trkpt>
      <trkpt lat="47.763275" lon="12.948911">
        <ele>480.60</ele>
        <time>2012-11-04T12:02:44Z</time>
      </trkpt>
      <trkpt lat="47.763309" lon="12.948963">
        <ele>480.20</ele>
        <time>2012-11-04T12:02:45Z</time>
      </trkpt>
      <trkpt lat="47.763348" lon="12.949014">
        <ele>479.80</ele>
        <time>2012-11-04T12:02:46Z</time>
      </trkpt>
      <trkpt lat="47.763390" lon="12.949068">
        <ele>479.40</ele>
        <time>2012-11-04T12:02:47Z</time>
      </trkpt>
      <trkpt lat="47.763508" lon="12.949226">
        <ele>479.40</ele>
        <time>2012-11-04T12:02:50Z</time>
      </trkpt>
      <trkpt lat="47.763729" lon="12.949562">
        <ele>479.40</ele>
        <time>2012-11-04T12:02:56Z</time>
      </trkpt>
      <trkpt lat="47.763916" lon="12.949848">
        <ele>479.40</ele>
        <time>2012-11-04T12:03:01Z</time>
      </trkpt>
      <trkpt lat="47.764004" lon="12.949956">
        <ele>479.40</ele>
        <time>2012-11-04T12:03:03Z</time>
      </trkpt>
      <trkpt lat="47.764259" lon="12.950292">
        <ele>479.40</ele>
        <time>2012-11-04T12:03:09Z</time>
      </trkpt>
      <trkpt lat="47.764469" lon="12.950569">
        <ele>479.00</ele>
        <time>2012-11-04T12:03:14Z</time>
      </trkpt>
      <trkpt lat="47.764519" lon="12.950630">
        <ele>478.60</ele>
        <time>2012-11-04T12:03:15Z</time>
      </trkpt>
      <trkpt lat="47.764565" lon="12.950689">
        <ele>478.20</ele>
        <time>2012-11-04T12:03:16Z</time>
      </trkpt>
      <trkpt lat="47.764606" lon="12.950749">
        <ele>477.80</ele>
        <time>2012-11-04T12:03:17Z</time>
      </trkpt>
      <trkpt lat="47.764652" lon="12.950802">
        <ele>477.40</ele>
        <time>2012-11-04T12:03:18Z</time>
      </trkpt>
      <trkpt lat="47.764782" lon="12.950957">
        <ele>477.40</ele>
        <time>2012-11-04T12:03:21Z</time>
      </trkpt>
      <trkpt lat="47.765038" lon="12.951256">
        <ele>477.00</ele>
        <time>2012-11-04T12:03:26Z</time>
      </trkpt>
      <trkpt lat="47.765091" lon="12.951317">
        <ele>476.60</ele>
        <time>2012-11-04T12:03:27Z</time>
      </trkpt>
      <trkpt lat="47.765144" lon="12.951377">
        <ele>476.20</ele>
        <time>2012-11-04T12:03:28Z</time>
      </trkpt>
      <trkpt lat="47.765198" lon="12.951438">
        <ele>475.80</ele>
        <time>2012-11-04T12:03:29Z</time>
      </trkpt>
      <trkpt lat="47.765255" lon="12.951505">
        <ele>475.40</ele>
        <time>2012-11-04T12:03:30Z</time>
      </trkpt>
      <trkpt lat="47.765419" lon="12.951715">
        <ele>474.80</ele>
        <time>2012-11-04T12:03:33Z</time>
      </trkpt>
      <trkpt lat="47.765480" lon="12.951789">
        <ele>474.40</ele>
        <time>2012-11-04T12:03:34Z</time>
      </trkpt>
      <trkpt lat="47.765549" lon="12.951865">
        <ele>474.00</ele>
        <time>2012-11-04T12:03:35Z</time>
      </trkpt>
      <trkpt lat="47.765617" lon="12.951943">
        <ele>473.60</ele>
        <time>2012-11-04T12:03:36Z</time>
      </trkpt>
      <trkpt lat="47.765686" lon="12.952025">
        <ele>473.20</ele>
        <time>2012-11-04T12:03:37Z</time>
      </trkpt>
      <trkpt lat="47.765751" lon="12.952096">
        <ele>472.60</ele>
        <time>2012-11-04T12:03:38Z</time>
      </trkpt>
      <trkpt lat="47.765820" lon="12.952168">
        <ele>472.20</ele>
        <time>2012-11-04T12:03:39Z</time>
      </trkpt>
      <trkpt lat="47.765884" lon="12.952241">
        <ele>471.80</ele>
        <time>2012-11-04T12:03:40Z</time>
      </trkpt>
      <trkpt lat="47.765953" lon="12.952323">
        <ele>471.40</ele>
        <time>2012-11-04T12:03:41Z</time>
      </trkpt>
      <trkpt lat="47.766022" lon="12.952405">
        <ele>471.00</ele>
        <time>2012-11-04T12:03:42Z</time>
      </trkpt>
      <trkpt lat="47.766167" lon="12.952568">
        <ele>470.60</ele>
        <time>2012-11-04T12:03:44Z</time>
      </trkpt>
      <trkpt lat="47.766243" lon="12.952655">
        <ele>470.00</ele>
        <time>2012-11-04T12:03:45Z</time>
      </trkpt>
      <trkpt lat="47.766315" lon="12.952737">
        <ele>469.60</ele>
        <time>2012-11-04T12:03:46Z</time>
      </trkpt>
      <trkpt lat="47.766392" lon="12.952823">
        <ele>469.20</ele>
        <time>2012-11-04T12:03:47Z</time>
      </trkpt>
      <trkpt lat="47.766468" lon="12.952909">
        <ele>468.60</ele>
        <time>2012-11-04T12:03:48Z</time>
      </trkpt>
      <trkpt lat="47.766544" lon="12.952994">
        <ele>468.20</ele>
        <time>2012-11-04T12:03:49Z</time>
      </trkpt>
      <trkpt lat="47.766621" lon="12.953082">
        <ele>467.80</ele>
        <time>2012-11-04T12:03:50Z</time>
      </trkpt>
      <trkpt lat="47.766697" lon="12.953172">
        <ele>467.40</ele>
        <time>2012-11-04T12:03:51Z</time>
      </trkpt>
      <trkpt lat="47.766773" lon="12.953263">
        <ele>466.80</ele>
        <time>2012-11-04T12:03:52Z</time>
      </trkpt>
      <trkpt lat="47.766853" lon="12.953358">
        <ele>466.40</ele>
        <time>2012-11-04T12:03:53Z</time>
      </trkpt>
      <trkpt lat="47.766937" lon="12.953444">
        <ele>465.80</ele>
        <time>2012-11-04T12:03:54Z</time>
      </trkpt>
      <trkpt lat="47.767014" lon="12.953528">
        <ele>465.40</ele>
        <time>2012-11-04T12:03:55Z</time>
      </trkpt>
      <trkpt lat="47.767090" lon="12.953613">
        <ele>465.00</ele>
        <time>2012-11-04T12:03:56Z</time>
      </trkpt>
      <trkpt lat="47.767159" lon="12.953691">
        <ele>464.40</ele>
        <time>2012-11-04T12:03:57Z</time>
      </trkpt>
      <trkpt lat="47.767220" lon="12.953765">
        <ele>463.00</ele>
        <time>2012-11-04T12:03:58Z</time>
      </trkpt>
      <trkpt lat="47.767277" lon="12.953833">
        <ele>462.40</ele>
        <time>2012-11-04T12:03:59Z</time>
      </trkpt>
      <trkpt lat="47.767334" lon="12.953902">
        <ele>461.60</ele>
        <time>2012-11-04T12:04:00Z</time>
      </trkpt>
      <trkpt lat="47.767380" lon="12.953961">
        <ele>460.80</ele>
        <time>2012-11-04T12:04:01Z</time>
      </trkpt>
      <trkpt lat="47.767426" lon="12.954014">
        <ele>460.00</ele>
        <time>2012-11-04T12:04:02Z</time>
      </trkpt>
      <trkpt lat="47.767467" lon="12.954062">
        <ele>459.20</ele>
        <time>2012-11-04T12:04:03Z</time>
      </trkpt>
      <trkpt lat="47.767506" lon="12.954107">
        <ele>458.60</ele>
        <time>2012-11-04T12:04:04Z</time>
      </trkpt>
      <trkpt lat="47.767551" lon="12.954150">
        <ele>457.80</ele>
        <time>2012-11-04T12:04:05Z</time>
      </trkpt>
      <trkpt lat="47.767597" lon="12.954188">
        <ele>457.40</ele>
        <time>2012-11-04T12:04:06Z</time>
      </trkpt>
      <trkpt lat="47.767643" lon="12.954229">
        <ele>457.00</ele>
        <time>2012-11-04T12:04:07Z</time>
      </trkpt>
      <trkpt lat="47.767689" lon="12.954273">
        <ele>456.40</ele>
        <time>2012-11-04T12:04:08Z</time>
      </trkpt>
      <trkpt lat="47.767731" lon="12.954320">
        <ele>456.00</ele>
        <time>2012-11-04T12:04:09Z</time>
      </trkpt>
      <trkpt lat="47.767776" lon="12.954365">
        <ele>455.60</ele>
        <time>2012-11-04T12:04:10Z</time>
      </trkpt>
      <trkpt lat="47.767822" lon="12.954408">
        <ele>455.60</ele>
        <time>2012-11-04T12:04:11Z</time>
      </trkpt>
      <trkpt lat="47.767864" lon="12.954448">
        <ele>455.20</ele>
        <time>2012-11-04T12:04:12Z</time>
      </trkpt>
      <trkpt lat="47.767891" lon="12.954488">
        <ele>454.80</ele>
        <time>2012-11-04T12:04:13Z</time>
      </trkpt>
      <trkpt lat="47.767910" lon="12.954530">
        <ele>454.40</ele>
        <time>2012-11-04T12:04:14Z</time>
      </trkpt>
      <trkpt lat="47.767925" lon="12.954578">
        <ele>454.00</ele>
        <time>2012-11-04T12:04:15Z</time>
      </trkpt>
      <trkpt lat="47.767925" lon="12.954626">
        <ele>453.60</ele>
        <time>2012-11-04T12:04:16Z</time>
      </trkpt>
      <trkpt lat="47.767929" lon="12.954668">
        <ele>453.60</ele>
        <time>2012-11-04T12:04:17Z</time>
      </trkpt>
      <trkpt lat="47.767925" lon="12.954712">
        <ele>453.60</ele>
        <time>2012-11-04T12:04:18Z</time>
      </trkpt>
      <trkpt lat="47.767857" lon="12.954899">
        <ele>453.60</ele>
        <time>2012-11-04T12:04:22Z</time>
      </trkpt>
      <trkpt lat="47.767727" lon="12.955252">
        <ele>453.60</ele>
        <time>2012-11-04T12:04:29Z</time>
      </trkpt>
      <trkpt lat="47.767567" lon="12.955667">
        <ele>453.20</ele>
        <time>2012-11-04T12:04:36Z</time>
      </trkpt>
      <trkpt lat="47.767548" lon="12.955730">
        <ele>452.80</ele>
        <time>2012-11-04T12:04:37Z</time>
      </trkpt>
      <trkpt lat="47.767525" lon="12.955796">
        <ele>452.20</ele>
        <time>2012-11-04T12:04:38Z</time>
      </trkpt>
      <trkpt lat="47.767498" lon="12.955869">
        <ele>451.80</ele>
        <time>2012-11-04T12:04:39Z</time>
      </trkpt>
      <trkpt lat="47.767475" lon="12.955939">
        <ele>451.40</ele>
        <time>2012-11-04T12:04:40Z</time>
      </trkpt>
      <trkpt lat="47.767418" lon="12.956160">
        <ele>451.40</ele>
        <time>2012-11-04T12:04:43Z</time>
      </trkpt>
      <trkpt lat="47.767414" lon="12.956233">
        <ele>451.00</ele>
        <time>2012-11-04T12:04:44Z</time>
      </trkpt>
      <trkpt lat="47.767418" lon="12.956304">
        <ele>450.40</ele>
        <time>2012-11-04T12:04:45Z</time>
      </trkpt>
      <trkpt lat="47.767441" lon="12.956377">
        <ele>450.00</ele>
        <time>2012-11-04T12:04:46Z</time>
      </trkpt>
      <trkpt lat="47.767475" lon="12.956446">
        <ele>449.00</ele>
        <time>2012-11-04T12:04:47Z</time>
      </trkpt>
      <trkpt lat="47.767548" lon="12.956572">
        <ele>449.00</ele>
        <time>2012-11-04T12:04:49Z</time>
      </trkpt>
      <trkpt lat="47.767586" lon="12.956635">
        <ele>448.60</ele>
        <time>2012-11-04T12:04:50Z</time>
      </trkpt>
      <trkpt lat="47.767624" lon="12.956700">
        <ele>448.20</ele>
        <time>2012-11-04T12:04:51Z</time>
      </trkpt>
      <trkpt lat="47.767658" lon="12.956766">
        <ele>447.80</ele>
        <time>2012-11-04T12:04:52Z</time>
      </trkpt>
      <trkpt lat="47.767696" lon="12.956832">
        <ele>447.40</ele>
        <time>2012-11-04T12:04:53Z</time>
      </trkpt>
      <trkpt lat="47.767731" lon="12.956894">
        <ele>447.00</ele>
        <time>2012-11-04T12:04:54Z</time>
      </trkpt>
      <trkpt lat="47.767902" lon="12.957193">
        <ele>447.00</ele>
        <time>2012-11-04T12:04:59Z</time>
      </trkpt>
      <trkpt lat="47.767937" lon="12.957256">
        <ele>447.00</ele>
        <time>2012-11-04T12:05:00Z</time>
      </trkpt>
      <trkpt lat="47.768032" lon="12.957415">
        <ele>447.00</ele>
        <time>2012-11-04T12:05:03Z</time>
      </trkpt>
      <trkpt lat="47.768097" lon="12.957521">
        <ele>447.00</ele>
        <time>2012-11-04T12:05:05Z</time>
      </trkpt>
      <trkpt lat="47.768204" lon="12.957692">
        <ele>447.00</ele>
        <time>2012-11-04T12:05:08Z</time>
      </trkpt>
      <trkpt lat="47.768326" lon="12.957954">
        <ele>447.00</ele>
        <time>2012-11-04T12:05:12Z</time>
      </trkpt>
      <trkpt lat="47.768482" lon="12.958464">
        <ele>447.00</ele>
        <time>2012-11-04T12:05:19Z</time>
      </trkpt>
      <trkpt lat="47.768536" lon="12.958752">
        <ele>447.00</ele>
        <time>2012-11-04T12:05:23Z</time>
      </trkpt>
      <trkpt lat="47.768543" lon="12.958899">
        <ele>447.00</ele>
        <time>2012-11-04T12:05:25Z</time>
      </trkpt>
      <trkpt lat="47.768482" lon="12.959186">
        <ele>447.00</ele>
        <time>2012-11-04T12:05:29Z</time>
      </trkpt>
      <trkpt lat="47.768322" lon="12.959567">
        <ele>447.00</ele>
        <time>2012-11-04T12:05:35Z</time>
      </trkpt>
      <trkpt lat="47.768127" lon="12.959996">
        <ele>447.00</ele>
        <time>2012-11-04T12:05:42Z</time>
      </trkpt>
      <trkpt lat="47.768078" lon="12.960128">
        <ele>447.00</ele>
        <time>2012-11-04T12:05:44Z</time>
      </trkpt>
      <trkpt lat="47.767948" lon="12.960526">
        <ele>447.00</ele>
        <time>2012-11-04T12:05:50Z</time>
      </trkpt>
      <trkpt lat="47.767910" lon="12.960662">
        <ele>447.00</ele>
        <time>2012-11-04T12:05:52Z</time>
      </trkpt>
      <trkpt lat="47.767784" lon="12.961105">
        <ele>447.00</ele>
        <time>2012-11-04T12:05:59Z</time>
      </trkpt>
      <trkpt lat="47.767704" lon="12.961389">
        <ele>447.00</ele>
        <time>2012-11-04T12:06:04Z</time>
      </trkpt>
      <trkpt lat="47.767685" lon="12.961445">
        <ele>447.00</ele>
        <time>2012-11-04T12:06:05Z</time>
      </trkpt>
      <trkpt lat="47.767570" lon="12.961797">
        <ele>447.00</ele>
        <time>2012-11-04T12:06:11Z</time>
      </trkpt>
      <trkpt lat="47.767483" lon="12.962115">
        <ele>447.00</ele>
        <time>2012-11-04T12:06:17Z</time>
      </trkpt>
      <trkpt lat="47.767395" lon="12.962529">
        <ele>447.00</ele>
        <time>2012-11-04T12:06:23Z</time>
      </trkpt>
      <trkpt lat="47.767330" lon="12.962757">
        <ele>447.00</ele>
        <time>2012-11-04T12:06:26Z</time>
      </trkpt>
      <trkpt lat="47.767311" lon="12.962823">
        <ele>447.00</ele>
        <time>2012-11-04T12:06:27Z</time>
      </trkpt>
      <trkpt lat="47.767284" lon="12.962966">
        <ele>447.00</ele>
        <time>2012-11-04T12:06:29Z</time>
      </trkpt>
      <trkpt lat="47.767281" lon="12.963196">
        <ele>447.00</ele>
        <time>2012-11-04T12:06:32Z</time>
      </trkpt>
      <trkpt lat="47.767334" lon="12.963502">
        <ele>446.60</ele>
        <time>2012-11-04T12:06:36Z</time>
      </trkpt>
      <trkpt lat="47.767361" lon="12.963581">
        <ele>446.20</ele>
        <time>2012-11-04T12:06:37Z</time>
      </trkpt>
      <trkpt lat="47.767384" lon="12.963663">
        <ele>445.80</ele>
        <time>2012-11-04T12:06:38Z</time>
      </trkpt>
      <trkpt lat="47.767406" lon="12.963747">
        <ele>445.40</ele>
        <time>2012-11-04T12:06:39Z</time>
      </trkpt>
      <trkpt lat="47.767422" lon="12.963828">
        <ele>445.00</ele>
        <time>2012-11-04T12:06:40Z</time>
      </trkpt>
      <trkpt lat="47.767452" lon="12.964074">
        <ele>445.00</ele>
        <time>2012-11-04T12:06:43Z</time>
      </trkpt>
      <trkpt lat="47.767456" lon="12.964154">
        <ele>445.00</ele>
        <time>2012-11-04T12:06:44Z</time>
      </trkpt>
      <trkpt lat="47.767448" lon="12.964314">
        <ele>445.00</ele>
        <time>2012-11-04T12:06:46Z</time>
      </trkpt>
      <trkpt lat="47.767403" lon="12.964617">
        <ele>445.00</ele>
        <time>2012-11-04T12:06:50Z</time>
      </trkpt>
      <trkpt lat="47.767380" lon="12.964693">
        <ele>445.00</ele>
        <time>2012-11-04T12:06:51Z</time>
      </trkpt>
      <trkpt lat="47.767338" lon="12.964831">
        <ele>445.00</ele>
        <time>2012-11-04T12:06:53Z</time>
      </trkpt>
      <trkpt lat="47.767277" lon="12.964953">
        <ele>445.00</ele>
        <time>2012-11-04T12:06:55Z</time>
      </trkpt>
      <trkpt lat="47.767242" lon="12.965011">
        <ele>445.00</ele>
        <time>2012-11-04T12:06:56Z</time>
      </trkpt>
      <trkpt lat="47.767086" lon="12.965220">
        <ele>445.00</ele>
        <time>2012-11-04T12:07:00Z</time>
      </trkpt>
      <trkpt lat="47.766773" lon="12.965528">
        <ele>445.00</ele>
        <time>2012-11-04T12:07:07Z</time>
      </trkpt>
      <trkpt lat="47.766483" lon="12.965878">
        <ele>445.00</ele>
        <time>2012-11-04T12:07:15Z</time>
      </trkpt>
      <trkpt lat="47.766457" lon="12.965931">
        <ele>445.00</ele>
        <time>2012-11-04T12:07:16Z</time>
      </trkpt>
      <trkpt lat="47.766376" lon="12.966149">
        <ele>445.00</ele>
        <time>2012-11-04T12:07:20Z</time>
      </trkpt>
      <trkpt lat="47.766380" lon="12.966363">
        <ele>445.00</ele>
        <time>2012-11-04T12:07:24Z</time>
      </trkpt>
      <trkpt lat="47.766491" lon="12.966441">
        <ele>445.00</ele>
        <time>2012-11-04T12:07:27Z</time>
      </trkpt>
      <trkpt lat="47.766537" lon="12.966443">
        <ele>445.00</ele>
        <time>2012-11-04T12:07:28Z</time>
      </trkpt>
      <trkpt lat="47.766811" lon="12.966474">
        <ele>445.00</ele>
        <time>2012-11-04T12:07:34Z</time>
      </trkpt>
      <trkpt lat="47.767170" lon="12.966492">
        <ele>445.00</ele>
        <time>2012-11-04T12:07:41Z</time>
      </trkpt>
      <trkpt lat="47.767265" lon="12.966511">
        <ele>445.00</ele>
        <time>2012-11-04T12:07:43Z</time>
      </trkpt>
      <trkpt lat="47.767391" lon="12.966616">
        <ele>445.00</ele>
        <time>2012-11-04T12:07:46Z</time>
      </trkpt>
      <trkpt lat="47.767467" lon="12.966854">
        <ele>445.00</ele>
        <time>2012-11-04T12:07:50Z</time>
      </trkpt>
      <trkpt lat="47.767574" lon="12.967276">
        <ele>445.00</ele>
        <time>2012-11-04T12:07:57Z</time>
      </trkpt>
      <trkpt lat="47.767727" lon="12.967815">
        <ele>445.00</ele>
        <time>2012-11-04T12:08:05Z</time>
      </trkpt>
      <trkpt lat="47.767860" lon="12.968255">
        <ele>445.00</ele>
        <time>2012-11-04T12:08:12Z</time>
      </trkpt>
      <trkpt lat="47.768013" lon="12.968777">
        <ele>445.00</ele>
        <time>2012-11-04T12:08:20Z</time>
      </trkpt>
      <trkpt lat="47.768166" lon="12.969254">
        <ele>445.00</ele>
        <time>2012-11-04T12:08:27Z</time>
      </trkpt>
      <trkpt lat="47.768322" lon="12.969740">
        <ele>445.00</ele>
        <time>2012-11-04T12:08:34Z</time>
      </trkpt>
      <trkpt lat="47.768463" lon="12.970137">
        <ele>444.60</ele>
        <time>2012-11-04T12:08:41Z</time>
      </trkpt>
      <trkpt lat="47.768475" lon="12.970167">
        <ele>444.20</ele>
        <time>2012-11-04T12:08:42Z</time>
      </trkpt>
      <trkpt lat="47.768482" lon="12.970194">
        <ele>443.80</ele>
        <time>2012-11-04T12:08:43Z</time>
      </trkpt>
      <trkpt lat="47.768494" lon="12.970220">
        <ele>443.40</ele>
        <time>2012-11-04T12:08:44Z</time>
      </trkpt>
      <trkpt lat="47.768501" lon="12.970245">
        <ele>443.00</ele>
        <time>2012-11-04T12:08:45Z</time>
      </trkpt>
      <trkpt lat="47.768528" lon="12.970316">
        <ele>443.00</ele>
        <time>2012-11-04T12:08:47Z</time>
      </trkpt>
      <trkpt lat="47.768600" lon="12.970551">
        <ele>443.00</ele>
        <time>2012-11-04T12:08:52Z</time>
      </trkpt>
      <trkpt lat="47.768635" lon="12.970663">
        <ele>443.00</ele>
        <time>2012-11-04T12:08:54Z</time>
      </trkpt>
      <trkpt lat="47.768677" lon="12.970771">
        <ele>443.00</ele>
        <time>2012-11-04T12:08:56Z</time>
      </trkpt>
      <trkpt lat="47.768764" lon="12.970897">
        <ele>443.00</ele>
        <time>2012-11-04T12:08:59Z</time>
      </trkpt>
      <trkpt lat="47.768822" lon="12.970944">
        <ele>443.00</ele>
        <time>2012-11-04T12:09:01Z</time>
      </trkpt>
      <trkpt lat="47.768913" lon="12.971000">
        <ele>443.00</ele>
        <time>2012-11-04T12:09:04Z</time>
      </trkpt>
      <trkpt lat="47.769112" lon="12.970998">
        <ele>443.00</ele>
        <time>2012-11-04T12:09:10Z</time>
      </trkpt>
      <trkpt lat="47.769337" lon="12.970885">
        <ele>443.00</ele>
        <time>2012-11-04T12:09:17Z</time>
      </trkpt>
      <trkpt lat="47.769501" lon="12.970757">
        <ele>442.60</ele>
        <time>2012-11-04T12:09:22Z</time>
      </trkpt>
      <trkpt lat="47.769531" lon="12.970729">
        <ele>442.20</ele>
        <time>2012-11-04T12:09:23Z</time>
      </trkpt>
      <trkpt lat="47.769558" lon="12.970701">
        <ele>441.60</ele>
        <time>2012-11-04T12:09:24Z</time>
      </trkpt>
      <trkpt lat="47.769836" lon="12.970553">
        <ele>440.80</ele>
        <time>2012-11-04T12:09:31Z</time>
      </trkpt>
      <trkpt lat="47.770092" lon="12.970428">
        <ele>440.80</ele>
        <time>2012-11-04T12:09:37Z</time>
      </trkpt>
      <trkpt lat="47.770252" lon="12.970311">
        <ele>440.80</ele>
        <time>2012-11-04T12:09:41Z</time>
      </trkpt>
      <trkpt lat="47.770332" lon="12.970270">
        <ele>440.80</ele>
        <time>2012-11-04T12:09:43Z</time>
      </trkpt>
      <trkpt lat="47.770481" lon="12.970215">
        <ele>440.80</ele>
        <time>2012-11-04T12:09:46Z</time>
      </trkpt>
      <trkpt lat="47.770741" lon="12.970126">
        <ele>440.80</ele>
        <time>2012-11-04T12:09:52Z</time>
      </trkpt>
      <trkpt lat="47.770779" lon="12.970116">
        <ele>441.40</ele>
        <time>2012-11-04T12:09:53Z</time>
      </trkpt>
      <trkpt lat="47.770817" lon="12.970106">
        <ele>441.80</ele>
        <time>2012-11-04T12:09:54Z</time>
      </trkpt>
      <trkpt lat="47.770859" lon="12.970090">
        <ele>442.20</ele>
        <time>2012-11-04T12:09:55Z</time>
      </trkpt>
      <trkpt lat="47.770897" lon="12.970076">
        <ele>442.60</ele>
        <time>2012-11-04T12:09:56Z</time>
      </trkpt>
      <trkpt lat="47.770935" lon="12.970060">
        <ele>443.00</ele>
        <time>2012-11-04T12:09:57Z</time>
      </trkpt>
      <trkpt lat="47.771038" lon="12.970026">
        <ele>443.00</ele>
        <time>2012-11-04T12:10:00Z</time>
      </trkpt>
      <trkpt lat="47.771248" lon="12.970068">
        <ele>443.00</ele>
        <time>2012-11-04T12:10:06Z</time>
      </trkpt>
      <trkpt lat="47.771446" lon="12.970211">
        <ele>443.00</ele>
        <time>2012-11-04T12:10:12Z</time>
      </trkpt>
      <trkpt lat="47.771709" lon="12.970421">
        <ele>443.00</ele>
        <time>2012-11-04T12:10:19Z</time>
      </trkpt>
      <trkpt lat="47.771748" lon="12.970448">
        <ele>443.00</ele>
        <time>2012-11-04T12:10:20Z</time>
      </trkpt>
      <trkpt lat="47.772015" lon="12.970683">
        <ele>443.00</ele>
        <time>2012-11-04T12:10:27Z</time>
      </trkpt>
      <trkpt lat="47.772099" lon="12.970766">
        <ele>443.00</ele>
        <time>2012-11-04T12:10:29Z</time>
      </trkpt>
      <trkpt lat="47.772175" lon="12.970845">
        <ele>443.40</ele>
        <time>2012-11-04T12:10:31Z</time>
      </trkpt>
      <trkpt lat="47.772209" lon="12.970885">
        <ele>443.80</ele>
        <time>2012-11-04T12:10:32Z</time>
      </trkpt>
      <trkpt lat="47.772247" lon="12.970919">
        <ele>444.60</ele>
        <time>2012-11-04T12:10:33Z</time>
      </trkpt>
      <trkpt lat="47.772282" lon="12.970949">
        <ele>445.00</ele>
        <time>2012-11-04T12:10:34Z</time>
      </trkpt>
      <trkpt lat="47.772320" lon="12.970975">
        <ele>445.00</ele>
        <time>2012-11-04T12:10:35Z</time>
      </trkpt>
      <trkpt lat="47.772514" lon="12.971148">
        <ele>445.00</ele>
        <time>2012-11-04T12:10:41Z</time>
      </trkpt>
      <trkpt lat="47.772766" lon="12.971383">
        <ele>445.00</ele>
        <time>2012-11-04T12:10:48Z</time>
      </trkpt>
      <trkpt lat="47.773102" lon="12.971661">
        <ele>445.00</ele>
        <time>2012-11-04T12:10:56Z</time>
      </trkpt>
      <trkpt lat="47.773190" lon="12.971710">
        <ele>445.00</ele>
        <time>2012-11-04T12:10:58Z</time>
      </trkpt>
      <trkpt lat="47.773357" lon="12.971798">
        <ele>445.00</ele>
        <time>2012-11-04T12:11:02Z</time>
      </trkpt>
      <trkpt lat="47.773441" lon="12.971844">
        <ele>445.00</ele>
        <time>2012-11-04T12:11:04Z</time>
      </trkpt>
      <trkpt lat="47.773613" lon="12.971916">
        <ele>445.00</ele>
        <time>2012-11-04T12:11:08Z</time>
      </trkpt>
      <trkpt lat="47.773819" lon="12.972031">
        <ele>445.00</ele>
        <time>2012-11-04T12:11:13Z</time>
      </trkpt>
      <trkpt lat="47.774029" lon="12.972135">
        <ele>445.00</ele>
        <time>2012-11-04T12:11:18Z</time>
      </trkpt>
      <trkpt lat="47.774193" lon="12.972215">
        <ele>445.00</ele>
        <time>2012-11-04T12:11:22Z</time>
      </trkpt>
      <trkpt lat="47.774380" lon="12.972310">
        <ele>445.00</ele>
        <time>2012-11-04T12:11:27Z</time>
      </trkpt>
      <trkpt lat="47.774452" lon="12.972364">
        <ele>445.00</ele>
        <time>2012-11-04T12:11:29Z</time>
      </trkpt>
      <trkpt lat="47.774586" lon="12.972487">
        <ele>445.00</ele>
        <time>2012-11-04T12:11:33Z</time>
      </trkpt>
      <trkpt lat="47.774704" lon="12.972574">
        <ele>445.00</ele>
        <time>2012-11-04T12:11:36Z</time>
      </trkpt>
      <trkpt lat="47.774834" lon="12.972640">
        <ele>445.00</ele>
        <time>2012-11-04T12:11:39Z</time>
      </trkpt>
      <trkpt lat="47.775139" lon="12.972799">
        <ele>445.00</ele>
        <time>2012-11-04T12:11:46Z</time>
      </trkpt>
      <trkpt lat="47.775547" lon="12.972963">
        <ele>445.00</ele>
        <time>2012-11-04T12:11:55Z</time>
      </trkpt>
      <trkpt lat="47.775864" lon="12.973119">
        <ele>445.00</ele>
        <time>2012-11-04T12:12:02Z</time>
      </trkpt>
      <trkpt lat="47.776138" lon="12.973279">
        <ele>445.00</ele>
        <time>2012-11-04T12:12:08Z</time>
      </trkpt>
      <trkpt lat="47.776222" lon="12.973352">
        <ele>445.00</ele>
        <time>2012-11-04T12:12:10Z</time>
      </trkpt>
      <trkpt lat="47.776421" lon="12.973514">
        <ele>445.00</ele>
        <time>2012-11-04T12:12:15Z</time>
      </trkpt>
      <trkpt lat="47.776493" lon="12.973589">
        <ele>445.00</ele>
        <time>2012-11-04T12:12:17Z</time>
      </trkpt>
      <trkpt lat="47.776524" lon="12.973634">
        <ele>445.00</ele>
        <time>2012-11-04T12:12:18Z</time>
      </trkpt>
      <trkpt lat="47.776608" lon="12.973820">
        <ele>444.60</ele>
        <time>2012-11-04T12:12:22Z</time>
      </trkpt>
      <trkpt lat="47.776623" lon="12.973859">
        <ele>444.20</ele>
        <time>2012-11-04T12:12:23Z</time>
      </trkpt>
      <trkpt lat="47.776634" lon="12.973895">
        <ele>443.80</ele>
        <time>2012-11-04T12:12:24Z</time>
      </trkpt>
      <trkpt lat="47.776646" lon="12.973934">
        <ele>443.40</ele>
        <time>2012-11-04T12:12:25Z</time>
      </trkpt>
      <trkpt lat="47.776661" lon="12.973975">
        <ele>443.00</ele>
        <time>2012-11-04T12:12:26Z</time>
      </trkpt>
      <trkpt lat="47.776703" lon="12.974076">
        <ele>443.00</ele>
        <time>2012-11-04T12:12:28Z</time>
      </trkpt>
      <trkpt lat="47.776726" lon="12.974128">
        <ele>443.00</ele>
        <time>2012-11-04T12:12:29Z</time>
      </trkpt>
      <trkpt lat="47.776855" lon="12.974429">
        <ele>443.00</ele>
        <time>2012-11-04T12:12:35Z</time>
      </trkpt>
      <trkpt lat="47.776932" lon="12.974586">
        <ele>443.00</ele>
        <time>2012-11-04T12:12:38Z</time>
      </trkpt>
      <trkpt lat="47.777061" lon="12.974863">
        <ele>443.00</ele>
        <time>2012-11-04T12:12:43Z</time>
      </trkpt>
      <trkpt lat="47.777134" lon="12.975037">
        <ele>443.00</ele>
        <time>2012-11-04T12:12:46Z</time>
      </trkpt>
      <trkpt lat="47.777290" lon="12.975508">
        <ele>443.00</ele>
        <time>2012-11-04T12:12:54Z</time>
      </trkpt>
      <trkpt lat="47.777458" lon="12.975893">
        <ele>443.00</ele>
        <time>2012-11-04T12:13:01Z</time>
      </trkpt>
      <trkpt lat="47.777657" lon="12.976071">
        <ele>443.00</ele>
        <time>2012-11-04T12:13:06Z</time>
      </trkpt>
      <trkpt lat="47.777699" lon="12.976097">
        <ele>443.00</ele>
        <time>2012-11-04T12:13:07Z</time>
      </trkpt>
      <trkpt lat="47.778015" lon="12.976230">
        <ele>443.00</ele>
        <time>2012-11-04T12:13:14Z</time>
      </trkpt>
      <trkpt lat="47.778423" lon="12.976395">
        <ele>443.00</ele>
        <time>2012-11-04T12:13:23Z</time>
      </trkpt>
      <trkpt lat="47.778694" lon="12.976519">
        <ele>443.00</ele>
        <time>2012-11-04T12:13:29Z</time>
      </trkpt>
      <trkpt lat="47.778881" lon="12.976634">
        <ele>443.00</ele>
        <time>2012-11-04T12:13:33Z</time>
      </trkpt>
      <trkpt lat="47.779171" lon="12.976880">
        <ele>443.00</ele>
        <time>2012-11-04T12:13:40Z</time>
      </trkpt>
      <trkpt lat="47.779480" lon="12.977249">
        <ele>443.00</ele>
        <time>2012-11-04T12:13:48Z</time>
      </trkpt>
      <trkpt lat="47.779675" lon="12.977586">
        <ele>443.00</ele>
        <time>2012-11-04T12:13:54Z</time>
      </trkpt>
      <trkpt lat="47.779736" lon="12.977703">
        <ele>443.00</ele>
        <time>2012-11-04T12:13:56Z</time>
      </trkpt>
      <trkpt lat="47.779816" lon="12.977882">
        <ele>443.00</ele>
        <time>2012-11-04T12:13:59Z</time>
      </trkpt>
      <trkpt lat="47.779842" lon="12.977943">
        <ele>443.00</ele>
        <time>2012-11-04T12:14:00Z</time>
      </trkpt>
      <trkpt lat="47.780037" lon="12.978414">
        <ele>443.00</ele>
        <time>2012-11-04T12:14:08Z</time>
      </trkpt>
      <trkpt lat="47.780281" lon="12.978918">
        <ele>443.00</ele>
        <time>2012-11-04T12:14:17Z</time>
      </trkpt>
      <trkpt lat="47.780357" lon="12.979023">
        <ele>443.00</ele>
        <time>2012-11-04T12:14:19Z</time>
      </trkpt>
      <trkpt lat="47.780560" lon="12.979209">
        <ele>443.00</ele>
        <time>2012-11-04T12:14:24Z</time>
      </trkpt>
      <trkpt lat="47.780769" lon="12.979321">
        <ele>443.00</ele>
        <time>2012-11-04T12:14:29Z</time>
      </trkpt>
      <trkpt lat="47.780849" lon="12.979374">
        <ele>443.00</ele>
        <time>2012-11-04T12:14:31Z</time>
      </trkpt>
      <trkpt lat="47.781250" lon="12.979650">
        <ele>443.00</ele>
        <time>2012-11-04T12:14:40Z</time>
      </trkpt>
      <trkpt lat="47.781387" lon="12.979796">
        <ele>443.00</ele>
        <time>2012-11-04T12:14:43Z</time>
      </trkpt>
      <trkpt lat="47.781414" lon="12.979870">
        <ele>443.00</ele>
        <time>2012-11-04T12:14:44Z</time>
      </trkpt>
      <trkpt lat="47.781506" lon="12.980282">
        <ele>443.00</ele>
        <time>2012-11-04T12:14:49Z</time>
      </trkpt>
      <trkpt lat="47.781551" lon="12.980527">
        <ele>443.00</ele>
        <time>2012-11-04T12:14:52Z</time>
      </trkpt>
      <trkpt lat="47.781590" lon="12.980673">
        <ele>443.00</ele>
        <time>2012-11-04T12:14:54Z</time>
      </trkpt>
      <trkpt lat="47.781673" lon="12.981114">
        <ele>443.00</ele>
        <time>2012-11-04T12:14:59Z</time>
      </trkpt>
      <trkpt lat="47.781689" lon="12.981277">
        <ele>443.00</ele>
        <time>2012-11-04T12:15:01Z</time>
      </trkpt>
      <trkpt lat="47.781757" lon="12.981778">
        <ele>443.00</ele>
        <time>2012-11-04T12:15:08Z</time>
      </trkpt>
      <trkpt lat="47.781815" lon="12.982223">
        <ele>443.00</ele>
        <time>2012-11-04T12:15:15Z</time>
      </trkpt>
      <trkpt lat="47.781818" lon="12.982284">
        <ele>443.00</ele>
        <time>2012-11-04T12:15:16Z</time>
      </trkpt>
      <trkpt lat="47.781837" lon="12.982400">
        <ele>443.00</ele>
        <time>2012-11-04T12:15:18Z</time>
      </trkpt>
      <trkpt lat="47.781879" lon="12.982577">
        <ele>443.00</ele>
        <time>2012-11-04T12:15:21Z</time>
      </trkpt>
      <trkpt lat="47.782013" lon="12.983081">
        <ele>443.00</ele>
        <time>2012-11-04T12:15:29Z</time>
      </trkpt>
      <trkpt lat="47.782124" lon="12.983442">
        <ele>443.00</ele>
        <time>2012-11-04T12:15:35Z</time>
      </trkpt>
      <trkpt lat="47.782261" lon="12.983893">
        <ele>443.00</ele>
        <time>2012-11-04T12:15:43Z</time>
      </trkpt>
      <trkpt lat="47.782444" lon="12.984517">
        <ele>443.00</ele>
        <time>2012-11-04T12:15:52Z</time>
      </trkpt>
      <trkpt lat="47.782516" lon="12.984787">
        <ele>443.00</ele>
        <time>2012-11-04T12:15:56Z</time>
      </trkpt>
      <trkpt lat="47.782562" lon="12.984927">
        <ele>443.00</ele>
        <time>2012-11-04T12:15:58Z</time>
      </trkpt>
      <trkpt lat="47.782677" lon="12.985346">
        <ele>443.00</ele>
        <time>2012-11-04T12:16:04Z</time>
      </trkpt>
      <trkpt lat="47.782681" lon="12.985412">
        <ele>443.00</ele>
        <time>2012-11-04T12:16:05Z</time>
      </trkpt>
      <trkpt lat="47.782631" lon="12.985514">
        <ele>443.00</ele>
        <time>2012-11-04T12:16:07Z</time>
      </trkpt>
      <trkpt lat="47.782505" lon="12.985477">
        <ele>443.00</ele>
        <time>2012-11-04T12:16:10Z</time>
      </trkpt>
      <trkpt lat="47.782471" lon="12.985453">
        <ele>443.00</ele>
        <time>2012-11-04T12:16:11Z</time>
      </trkpt>
      <trkpt lat="47.782352" lon="12.985391">
        <ele>443.00</ele>
        <time>2012-11-04T12:16:14Z</time>
      </trkpt>
      <trkpt lat="47.782276" lon="12.985381">
        <ele>443.00</ele>
        <time>2012-11-04T12:16:16Z</time>
      </trkpt>
      <trkpt lat="47.782196" lon="12.985389">
        <ele>443.00</ele>
        <time>2012-11-04T12:16:18Z</time>
      </trkpt>
      <trkpt lat="47.782070" lon="12.985452">
        <ele>443.00</ele>
        <time>2012-11-04T12:16:21Z</time>
      </trkpt>
      <trkpt lat="47.781761" lon="12.985679">
        <ele>443.00</ele>
        <time>2012-11-04T12:16:28Z</time>
      </trkpt>
      <trkpt lat="47.781483" lon="12.985884">
        <ele>443.00</ele>
        <time>2012-11-04T12:16:34Z</time>
      </trkpt>
      <trkpt lat="47.781437" lon="12.985921">
        <ele>443.00</ele>
        <time>2012-11-04T12:16:35Z</time>
      </trkpt>
      <trkpt lat="47.781136" lon="12.986161">
        <ele>443.00</ele>
        <time>2012-11-04T12:16:42Z</time>
      </trkpt>
      <trkpt lat="47.780792" lon="12.986427">
        <ele>443.00</ele>
        <time>2012-11-04T12:16:50Z</time>
      </trkpt>
      <trkpt lat="47.780380" lon="12.986745">
        <ele>443.00</ele>
        <time>2012-11-04T12:17:00Z</time>
      </trkpt>
      <trkpt lat="47.780083" lon="12.987009">
        <ele>443.00</ele>
        <time>2012-11-04T12:17:07Z</time>
      </trkpt>
      <trkpt lat="47.779751" lon="12.987314">
        <ele>443.00</ele>
        <time>2012-11-04T12:17:15Z</time>
      </trkpt>
      <trkpt lat="47.779499" lon="12.987548">
        <ele>442.60</ele>
        <time>2012-11-04T12:17:21Z</time>
      </trkpt>
      <trkpt lat="47.779457" lon="12.987587">
        <ele>442.20</ele>
        <time>2012-11-04T12:17:22Z</time>
      </trkpt>
      <trkpt lat="47.779415" lon="12.987620">
        <ele>441.80</ele>
        <time>2012-11-04T12:17:23Z</time>
      </trkpt>
      <trkpt lat="47.779373" lon="12.987656">
        <ele>441.40</ele>
        <time>2012-11-04T12:17:24Z</time>
      </trkpt>
      <trkpt lat="47.779331" lon="12.987691">
        <ele>441.00</ele>
        <time>2012-11-04T12:17:25Z</time>
      </trkpt>
      <trkpt lat="47.779037" lon="12.987936">
        <ele>441.00</ele>
        <time>2012-11-04T12:17:32Z</time>
      </trkpt>
      <trkpt lat="47.778957" lon="12.988006">
        <ele>441.00</ele>
        <time>2012-11-04T12:17:34Z</time>
      </trkpt>
      <trkpt lat="47.778797" lon="12.988162">
        <ele>441.00</ele>
        <time>2012-11-04T12:17:38Z</time>
      </trkpt>
      <trkpt lat="47.778759" lon="12.988203">
        <ele>441.00</ele>
        <time>2012-11-04T12:17:39Z</time>
      </trkpt>
      <trkpt lat="47.778728" lon="12.988255">
        <ele>441.00</ele>
        <time>2012-11-04T12:17:40Z</time>
      </trkpt>
      <trkpt lat="47.778610" lon="12.988505">
        <ele>441.00</ele>
        <time>2012-11-04T12:17:44Z</time>
      </trkpt>
      <trkpt lat="47.778366" lon="12.988945">
        <ele>441.00</ele>
        <time>2012-11-04T12:17:51Z</time>
      </trkpt>
      <trkpt lat="47.778095" lon="12.989329">
        <ele>441.00</ele>
        <time>2012-11-04T12:17:58Z</time>
      </trkpt>
      <trkpt lat="47.777893" lon="12.989689">
        <ele>441.00</ele>
        <time>2012-11-04T12:18:04Z</time>
      </trkpt>
      <trkpt lat="47.777840" lon="12.989828">
        <ele>441.00</ele>
        <time>2012-11-04T12:18:06Z</time>
      </trkpt>
      <trkpt lat="47.777637" lon="12.990175">
        <ele>441.00</ele>
        <time>2012-11-04T12:18:12Z</time>
      </trkpt>
      <trkpt lat="47.777382" lon="12.990420">
        <ele>441.00</ele>
        <time>2012-11-04T12:18:18Z</time>
      </trkpt>
      <trkpt lat="47.777340" lon="12.990464">
        <ele>441.00</ele>
        <time>2012-11-04T12:18:19Z</time>
      </trkpt>
      <trkpt lat="47.777039" lon="12.990835">
        <ele>441.00</ele>
        <time>2012-11-04T12:18:27Z</time>
      </trkpt>
      <trkpt lat="47.776733" lon="12.991248">
        <ele>441.00</ele>
        <time>2012-11-04T12:18:35Z</time>
      </trkpt>
      <trkpt lat="47.776390" lon="12.991727">
        <ele>441.00</ele>
        <time>2012-11-04T12:18:44Z</time>
      </trkpt>
      <trkpt lat="47.776077" lon="12.992246">
        <ele>441.00</ele>
        <time>2012-11-04T12:18:53Z</time>
      </trkpt>
      <trkpt lat="47.775841" lon="12.992663">
        <ele>441.00</ele>
        <time>2012-11-04T12:19:00Z</time>
      </trkpt>
      <trkpt lat="47.775578" lon="12.992932">
        <ele>441.00</ele>
        <time>2012-11-04T12:19:06Z</time>
      </trkpt>
      <trkpt lat="47.775246" lon="12.993158">
        <ele>440.40</ele>
        <time>2012-11-04T12:19:13Z</time>
      </trkpt>
      <trkpt lat="47.775196" lon="12.993194">
        <ele>440.00</ele>
        <time>2012-11-04T12:19:14Z</time>
      </trkpt>
      <trkpt lat="47.775146" lon="12.993229">
        <ele>439.60</ele>
        <time>2012-11-04T12:19:15Z</time>
      </trkpt>
      <trkpt lat="47.775101" lon="12.993259">
        <ele>439.20</ele>
        <time>2012-11-04T12:19:16Z</time>
      </trkpt>
      <trkpt lat="47.775051" lon="12.993288">
        <ele>438.80</ele>
        <time>2012-11-04T12:19:17Z</time>
      </trkpt>
      <trkpt lat="47.774857" lon="12.993405">
        <ele>438.80</ele>
        <time>2012-11-04T12:19:21Z</time>
      </trkpt>
      <trkpt lat="47.774803" lon="12.993411">
        <ele>438.80</ele>
        <time>2012-11-04T12:19:22Z</time>
      </trkpt>
      <trkpt lat="47.774643" lon="12.993388">
        <ele>438.80</ele>
        <time>2012-11-04T12:19:25Z</time>
      </trkpt>
      <trkpt lat="47.774300" lon="12.993234">
        <ele>438.80</ele>
        <time>2012-11-04T12:19:32Z</time>
      </trkpt>
      <trkpt lat="47.773918" lon="12.993021">
        <ele>438.80</ele>
        <time>2012-11-04T12:19:40Z</time>
      </trkpt>
      <trkpt lat="47.773460" lon="12.992826">
        <ele>438.80</ele>
        <time>2012-11-04T12:19:49Z</time>
      </trkpt>
      <trkpt lat="47.773003" lon="12.992617">
        <ele>438.80</ele>
        <time>2012-11-04T12:19:58Z</time>
      </trkpt>
      <trkpt lat="47.772602" lon="12.992446">
        <ele>438.80</ele>
        <time>2012-11-04T12:20:06Z</time>
      </trkpt>
      <trkpt lat="47.772499" lon="12.992421">
        <ele>438.80</ele>
        <time>2012-11-04T12:20:08Z</time>
      </trkpt>
      <trkpt lat="47.772293" lon="12.992362">
        <ele>438.80</ele>
        <time>2012-11-04T12:20:12Z</time>
      </trkpt>
      <trkpt lat="47.772049" lon="12.992290">
        <ele>438.80</ele>
        <time>2012-11-04T12:20:17Z</time>
      </trkpt>
      <trkpt lat="47.771908" lon="12.992225">
        <ele>438.80</ele>
        <time>2012-11-04T12:20:20Z</time>
      </trkpt>
      <trkpt lat="47.771824" lon="12.992147">
        <ele>438.80</ele>
        <time>2012-11-04T12:20:22Z</time>
      </trkpt>
      <trkpt lat="47.771751" lon="12.992044">
        <ele>438.80</ele>
        <time>2012-11-04T12:20:24Z</time>
      </trkpt>
      <trkpt lat="47.771610" lon="12.991837">
        <ele>438.80</ele>
        <time>2012-11-04T12:20:28Z</time>
      </trkpt>
      <trkpt lat="47.771568" lon="12.991794">
        <ele>438.80</ele>
        <time>2012-11-04T12:20:29Z</time>
      </trkpt>
      <trkpt lat="47.771431" lon="12.991715">
        <ele>438.80</ele>
        <time>2012-11-04T12:20:32Z</time>
      </trkpt>
      <trkpt lat="47.771282" lon="12.991699">
        <ele>438.80</ele>
        <time>2012-11-04T12:20:35Z</time>
      </trkpt>
      <trkpt lat="47.771187" lon="12.991698">
        <ele>438.80</ele>
        <time>2012-11-04T12:20:37Z</time>
      </trkpt>
      <trkpt lat="47.770836" lon="12.991700">
        <ele>438.80</ele>
        <time>2012-11-04T12:20:44Z</time>
      </trkpt>
      <trkpt lat="47.770447" lon="12.991693">
        <ele>438.80</ele>
        <time>2012-11-04T12:20:52Z</time>
      </trkpt>
      <trkpt lat="47.770020" lon="12.991697">
        <ele>438.80</ele>
        <time>2012-11-04T12:21:01Z</time>
      </trkpt>
      <trkpt lat="47.769966" lon="12.991714">
        <ele>438.80</ele>
        <time>2012-11-04T12:21:02Z</time>
      </trkpt>
      <trkpt lat="47.769798" lon="12.991800">
        <ele>438.80</ele>
        <time>2012-11-04T12:21:06Z</time>
      </trkpt>
      <trkpt lat="47.769608" lon="12.991913">
        <ele>438.80</ele>
        <time>2012-11-04T12:21:12Z</time>
      </trkpt>
      <trkpt lat="47.769558" lon="12.991902">
        <ele>438.80</ele>
        <time>2012-11-04T12:21:16Z</time>
      </trkpt>
      <trkpt lat="47.769527" lon="12.991879">
        <ele>438.80</ele>
        <time>2012-11-04T12:21:21Z</time>
      </trkpt>
      <trkpt lat="47.769417" lon="12.991858">
        <ele>438.80</ele>
        <time>2012-11-04T12:21:27Z</time>
      </trkpt>
      <trkpt lat="47.769306" lon="12.991763">
        <ele>438.80</ele>
        <time>2012-11-04T12:21:32Z</time>
      </trkpt>
      <trkpt lat="47.769279" lon="12.991748">
        <ele>438.80</ele>
        <time>2012-11-04T12:21:33Z</time>
      </trkpt>
      <trkpt lat="47.769199" lon="12.991679">
        <ele>438.80</ele>
        <time>2012-11-04T12:21:36Z</time>
      </trkpt>
      <trkpt lat="47.769108" lon="12.991602">
        <ele>438.80</ele>
        <time>2012-11-04T12:21:39Z</time>
      </trkpt>
      <trkpt lat="47.768852" lon="12.991370">
        <ele>438.80</ele>
        <time>2012-11-04T12:21:47Z</time>
      </trkpt>
      <trkpt lat="47.768658" lon="12.991190">
        <ele>438.80</ele>
        <time>2012-11-04T12:21:53Z</time>
      </trkpt>
      <trkpt lat="47.768417" lon="12.990981">
        <ele>438.80</ele>
        <time>2012-11-04T12:22:00Z</time>
      </trkpt>
      <trkpt lat="47.768383" lon="12.990952">
        <ele>438.80</ele>
        <time>2012-11-04T12:22:01Z</time>
      </trkpt>
      <trkpt lat="47.768284" lon="12.990856">
        <ele>439.20</ele>
        <time>2012-11-04T12:22:04Z</time>
      </trkpt>
      <trkpt lat="47.768253" lon="12.990825">
        <ele>439.80</ele>
        <time>2012-11-04T12:22:05Z</time>
      </trkpt>
      <trkpt lat="47.768223" lon="12.990787">
        <ele>440.20</ele>
        <time>2012-11-04T12:22:06Z</time>
      </trkpt>
      <trkpt lat="47.768188" lon="12.990750">
        <ele>440.60</ele>
        <time>2012-11-04T12:22:07Z</time>
      </trkpt>
      <trkpt lat="47.768158" lon="12.990714">
        <ele>441.00</ele>
        <time>2012-11-04T12:22:08Z</time>
      </trkpt>
      <trkpt lat="47.768101" lon="12.990644">
        <ele>441.00</ele>
        <time>2012-11-04T12:22:10Z</time>
      </trkpt>
      <trkpt lat="47.768047" lon="12.990576">
        <ele>441.40</ele>
        <time>2012-11-04T12:22:12Z</time>
      </trkpt>
      <trkpt lat="47.768021" lon="12.990543">
        <ele>441.80</ele>
        <time>2012-11-04T12:22:13Z</time>
      </trkpt>
      <trkpt lat="47.767994" lon="12.990518">
        <ele>442.40</ele>
        <time>2012-11-04T12:22:14Z</time>
      </trkpt>
      <trkpt lat="47.767967" lon="12.990492">
        <ele>442.80</ele>
        <time>2012-11-04T12:22:15Z</time>
      </trkpt>
      <trkpt lat="47.767937" lon="12.990466">
        <ele>443.20</ele>
        <time>2012-11-04T12:22:16Z</time>
      </trkpt>
      <trkpt lat="47.767910" lon="12.990440">
        <ele>443.20</ele>
        <time>2012-11-04T12:22:17Z</time>
      </trkpt>
      <trkpt lat="47.767826" lon="12.990360">
        <ele>443.60</ele>
        <time>2012-11-04T12:22:20Z</time>
      </trkpt>
      <trkpt lat="47.767796" lon="12.990334">
        <ele>444.00</ele>
        <time>2012-11-04T12:22:21Z</time>
      </trkpt>
      <trkpt lat="47.767773" lon="12.990311">
        <ele>444.60</ele>
        <time>2012-11-04T12:22:22Z</time>
      </trkpt>
      <trkpt lat="47.767742" lon="12.990294">
        <ele>445.00</ele>
        <time>2012-11-04T12:22:23Z</time>
      </trkpt>
      <trkpt lat="47.767715" lon="12.990275">
        <ele>445.40</ele>
        <time>2012-11-04T12:22:24Z</time>
      </trkpt>
      <trkpt lat="47.767502" lon="12.990083">
        <ele>445.40</ele>
        <time>2012-11-04T12:22:32Z</time>
      </trkpt>
      <trkpt lat="47.767292" lon="12.989923">
        <ele>445.40</ele>
        <time>2012-11-04T12:22:39Z</time>
      </trkpt>
      <trkpt lat="47.767162" lon="12.989905">
        <ele>445.40</ele>
        <time>2012-11-04T12:22:42Z</time>
      </trkpt>
      <trkpt lat="47.767128" lon="12.989878">
        <ele>445.40</ele>
        <time>2012-11-04T12:22:43Z</time>
      </trkpt>
      <trkpt lat="47.767029" lon="12.989792">
        <ele>445.40</ele>
        <time>2012-11-04T12:22:46Z</time>
      </trkpt>
      <trkpt lat="47.766918" lon="12.989693">
        <ele>445.40</ele>
        <time>2012-11-04T12:22:49Z</time>
      </trkpt>
      <trkpt lat="47.766800" lon="12.989584">
        <ele>445.00</ele>
        <time>2012-11-04T12:22:52Z</time>
      </trkpt>
      <trkpt lat="47.766762" lon="12.989547">
        <ele>444.60</ele>
        <time>2012-11-04T12:22:53Z</time>
      </trkpt>
      <trkpt lat="47.766720" lon="12.989514">
        <ele>444.00</ele>
        <time>2012-11-04T12:22:54Z</time>
      </trkpt>
      <trkpt lat="47.766678" lon="12.989476">
        <ele>443.60</ele>
        <time>2012-11-04T12:22:55Z</time>
      </trkpt>
      <trkpt lat="47.766636" lon="12.989438">
        <ele>443.20</ele>
        <time>2012-11-04T12:22:56Z</time>
      </trkpt>
      <trkpt lat="47.766544" lon="12.989366">
        <ele>443.20</ele>
        <time>2012-11-04T12:22:58Z</time>
      </trkpt>
      <trkpt lat="47.766380" lon="12.989216">
        <ele>443.20</ele>
        <time>2012-11-04T12:23:02Z</time>
      </trkpt>
      <trkpt lat="47.766300" lon="12.989151">
        <ele>442.80</ele>
        <time>2012-11-04T12:23:04Z</time>
      </trkpt>
      <trkpt lat="47.766254" lon="12.989134">
        <ele>442.40</ele>
        <time>2012-11-04T12:23:05Z</time>
      </trkpt>
      <trkpt lat="47.766205" lon="12.989136">
        <ele>441.80</ele>
        <time>2012-11-04T12:23:06Z</time>
      </trkpt>
      <trkpt lat="47.766159" lon="12.989161">
        <ele>441.40</ele>
        <time>2012-11-04T12:23:07Z</time>
      </trkpt>
      <trkpt lat="47.766117" lon="12.989204">
        <ele>441.00</ele>
        <time>2012-11-04T12:23:08Z</time>
      </trkpt>
      <trkpt lat="47.766045" lon="12.989386">
        <ele>441.00</ele>
        <time>2012-11-04T12:23:11Z</time>
      </trkpt>
      <trkpt lat="47.765999" lon="12.989511">
        <ele>440.60</ele>
        <time>2012-11-04T12:23:13Z</time>
      </trkpt>
      <trkpt lat="47.765980" lon="12.989573">
        <ele>440.20</ele>
        <time>2012-11-04T12:23:14Z</time>
      </trkpt>
      <trkpt lat="47.765961" lon="12.989631">
        <ele>439.80</ele>
        <time>2012-11-04T12:23:15Z</time>
      </trkpt>
      <trkpt lat="47.765945" lon="12.989685">
        <ele>439.40</ele>
        <time>2012-11-04T12:23:16Z</time>
      </trkpt>
      <trkpt lat="47.765926" lon="12.989738">
        <ele>438.80</ele>
        <time>2012-11-04T12:23:17Z</time>
      </trkpt>
      <trkpt lat="47.765911" lon="12.989791">
        <ele>438.80</ele>
        <time>2012-11-04T12:23:18Z</time>
      </trkpt>
      <trkpt lat="47.765785" lon="12.990200">
        <ele>438.80</ele>
        <time>2012-11-04T12:23:25Z</time>
      </trkpt>
      <trkpt lat="47.765690" lon="12.990499">
        <ele>438.80</ele>
        <time>2012-11-04T12:23:30Z</time>
      </trkpt>
      <trkpt lat="47.765583" lon="12.990806">
        <ele>438.80</ele>
        <time>2012-11-04T12:23:35Z</time>
      </trkpt>
      <trkpt lat="47.765427" lon="12.991319">
        <ele>438.80</ele>
        <time>2012-11-04T12:23:43Z</time>
      </trkpt>
      <trkpt lat="47.765263" lon="12.991843">
        <ele>438.80</ele>
        <time>2012-11-04T12:23:51Z</time>
      </trkpt>
      <trkpt lat="47.765095" lon="12.992370">
        <ele>438.80</ele>
        <time>2012-11-04T12:23:59Z</time>
      </trkpt>
      <trkpt lat="47.764950" lon="12.992872">
        <ele>438.80</ele>
        <time>2012-11-04T12:24:07Z</time>
      </trkpt>
      <trkpt lat="47.764828" lon="12.993379">
        <ele>438.80</ele>
        <time>2012-11-04T12:24:15Z</time>
      </trkpt>
      <trkpt lat="47.764702" lon="12.993986">
        <ele>438.80</ele>
        <time>2012-11-04T12:24:24Z</time>
      </trkpt>
      <trkpt lat="47.764603" lon="12.994438">
        <ele>438.80</ele>
        <time>2012-11-04T12:24:30Z</time>
      </trkpt>
      <trkpt lat="47.764507" lon="12.994874">
        <ele>438.80</ele>
        <time>2012-11-04T12:24:36Z</time>
      </trkpt>
      <trkpt lat="47.764420" lon="12.995338">
        <ele>438.80</ele>
        <time>2012-11-04T12:24:43Z</time>
      </trkpt>
      <trkpt lat="47.764328" lon="12.995767">
        <ele>438.80</ele>
        <time>2012-11-04T12:24:50Z</time>
      </trkpt>
      <trkpt lat="47.764229" lon="12.996019">
        <ele>438.80</ele>
        <time>2012-11-04T12:24:55Z</time>
      </trkpt>
      <trkpt lat="47.764202" lon="12.996070">
        <ele>438.80</ele>
        <time>2012-11-04T12:24:56Z</time>
      </trkpt>
      <trkpt lat="47.764122" lon="12.996226">
        <ele>438.80</ele>
        <time>2012-11-04T12:24:59Z</time>
      </trkpt>
      <trkpt lat="47.764065" lon="12.996317">
        <ele>438.80</ele>
        <time>2012-11-04T12:25:01Z</time>
      </trkpt>
      <trkpt lat="47.763809" lon="12.996687">
        <ele>438.80</ele>
        <time>2012-11-04T12:25:09Z</time>
      </trkpt>
      <trkpt lat="47.763550" lon="12.997051">
        <ele>438.80</ele>
        <time>2012-11-04T12:25:17Z</time>
      </trkpt>
      <trkpt lat="47.763420" lon="12.997258">
        <ele>438.80</ele>
        <time>2012-11-04T12:25:21Z</time>
      </trkpt>
      <trkpt lat="47.763317" lon="12.997396">
        <ele>438.80</ele>
        <time>2012-11-04T12:25:24Z</time>
      </trkpt>
      <trkpt lat="47.763248" lon="12.997480">
        <ele>438.80</ele>
        <time>2012-11-04T12:25:26Z</time>
      </trkpt>
      <trkpt lat="47.763119" lon="12.997651">
        <ele>438.80</ele>
        <time>2012-11-04T12:25:30Z</time>
      </trkpt>
      <trkpt lat="47.762844" lon="12.998013">
        <ele>438.80</ele>
        <time>2012-11-04T12:25:38Z</time>
      </trkpt>
      <trkpt lat="47.762596" lon="12.998343">
        <ele>438.80</ele>
        <time>2012-11-04T12:25:45Z</time>
      </trkpt>
      <trkpt lat="47.762421" lon="12.998552">
        <ele>438.80</ele>
        <time>2012-11-04T12:25:50Z</time>
      </trkpt>
      <trkpt lat="47.762386" lon="12.998598">
        <ele>438.80</ele>
        <time>2012-11-04T12:25:51Z</time>
      </trkpt>
      <trkpt lat="47.762356" lon="12.998645">
        <ele>438.80</ele>
        <time>2012-11-04T12:25:52Z</time>
      </trkpt>
      <trkpt lat="47.762329" lon="12.998699">
        <ele>438.80</ele>
        <time>2012-11-04T12:25:53Z</time>
      </trkpt>
      <trkpt lat="47.762241" lon="12.998940">
        <ele>438.80</ele>
        <time>2012-11-04T12:25:57Z</time>
      </trkpt>
      <trkpt lat="47.762226" lon="12.999010">
        <ele>438.80</ele>
        <time>2012-11-04T12:25:58Z</time>
      </trkpt>
      <trkpt lat="47.762161" lon="12.999360">
        <ele>438.80</ele>
        <time>2012-11-04T12:26:03Z</time>
      </trkpt>
      <trkpt lat="47.762142" lon="12.999424">
        <ele>438.80</ele>
        <time>2012-11-04T12:26:04Z</time>
      </trkpt>
      <trkpt lat="47.762096" lon="12.999540">
        <ele>438.80</ele>
        <time>2012-11-04T12:26:06Z</time>
      </trkpt>
      <trkpt lat="47.762012" lon="12.999577">
        <ele>438.80</ele>
        <time>2012-11-04T12:26:08Z</time>
      </trkpt>
      <trkpt lat="47.761925" lon="12.999587">
        <ele>438.80</ele>
        <time>2012-11-04T12:26:10Z</time>
      </trkpt>
      <trkpt lat="47.761787" lon="12.999557">
        <ele>438.80</ele>
        <time>2012-11-04T12:26:13Z</time>
      </trkpt>
      <trkpt lat="47.761742" lon="12.999535">
        <ele>438.80</ele>
        <time>2012-11-04T12:26:14Z</time>
      </trkpt>
      <trkpt lat="47.761559" lon="12.999462">
        <ele>438.80</ele>
        <time>2012-11-04T12:26:18Z</time>
      </trkpt>
      <trkpt lat="47.761272" lon="12.999330">
        <ele>438.80</ele>
        <time>2012-11-04T12:26:25Z</time>
      </trkpt>
      <trkpt lat="47.760998" lon="12.999190">
        <ele>438.80</ele>
        <time>2012-11-04T12:26:32Z</time>
      </trkpt>
      <trkpt lat="47.760914" lon="12.999154">
        <ele>438.80</ele>
        <time>2012-11-04T12:26:34Z</time>
      </trkpt>
      <trkpt lat="47.760742" lon="12.999043">
        <ele>438.80</ele>
        <time>2012-11-04T12:26:38Z</time>
      </trkpt>
      <trkpt lat="47.760540" lon="12.998945">
        <ele>438.80</ele>
        <time>2012-11-04T12:26:42Z</time>
      </trkpt>
      <trkpt lat="47.760437" lon="12.998896">
        <ele>438.80</ele>
        <time>2012-11-04T12:26:44Z</time>
      </trkpt>
      <trkpt lat="47.760159" lon="12.998744">
        <ele>438.80</ele>
        <time>2012-11-04T12:26:50Z</time>
      </trkpt>
      <trkpt lat="47.760071" lon="12.998696">
        <ele>438.80</ele>
        <time>2012-11-04T12:26:52Z</time>
      </trkpt>
      <trkpt lat="47.759697" lon="12.998497">
        <ele>438.80</ele>
        <time>2012-11-04T12:27:01Z</time>
      </trkpt>
      <trkpt lat="47.759430" lon="12.998354">
        <ele>438.80</ele>
        <time>2012-11-04T12:27:07Z</time>
      </trkpt>
      <trkpt lat="47.759342" lon="12.998305">
        <ele>438.80</ele>
        <time>2012-11-04T12:27:09Z</time>
      </trkpt>
      <trkpt lat="47.759140" lon="12.998160">
        <ele>438.80</ele>
        <time>2012-11-04T12:27:14Z</time>
      </trkpt>
      <trkpt lat="47.758976" lon="12.998038">
        <ele>438.80</ele>
        <time>2012-11-04T12:27:18Z</time>
      </trkpt>
      <trkpt lat="47.758850" lon="12.997952">
        <ele>438.80</ele>
        <time>2012-11-04T12:27:21Z</time>
      </trkpt>
      <trkpt lat="47.758442" lon="12.997636">
        <ele>438.80</ele>
        <time>2012-11-04T12:27:31Z</time>
      </trkpt>
      <trkpt lat="47.758247" lon="12.997501">
        <ele>438.80</ele>
        <time>2012-11-04T12:27:36Z</time>
      </trkpt>
      <trkpt lat="47.758167" lon="12.997441">
        <ele>438.80</ele>
        <time>2012-11-04T12:27:38Z</time>
      </trkpt>
      <trkpt lat="47.757843" lon="12.997220">
        <ele>438.80</ele>
        <time>2012-11-04T12:27:46Z</time>
      </trkpt>
      <trkpt lat="47.757484" lon="12.996974">
        <ele>438.80</ele>
        <time>2012-11-04T12:27:55Z</time>
      </trkpt>
      <trkpt lat="47.757282" lon="12.996846">
        <ele>438.80</ele>
        <time>2012-11-04T12:28:00Z</time>
      </trkpt>
      <trkpt lat="47.757202" lon="12.996798">
        <ele>438.80</ele>
        <time>2012-11-04T12:28:02Z</time>
      </trkpt>
      <trkpt lat="47.757164" lon="12.996773">
        <ele>438.80</ele>
        <time>2012-11-04T12:28:03Z</time>
      </trkpt>
      <trkpt lat="47.757122" lon="12.996748">
        <ele>439.20</ele>
        <time>2012-11-04T12:28:04Z</time>
      </trkpt>
      <trkpt lat="47.757076" lon="12.996722">
        <ele>439.60</ele>
        <time>2012-11-04T12:28:05Z</time>
      </trkpt>
      <trkpt lat="47.757034" lon="12.996696">
        <ele>440.00</ele>
        <time>2012-11-04T12:28:06Z</time>
      </trkpt>
      <trkpt lat="47.756989" lon="12.996672">
        <ele>440.40</ele>
        <time>2012-11-04T12:28:07Z</time>
      </trkpt>
      <trkpt lat="47.756947" lon="12.996639">
        <ele>441.00</ele>
        <time>2012-11-04T12:28:08Z</time>
      </trkpt>
      <trkpt lat="47.756817" lon="12.996552">
        <ele>441.00</ele>
        <time>2012-11-04T12:28:11Z</time>
      </trkpt>
      <trkpt lat="47.756725" lon="12.996490">
        <ele>441.00</ele>
        <time>2012-11-04T12:28:13Z</time>
      </trkpt>
      <trkpt lat="47.756573" lon="12.996386">
        <ele>441.00</ele>
        <time>2012-11-04T12:28:16Z</time>
      </trkpt>
      <trkpt lat="47.756256" lon="12.996192">
        <ele>441.00</ele>
        <time>2012-11-04T12:28:23Z</time>
      </trkpt>
      <trkpt lat="47.755955" lon="12.995999">
        <ele>441.00</ele>
        <time>2012-11-04T12:28:30Z</time>
      </trkpt>
      <trkpt lat="47.755642" lon="12.995819">
        <ele>441.00</ele>
        <time>2012-11-04T12:28:37Z</time>
      </trkpt>
      <trkpt lat="47.755333" lon="12.995614">
        <ele>441.00</ele>
        <time>2012-11-04T12:28:44Z</time>
      </trkpt>
      <trkpt lat="47.755241" lon="12.995563">
        <ele>441.00</ele>
        <time>2012-11-04T12:28:46Z</time>
      </trkpt>
      <trkpt lat="47.755028" lon="12.995440">
        <ele>441.00</ele>
        <time>2012-11-04T12:28:51Z</time>
      </trkpt>
      <trkpt lat="47.754906" lon="12.995360">
        <ele>441.00</ele>
        <time>2012-11-04T12:28:54Z</time>
      </trkpt>
      <trkpt lat="47.754784" lon="12.995274">
        <ele>441.00</ele>
        <time>2012-11-04T12:28:57Z</time>
      </trkpt>
      <trkpt lat="47.754543" lon="12.995099">
        <ele>441.00</ele>
        <time>2012-11-04T12:29:03Z</time>
      </trkpt>
      <trkpt lat="47.754417" lon="12.994996">
        <ele>441.00</ele>
        <time>2012-11-04T12:29:07Z</time>
      </trkpt>
      <trkpt lat="47.754360" lon="12.995004">
        <ele>441.00</ele>
        <time>2012-11-04T12:29:09Z</time>
      </trkpt>
      <trkpt lat="47.754345" lon="12.995036">
        <ele>441.00</ele>
        <time>2012-11-04T12:29:10Z</time>
      </trkpt>
      <trkpt lat="47.754326" lon="12.995112">
        <ele>441.40</ele>
        <time>2012-11-04T12:29:12Z</time>
      </trkpt>
      <trkpt lat="47.754311" lon="12.995147">
        <ele>441.80</ele>
        <time>2012-11-04T12:29:13Z</time>
      </trkpt>
      <trkpt lat="47.754292" lon="12.995173">
        <ele>442.20</ele>
        <time>2012-11-04T12:29:14Z</time>
      </trkpt>
      <trkpt lat="47.754265" lon="12.995197">
        <ele>442.60</ele>
        <time>2012-11-04T12:29:15Z</time>
      </trkpt>
      <trkpt lat="47.754230" lon="12.995205">
        <ele>443.00</ele>
        <time>2012-11-04T12:29:16Z</time>
      </trkpt>
      <trkpt lat="47.754200" lon="12.995184">
        <ele>443.00</ele>
        <time>2012-11-04T12:29:17Z</time>
      </trkpt>
      <trkpt lat="47.754078" lon="12.995053">
        <ele>443.00</ele>
        <time>2012-11-04T12:29:21Z</time>
      </trkpt>
      <trkpt lat="47.754044" lon="12.995030">
        <ele>443.00</ele>
        <time>2012-11-04T12:29:22Z</time>
      </trkpt>
      <trkpt lat="47.753796" lon="12.994884">
        <ele>443.00</ele>
        <time>2012-11-04T12:29:29Z</time>
      </trkpt>
      <trkpt lat="47.753567" lon="12.994805">
        <ele>443.00</ele>
        <time>2012-11-04T12:29:35Z</time>
      </trkpt>
      <trkpt lat="47.753429" lon="12.994889">
        <ele>443.00</ele>
        <time>2012-11-04T12:29:39Z</time>
      </trkpt>
      <trkpt lat="47.753296" lon="12.995007">
        <ele>443.00</ele>
        <time>2012-11-04T12:29:43Z</time>
      </trkpt>
      <trkpt lat="47.753254" lon="12.995026">
        <ele>443.00</ele>
        <time>2012-11-04T12:29:44Z</time>
      </trkpt>
      <trkpt lat="47.753090" lon="12.995014">
        <ele>443.00</ele>
        <time>2012-11-04T12:29:48Z</time>
      </trkpt>
      <trkpt lat="47.753048" lon="12.994996">
        <ele>443.00</ele>
        <time>2012-11-04T12:29:49Z</time>
      </trkpt>
      <trkpt lat="47.752941" lon="12.994920">
        <ele>443.00</ele>
        <time>2012-11-04T12:29:52Z</time>
      </trkpt>
      <trkpt lat="47.752869" lon="12.994859">
        <ele>443.00</ele>
        <time>2012-11-04T12:29:54Z</time>
      </trkpt>
      <trkpt lat="47.752743" lon="12.994884">
        <ele>443.00</ele>
        <time>2012-11-04T12:29:58Z</time>
      </trkpt>
      <trkpt lat="47.752708" lon="12.995035">
        <ele>443.00</ele>
        <time>2012-11-04T12:30:01Z</time>
      </trkpt>
      <trkpt lat="47.752708" lon="12.995151">
        <ele>443.00</ele>
        <time>2012-11-04T12:30:03Z</time>
      </trkpt>
      <trkpt lat="47.752693" lon="12.995462">
        <ele>443.00</ele>
        <time>2012-11-04T12:30:08Z</time>
      </trkpt>
      <trkpt lat="47.752689" lon="12.995854">
        <ele>443.00</ele>
        <time>2012-11-04T12:30:14Z</time>
      </trkpt>
      <trkpt lat="47.752640" lon="12.996057">
        <ele>443.00</ele>
        <time>2012-11-04T12:30:18Z</time>
      </trkpt>
      <trkpt lat="47.752613" lon="12.996102">
        <ele>443.00</ele>
        <time>2012-11-04T12:30:19Z</time>
      </trkpt>
      <trkpt lat="47.752495" lon="12.996263">
        <ele>443.00</ele>
        <time>2012-11-04T12:30:23Z</time>
      </trkpt>
      <trkpt lat="47.752377" lon="12.996309">
        <ele>443.00</ele>
        <time>2012-11-04T12:30:27Z</time>
      </trkpt>
      <trkpt lat="47.752346" lon="12.996301">
        <ele>443.00</ele>
        <time>2012-11-04T12:30:28Z</time>
      </trkpt>
      <trkpt lat="47.752220" lon="12.996268">
        <ele>443.00</ele>
        <time>2012-11-04T12:30:32Z</time>
      </trkpt>
      <trkpt lat="47.752197" lon="12.996279">
        <ele>443.00</ele>
        <time>2012-11-04T12:30:33Z</time>
      </trkpt>
      <trkpt lat="47.752029" lon="12.996370">
        <ele>443.00</ele>
        <time>2012-11-04T12:30:40Z</time>
      </trkpt>
      <trkpt lat="47.751976" lon="12.996374">
        <ele>443.40</ele>
        <time>2012-11-04T12:30:42Z</time>
      </trkpt>
      <trkpt lat="47.751949" lon="12.996365">
        <ele>443.80</ele>
        <time>2012-11-04T12:30:43Z</time>
      </trkpt>
      <trkpt lat="47.751923" lon="12.996348">
        <ele>444.20</ele>
        <time>2012-11-04T12:30:44Z</time>
      </trkpt>
      <trkpt lat="47.751900" lon="12.996326">
        <ele>444.60</ele>
        <time>2012-11-04T12:30:45Z</time>
      </trkpt>
      <trkpt lat="47.751877" lon="12.996304">
        <ele>445.00</ele>
        <time>2012-11-04T12:30:46Z</time>
      </trkpt>
      <trkpt lat="47.751720" lon="12.996176">
        <ele>445.00</ele>
        <time>2012-11-04T12:30:51Z</time>
      </trkpt>
      <trkpt lat="47.751637" lon="12.995989">
        <ele>445.00</ele>
        <time>2012-11-04T12:30:56Z</time>
      </trkpt>
      <trkpt lat="47.751644" lon="12.995770">
        <ele>445.00</ele>
        <time>2012-11-04T12:31:00Z</time>
      </trkpt>
      <trkpt lat="47.751572" lon="12.995459">
        <ele>445.00</ele>
        <time>2012-11-04T12:31:06Z</time>
      </trkpt>
      <trkpt lat="47.751392" lon="12.995348">
        <ele>445.40</ele>
        <time>2012-11-04T12:31:11Z</time>
      </trkpt>
      <trkpt lat="47.751354" lon="12.995327">
        <ele>445.80</ele>
        <time>2012-11-04T12:31:12Z</time>
      </trkpt>
      <trkpt lat="47.751316" lon="12.995309">
        <ele>446.20</ele>
        <time>2012-11-04T12:31:13Z</time>
      </trkpt>
      <trkpt lat="47.751270" lon="12.995297">
        <ele>446.60</ele>
        <time>2012-11-04T12:31:14Z</time>
      </trkpt>
      <trkpt lat="47.751228" lon="12.995286">
        <ele>447.00</ele>
        <time>2012-11-04T12:31:15Z</time>
      </trkpt>
      <trkpt lat="47.751091" lon="12.995257">
        <ele>447.00</ele>
        <time>2012-11-04T12:31:18Z</time>
      </trkpt>
      <trkpt lat="47.750965" lon="12.995202">
        <ele>447.00</ele>
        <time>2012-11-04T12:31:21Z</time>
      </trkpt>
      <trkpt lat="47.750862" lon="12.995097">
        <ele>447.00</ele>
        <time>2012-11-04T12:31:24Z</time>
      </trkpt>
      <trkpt lat="47.750786" lon="12.994882">
        <ele>447.00</ele>
        <time>2012-11-04T12:31:28Z</time>
      </trkpt>
      <trkpt lat="47.750648" lon="12.994628">
        <ele>447.00</ele>
        <time>2012-11-04T12:31:34Z</time>
      </trkpt>
      <trkpt lat="47.750561" lon="12.994583">
        <ele>447.00</ele>
        <time>2012-11-04T12:31:38Z</time>
      </trkpt>
      <trkpt lat="47.750389" lon="12.994620">
        <ele>447.00</ele>
        <time>2012-11-04T12:31:43Z</time>
      </trkpt>
      <trkpt lat="47.750107" lon="12.994656">
        <ele>447.00</ele>
        <time>2012-11-04T12:31:51Z</time>
      </trkpt>
      <trkpt lat="47.749943" lon="12.994578">
        <ele>447.00</ele>
        <time>2012-11-04T12:31:56Z</time>
      </trkpt>
      <trkpt lat="47.749722" lon="12.994505">
        <ele>447.00</ele>
        <time>2012-11-04T12:32:02Z</time>
      </trkpt>
      <trkpt lat="47.749596" lon="12.994499">
        <ele>447.00</ele>
        <time>2012-11-04T12:32:05Z</time>
      </trkpt>
      <trkpt lat="47.749470" lon="12.994489">
        <ele>447.00</ele>
        <time>2012-11-04T12:32:08Z</time>
      </trkpt>
      <trkpt lat="47.749352" lon="12.994430">
        <ele>447.00</ele>
        <time>2012-11-04T12:32:11Z</time>
      </trkpt>
      <trkpt lat="47.749256" lon="12.994356">
        <ele>447.00</ele>
        <time>2012-11-04T12:32:14Z</time>
      </trkpt>
      <trkpt lat="47.749115" lon="12.994235">
        <ele>447.00</ele>
        <time>2012-11-04T12:32:18Z</time>
      </trkpt>
      <trkpt lat="47.749084" lon="12.994197">
        <ele>447.40</ele>
        <time>2012-11-04T12:32:19Z</time>
      </trkpt>
      <trkpt lat="47.749046" lon="12.994161">
        <ele>447.80</ele>
        <time>2012-11-04T12:32:20Z</time>
      </trkpt>
      <trkpt lat="47.749016" lon="12.994135">
        <ele>448.80</ele>
        <time>2012-11-04T12:32:21Z</time>
      </trkpt>
      <trkpt lat="47.748978" lon="12.994112">
        <ele>449.20</ele>
        <time>2012-11-04T12:32:22Z</time>
      </trkpt>
      <trkpt lat="47.748859" lon="12.994067">
        <ele>449.20</ele>
        <time>2012-11-04T12:32:25Z</time>
      </trkpt>
      <trkpt lat="47.748669" lon="12.994073">
        <ele>449.20</ele>
        <time>2012-11-04T12:32:30Z</time>
      </trkpt>
      <trkpt lat="47.748520" lon="12.994142">
        <ele>449.20</ele>
        <time>2012-11-04T12:32:34Z</time>
      </trkpt>
      <trkpt lat="47.748451" lon="12.994202">
        <ele>449.20</ele>
        <time>2012-11-04T12:32:36Z</time>
      </trkpt>
      <trkpt lat="47.748257" lon="12.994413">
        <ele>449.20</ele>
        <time>2012-11-04T12:32:42Z</time>
      </trkpt>
      <trkpt lat="47.748066" lon="12.994501">
        <ele>449.20</ele>
        <time>2012-11-04T12:32:47Z</time>
      </trkpt>
      <trkpt lat="47.748020" lon="12.994497">
        <ele>449.20</ele>
        <time>2012-11-04T12:32:48Z</time>
      </trkpt>
      <trkpt lat="47.747978" lon="12.994487">
        <ele>449.60</ele>
        <time>2012-11-04T12:32:49Z</time>
      </trkpt>
      <trkpt lat="47.747932" lon="12.994473">
        <ele>450.00</ele>
        <time>2012-11-04T12:32:50Z</time>
      </trkpt>
      <trkpt lat="47.747894" lon="12.994456">
        <ele>450.40</ele>
        <time>2012-11-04T12:32:51Z</time>
      </trkpt>
      <trkpt lat="47.747852" lon="12.994443">
        <ele>450.80</ele>
        <time>2012-11-04T12:32:52Z</time>
      </trkpt>
      <trkpt lat="47.747814" lon="12.994422">
        <ele>451.20</ele>
        <time>2012-11-04T12:32:53Z</time>
      </trkpt>
      <trkpt lat="47.747780" lon="12.994402">
        <ele>451.20</ele>
        <time>2012-11-04T12:32:54Z</time>
      </trkpt>
      <trkpt lat="47.747673" lon="12.994366">
        <ele>451.20</ele>
        <time>2012-11-04T12:32:58Z</time>
      </trkpt>
      <trkpt lat="47.747662" lon="12.994367">
        <ele>451.20</ele>
        <time>2012-11-04T12:33:02Z</time>
      </trkpt>
      <trkpt lat="47.747612" lon="12.994385">
        <ele>451.20</ele>
        <time>2012-11-04T12:33:09Z</time>
      </trkpt>
      <trkpt lat="47.747604" lon="12.994406">
        <ele>451.20</ele>
        <time>2012-11-04T12:33:10Z</time>
      </trkpt>
      <trkpt lat="47.747593" lon="12.994525">
        <ele>451.20</ele>
        <time>2012-11-04T12:33:13Z</time>
      </trkpt>
      <trkpt lat="47.747589" lon="12.994570">
        <ele>451.20</ele>
        <time>2012-11-04T12:33:14Z</time>
      </trkpt>
      <trkpt lat="47.747597" lon="12.994884">
        <ele>451.20</ele>
        <time>2012-11-04T12:33:20Z</time>
      </trkpt>
      <trkpt lat="47.747585" lon="12.995353">
        <ele>451.20</ele>
        <time>2012-11-04T12:33:27Z</time>
      </trkpt>
      <trkpt lat="47.747578" lon="12.995427">
        <ele>451.20</ele>
        <time>2012-11-04T12:33:28Z</time>
      </trkpt>
      <trkpt lat="47.747570" lon="12.996005">
        <ele>451.20</ele>
        <time>2012-11-04T12:33:36Z</time>
      </trkpt>
      <trkpt lat="47.747589" lon="12.996379">
        <ele>451.20</ele>
        <time>2012-11-04T12:33:41Z</time>
      </trkpt>
      <trkpt lat="47.747616" lon="12.996605">
        <ele>451.20</ele>
        <time>2012-11-04T12:33:44Z</time>
      </trkpt>
      <trkpt lat="47.747700" lon="12.997228">
        <ele>451.20</ele>
        <time>2012-11-04T12:33:52Z</time>
      </trkpt>
      <trkpt lat="47.747784" lon="12.997613">
        <ele>451.20</ele>
        <time>2012-11-04T12:33:57Z</time>
      </trkpt>
      <trkpt lat="47.747868" lon="12.997920">
        <ele>451.20</ele>
        <time>2012-11-04T12:34:01Z</time>
      </trkpt>
      <trkpt lat="47.747963" lon="12.998325">
        <ele>450.80</ele>
        <time>2012-11-04T12:34:06Z</time>
      </trkpt>
      <trkpt lat="47.747978" lon="12.998411">
        <ele>450.40</ele>
        <time>2012-11-04T12:34:07Z</time>
      </trkpt>
      <trkpt lat="47.747986" lon="12.998498">
        <ele>450.00</ele>
        <time>2012-11-04T12:34:08Z</time>
      </trkpt>
      <trkpt lat="47.747993" lon="12.998587">
        <ele>449.60</ele>
        <time>2012-11-04T12:34:09Z</time>
      </trkpt>
      <trkpt lat="47.748001" lon="12.998676">
        <ele>449.20</ele>
        <time>2012-11-04T12:34:10Z</time>
      </trkpt>
      <trkpt lat="47.747997" lon="12.999126">
        <ele>449.20</ele>
        <time>2012-11-04T12:34:15Z</time>
      </trkpt>
      <trkpt lat="47.747932" lon="12.999825">
        <ele>449.20</ele>
        <time>2012-11-04T12:34:23Z</time>
      </trkpt>
      <trkpt lat="47.747887" lon="13.000532">
        <ele>449.20</ele>
        <time>2012-11-04T12:34:31Z</time>
      </trkpt>
      <trkpt lat="47.747879" lon="13.001068">
        <ele>449.20</ele>
        <time>2012-11-04T12:34:37Z</time>
      </trkpt>
      <trkpt lat="47.747887" lon="13.001227">
        <ele>449.20</ele>
        <time>2012-11-04T12:34:39Z</time>
      </trkpt>
      <trkpt lat="47.747929" lon="13.001723">
        <ele>449.20</ele>
        <time>2012-11-04T12:34:46Z</time>
      </trkpt>
      <trkpt lat="47.747925" lon="13.001868">
        <ele>449.20</ele>
        <time>2012-11-04T12:34:48Z</time>
      </trkpt>
      <trkpt lat="47.747906" lon="13.002075">
        <ele>449.20</ele>
        <time>2012-11-04T12:34:51Z</time>
      </trkpt>
      <trkpt lat="47.747887" lon="13.002199">
        <ele>449.20</ele>
        <time>2012-11-04T12:34:53Z</time>
      </trkpt>
      <trkpt lat="47.747814" lon="13.002423">
        <ele>449.20</ele>
        <time>2012-11-04T12:34:57Z</time>
      </trkpt>
      <trkpt lat="47.747746" lon="13.002581">
        <ele>448.60</ele>
        <time>2012-11-04T12:35:00Z</time>
      </trkpt>
      <trkpt lat="47.747723" lon="13.002639">
        <ele>448.20</ele>
        <time>2012-11-04T12:35:01Z</time>
      </trkpt>
      <trkpt lat="47.747700" lon="13.002694">
        <ele>447.80</ele>
        <time>2012-11-04T12:35:02Z</time>
      </trkpt>
      <trkpt lat="47.747681" lon="13.002740">
        <ele>447.40</ele>
        <time>2012-11-04T12:35:03Z</time>
      </trkpt>
      <trkpt lat="47.747665" lon="13.002790">
        <ele>447.00</ele>
        <time>2012-11-04T12:35:04Z</time>
      </trkpt>
      <trkpt lat="47.747646" lon="13.002845">
        <ele>447.00</ele>
        <time>2012-11-04T12:35:05Z</time>
      </trkpt>
      <trkpt lat="47.747566" lon="13.003118">
        <ele>447.00</ele>
        <time>2012-11-04T12:35:10Z</time>
      </trkpt>
      <trkpt lat="47.747540" lon="13.003205">
        <ele>447.00</ele>
        <time>2012-11-04T12:35:12Z</time>
      </trkpt>
      <trkpt lat="47.747570" lon="13.003372">
        <ele>447.00</ele>
        <time>2012-11-04T12:35:16Z</time>
      </trkpt>
      <trkpt lat="47.747662" lon="13.003551">
        <ele>447.00</ele>
        <time>2012-11-04T12:35:20Z</time>
      </trkpt>
      <trkpt lat="47.747692" lon="13.003596">
        <ele>447.00</ele>
        <time>2012-11-04T12:35:21Z</time>
      </trkpt>
      <trkpt lat="47.747913" lon="13.003935">
        <ele>447.00</ele>
        <time>2012-11-04T12:35:28Z</time>
      </trkpt>
      <trkpt lat="47.748173" lon="13.004319">
        <ele>447.00</ele>
        <time>2012-11-04T12:35:36Z</time>
      </trkpt>
      <trkpt lat="47.748360" lon="13.004593">
        <ele>447.00</ele>
        <time>2012-11-04T12:35:42Z</time>
      </trkpt>
      <trkpt lat="47.748566" lon="13.004872">
        <ele>447.00</ele>
        <time>2012-11-04T12:35:48Z</time>
      </trkpt>
      <trkpt lat="47.748589" lon="13.004921">
        <ele>447.00</ele>
        <time>2012-11-04T12:35:49Z</time>
      </trkpt>
      <trkpt lat="47.748646" lon="13.005084">
        <ele>447.00</ele>
        <time>2012-11-04T12:35:52Z</time>
      </trkpt>
      <trkpt lat="47.748680" lon="13.005215">
        <ele>447.00</ele>
        <time>2012-11-04T12:35:54Z</time>
      </trkpt>
      <trkpt lat="47.748760" lon="13.005519">
        <ele>447.00</ele>
        <time>2012-11-04T12:36:00Z</time>
      </trkpt>
      <trkpt lat="47.748764" lon="13.005605">
        <ele>447.00</ele>
        <time>2012-11-04T12:36:02Z</time>
      </trkpt>
      <trkpt lat="47.748768" lon="13.005795">
        <ele>447.00</ele>
        <time>2012-11-04T12:36:06Z</time>
      </trkpt>
      <trkpt lat="47.748768" lon="13.006174">
        <ele>447.00</ele>
        <time>2012-11-04T12:36:13Z</time>
      </trkpt>
      <trkpt lat="47.748753" lon="13.006424">
        <ele>447.00</ele>
        <time>2012-11-04T12:36:18Z</time>
      </trkpt>
      <trkpt lat="47.748714" lon="13.006660">
        <ele>447.00</ele>
        <time>2012-11-04T12:36:23Z</time>
      </trkpt>
      <trkpt lat="47.748680" lon="13.006902">
        <ele>447.00</ele>
        <time>2012-11-04T12:36:29Z</time>
      </trkpt>
      <trkpt lat="47.748692" lon="13.007039">
        <ele>447.00</ele>
        <time>2012-11-04T12:36:33Z</time>
      </trkpt>
      <trkpt lat="47.748684" lon="13.007083">
        <ele>447.00</ele>
        <time>2012-11-04T12:36:35Z</time>
      </trkpt>
      <trkpt lat="47.748676" lon="13.007209">
        <ele>447.40</ele>
        <time>2012-11-04T12:36:39Z</time>
      </trkpt>
      <trkpt lat="47.748672" lon="13.007246">
        <ele>447.80</ele>
        <time>2012-11-04T12:36:40Z</time>
      </trkpt>
      <trkpt lat="47.748665" lon="13.007281">
        <ele>448.20</ele>
        <time>2012-11-04T12:36:41Z</time>
      </trkpt>
      <trkpt lat="47.748665" lon="13.007315">
        <ele>448.60</ele>
        <time>2012-11-04T12:36:42Z</time>
      </trkpt>
      <trkpt lat="47.748661" lon="13.007339">
        <ele>449.00</ele>
        <time>2012-11-04T12:36:43Z</time>
      </trkpt>
      <trkpt lat="47.748653" lon="13.007398">
        <ele>449.00</ele>
        <time>2012-11-04T12:36:46Z</time>
      </trkpt>
      <trkpt lat="47.748657" lon="13.007412">
        <ele>449.00</ele>
        <time>2012-11-04T12:36:47Z</time>
      </trkpt>
      <trkpt lat="47.748661" lon="13.007454">
        <ele>449.00</ele>
        <time>2012-11-04T12:36:53Z</time>
      </trkpt>
      <trkpt lat="47.748665" lon="13.007472">
        <ele>449.00</ele>
        <time>2012-11-04T12:37:02Z</time>
      </trkpt>
      <trkpt lat="47.748665" lon="13.007477">
        <ele>449.00</ele>
        <time>2012-11-04T12:37:10Z</time>
      </trkpt>
      <trkpt lat="47.748692" lon="13.007568">
        <ele>449.00</ele>
        <time>2012-11-04T12:37:16Z</time>
      </trkpt>
      <trkpt lat="47.748714" lon="13.007754">
        <ele>449.00</ele>
        <time>2012-11-04T12:37:21Z</time>
      </trkpt>
      <trkpt lat="47.748814" lon="13.007978">
        <ele>449.00</ele>
        <time>2012-11-04T12:37:27Z</time>
      </trkpt>
      <trkpt lat="47.748894" lon="13.008289">
        <ele>449.00</ele>
        <time>2012-11-04T12:37:34Z</time>
      </trkpt>
      <trkpt lat="47.748974" lon="13.008559">
        <ele>449.00</ele>
        <time>2012-11-04T12:37:39Z</time>
      </trkpt>
      <trkpt lat="47.749058" lon="13.008829">
        <ele>449.00</ele>
        <time>2012-11-04T12:37:45Z</time>
      </trkpt>
      <trkpt lat="47.749153" lon="13.009135">
        <ele>449.00</ele>
        <time>2012-11-04T12:37:51Z</time>
      </trkpt>
      <trkpt lat="47.749271" lon="13.009654">
        <ele>449.00</ele>
        <time>2012-11-04T12:37:59Z</time>
      </trkpt>
      <trkpt lat="47.749321" lon="13.009929">
        <ele>449.00</ele>
        <time>2012-11-04T12:38:03Z</time>
      </trkpt>
      <trkpt lat="47.749363" lon="13.010194">
        <ele>449.00</ele>
        <time>2012-11-04T12:38:07Z</time>
      </trkpt>
      <trkpt lat="47.749447" lon="13.010736">
        <ele>449.00</ele>
        <time>2012-11-04T12:38:15Z</time>
      </trkpt>
      <trkpt lat="47.749500" lon="13.011077">
        <ele>448.60</ele>
        <time>2012-11-04T12:38:20Z</time>
      </trkpt>
      <trkpt lat="47.749512" lon="13.011147">
        <ele>448.20</ele>
        <time>2012-11-04T12:38:21Z</time>
      </trkpt>
      <trkpt lat="47.749519" lon="13.011217">
        <ele>447.80</ele>
        <time>2012-11-04T12:38:22Z</time>
      </trkpt>
      <trkpt lat="47.749523" lon="13.011295">
        <ele>447.40</ele>
        <time>2012-11-04T12:38:23Z</time>
      </trkpt>
      <trkpt lat="47.749531" lon="13.011368">
        <ele>447.00</ele>
        <time>2012-11-04T12:38:24Z</time>
      </trkpt>
      <trkpt lat="47.749554" lon="13.011715">
        <ele>447.00</ele>
        <time>2012-11-04T12:38:29Z</time>
      </trkpt>
      <trkpt lat="47.749569" lon="13.011993">
        <ele>447.00</ele>
        <time>2012-11-04T12:38:33Z</time>
      </trkpt>
      <trkpt lat="47.749573" lon="13.012221">
        <ele>447.00</ele>
        <time>2012-11-04T12:38:36Z</time>
      </trkpt>
      <trkpt lat="47.749584" lon="13.012429">
        <ele>447.00</ele>
        <time>2012-11-04T12:38:39Z</time>
      </trkpt>
      <trkpt lat="47.749580" lon="13.012556">
        <ele>447.00</ele>
        <time>2012-11-04T12:38:41Z</time>
      </trkpt>
      <trkpt lat="47.749588" lon="13.012943">
        <ele>447.00</ele>
        <time>2012-11-04T12:38:48Z</time>
      </trkpt>
      <trkpt lat="47.749561" lon="13.013088">
        <ele>447.00</ele>
        <time>2012-11-04T12:38:52Z</time>
      </trkpt>
      <trkpt lat="47.749569" lon="13.013216">
        <ele>447.00</ele>
        <time>2012-11-04T12:38:54Z</time>
      </trkpt>
      <trkpt lat="47.749557" lon="13.013341">
        <ele>447.00</ele>
        <time>2012-11-04T12:38:56Z</time>
      </trkpt>
      <trkpt lat="47.749542" lon="13.013456">
        <ele>447.00</ele>
        <time>2012-11-04T12:38:58Z</time>
      </trkpt>
      <trkpt lat="47.749500" lon="13.013840">
        <ele>447.00</ele>
        <time>2012-11-04T12:39:04Z</time>
      </trkpt>
      <trkpt lat="47.749474" lon="13.014049">
        <ele>447.00</ele>
        <time>2012-11-04T12:39:07Z</time>
      </trkpt>
      <trkpt lat="47.749454" lon="13.014174">
        <ele>447.00</ele>
        <time>2012-11-04T12:39:09Z</time>
      </trkpt>
      <trkpt lat="47.749447" lon="13.014238">
        <ele>447.00</ele>
        <time>2012-11-04T12:39:10Z</time>
      </trkpt>
      <trkpt lat="47.749390" lon="13.014747">
        <ele>447.00</ele>
        <time>2012-11-04T12:39:17Z</time>
      </trkpt>
      <trkpt lat="47.749306" lon="13.015329">
        <ele>447.00</ele>
        <time>2012-11-04T12:39:25Z</time>
      </trkpt>
      <trkpt lat="47.749176" lon="13.015829">
        <ele>447.00</ele>
        <time>2012-11-04T12:39:32Z</time>
      </trkpt>
      <trkpt lat="47.748993" lon="13.016398">
        <ele>447.00</ele>
        <time>2012-11-04T12:39:40Z</time>
      </trkpt>
      <trkpt lat="47.748821" lon="13.016856">
        <ele>447.00</ele>
        <time>2012-11-04T12:39:46Z</time>
      </trkpt>
      <trkpt lat="47.748783" lon="13.016923">
        <ele>447.00</ele>
        <time>2012-11-04T12:39:47Z</time>
      </trkpt>
      <trkpt lat="47.748470" lon="13.017306">
        <ele>447.00</ele>
        <time>2012-11-04T12:39:54Z</time>
      </trkpt>
      <trkpt lat="47.748131" lon="13.017697">
        <ele>447.00</ele>
        <time>2012-11-04T12:40:02Z</time>
      </trkpt>
      <trkpt lat="47.747944" lon="13.018104">
        <ele>447.00</ele>
        <time>2012-11-04T12:40:08Z</time>
      </trkpt>
      <trkpt lat="47.747787" lon="13.018811">
        <ele>447.00</ele>
        <time>2012-11-04T12:40:16Z</time>
      </trkpt>
      <trkpt lat="47.747684" lon="13.019274">
        <ele>447.00</ele>
        <time>2012-11-04T12:40:22Z</time>
      </trkpt>
      <trkpt lat="47.747650" lon="13.019340">
        <ele>446.60</ele>
        <time>2012-11-04T12:40:23Z</time>
      </trkpt>
      <trkpt lat="47.747623" lon="13.019388">
        <ele>446.20</ele>
        <time>2012-11-04T12:40:24Z</time>
      </trkpt>
      <trkpt lat="47.747597" lon="13.019443">
        <ele>445.80</ele>
        <time>2012-11-04T12:40:25Z</time>
      </trkpt>
      <trkpt lat="47.747566" lon="13.019496">
        <ele>445.40</ele>
        <time>2012-11-04T12:40:26Z</time>
      </trkpt>
      <trkpt lat="47.747540" lon="13.019547">
        <ele>445.00</ele>
        <time>2012-11-04T12:40:27Z</time>
      </trkpt>
      <trkpt lat="47.747440" lon="13.019754">
        <ele>445.00</ele>
        <time>2012-11-04T12:40:31Z</time>
      </trkpt>
      <trkpt lat="47.747295" lon="13.020048">
        <ele>445.00</ele>
        <time>2012-11-04T12:40:37Z</time>
      </trkpt>
      <trkpt lat="47.747089" lon="13.020484">
        <ele>445.00</ele>
        <time>2012-11-04T12:40:44Z</time>
      </trkpt>
      <trkpt lat="47.746925" lon="13.020877">
        <ele>445.00</ele>
        <time>2012-11-04T12:40:50Z</time>
      </trkpt>
      <trkpt lat="47.746876" lon="13.021006">
        <ele>445.00</ele>
        <time>2012-11-04T12:40:52Z</time>
      </trkpt>
      <trkpt lat="47.746719" lon="13.021382">
        <ele>445.00</ele>
        <time>2012-11-04T12:40:58Z</time>
      </trkpt>
      <trkpt lat="47.746506" lon="13.021951">
        <ele>445.00</ele>
        <time>2012-11-04T12:41:07Z</time>
      </trkpt>
      <trkpt lat="47.746323" lon="13.022469">
        <ele>445.00</ele>
        <time>2012-11-04T12:41:15Z</time>
      </trkpt>
      <trkpt lat="47.746113" lon="13.023050">
        <ele>445.00</ele>
        <time>2012-11-04T12:41:24Z</time>
      </trkpt>
      <trkpt lat="47.746090" lon="13.023117">
        <ele>445.00</ele>
        <time>2012-11-04T12:41:25Z</time>
      </trkpt>
      <trkpt lat="47.745968" lon="13.023449">
        <ele>445.00</ele>
        <time>2012-11-04T12:41:30Z</time>
      </trkpt>
      <trkpt lat="47.745846" lon="13.023787">
        <ele>445.00</ele>
        <time>2012-11-04T12:41:35Z</time>
      </trkpt>
      <trkpt lat="47.745655" lon="13.024321">
        <ele>445.00</ele>
        <time>2012-11-04T12:41:43Z</time>
      </trkpt>
      <trkpt lat="47.745453" lon="13.024910">
        <ele>445.00</ele>
        <time>2012-11-04T12:41:52Z</time>
      </trkpt>
      <trkpt lat="47.745300" lon="13.025330">
        <ele>445.00</ele>
        <time>2012-11-04T12:41:59Z</time>
      </trkpt>
      <trkpt lat="47.745258" lon="13.025455">
        <ele>445.40</ele>
        <time>2012-11-04T12:42:01Z</time>
      </trkpt>
      <trkpt lat="47.745235" lon="13.025517">
        <ele>445.80</ele>
        <time>2012-11-04T12:42:02Z</time>
      </trkpt>
      <trkpt lat="47.745213" lon="13.025580">
        <ele>446.20</ele>
        <time>2012-11-04T12:42:03Z</time>
      </trkpt>
      <trkpt lat="47.745193" lon="13.025642">
        <ele>446.60</ele>
        <time>2012-11-04T12:42:04Z</time>
      </trkpt>
      <trkpt lat="47.745171" lon="13.025704">
        <ele>447.00</ele>
        <time>2012-11-04T12:42:05Z</time>
      </trkpt>
      <trkpt lat="47.745106" lon="13.025880">
        <ele>447.00</ele>
        <time>2012-11-04T12:42:08Z</time>
      </trkpt>
      <trkpt lat="47.744968" lon="13.026268">
        <ele>447.00</ele>
        <time>2012-11-04T12:42:15Z</time>
      </trkpt>
      <trkpt lat="47.744881" lon="13.026510">
        <ele>447.00</ele>
        <time>2012-11-04T12:42:20Z</time>
      </trkpt>
      <trkpt lat="47.744728" lon="13.026920">
        <ele>447.40</ele>
        <time>2012-11-04T12:42:27Z</time>
      </trkpt>
      <trkpt lat="47.744709" lon="13.026979">
        <ele>447.80</ele>
        <time>2012-11-04T12:42:28Z</time>
      </trkpt>
      <trkpt lat="47.744686" lon="13.027037">
        <ele>448.20</ele>
        <time>2012-11-04T12:42:29Z</time>
      </trkpt>
      <trkpt lat="47.744667" lon="13.027092">
        <ele>448.60</ele>
        <time>2012-11-04T12:42:30Z</time>
      </trkpt>
      <trkpt lat="47.744648" lon="13.027147">
        <ele>449.00</ele>
        <time>2012-11-04T12:42:31Z</time>
      </trkpt>
      <trkpt lat="47.744522" lon="13.027495">
        <ele>449.00</ele>
        <time>2012-11-04T12:42:37Z</time>
      </trkpt>
      <trkpt lat="47.744347" lon="13.027971">
        <ele>449.00</ele>
        <time>2012-11-04T12:42:45Z</time>
      </trkpt>
      <trkpt lat="47.744164" lon="13.028461">
        <ele>449.00</ele>
        <time>2012-11-04T12:42:53Z</time>
      </trkpt>
      <trkpt lat="47.744053" lon="13.028831">
        <ele>449.00</ele>
        <time>2012-11-04T12:42:59Z</time>
      </trkpt>
      <trkpt lat="47.743992" lon="13.029080">
        <ele>449.40</ele>
        <time>2012-11-04T12:43:03Z</time>
      </trkpt>
      <trkpt lat="47.743980" lon="13.029144">
        <ele>449.80</ele>
        <time>2012-11-04T12:43:04Z</time>
      </trkpt>
      <trkpt lat="47.743965" lon="13.029207">
        <ele>450.20</ele>
        <time>2012-11-04T12:43:05Z</time>
      </trkpt>
      <trkpt lat="47.743950" lon="13.029269">
        <ele>450.60</ele>
        <time>2012-11-04T12:43:06Z</time>
      </trkpt>
      <trkpt lat="47.743935" lon="13.029334">
        <ele>451.00</ele>
        <time>2012-11-04T12:43:07Z</time>
      </trkpt>
      <trkpt lat="47.743839" lon="13.029652">
        <ele>451.00</ele>
        <time>2012-11-04T12:43:12Z</time>
      </trkpt>
      <trkpt lat="47.743725" lon="13.030036">
        <ele>451.00</ele>
        <time>2012-11-04T12:43:18Z</time>
      </trkpt>
      <trkpt lat="47.743702" lon="13.030100">
        <ele>451.00</ele>
        <time>2012-11-04T12:43:19Z</time>
      </trkpt>
      <trkpt lat="47.743534" lon="13.030493">
        <ele>451.00</ele>
        <time>2012-11-04T12:43:26Z</time>
      </trkpt>
      <trkpt lat="47.743362" lon="13.030859">
        <ele>451.00</ele>
        <time>2012-11-04T12:43:33Z</time>
      </trkpt>
      <trkpt lat="47.743336" lon="13.030917">
        <ele>451.00</ele>
        <time>2012-11-04T12:43:34Z</time>
      </trkpt>
      <trkpt lat="47.743240" lon="13.031131">
        <ele>451.00</ele>
        <time>2012-11-04T12:43:38Z</time>
      </trkpt>
      <trkpt lat="47.743137" lon="13.031334">
        <ele>451.00</ele>
        <time>2012-11-04T12:43:42Z</time>
      </trkpt>
      <trkpt lat="47.742958" lon="13.031711">
        <ele>451.00</ele>
        <time>2012-11-04T12:43:49Z</time>
      </trkpt>
      <trkpt lat="47.742809" lon="13.032004">
        <ele>451.00</ele>
        <time>2012-11-04T12:43:55Z</time>
      </trkpt>
      <trkpt lat="47.742695" lon="13.032233">
        <ele>451.00</ele>
        <time>2012-11-04T12:44:00Z</time>
      </trkpt>
      <trkpt lat="47.742527" lon="13.032609">
        <ele>451.00</ele>
        <time>2012-11-04T12:44:06Z</time>
      </trkpt>
      <trkpt lat="47.742393" lon="13.032922">
        <ele>451.00</ele>
        <time>2012-11-04T12:44:12Z</time>
      </trkpt>
      <trkpt lat="47.742283" lon="13.033196">
        <ele>451.00</ele>
        <time>2012-11-04T12:44:20Z</time>
      </trkpt>
      <trkpt lat="47.742279" lon="13.033207">
        <ele>451.00</ele>
        <time>2012-11-04T12:44:24Z</time>
      </trkpt>
      <trkpt lat="47.742264" lon="13.033211">
        <ele>451.00</ele>
        <time>2012-11-04T12:44:25Z</time>
      </trkpt>
      <trkpt lat="47.742218" lon="13.033237">
        <ele>451.00</ele>
        <time>2012-11-04T12:44:28Z</time>
      </trkpt>
      <trkpt lat="47.742207" lon="13.033290">
        <ele>451.00</ele>
        <time>2012-11-04T12:44:30Z</time>
      </trkpt>
      <trkpt lat="47.742188" lon="13.033504">
        <ele>451.00</ele>
        <time>2012-11-04T12:44:35Z</time>
      </trkpt>
      <trkpt lat="47.742180" lon="13.033592">
        <ele>451.00</ele>
        <time>2012-11-04T12:44:37Z</time>
      </trkpt>
      <trkpt lat="47.742130" lon="13.033738">
        <ele>451.00</ele>
        <time>2012-11-04T12:44:40Z</time>
      </trkpt>
      <trkpt lat="47.742104" lon="13.033784">
        <ele>451.00</ele>
        <time>2012-11-04T12:44:41Z</time>
      </trkpt>
      <trkpt lat="47.741875" lon="13.034083">
        <ele>451.00</ele>
        <time>2012-11-04T12:44:48Z</time>
      </trkpt>
      <trkpt lat="47.741753" lon="13.034278">
        <ele>451.00</ele>
        <time>2012-11-04T12:44:52Z</time>
      </trkpt>
      <trkpt lat="47.741550" lon="13.034631">
        <ele>451.00</ele>
        <time>2012-11-04T12:44:58Z</time>
      </trkpt>
      <trkpt lat="47.741520" lon="13.034685">
        <ele>451.00</ele>
        <time>2012-11-04T12:44:59Z</time>
      </trkpt>
      <trkpt lat="47.741283" lon="13.035076">
        <ele>451.00</ele>
        <time>2012-11-04T12:45:06Z</time>
      </trkpt>
      <trkpt lat="47.741123" lon="13.035280">
        <ele>451.00</ele>
        <time>2012-11-04T12:45:10Z</time>
      </trkpt>
      <trkpt lat="47.741032" lon="13.035362">
        <ele>451.00</ele>
        <time>2012-11-04T12:45:12Z</time>
      </trkpt>
      <trkpt lat="47.740891" lon="13.035452">
        <ele>451.00</ele>
        <time>2012-11-04T12:45:15Z</time>
      </trkpt>
      <trkpt lat="47.740799" lon="13.035506">
        <ele>451.00</ele>
        <time>2012-11-04T12:45:17Z</time>
      </trkpt>
      <trkpt lat="47.740753" lon="13.035542">
        <ele>451.00</ele>
        <time>2012-11-04T12:45:18Z</time>
      </trkpt>
      <trkpt lat="47.740494" lon="13.035794">
        <ele>451.00</ele>
        <time>2012-11-04T12:45:24Z</time>
      </trkpt>
      <trkpt lat="47.740189" lon="13.036059">
        <ele>451.00</ele>
        <time>2012-11-04T12:45:31Z</time>
      </trkpt>
      <trkpt lat="47.739937" lon="13.036156">
        <ele>451.00</ele>
        <time>2012-11-04T12:45:36Z</time>
      </trkpt>
      <trkpt lat="47.739792" lon="13.036187">
        <ele>451.00</ele>
        <time>2012-11-04T12:45:39Z</time>
      </trkpt>
      <trkpt lat="47.739647" lon="13.036244">
        <ele>451.00</ele>
        <time>2012-11-04T12:45:42Z</time>
      </trkpt>
      <trkpt lat="47.739559" lon="13.036303">
        <ele>451.00</ele>
        <time>2012-11-04T12:45:44Z</time>
      </trkpt>
      <trkpt lat="47.739437" lon="13.036432">
        <ele>451.00</ele>
        <time>2012-11-04T12:45:47Z</time>
      </trkpt>
      <trkpt lat="47.739304" lon="13.036551">
        <ele>451.00</ele>
        <time>2012-11-04T12:45:50Z</time>
      </trkpt>
      <trkpt lat="47.739155" lon="13.036628">
        <ele>451.00</ele>
        <time>2012-11-04T12:45:53Z</time>
      </trkpt>
      <trkpt lat="47.738903" lon="13.036700">
        <ele>451.00</ele>
        <time>2012-11-04T12:45:58Z</time>
      </trkpt>
      <trkpt lat="47.738853" lon="13.036693">
        <ele>451.00</ele>
        <time>2012-11-04T12:45:59Z</time>
      </trkpt>
      <trkpt lat="47.738667" lon="13.036574">
        <ele>451.00</ele>
        <time>2012-11-04T12:46:03Z</time>
      </trkpt>
      <trkpt lat="47.738621" lon="13.036537">
        <ele>451.00</ele>
        <time>2012-11-04T12:46:04Z</time>
      </trkpt>
      <trkpt lat="47.738403" lon="13.036379">
        <ele>451.00</ele>
        <time>2012-11-04T12:46:09Z</time>
      </trkpt>
      <trkpt lat="47.738358" lon="13.036354">
        <ele>451.00</ele>
        <time>2012-11-04T12:46:10Z</time>
      </trkpt>
      <trkpt lat="47.738045" lon="13.036282">
        <ele>451.00</ele>
        <time>2012-11-04T12:46:16Z</time>
      </trkpt>
      <trkpt lat="47.737896" lon="13.036285">
        <ele>451.40</ele>
        <time>2012-11-04T12:46:19Z</time>
      </trkpt>
      <trkpt lat="47.737843" lon="13.036299">
        <ele>451.80</ele>
        <time>2012-11-04T12:46:20Z</time>
      </trkpt>
      <trkpt lat="47.737797" lon="13.036313">
        <ele>452.20</ele>
        <time>2012-11-04T12:46:21Z</time>
      </trkpt>
      <trkpt lat="47.737751" lon="13.036327">
        <ele>452.60</ele>
        <time>2012-11-04T12:46:22Z</time>
      </trkpt>
      <trkpt lat="47.737705" lon="13.036346">
        <ele>453.00</ele>
        <time>2012-11-04T12:46:23Z</time>
      </trkpt>
      <trkpt lat="47.737572" lon="13.036438">
        <ele>453.00</ele>
        <time>2012-11-04T12:46:26Z</time>
      </trkpt>
      <trkpt lat="47.737530" lon="13.036478">
        <ele>453.00</ele>
        <time>2012-11-04T12:46:27Z</time>
      </trkpt>
      <trkpt lat="47.737450" lon="13.036572">
        <ele>453.00</ele>
        <time>2012-11-04T12:46:29Z</time>
      </trkpt>
      <trkpt lat="47.737316" lon="13.036794">
        <ele>453.00</ele>
        <time>2012-11-04T12:46:33Z</time>
      </trkpt>
      <trkpt lat="47.737263" lon="13.036914">
        <ele>453.00</ele>
        <time>2012-11-04T12:46:35Z</time>
      </trkpt>
      <trkpt lat="47.737156" lon="13.037181">
        <ele>453.00</ele>
        <time>2012-11-04T12:46:39Z</time>
      </trkpt>
      <trkpt lat="47.737091" lon="13.037307">
        <ele>453.00</ele>
        <time>2012-11-04T12:46:41Z</time>
      </trkpt>
      <trkpt lat="47.736961" lon="13.037467">
        <ele>453.00</ele>
        <time>2012-11-04T12:46:44Z</time>
      </trkpt>
      <trkpt lat="47.736763" lon="13.037602">
        <ele>453.00</ele>
        <time>2012-11-04T12:46:48Z</time>
      </trkpt>
      <trkpt lat="47.736710" lon="13.037619">
        <ele>453.00</ele>
        <time>2012-11-04T12:46:49Z</time>
      </trkpt>
      <trkpt lat="47.736542" lon="13.037627">
        <ele>453.00</ele>
        <time>2012-11-04T12:46:52Z</time>
      </trkpt>
      <trkpt lat="47.736439" lon="13.037625">
        <ele>453.00</ele>
        <time>2012-11-04T12:46:54Z</time>
      </trkpt>
      <trkpt lat="47.736088" lon="13.037631">
        <ele>453.00</ele>
        <time>2012-11-04T12:47:01Z</time>
      </trkpt>
      <trkpt lat="47.735767" lon="13.037718">
        <ele>453.00</ele>
        <time>2012-11-04T12:47:07Z</time>
      </trkpt>
      <trkpt lat="47.735397" lon="13.037824">
        <ele>453.00</ele>
        <time>2012-11-04T12:47:14Z</time>
      </trkpt>
      <trkpt lat="47.735035" lon="13.037933">
        <ele>453.00</ele>
        <time>2012-11-04T12:47:21Z</time>
      </trkpt>
      <trkpt lat="47.734833" lon="13.037997">
        <ele>453.40</ele>
        <time>2012-11-04T12:47:25Z</time>
      </trkpt>
      <trkpt lat="47.734783" lon="13.038010">
        <ele>453.80</ele>
        <time>2012-11-04T12:47:26Z</time>
      </trkpt>
      <trkpt lat="47.734730" lon="13.038026">
        <ele>454.20</ele>
        <time>2012-11-04T12:47:27Z</time>
      </trkpt>
      <trkpt lat="47.734680" lon="13.038042">
        <ele>454.80</ele>
        <time>2012-11-04T12:47:28Z</time>
      </trkpt>
      <trkpt lat="47.734623" lon="13.038061">
        <ele>455.20</ele>
        <time>2012-11-04T12:47:29Z</time>
      </trkpt>
      <trkpt lat="47.734577" lon="13.038078">
        <ele>455.20</ele>
        <time>2012-11-04T12:47:30Z</time>
      </trkpt>
      <trkpt lat="47.734425" lon="13.038118">
        <ele>455.20</ele>
        <time>2012-11-04T12:47:33Z</time>
      </trkpt>
      <trkpt lat="47.734261" lon="13.038147">
        <ele>455.20</ele>
        <time>2012-11-04T12:47:36Z</time>
      </trkpt>
      <trkpt lat="47.733776" lon="13.038287">
        <ele>455.20</ele>
        <time>2012-11-04T12:47:45Z</time>
      </trkpt>
      <trkpt lat="47.733356" lon="13.038421">
        <ele>455.20</ele>
        <time>2012-11-04T12:47:53Z</time>
      </trkpt>
      <trkpt lat="47.732998" lon="13.038538">
        <ele>455.20</ele>
        <time>2012-11-04T12:48:00Z</time>
      </trkpt>
      <trkpt lat="47.732948" lon="13.038543">
        <ele>455.20</ele>
        <time>2012-11-04T12:48:01Z</time>
      </trkpt>
      <trkpt lat="47.732899" lon="13.038560">
        <ele>455.20</ele>
        <time>2012-11-04T12:48:02Z</time>
      </trkpt>
      <trkpt lat="47.732708" lon="13.038628">
        <ele>455.20</ele>
        <time>2012-11-04T12:48:06Z</time>
      </trkpt>
      <trkpt lat="47.732525" lon="13.038736">
        <ele>455.20</ele>
        <time>2012-11-04T12:48:10Z</time>
      </trkpt>
      <trkpt lat="47.732475" lon="13.038752">
        <ele>455.20</ele>
        <time>2012-11-04T12:48:11Z</time>
      </trkpt>
      <trkpt lat="47.732288" lon="13.038800">
        <ele>455.20</ele>
        <time>2012-11-04T12:48:15Z</time>
      </trkpt>
      <trkpt lat="47.732201" lon="13.038834">
        <ele>455.20</ele>
        <time>2012-11-04T12:48:17Z</time>
      </trkpt>
      <trkpt lat="47.732162" lon="13.038842">
        <ele>455.20</ele>
        <time>2012-11-04T12:48:18Z</time>
      </trkpt>
      <trkpt lat="47.731987" lon="13.038855">
        <ele>455.20</ele>
        <time>2012-11-04T12:48:22Z</time>
      </trkpt>
      <trkpt lat="47.731804" lon="13.038857">
        <ele>455.60</ele>
        <time>2012-11-04T12:48:26Z</time>
      </trkpt>
      <trkpt lat="47.731754" lon="13.038857">
        <ele>456.00</ele>
        <time>2012-11-04T12:48:27Z</time>
      </trkpt>
      <trkpt lat="47.731709" lon="13.038855">
        <ele>456.40</ele>
        <time>2012-11-04T12:48:28Z</time>
      </trkpt>
      <trkpt lat="47.731663" lon="13.038852">
        <ele>456.80</ele>
        <time>2012-11-04T12:48:29Z</time>
      </trkpt>
      <trkpt lat="47.731613" lon="13.038850">
        <ele>457.20</ele>
        <time>2012-11-04T12:48:30Z</time>
      </trkpt>
      <trkpt lat="47.731350" lon="13.038840">
        <ele>457.20</ele>
        <time>2012-11-04T12:48:36Z</time>
      </trkpt>
      <trkpt lat="47.731041" lon="13.038877">
        <ele>457.20</ele>
        <time>2012-11-04T12:48:43Z</time>
      </trkpt>
      <trkpt lat="47.730911" lon="13.038938">
        <ele>457.20</ele>
        <time>2012-11-04T12:48:46Z</time>
      </trkpt>
      <trkpt lat="47.730793" lon="13.039030">
        <ele>457.20</ele>
        <time>2012-11-04T12:48:49Z</time>
      </trkpt>
      <trkpt lat="47.730568" lon="13.039276">
        <ele>457.20</ele>
        <time>2012-11-04T12:48:55Z</time>
      </trkpt>
      <trkpt lat="47.730530" lon="13.039321">
        <ele>457.20</ele>
        <time>2012-11-04T12:48:56Z</time>
      </trkpt>
      <trkpt lat="47.730282" lon="13.039567">
        <ele>457.20</ele>
        <time>2012-11-04T12:49:02Z</time>
      </trkpt>
      <trkpt lat="47.730190" lon="13.039640">
        <ele>457.20</ele>
        <time>2012-11-04T12:49:04Z</time>
      </trkpt>
      <trkpt lat="47.730019" lon="13.039774">
        <ele>457.60</ele>
        <time>2012-11-04T12:49:08Z</time>
      </trkpt>
      <trkpt lat="47.729973" lon="13.039809">
        <ele>458.00</ele>
        <time>2012-11-04T12:49:09Z</time>
      </trkpt>
      <trkpt lat="47.729935" lon="13.039841">
        <ele>458.40</ele>
        <time>2012-11-04T12:49:10Z</time>
      </trkpt>
      <trkpt lat="47.729897" lon="13.039874">
        <ele>458.80</ele>
        <time>2012-11-04T12:49:11Z</time>
      </trkpt>
      <trkpt lat="47.729855" lon="13.039906">
        <ele>459.40</ele>
        <time>2012-11-04T12:49:12Z</time>
      </trkpt>
      <trkpt lat="47.729645" lon="13.040101">
        <ele>459.40</ele>
        <time>2012-11-04T12:49:17Z</time>
      </trkpt>
      <trkpt lat="47.729561" lon="13.040186">
        <ele>459.40</ele>
        <time>2012-11-04T12:49:19Z</time>
      </trkpt>
      <trkpt lat="47.729282" lon="13.040474">
        <ele>459.40</ele>
        <time>2012-11-04T12:49:26Z</time>
      </trkpt>
      <trkpt lat="47.729000" lon="13.040770">
        <ele>459.40</ele>
        <time>2012-11-04T12:49:33Z</time>
      </trkpt>
      <trkpt lat="47.728657" lon="13.041075">
        <ele>459.40</ele>
        <time>2012-11-04T12:49:41Z</time>
      </trkpt>
      <trkpt lat="47.728363" lon="13.041333">
        <ele>459.40</ele>
        <time>2012-11-04T12:49:48Z</time>
      </trkpt>
      <trkpt lat="47.728050" lon="13.041685">
        <ele>459.40</ele>
        <time>2012-11-04T12:49:56Z</time>
      </trkpt>
      <trkpt lat="47.727768" lon="13.042042">
        <ele>459.40</ele>
        <time>2012-11-04T12:50:04Z</time>
      </trkpt>
      <trkpt lat="47.727699" lon="13.042124">
        <ele>459.40</ele>
        <time>2012-11-04T12:50:06Z</time>
      </trkpt>
      <trkpt lat="47.727634" lon="13.042213">
        <ele>459.40</ele>
        <time>2012-11-04T12:50:08Z</time>
      </trkpt>
      <trkpt lat="47.727524" lon="13.042345">
        <ele>459.40</ele>
        <time>2012-11-04T12:50:11Z</time>
      </trkpt>
      <trkpt lat="47.727158" lon="13.042712">
        <ele>459.40</ele>
        <time>2012-11-04T12:50:19Z</time>
      </trkpt>
      <trkpt lat="47.727020" lon="13.042869">
        <ele>459.40</ele>
        <time>2012-11-04T12:50:22Z</time>
      </trkpt>
      <trkpt lat="47.726936" lon="13.042996">
        <ele>459.40</ele>
        <time>2012-11-04T12:50:24Z</time>
      </trkpt>
      <trkpt lat="47.726894" lon="13.043068">
        <ele>459.40</ele>
        <time>2012-11-04T12:50:25Z</time>
      </trkpt>
      <trkpt lat="47.726860" lon="13.043141">
        <ele>459.40</ele>
        <time>2012-11-04T12:50:26Z</time>
      </trkpt>
      <trkpt lat="47.726738" lon="13.043462">
        <ele>459.40</ele>
        <time>2012-11-04T12:50:30Z</time>
      </trkpt>
      <trkpt lat="47.726601" lon="13.043792">
        <ele>459.40</ele>
        <time>2012-11-04T12:50:35Z</time>
      </trkpt>
      <trkpt lat="47.726563" lon="13.043818">
        <ele>458.80</ele>
        <time>2012-11-04T12:50:36Z</time>
      </trkpt>
      <trkpt lat="47.726513" lon="13.043820">
        <ele>458.40</ele>
        <time>2012-11-04T12:50:37Z</time>
      </trkpt>
      <trkpt lat="47.726467" lon="13.043804">
        <ele>458.00</ele>
        <time>2012-11-04T12:50:38Z</time>
      </trkpt>
      <trkpt lat="47.726421" lon="13.043781">
        <ele>457.60</ele>
        <time>2012-11-04T12:50:39Z</time>
      </trkpt>
      <trkpt lat="47.726372" lon="13.043747">
        <ele>457.20</ele>
        <time>2012-11-04T12:50:41Z</time>
      </trkpt>
      <trkpt lat="47.726326" lon="13.043708">
        <ele>457.20</ele>
        <time>2012-11-04T12:50:42Z</time>
      </trkpt>
      <trkpt lat="47.726231" lon="13.043629">
        <ele>457.20</ele>
        <time>2012-11-04T12:50:44Z</time>
      </trkpt>
      <trkpt lat="47.725815" lon="13.043350">
        <ele>457.20</ele>
        <time>2012-11-04T12:50:52Z</time>
      </trkpt>
      <trkpt lat="47.725471" lon="13.043111">
        <ele>457.20</ele>
        <time>2012-11-04T12:50:59Z</time>
      </trkpt>
      <trkpt lat="47.725159" lon="13.042877">
        <ele>457.20</ele>
        <time>2012-11-04T12:51:06Z</time>
      </trkpt>
      <trkpt lat="47.725117" lon="13.042865">
        <ele>457.20</ele>
        <time>2012-11-04T12:51:07Z</time>
      </trkpt>
      <trkpt lat="47.725037" lon="13.042918">
        <ele>457.20</ele>
        <time>2012-11-04T12:51:09Z</time>
      </trkpt>
      <trkpt lat="47.724979" lon="13.043077">
        <ele>457.20</ele>
        <time>2012-11-04T12:51:12Z</time>
      </trkpt>
      <trkpt lat="47.724968" lon="13.043127">
        <ele>457.20</ele>
        <time>2012-11-04T12:51:13Z</time>
      </trkpt>
      <trkpt lat="47.724922" lon="13.043318">
        <ele>457.20</ele>
        <time>2012-11-04T12:51:17Z</time>
      </trkpt>
      <trkpt lat="47.724884" lon="13.043573">
        <ele>457.20</ele>
        <time>2012-11-04T12:51:22Z</time>
      </trkpt>
      <trkpt lat="47.724907" lon="13.043880">
        <ele>457.20</ele>
        <time>2012-11-04T12:51:27Z</time>
      </trkpt>
      <trkpt lat="47.724918" lon="13.043937">
        <ele>456.80</ele>
        <time>2012-11-04T12:51:28Z</time>
      </trkpt>
      <trkpt lat="47.724934" lon="13.043989">
        <ele>456.40</ele>
        <time>2012-11-04T12:51:29Z</time>
      </trkpt>
      <trkpt lat="47.724945" lon="13.044047">
        <ele>456.00</ele>
        <time>2012-11-04T12:51:30Z</time>
      </trkpt>
      <trkpt lat="47.724957" lon="13.044107">
        <ele>455.60</ele>
        <time>2012-11-04T12:51:31Z</time>
      </trkpt>
      <trkpt lat="47.724972" lon="13.044174">
        <ele>455.20</ele>
        <time>2012-11-04T12:51:32Z</time>
      </trkpt>
      <trkpt lat="47.724983" lon="13.044242">
        <ele>455.20</ele>
        <time>2012-11-04T12:51:33Z</time>
      </trkpt>
      <trkpt lat="47.725048" lon="13.044703">
        <ele>455.20</ele>
        <time>2012-11-04T12:51:40Z</time>
      </trkpt>
      <trkpt lat="47.725060" lon="13.045248">
        <ele>455.20</ele>
        <time>2012-11-04T12:51:48Z</time>
      </trkpt>
      <trkpt lat="47.725048" lon="13.045503">
        <ele>455.20</ele>
        <time>2012-11-04T12:51:52Z</time>
      </trkpt>
      <trkpt lat="47.725082" lon="13.045685">
        <ele>455.20</ele>
        <time>2012-11-04T12:51:55Z</time>
      </trkpt>
      <trkpt lat="47.725098" lon="13.045753">
        <ele>455.20</ele>
        <time>2012-11-04T12:51:56Z</time>
      </trkpt>
      <trkpt lat="47.725109" lon="13.045816">
        <ele>455.20</ele>
        <time>2012-11-04T12:51:57Z</time>
      </trkpt>
      <trkpt lat="47.725121" lon="13.046022">
        <ele>455.20</ele>
        <time>2012-11-04T12:52:00Z</time>
      </trkpt>
      <trkpt lat="47.725113" lon="13.046097">
        <ele>455.20</ele>
        <time>2012-11-04T12:52:01Z</time>
      </trkpt>
      <trkpt lat="47.725094" lon="13.046245">
        <ele>455.20</ele>
        <time>2012-11-04T12:52:03Z</time>
      </trkpt>
      <trkpt lat="47.725048" lon="13.046505">
        <ele>455.20</ele>
        <time>2012-11-04T12:52:07Z</time>
      </trkpt>
      <trkpt lat="47.724960" lon="13.046941">
        <ele>455.20</ele>
        <time>2012-11-04T12:52:13Z</time>
      </trkpt>
      <trkpt lat="47.724899" lon="13.047317">
        <ele>455.20</ele>
        <time>2012-11-04T12:52:18Z</time>
      </trkpt>
      <trkpt lat="47.724873" lon="13.047547">
        <ele>455.20</ele>
        <time>2012-11-04T12:52:21Z</time>
      </trkpt>
      <trkpt lat="47.724846" lon="13.047774">
        <ele>455.20</ele>
        <time>2012-11-04T12:52:24Z</time>
      </trkpt>
      <trkpt lat="47.724789" lon="13.048055">
        <ele>455.20</ele>
        <time>2012-11-04T12:52:28Z</time>
      </trkpt>
      <trkpt lat="47.724628" lon="13.048617">
        <ele>455.20</ele>
        <time>2012-11-04T12:52:36Z</time>
      </trkpt>
      <trkpt lat="47.724609" lon="13.048688">
        <ele>455.20</ele>
        <time>2012-11-04T12:52:37Z</time>
      </trkpt>
      <trkpt lat="47.724506" lon="13.049061">
        <ele>455.20</ele>
        <time>2012-11-04T12:52:42Z</time>
      </trkpt>
      <trkpt lat="47.724350" lon="13.049664">
        <ele>455.20</ele>
        <time>2012-11-04T12:52:50Z</time>
      </trkpt>
      <trkpt lat="47.724285" lon="13.049891">
        <ele>454.80</ele>
        <time>2012-11-04T12:52:53Z</time>
      </trkpt>
      <trkpt lat="47.724262" lon="13.049969">
        <ele>454.20</ele>
        <time>2012-11-04T12:52:54Z</time>
      </trkpt>
      <trkpt lat="47.724243" lon="13.050043">
        <ele>453.80</ele>
        <time>2012-11-04T12:52:55Z</time>
      </trkpt>
      <trkpt lat="47.724224" lon="13.050119">
        <ele>453.40</ele>
        <time>2012-11-04T12:52:56Z</time>
      </trkpt>
      <trkpt lat="47.724205" lon="13.050203">
        <ele>453.00</ele>
        <time>2012-11-04T12:52:57Z</time>
      </trkpt>
      <trkpt lat="47.724060" lon="13.050746">
        <ele>453.00</ele>
        <time>2012-11-04T12:53:04Z</time>
      </trkpt>
      <trkpt lat="47.723942" lon="13.051195">
        <ele>453.00</ele>
        <time>2012-11-04T12:53:10Z</time>
      </trkpt>
      <trkpt lat="47.723778" lon="13.051813">
        <ele>453.00</ele>
        <time>2012-11-04T12:53:18Z</time>
      </trkpt>
      <trkpt lat="47.723705" lon="13.052036">
        <ele>453.00</ele>
        <time>2012-11-04T12:53:21Z</time>
      </trkpt>
      <trkpt lat="47.723660" lon="13.052182">
        <ele>453.00</ele>
        <time>2012-11-04T12:53:23Z</time>
      </trkpt>
      <trkpt lat="47.723549" lon="13.052623">
        <ele>453.00</ele>
        <time>2012-11-04T12:53:29Z</time>
      </trkpt>
      <trkpt lat="47.723469" lon="13.052944">
        <ele>452.60</ele>
        <time>2012-11-04T12:53:33Z</time>
      </trkpt>
      <trkpt lat="47.723446" lon="13.053020">
        <ele>452.20</ele>
        <time>2012-11-04T12:53:34Z</time>
      </trkpt>
      <trkpt lat="47.723423" lon="13.053099">
        <ele>451.80</ele>
        <time>2012-11-04T12:53:35Z</time>
      </trkpt>
      <trkpt lat="47.723404" lon="13.053174">
        <ele>451.40</ele>
        <time>2012-11-04T12:53:36Z</time>
      </trkpt>
      <trkpt lat="47.723385" lon="13.053246">
        <ele>451.00</ele>
        <time>2012-11-04T12:53:37Z</time>
      </trkpt>
      <trkpt lat="47.723351" lon="13.053394">
        <ele>451.00</ele>
        <time>2012-11-04T12:53:39Z</time>
      </trkpt>
      <trkpt lat="47.723331" lon="13.053469">
        <ele>451.00</ele>
        <time>2012-11-04T12:53:40Z</time>
      </trkpt>
      <trkpt lat="47.723221" lon="13.053913">
        <ele>451.00</ele>
        <time>2012-11-04T12:53:46Z</time>
      </trkpt>
      <trkpt lat="47.723106" lon="13.054338">
        <ele>451.00</ele>
        <time>2012-11-04T12:53:52Z</time>
      </trkpt>
      <trkpt lat="47.723042" lon="13.054539">
        <ele>451.00</ele>
        <time>2012-11-04T12:53:55Z</time>
      </trkpt>
      <trkpt lat="47.722931" lon="13.054708">
        <ele>451.00</ele>
        <time>2012-11-04T12:53:58Z</time>
      </trkpt>
      <trkpt lat="47.722855" lon="13.054792">
        <ele>451.00</ele>
        <time>2012-11-04T12:54:00Z</time>
      </trkpt>
      <trkpt lat="47.722717" lon="13.054890">
        <ele>451.00</ele>
        <time>2012-11-04T12:54:03Z</time>
      </trkpt>
      <trkpt lat="47.722366" lon="13.055137">
        <ele>451.00</ele>
        <time>2012-11-04T12:54:11Z</time>
      </trkpt>
      <trkpt lat="47.722038" lon="13.055343">
        <ele>451.00</ele>
        <time>2012-11-04T12:54:18Z</time>
      </trkpt>
      <trkpt lat="47.721764" lon="13.055538">
        <ele>451.00</ele>
        <time>2012-11-04T12:54:24Z</time>
      </trkpt>
      <trkpt lat="47.721581" lon="13.055647">
        <ele>450.60</ele>
        <time>2012-11-04T12:54:28Z</time>
      </trkpt>
      <trkpt lat="47.721539" lon="13.055673">
        <ele>450.20</ele>
        <time>2012-11-04T12:54:29Z</time>
      </trkpt>
      <trkpt lat="47.721497" lon="13.055704">
        <ele>449.80</ele>
        <time>2012-11-04T12:54:30Z</time>
      </trkpt>
      <trkpt lat="47.721455" lon="13.055745">
        <ele>449.40</ele>
        <time>2012-11-04T12:54:31Z</time>
      </trkpt>
      <trkpt lat="47.721420" lon="13.055781">
        <ele>449.00</ele>
        <time>2012-11-04T12:54:32Z</time>
      </trkpt>
      <trkpt lat="47.721310" lon="13.055923">
        <ele>449.00</ele>
        <time>2012-11-04T12:54:35Z</time>
      </trkpt>
      <trkpt lat="47.721264" lon="13.056038">
        <ele>449.00</ele>
        <time>2012-11-04T12:54:37Z</time>
      </trkpt>
      <trkpt lat="47.721249" lon="13.056191">
        <ele>449.00</ele>
        <time>2012-11-04T12:54:39Z</time>
      </trkpt>
      <trkpt lat="47.721245" lon="13.056343">
        <ele>449.40</ele>
        <time>2012-11-04T12:54:41Z</time>
      </trkpt>
      <trkpt lat="47.721245" lon="13.056422">
        <ele>449.80</ele>
        <time>2012-11-04T12:54:42Z</time>
      </trkpt>
      <trkpt lat="47.721249" lon="13.056506">
        <ele>450.20</ele>
        <time>2012-11-04T12:54:43Z</time>
      </trkpt>
      <trkpt lat="47.721249" lon="13.056586">
        <ele>450.60</ele>
        <time>2012-11-04T12:54:44Z</time>
      </trkpt>
      <trkpt lat="47.721249" lon="13.056664">
        <ele>451.00</ele>
        <time>2012-11-04T12:54:45Z</time>
      </trkpt>
      <trkpt lat="47.721252" lon="13.056744">
        <ele>451.00</ele>
        <time>2012-11-04T12:54:46Z</time>
      </trkpt>
      <trkpt lat="47.721241" lon="13.056894">
        <ele>451.00</ele>
        <time>2012-11-04T12:54:48Z</time>
      </trkpt>
      <trkpt lat="47.721191" lon="13.057101">
        <ele>451.00</ele>
        <time>2012-11-04T12:54:51Z</time>
      </trkpt>
      <trkpt lat="47.721149" lon="13.057231">
        <ele>451.00</ele>
        <time>2012-11-04T12:54:53Z</time>
      </trkpt>
      <trkpt lat="47.721035" lon="13.057459">
        <ele>451.00</ele>
        <time>2012-11-04T12:54:57Z</time>
      </trkpt>
      <trkpt lat="47.720810" lon="13.057918">
        <ele>451.00</ele>
        <time>2012-11-04T12:55:05Z</time>
      </trkpt>
      <trkpt lat="47.720654" lon="13.058208">
        <ele>451.00</ele>
        <time>2012-11-04T12:55:10Z</time>
      </trkpt>
      <trkpt lat="47.720535" lon="13.058363">
        <ele>451.00</ele>
        <time>2012-11-04T12:55:13Z</time>
      </trkpt>
      <trkpt lat="47.720215" lon="13.058805">
        <ele>451.00</ele>
        <time>2012-11-04T12:55:21Z</time>
      </trkpt>
      <trkpt lat="47.719910" lon="13.059279">
        <ele>451.00</ele>
        <time>2012-11-04T12:55:29Z</time>
      </trkpt>
      <trkpt lat="47.719868" lon="13.059337">
        <ele>451.00</ele>
        <time>2012-11-04T12:55:30Z</time>
      </trkpt>
      <trkpt lat="47.719559" lon="13.059796">
        <ele>451.00</ele>
        <time>2012-11-04T12:55:38Z</time>
      </trkpt>
      <trkpt lat="47.719257" lon="13.060249">
        <ele>451.00</ele>
        <time>2012-11-04T12:55:46Z</time>
      </trkpt>
      <trkpt lat="47.718956" lon="13.060633">
        <ele>451.00</ele>
        <time>2012-11-04T12:55:54Z</time>
      </trkpt>
      <trkpt lat="47.718872" lon="13.060727">
        <ele>451.00</ele>
        <time>2012-11-04T12:55:56Z</time>
      </trkpt>
      <trkpt lat="47.718788" lon="13.060815">
        <ele>450.60</ele>
        <time>2012-11-04T12:55:58Z</time>
      </trkpt>
      <trkpt lat="47.718742" lon="13.060855">
        <ele>450.20</ele>
        <time>2012-11-04T12:55:59Z</time>
      </trkpt>
      <trkpt lat="47.718704" lon="13.060889">
        <ele>449.80</ele>
        <time>2012-11-04T12:56:00Z</time>
      </trkpt>
      <trkpt lat="47.718670" lon="13.060935">
        <ele>449.40</ele>
        <time>2012-11-04T12:56:01Z</time>
      </trkpt>
      <trkpt lat="47.718643" lon="13.060987">
        <ele>448.80</ele>
        <time>2012-11-04T12:56:02Z</time>
      </trkpt>
      <trkpt lat="47.718609" lon="13.061083">
        <ele>448.80</ele>
        <time>2012-11-04T12:56:04Z</time>
      </trkpt>
      <trkpt lat="47.718567" lon="13.061183">
        <ele>448.80</ele>
        <time>2012-11-04T12:56:08Z</time>
      </trkpt>
      <trkpt lat="47.718498" lon="13.061285">
        <ele>448.80</ele>
        <time>2012-11-04T12:56:11Z</time>
      </trkpt>
      <trkpt lat="47.718468" lon="13.061296">
        <ele>448.80</ele>
        <time>2012-11-04T12:56:12Z</time>
      </trkpt>
      <trkpt lat="47.718372" lon="13.061267">
        <ele>448.80</ele>
        <time>2012-11-04T12:56:16Z</time>
      </trkpt>
      <trkpt lat="47.718243" lon="13.061252">
        <ele>448.80</ele>
        <time>2012-11-04T12:56:22Z</time>
      </trkpt>
      <trkpt lat="47.718067" lon="13.061238">
        <ele>448.80</ele>
        <time>2012-11-04T12:56:29Z</time>
      </trkpt>
      <trkpt lat="47.717846" lon="13.061233">
        <ele>448.80</ele>
        <time>2012-11-04T12:56:34Z</time>
      </trkpt>
      <trkpt lat="47.717545" lon="13.061236">
        <ele>448.80</ele>
        <time>2012-11-04T12:56:40Z</time>
      </trkpt>
      <trkpt lat="47.717495" lon="13.061240">
        <ele>448.80</ele>
        <time>2012-11-04T12:56:41Z</time>
      </trkpt>
      <trkpt lat="47.717289" lon="13.061255">
        <ele>448.40</ele>
        <time>2012-11-04T12:56:45Z</time>
      </trkpt>
      <trkpt lat="47.717236" lon="13.061258">
        <ele>448.00</ele>
        <time>2012-11-04T12:56:46Z</time>
      </trkpt>
      <trkpt lat="47.717186" lon="13.061264">
        <ele>447.60</ele>
        <time>2012-11-04T12:56:47Z</time>
      </trkpt>
      <trkpt lat="47.717129" lon="13.061271">
        <ele>447.20</ele>
        <time>2012-11-04T12:56:48Z</time>
      </trkpt>
      <trkpt lat="47.717075" lon="13.061275">
        <ele>446.80</ele>
        <time>2012-11-04T12:56:49Z</time>
      </trkpt>
      <trkpt lat="47.716675" lon="13.061386">
        <ele>446.80</ele>
        <time>2012-11-04T12:56:56Z</time>
      </trkpt>
      <trkpt lat="47.716572" lon="13.061460">
        <ele>446.40</ele>
        <time>2012-11-04T12:56:58Z</time>
      </trkpt>
      <trkpt lat="47.716515" lon="13.061496">
        <ele>446.00</ele>
        <time>2012-11-04T12:56:59Z</time>
      </trkpt>
      <trkpt lat="47.716473" lon="13.061538">
        <ele>445.60</ele>
        <time>2012-11-04T12:57:00Z</time>
      </trkpt>
      <trkpt lat="47.716423" lon="13.061572">
        <ele>445.00</ele>
        <time>2012-11-04T12:57:01Z</time>
      </trkpt>
      <trkpt lat="47.716370" lon="13.061603">
        <ele>444.60</ele>
        <time>2012-11-04T12:57:02Z</time>
      </trkpt>
      <trkpt lat="47.716118" lon="13.061738">
        <ele>444.60</ele>
        <time>2012-11-04T12:57:07Z</time>
      </trkpt>
      <trkpt lat="47.716072" lon="13.061780">
        <ele>444.60</ele>
        <time>2012-11-04T12:57:08Z</time>
      </trkpt>
      <trkpt lat="47.715942" lon="13.061880">
        <ele>444.20</ele>
        <time>2012-11-04T12:57:11Z</time>
      </trkpt>
      <trkpt lat="47.715900" lon="13.061915">
        <ele>443.80</ele>
        <time>2012-11-04T12:57:12Z</time>
      </trkpt>
      <trkpt lat="47.715858" lon="13.061942">
        <ele>443.40</ele>
        <time>2012-11-04T12:57:13Z</time>
      </trkpt>
      <trkpt lat="47.715816" lon="13.061979">
        <ele>443.00</ele>
        <time>2012-11-04T12:57:14Z</time>
      </trkpt>
      <trkpt lat="47.715771" lon="13.062016">
        <ele>442.60</ele>
        <time>2012-11-04T12:57:15Z</time>
      </trkpt>
      <trkpt lat="47.715687" lon="13.062073">
        <ele>442.60</ele>
        <time>2012-11-04T12:57:17Z</time>
      </trkpt>
      <trkpt lat="47.715469" lon="13.062209">
        <ele>442.60</ele>
        <time>2012-11-04T12:57:22Z</time>
      </trkpt>
      <trkpt lat="47.715378" lon="13.062262">
        <ele>442.60</ele>
        <time>2012-11-04T12:57:24Z</time>
      </trkpt>
      <trkpt lat="47.715332" lon="13.062287">
        <ele>442.60</ele>
        <time>2012-11-04T12:57:25Z</time>
      </trkpt>
      <trkpt lat="47.714962" lon="13.062523">
        <ele>442.60</ele>
        <time>2012-11-04T12:57:33Z</time>
      </trkpt>
      <trkpt lat="47.714512" lon="13.062856">
        <ele>442.60</ele>
        <time>2012-11-04T12:57:43Z</time>
      </trkpt>
      <trkpt lat="47.714291" lon="13.063036">
        <ele>442.60</ele>
        <time>2012-11-04T12:57:48Z</time>
      </trkpt>
      <trkpt lat="47.714161" lon="13.063146">
        <ele>442.60</ele>
        <time>2012-11-04T12:57:51Z</time>
      </trkpt>
      <trkpt lat="47.713814" lon="13.063437">
        <ele>442.60</ele>
        <time>2012-11-04T12:57:59Z</time>
      </trkpt>
      <trkpt lat="47.713505" lon="13.063684">
        <ele>442.60</ele>
        <time>2012-11-04T12:58:06Z</time>
      </trkpt>
      <trkpt lat="47.713326" lon="13.063832">
        <ele>442.60</ele>
        <time>2012-11-04T12:58:10Z</time>
      </trkpt>
      <trkpt lat="47.713242" lon="13.063912">
        <ele>442.60</ele>
        <time>2012-11-04T12:58:12Z</time>
      </trkpt>
      <trkpt lat="47.712975" lon="13.064131">
        <ele>442.60</ele>
        <time>2012-11-04T12:58:18Z</time>
      </trkpt>
      <trkpt lat="47.712929" lon="13.064169">
        <ele>442.60</ele>
        <time>2012-11-04T12:58:19Z</time>
      </trkpt>
      <trkpt lat="47.712570" lon="13.064467">
        <ele>442.60</ele>
        <time>2012-11-04T12:58:27Z</time>
      </trkpt>
      <trkpt lat="47.712128" lon="13.064835">
        <ele>442.60</ele>
        <time>2012-11-04T12:58:37Z</time>
      </trkpt>
      <trkpt lat="47.711781" lon="13.065145">
        <ele>442.60</ele>
        <time>2012-11-04T12:58:45Z</time>
      </trkpt>
      <trkpt lat="47.711468" lon="13.065504">
        <ele>442.60</ele>
        <time>2012-11-04T12:58:53Z</time>
      </trkpt>
      <trkpt lat="47.711166" lon="13.065897">
        <ele>442.60</ele>
        <time>2012-11-04T12:59:01Z</time>
      </trkpt>
      <trkpt lat="47.710835" lon="13.066352">
        <ele>442.60</ele>
        <time>2012-11-04T12:59:10Z</time>
      </trkpt>
      <trkpt lat="47.710548" lon="13.066743">
        <ele>442.60</ele>
        <time>2012-11-04T12:59:18Z</time>
      </trkpt>
      <trkpt lat="47.710186" lon="13.067141">
        <ele>442.60</ele>
        <time>2012-11-04T12:59:27Z</time>
      </trkpt>
      <trkpt lat="47.709923" lon="13.067351">
        <ele>442.60</ele>
        <time>2012-11-04T12:59:33Z</time>
      </trkpt>
      <trkpt lat="47.709621" lon="13.067539">
        <ele>442.60</ele>
        <time>2012-11-04T12:59:40Z</time>
      </trkpt>
      <trkpt lat="47.709332" lon="13.067703">
        <ele>442.60</ele>
        <time>2012-11-04T12:59:47Z</time>
      </trkpt>
      <trkpt lat="47.709187" lon="13.067785">
        <ele>442.60</ele>
        <time>2012-11-04T12:59:51Z</time>
      </trkpt>
      <trkpt lat="47.709122" lon="13.067810">
        <ele>442.60</ele>
        <time>2012-11-04T12:59:53Z</time>
      </trkpt>
      <trkpt lat="47.709015" lon="13.067864">
        <ele>442.60</ele>
        <time>2012-11-04T12:59:57Z</time>
      </trkpt>
      <trkpt lat="47.708981" lon="13.067900">
        <ele>442.60</ele>
        <time>2012-11-04T12:59:59Z</time>
      </trkpt>
      <trkpt lat="47.708969" lon="13.067936">
        <ele>442.60</ele>
        <time>2012-11-04T13:00:00Z</time>
      </trkpt>
      <trkpt lat="47.708977" lon="13.068025">
        <ele>442.60</ele>
        <time>2012-11-04T13:00:02Z</time>
      </trkpt>
      <trkpt lat="47.708996" lon="13.068358">
        <ele>442.60</ele>
        <time>2012-11-04T13:00:08Z</time>
      </trkpt>
      <trkpt lat="47.708973" lon="13.068791">
        <ele>442.60</ele>
        <time>2012-11-04T13:00:15Z</time>
      </trkpt>
      <trkpt lat="47.708954" lon="13.069321">
        <ele>442.60</ele>
        <time>2012-11-04T13:00:23Z</time>
      </trkpt>
      <trkpt lat="47.708961" lon="13.069386">
        <ele>442.60</ele>
        <time>2012-11-04T13:00:24Z</time>
      </trkpt>
      <trkpt lat="47.708961" lon="13.069716">
        <ele>442.60</ele>
        <time>2012-11-04T13:00:29Z</time>
      </trkpt>
      <trkpt lat="47.708965" lon="13.069983">
        <ele>442.60</ele>
        <time>2012-11-04T13:00:33Z</time>
      </trkpt>
      <trkpt lat="47.708981" lon="13.070189">
        <ele>442.60</ele>
        <time>2012-11-04T13:00:36Z</time>
      </trkpt>
      <trkpt lat="47.708996" lon="13.070698">
        <ele>442.60</ele>
        <time>2012-11-04T13:00:43Z</time>
      </trkpt>
      <trkpt lat="47.709015" lon="13.071142">
        <ele>442.60</ele>
        <time>2012-11-04T13:00:49Z</time>
      </trkpt>
      <trkpt lat="47.709030" lon="13.071518">
        <ele>442.60</ele>
        <time>2012-11-04T13:00:54Z</time>
      </trkpt>
      <trkpt lat="47.709045" lon="13.071729">
        <ele>442.60</ele>
        <time>2012-11-04T13:00:57Z</time>
      </trkpt>
      <trkpt lat="47.709053" lon="13.072255">
        <ele>442.60</ele>
        <time>2012-11-04T13:01:04Z</time>
      </trkpt>
      <trkpt lat="47.709080" lon="13.072787">
        <ele>442.60</ele>
        <time>2012-11-04T13:01:11Z</time>
      </trkpt>
      <trkpt lat="47.709099" lon="13.073408">
        <ele>442.60</ele>
        <time>2012-11-04T13:01:19Z</time>
      </trkpt>
      <trkpt lat="47.709118" lon="13.074018">
        <ele>442.60</ele>
        <time>2012-11-04T13:01:27Z</time>
      </trkpt>
      <trkpt lat="47.709141" lon="13.074623">
        <ele>442.60</ele>
        <time>2012-11-04T13:01:35Z</time>
      </trkpt>
      <trkpt lat="47.709175" lon="13.075153">
        <ele>442.60</ele>
        <time>2012-11-04T13:01:42Z</time>
      </trkpt>
      <trkpt lat="47.709187" lon="13.075741">
        <ele>442.60</ele>
        <time>2012-11-04T13:01:50Z</time>
      </trkpt>
      <trkpt lat="47.709202" lon="13.076093">
        <ele>442.60</ele>
        <time>2012-11-04T13:01:55Z</time>
      </trkpt>
      <trkpt lat="47.709202" lon="13.076351">
        <ele>442.60</ele>
        <time>2012-11-04T13:01:59Z</time>
      </trkpt>
      <trkpt lat="47.709213" lon="13.076811">
        <ele>442.60</ele>
        <time>2012-11-04T13:02:06Z</time>
      </trkpt>
      <trkpt lat="47.709217" lon="13.077184">
        <ele>442.60</ele>
        <time>2012-11-04T13:02:12Z</time>
      </trkpt>
      <trkpt lat="47.709194" lon="13.077219">
        <ele>442.60</ele>
        <time>2012-11-04T13:02:13Z</time>
      </trkpt>
      <trkpt lat="47.709068" lon="13.077264">
        <ele>442.60</ele>
        <time>2012-11-04T13:02:17Z</time>
      </trkpt>
      <trkpt lat="47.709030" lon="13.077263">
        <ele>442.60</ele>
        <time>2012-11-04T13:02:18Z</time>
      </trkpt>
      <trkpt lat="47.708725" lon="13.077275">
        <ele>442.60</ele>
        <time>2012-11-04T13:02:25Z</time>
      </trkpt>
      <trkpt lat="47.708363" lon="13.077283">
        <ele>442.60</ele>
        <time>2012-11-04T13:02:33Z</time>
      </trkpt>
      <trkpt lat="47.708191" lon="13.077235">
        <ele>442.60</ele>
        <time>2012-11-04T13:02:37Z</time>
      </trkpt>
      <trkpt lat="47.708103" lon="13.077203">
        <ele>442.60</ele>
        <time>2012-11-04T13:02:39Z</time>
      </trkpt>
      <trkpt lat="47.708057" lon="13.077182">
        <ele>442.60</ele>
        <time>2012-11-04T13:02:40Z</time>
      </trkpt>
      <trkpt lat="47.707848" lon="13.077118">
        <ele>442.60</ele>
        <time>2012-11-04T13:02:45Z</time>
      </trkpt>
      <trkpt lat="47.707806" lon="13.077106">
        <ele>442.60</ele>
        <time>2012-11-04T13:02:46Z</time>
      </trkpt>
      <trkpt lat="47.707577" lon="13.077073">
        <ele>442.60</ele>
        <time>2012-11-04T13:02:51Z</time>
      </trkpt>
      <trkpt lat="47.707531" lon="13.077069">
        <ele>442.60</ele>
        <time>2012-11-04T13:02:52Z</time>
      </trkpt>
      <trkpt lat="47.707275" lon="13.077056">
        <ele>442.60</ele>
        <time>2012-11-04T13:02:58Z</time>
      </trkpt>
      <trkpt lat="47.707188" lon="13.077054">
        <ele>442.60</ele>
        <time>2012-11-04T13:03:00Z</time>
      </trkpt>
      <trkpt lat="47.707111" lon="13.077076">
        <ele>442.60</ele>
        <time>2012-11-04T13:03:03Z</time>
      </trkpt>
      <trkpt lat="47.707108" lon="13.077106">
        <ele>442.60</ele>
        <time>2012-11-04T13:03:04Z</time>
      </trkpt>
      <trkpt lat="47.707123" lon="13.077179">
        <ele>441.80</ele>
        <time>2012-11-04T13:03:06Z</time>
      </trkpt>
      <trkpt lat="47.707142" lon="13.077203">
        <ele>441.40</ele>
        <time>2012-11-04T13:03:07Z</time>
      </trkpt>
      <trkpt lat="47.707165" lon="13.077221">
        <ele>441.00</ele>
        <time>2012-11-04T13:03:08Z</time>
      </trkpt>
      <trkpt lat="47.707195" lon="13.077239">
        <ele>440.60</ele>
        <time>2012-11-04T13:03:09Z</time>
      </trkpt>
      <trkpt lat="47.707287" lon="13.077274">
        <ele>440.60</ele>
        <time>2012-11-04T13:03:12Z</time>
      </trkpt>
      <trkpt lat="47.707325" lon="13.077291">
        <ele>440.60</ele>
        <time>2012-11-04T13:03:13Z</time>
      </trkpt>
      <trkpt lat="47.707527" lon="13.077350">
        <ele>440.60</ele>
        <time>2012-11-04T13:03:19Z</time>
      </trkpt>
      <trkpt lat="47.707756" lon="13.077433">
        <ele>440.60</ele>
        <time>2012-11-04T13:03:25Z</time>
      </trkpt>
      <trkpt lat="47.707996" lon="13.077523">
        <ele>440.60</ele>
        <time>2012-11-04T13:03:31Z</time>
      </trkpt>
      <trkpt lat="47.708038" lon="13.077538">
        <ele>440.60</ele>
        <time>2012-11-04T13:03:32Z</time>
      </trkpt>
      <trkpt lat="47.708332" lon="13.077641">
        <ele>440.60</ele>
        <time>2012-11-04T13:03:39Z</time>
      </trkpt>
      <trkpt lat="47.708633" lon="13.077770">
        <ele>440.60</ele>
        <time>2012-11-04T13:03:46Z</time>
      </trkpt>
      <trkpt lat="47.708782" lon="13.077841">
        <ele>440.60</ele>
        <time>2012-11-04T13:03:49Z</time>
      </trkpt>
      <trkpt lat="47.708874" lon="13.077873">
        <ele>440.60</ele>
        <time>2012-11-04T13:03:51Z</time>
      </trkpt>
      <trkpt lat="47.708916" lon="13.077881">
        <ele>440.60</ele>
        <time>2012-11-04T13:03:52Z</time>
      </trkpt>
      <trkpt lat="47.709068" lon="13.077930">
        <ele>440.60</ele>
        <time>2012-11-04T13:03:56Z</time>
      </trkpt>
      <trkpt lat="47.709232" lon="13.078001">
        <ele>440.60</ele>
        <time>2012-11-04T13:04:00Z</time>
      </trkpt>
      <trkpt lat="47.709324" lon="13.078029">
        <ele>440.60</ele>
        <time>2012-11-04T13:04:02Z</time>
      </trkpt>
      <trkpt lat="47.709629" lon="13.078131">
        <ele>440.60</ele>
        <time>2012-11-04T13:04:08Z</time>
      </trkpt>
      <trkpt lat="47.709724" lon="13.078165">
        <ele>440.60</ele>
        <time>2012-11-04T13:04:10Z</time>
      </trkpt>
      <trkpt lat="47.709988" lon="13.078256">
        <ele>440.60</ele>
        <time>2012-11-04T13:04:16Z</time>
      </trkpt>
      <trkpt lat="47.710285" lon="13.078347">
        <ele>440.60</ele>
        <time>2012-11-04T13:04:23Z</time>
      </trkpt>
      <trkpt lat="47.710659" lon="13.078486">
        <ele>440.60</ele>
        <time>2012-11-04T13:04:31Z</time>
      </trkpt>
      <trkpt lat="47.711075" lon="13.078624">
        <ele>440.60</ele>
        <time>2012-11-04T13:04:40Z</time>
      </trkpt>
      <trkpt lat="47.711433" lon="13.078713">
        <ele>440.60</ele>
        <time>2012-11-04T13:04:47Z</time>
      </trkpt>
      <trkpt lat="47.711681" lon="13.078833">
        <ele>440.60</ele>
        <time>2012-11-04T13:04:52Z</time>
      </trkpt>
      <trkpt lat="47.711781" lon="13.078874">
        <ele>440.60</ele>
        <time>2012-11-04T13:04:54Z</time>
      </trkpt>
      <trkpt lat="47.712109" lon="13.079042">
        <ele>440.60</ele>
        <time>2012-11-04T13:05:01Z</time>
      </trkpt>
      <trkpt lat="47.712391" lon="13.079201">
        <ele>440.60</ele>
        <time>2012-11-04T13:05:07Z</time>
      </trkpt>
      <trkpt lat="47.712685" lon="13.079343">
        <ele>440.60</ele>
        <time>2012-11-04T13:05:13Z</time>
      </trkpt>
      <trkpt lat="47.712929" lon="13.079470">
        <ele>440.60</ele>
        <time>2012-11-04T13:05:18Z</time>
      </trkpt>
      <trkpt lat="47.713329" lon="13.079663">
        <ele>440.60</ele>
        <time>2012-11-04T13:05:26Z</time>
      </trkpt>
      <trkpt lat="47.713577" lon="13.079796">
        <ele>440.60</ele>
        <time>2012-11-04T13:05:32Z</time>
      </trkpt>
      <trkpt lat="47.713909" lon="13.079971">
        <ele>440.60</ele>
        <time>2012-11-04T13:05:40Z</time>
      </trkpt>
      <trkpt lat="47.714176" lon="13.080093">
        <ele>440.60</ele>
        <time>2012-11-04T13:05:46Z</time>
      </trkpt>
      <trkpt lat="47.714497" lon="13.080251">
        <ele>440.60</ele>
        <time>2012-11-04T13:05:53Z</time>
      </trkpt>
      <trkpt lat="47.714645" lon="13.080320">
        <ele>440.60</ele>
        <time>2012-11-04T13:05:56Z</time>
      </trkpt>
      <trkpt lat="47.714741" lon="13.080367">
        <ele>440.20</ele>
        <time>2012-11-04T13:05:58Z</time>
      </trkpt>
      <trkpt lat="47.714790" lon="13.080393">
        <ele>439.40</ele>
        <time>2012-11-04T13:05:59Z</time>
      </trkpt>
      <trkpt lat="47.714832" lon="13.080415">
        <ele>439.00</ele>
        <time>2012-11-04T13:06:00Z</time>
      </trkpt>
      <trkpt lat="47.714878" lon="13.080441">
        <ele>438.60</ele>
        <time>2012-11-04T13:06:01Z</time>
      </trkpt>
      <trkpt lat="47.715023" lon="13.080538">
        <ele>438.60</ele>
        <time>2012-11-04T13:06:05Z</time>
      </trkpt>
      <trkpt lat="47.715115" lon="13.080589">
        <ele>438.60</ele>
        <time>2012-11-04T13:06:09Z</time>
      </trkpt>
      <trkpt lat="47.715275" lon="13.080655">
        <ele>438.60</ele>
        <time>2012-11-04T13:06:13Z</time>
      </trkpt>
      <trkpt lat="47.715527" lon="13.080791">
        <ele>438.60</ele>
        <time>2012-11-04T13:06:18Z</time>
      </trkpt>
      <trkpt lat="47.715580" lon="13.080821">
        <ele>438.60</ele>
        <time>2012-11-04T13:06:19Z</time>
      </trkpt>
      <trkpt lat="47.715790" lon="13.080923">
        <ele>438.60</ele>
        <time>2012-11-04T13:06:23Z</time>
      </trkpt>
      <trkpt lat="47.715939" lon="13.080997">
        <ele>438.60</ele>
        <time>2012-11-04T13:06:26Z</time>
      </trkpt>
      <trkpt lat="47.716316" lon="13.081189">
        <ele>438.60</ele>
        <time>2012-11-04T13:06:34Z</time>
      </trkpt>
      <trkpt lat="47.716621" lon="13.081337">
        <ele>438.60</ele>
        <time>2012-11-04T13:06:40Z</time>
      </trkpt>
      <trkpt lat="47.717003" lon="13.081548">
        <ele>438.60</ele>
        <time>2012-11-04T13:06:48Z</time>
      </trkpt>
      <trkpt lat="47.717327" lon="13.081727">
        <ele>438.60</ele>
        <time>2012-11-04T13:06:55Z</time>
      </trkpt>
      <trkpt lat="47.717743" lon="13.081893">
        <ele>438.60</ele>
        <time>2012-11-04T13:07:04Z</time>
      </trkpt>
      <trkpt lat="47.718136" lon="13.081967">
        <ele>438.60</ele>
        <time>2012-11-04T13:07:12Z</time>
      </trkpt>
      <trkpt lat="47.718605" lon="13.082029">
        <ele>438.60</ele>
        <time>2012-11-04T13:07:21Z</time>
      </trkpt>
      <trkpt lat="47.718945" lon="13.082085">
        <ele>438.60</ele>
        <time>2012-11-04T13:07:28Z</time>
      </trkpt>
      <trkpt lat="47.719292" lon="13.082135">
        <ele>438.60</ele>
        <time>2012-11-04T13:07:35Z</time>
      </trkpt>
      <trkpt lat="47.719662" lon="13.082187">
        <ele>438.60</ele>
        <time>2012-11-04T13:07:42Z</time>
      </trkpt>
      <trkpt lat="47.719971" lon="13.082255">
        <ele>438.60</ele>
        <time>2012-11-04T13:07:48Z</time>
      </trkpt>
      <trkpt lat="47.720470" lon="13.082313">
        <ele>438.60</ele>
        <time>2012-11-04T13:07:57Z</time>
      </trkpt>
      <trkpt lat="47.720840" lon="13.082340">
        <ele>438.60</ele>
        <time>2012-11-04T13:08:04Z</time>
      </trkpt>
      <trkpt lat="47.720989" lon="13.082368">
        <ele>438.60</ele>
        <time>2012-11-04T13:08:07Z</time>
      </trkpt>
      <trkpt lat="47.721085" lon="13.082381">
        <ele>438.60</ele>
        <time>2012-11-04T13:08:09Z</time>
      </trkpt>
      <trkpt lat="47.721493" lon="13.082412">
        <ele>438.60</ele>
        <time>2012-11-04T13:08:17Z</time>
      </trkpt>
      <trkpt lat="47.721889" lon="13.082428">
        <ele>438.60</ele>
        <time>2012-11-04T13:08:25Z</time>
      </trkpt>
      <trkpt lat="47.722244" lon="13.082417">
        <ele>438.60</ele>
        <time>2012-11-04T13:08:32Z</time>
      </trkpt>
      <trkpt lat="47.722607" lon="13.082421">
        <ele>438.60</ele>
        <time>2012-11-04T13:08:39Z</time>
      </trkpt>
      <trkpt lat="47.722969" lon="13.082412">
        <ele>438.60</ele>
        <time>2012-11-04T13:08:46Z</time>
      </trkpt>
      <trkpt lat="47.723373" lon="13.082415">
        <ele>438.60</ele>
        <time>2012-11-04T13:08:54Z</time>
      </trkpt>
      <trkpt lat="47.723785" lon="13.082411">
        <ele>438.60</ele>
        <time>2012-11-04T13:09:02Z</time>
      </trkpt>
      <trkpt lat="47.724201" lon="13.082385">
        <ele>438.60</ele>
        <time>2012-11-04T13:09:10Z</time>
      </trkpt>
      <trkpt lat="47.724602" lon="13.082383">
        <ele>438.60</ele>
        <time>2012-11-04T13:09:18Z</time>
      </trkpt>
      <trkpt lat="47.724808" lon="13.082393">
        <ele>438.60</ele>
        <time>2012-11-04T13:09:22Z</time>
      </trkpt>
      <trkpt lat="47.724934" lon="13.082385">
        <ele>438.60</ele>
        <time>2012-11-04T13:09:25Z</time>
      </trkpt>
      <trkpt lat="47.725170" lon="13.082344">
        <ele>438.60</ele>
        <time>2012-11-04T13:09:30Z</time>
      </trkpt>
      <trkpt lat="47.725220" lon="13.082363">
        <ele>438.60</ele>
        <time>2012-11-04T13:09:31Z</time>
      </trkpt>
      <trkpt lat="47.725327" lon="13.082382">
        <ele>438.60</ele>
        <time>2012-11-04T13:09:33Z</time>
      </trkpt>
      <trkpt lat="47.725433" lon="13.082358">
        <ele>438.60</ele>
        <time>2012-11-04T13:09:35Z</time>
      </trkpt>
      <trkpt lat="47.725723" lon="13.082344">
        <ele>438.60</ele>
        <time>2012-11-04T13:09:41Z</time>
      </trkpt>
      <trkpt lat="47.726070" lon="13.082330">
        <ele>438.60</ele>
        <time>2012-11-04T13:09:48Z</time>
      </trkpt>
      <trkpt lat="47.726460" lon="13.082310">
        <ele>438.60</ele>
        <time>2012-11-04T13:09:56Z</time>
      </trkpt>
      <trkpt lat="47.726715" lon="13.082318">
        <ele>438.60</ele>
        <time>2012-11-04T13:10:01Z</time>
      </trkpt>
      <trkpt lat="47.727062" lon="13.082310">
        <ele>438.60</ele>
        <time>2012-11-04T13:10:08Z</time>
      </trkpt>
      <trkpt lat="47.727409" lon="13.082297">
        <ele>438.60</ele>
        <time>2012-11-04T13:10:15Z</time>
      </trkpt>
      <trkpt lat="47.727810" lon="13.082281">
        <ele>438.60</ele>
        <time>2012-11-04T13:10:23Z</time>
      </trkpt>
      <trkpt lat="47.728130" lon="13.082275">
        <ele>438.60</ele>
        <time>2012-11-04T13:10:30Z</time>
      </trkpt>
      <trkpt lat="47.728271" lon="13.082275">
        <ele>438.60</ele>
        <time>2012-11-04T13:10:33Z</time>
      </trkpt>
      <trkpt lat="47.728420" lon="13.082293">
        <ele>438.60</ele>
        <time>2012-11-04T13:10:36Z</time>
      </trkpt>
      <trkpt lat="47.728855" lon="13.082276">
        <ele>438.60</ele>
        <time>2012-11-04T13:10:45Z</time>
      </trkpt>
      <trkpt lat="47.729034" lon="13.082273">
        <ele>438.60</ele>
        <time>2012-11-04T13:10:49Z</time>
      </trkpt>
      <trkpt lat="47.729076" lon="13.082280">
        <ele>438.60</ele>
        <time>2012-11-04T13:10:50Z</time>
      </trkpt>
      <trkpt lat="47.729160" lon="13.082278">
        <ele>438.60</ele>
        <time>2012-11-04T13:10:52Z</time>
      </trkpt>
      <trkpt lat="47.729301" lon="13.082271">
        <ele>438.60</ele>
        <time>2012-11-04T13:10:55Z</time>
      </trkpt>
      <trkpt lat="47.729538" lon="13.082263">
        <ele>438.60</ele>
        <time>2012-11-04T13:11:00Z</time>
      </trkpt>
      <trkpt lat="47.729744" lon="13.082258">
        <ele>438.60</ele>
        <time>2012-11-04T13:11:05Z</time>
      </trkpt>
      <trkpt lat="47.729782" lon="13.082257">
        <ele>438.60</ele>
        <time>2012-11-04T13:11:06Z</time>
      </trkpt>
      <trkpt lat="47.730053" lon="13.082241">
        <ele>438.60</ele>
        <time>2012-11-04T13:11:13Z</time>
      </trkpt>
      <trkpt lat="47.730370" lon="13.082230">
        <ele>438.60</ele>
        <time>2012-11-04T13:11:20Z</time>
      </trkpt>
      <trkpt lat="47.730721" lon="13.082217">
        <ele>438.60</ele>
        <time>2012-11-04T13:11:28Z</time>
      </trkpt>
      <trkpt lat="47.730995" lon="13.082193">
        <ele>438.60</ele>
        <time>2012-11-04T13:11:34Z</time>
      </trkpt>
      <trkpt lat="47.731075" lon="13.082133">
        <ele>438.60</ele>
        <time>2012-11-04T13:11:36Z</time>
      </trkpt>
      <trkpt lat="47.731133" lon="13.082044">
        <ele>438.60</ele>
        <time>2012-11-04T13:11:38Z</time>
      </trkpt>
      <trkpt lat="47.731140" lon="13.081907">
        <ele>438.60</ele>
        <time>2012-11-04T13:11:40Z</time>
      </trkpt>
      <trkpt lat="47.731091" lon="13.081724">
        <ele>438.60</ele>
        <time>2012-11-04T13:11:43Z</time>
      </trkpt>
      <trkpt lat="47.731041" lon="13.081631">
        <ele>438.60</ele>
        <time>2012-11-04T13:11:45Z</time>
      </trkpt>
      <trkpt lat="47.731030" lon="13.081510">
        <ele>438.60</ele>
        <time>2012-11-04T13:11:48Z</time>
      </trkpt>
      <trkpt lat="47.731098" lon="13.081449">
        <ele>438.60</ele>
        <time>2012-11-04T13:11:51Z</time>
      </trkpt>
      <trkpt lat="47.731281" lon="13.081306">
        <ele>438.60</ele>
        <time>2012-11-04T13:11:58Z</time>
      </trkpt>
      <trkpt lat="47.731457" lon="13.081176">
        <ele>438.60</ele>
        <time>2012-11-04T13:12:05Z</time>
      </trkpt>
      <trkpt lat="47.731483" lon="13.081194">
        <ele>438.20</ele>
        <time>2012-11-04T13:12:07Z</time>
      </trkpt>
      <trkpt lat="47.731483" lon="13.081194">
        <ele>437.80</ele>
        <time>2012-11-04T13:12:08Z</time>
      </trkpt>
      <trkpt lat="47.731487" lon="13.081197">
        <ele>437.00</ele>
        <time>2012-11-04T13:12:09Z</time>
      </trkpt>
      <trkpt lat="47.731487" lon="13.081197">
        <ele>436.60</ele>
        <time>2012-11-04T13:12:10Z</time>
      </trkpt>
      <trkpt lat="47.731506" lon="13.081223">
        <ele>436.60</ele>
        <time>2012-11-04T13:12:19Z</time>
      </trkpt>
      <trkpt lat="47.731510" lon="13.081247">
        <ele>436.60</ele>
        <time>2012-11-04T13:12:20Z</time>
      </trkpt>
      <trkpt lat="47.731571" lon="13.081434">
        <ele>436.60</ele>
        <time>2012-11-04T13:12:25Z</time>
      </trkpt>
      <trkpt lat="47.731716" lon="13.081759">
        <ele>436.60</ele>
        <time>2012-11-04T13:12:32Z</time>
      </trkpt>
      <trkpt lat="47.731922" lon="13.081992">
        <ele>436.60</ele>
        <time>2012-11-04T13:12:39Z</time>
      </trkpt>
      <trkpt lat="47.732021" lon="13.081957">
        <ele>436.60</ele>
        <time>2012-11-04T13:12:41Z</time>
      </trkpt>
      <trkpt lat="47.732178" lon="13.081896">
        <ele>436.60</ele>
        <time>2012-11-04T13:12:44Z</time>
      </trkpt>
      <trkpt lat="47.732269" lon="13.081907">
        <ele>436.60</ele>
        <time>2012-11-04T13:12:46Z</time>
      </trkpt>
      <trkpt lat="47.732403" lon="13.081902">
        <ele>436.60</ele>
        <time>2012-11-04T13:12:49Z</time>
      </trkpt>
      <trkpt lat="47.732449" lon="13.081890">
        <ele>436.60</ele>
        <time>2012-11-04T13:12:50Z</time>
      </trkpt>
      <trkpt lat="47.732731" lon="13.081853">
        <ele>436.60</ele>
        <time>2012-11-04T13:12:57Z</time>
      </trkpt>
      <trkpt lat="47.732964" lon="13.081871">
        <ele>436.60</ele>
        <time>2012-11-04T13:13:03Z</time>
      </trkpt>
      <trkpt lat="47.733032" lon="13.082048">
        <ele>436.60</ele>
        <time>2012-11-04T13:13:07Z</time>
      </trkpt>
      <trkpt lat="47.733116" lon="13.082228">
        <ele>436.60</ele>
        <time>2012-11-04T13:13:12Z</time>
      </trkpt>
      <trkpt lat="47.733135" lon="13.082410">
        <ele>436.60</ele>
        <time>2012-11-04T13:13:18Z</time>
      </trkpt>
      <trkpt lat="47.733131" lon="13.082670">
        <ele>436.60</ele>
        <time>2012-11-04T13:13:26Z</time>
      </trkpt>
      <trkpt lat="47.733135" lon="13.082736">
        <ele>436.60</ele>
        <time>2012-11-04T13:13:28Z</time>
      </trkpt>
      <trkpt lat="47.733147" lon="13.082810">
        <ele>436.60</ele>
        <time>2012-11-04T13:13:31Z</time>
      </trkpt>
      <trkpt lat="47.733147" lon="13.082824">
        <ele>436.60</ele>
        <time>2012-11-04T13:13:32Z</time>
      </trkpt>
      <trkpt lat="47.733147" lon="13.082865">
        <ele>436.60</ele>
        <time>2012-11-04T13:13:36Z</time>
      </trkpt>
      <trkpt lat="47.733158" lon="13.082942">
        <ele>436.60</ele>
        <time>2012-11-04T13:13:40Z</time>
      </trkpt>
      <trkpt lat="47.733208" lon="13.083023">
        <ele>436.60</ele>
        <time>2012-11-04T13:13:45Z</time>
      </trkpt>
      <trkpt lat="47.733307" lon="13.083027">
        <ele>436.60</ele>
        <time>2012-11-04T13:13:50Z</time>
      </trkpt>
      <trkpt lat="47.733311" lon="13.083034">
        <ele>436.60</ele>
        <time>2012-11-04T13:13:54Z</time>
      </trkpt>
      <trkpt lat="47.733315" lon="13.083043">
        <ele>436.60</ele>
        <time>2012-11-04T13:14:03Z</time>
      </trkpt>
      <trkpt lat="47.733315" lon="13.083041">
        <ele>436.60</ele>
        <time>2012-11-04T13:14:05Z</time>
      </trkpt>
      <trkpt lat="47.733315" lon="13.083057">
        <ele>437.00</ele>
        <time>2012-11-04T13:14:10Z</time>
      </trkpt>
      <trkpt lat="47.733318" lon="13.083070">
        <ele>437.40</ele>
        <time>2012-11-04T13:14:11Z</time>
      </trkpt>
      <trkpt lat="47.733318" lon="13.083068">
        <ele>438.40</ele>
        <time>2012-11-04T13:14:12Z</time>
      </trkpt>
      <trkpt lat="47.733318" lon="13.083068">
        <ele>438.80</ele>
        <time>2012-11-04T13:14:13Z</time>
      </trkpt>
      <trkpt lat="47.733322" lon="13.083161">
        <ele>438.80</ele>
        <time>2012-11-04T13:14:17Z</time>
      </trkpt>
      <trkpt lat="47.733334" lon="13.083284">
        <ele>438.80</ele>
        <time>2012-11-04T13:14:21Z</time>
      </trkpt>
      <trkpt lat="47.733322" lon="13.083351">
        <ele>438.80</ele>
        <time>2012-11-04T13:14:24Z</time>
      </trkpt>
      <trkpt lat="47.733303" lon="13.083398">
        <ele>438.80</ele>
        <time>2012-11-04T13:14:26Z</time>
      </trkpt>
      <trkpt lat="47.733257" lon="13.083430">
        <ele>438.80</ele>
        <time>2012-11-04T13:14:29Z</time>
      </trkpt>
      <trkpt lat="47.733242" lon="13.083440">
        <ele>438.80</ele>
        <time>2012-11-04T13:14:30Z</time>
      </trkpt>
      <trkpt lat="47.733070" lon="13.083513">
        <ele>438.80</ele>
        <time>2012-11-04T13:14:38Z</time>
      </trkpt>
      <trkpt lat="47.732952" lon="13.083650">
        <ele>438.80</ele>
        <time>2012-11-04T13:14:45Z</time>
      </trkpt>
      <trkpt lat="47.732941" lon="13.083860">
        <ele>438.80</ele>
        <time>2012-11-04T13:14:51Z</time>
      </trkpt>
      <trkpt lat="47.732952" lon="13.083957">
        <ele>438.40</ele>
        <time>2012-11-04T13:14:53Z</time>
      </trkpt>
      <trkpt lat="47.732956" lon="13.084006">
        <ele>438.00</ele>
        <time>2012-11-04T13:14:54Z</time>
      </trkpt>
      <trkpt lat="47.732964" lon="13.084055">
        <ele>437.60</ele>
        <time>2012-11-04T13:14:55Z</time>
      </trkpt>
      <trkpt lat="47.732967" lon="13.084104">
        <ele>437.20</ele>
        <time>2012-11-04T13:14:56Z</time>
      </trkpt>
      <trkpt lat="47.732971" lon="13.084159">
        <ele>436.80</ele>
        <time>2012-11-04T13:14:57Z</time>
      </trkpt>
      <trkpt lat="47.732975" lon="13.084212">
        <ele>436.80</ele>
        <time>2012-11-04T13:14:58Z</time>
      </trkpt>
      <trkpt lat="47.733028" lon="13.084629">
        <ele>436.80</ele>
        <time>2012-11-04T13:15:05Z</time>
      </trkpt>
      <trkpt lat="47.733055" lon="13.085093">
        <ele>436.80</ele>
        <time>2012-11-04T13:15:12Z</time>
      </trkpt>
      <trkpt lat="47.733059" lon="13.085162">
        <ele>436.80</ele>
        <time>2012-11-04T13:15:13Z</time>
      </trkpt>
      <trkpt lat="47.733086" lon="13.085482">
        <ele>436.80</ele>
        <time>2012-11-04T13:15:19Z</time>
      </trkpt>
      <trkpt lat="47.733105" lon="13.085504">
        <ele>436.80</ele>
        <time>2012-11-04T13:15:20Z</time>
      </trkpt>
      <trkpt lat="47.733101" lon="13.085577">
        <ele>436.40</ele>
        <time>2012-11-04T13:15:23Z</time>
      </trkpt>
      <trkpt lat="47.733086" lon="13.085604">
        <ele>436.00</ele>
        <time>2012-11-04T13:15:24Z</time>
      </trkpt>
      <trkpt lat="47.733063" lon="13.085625">
        <ele>435.60</ele>
        <time>2012-11-04T13:15:25Z</time>
      </trkpt>
      <trkpt lat="47.733040" lon="13.085637">
        <ele>434.80</ele>
        <time>2012-11-04T13:15:26Z</time>
      </trkpt>
      <trkpt lat="47.733017" lon="13.085646">
        <ele>434.80</ele>
        <time>2012-11-04T13:15:27Z</time>
      </trkpt>
      <trkpt lat="47.732990" lon="13.085648">
        <ele>434.80</ele>
        <time>2012-11-04T13:15:28Z</time>
      </trkpt>
      <trkpt lat="47.732948" lon="13.085690">
        <ele>434.80</ele>
        <time>2012-11-04T13:15:30Z</time>
      </trkpt>
      <trkpt lat="47.732903" lon="13.085766">
        <ele>434.80</ele>
        <time>2012-11-04T13:15:32Z</time>
      </trkpt>
      <trkpt lat="47.732803" lon="13.085999">
        <ele>434.80</ele>
        <time>2012-11-04T13:15:37Z</time>
      </trkpt>
      <trkpt lat="47.732742" lon="13.086149">
        <ele>434.80</ele>
        <time>2012-11-04T13:15:40Z</time>
      </trkpt>
      <trkpt lat="47.732628" lon="13.086441">
        <ele>434.80</ele>
        <time>2012-11-04T13:15:46Z</time>
      </trkpt>
      <trkpt lat="47.732605" lon="13.086568">
        <ele>434.80</ele>
        <time>2012-11-04T13:15:49Z</time>
      </trkpt>
      <trkpt lat="47.732559" lon="13.086671">
        <ele>434.80</ele>
        <time>2012-11-04T13:15:52Z</time>
      </trkpt>
      <trkpt lat="47.732407" lon="13.086900">
        <ele>434.80</ele>
        <time>2012-11-04T13:15:59Z</time>
      </trkpt>
      <trkpt lat="47.732224" lon="13.087171">
        <ele>434.80</ele>
        <time>2012-11-04T13:16:06Z</time>
      </trkpt>
      <trkpt lat="47.732059" lon="13.087399">
        <ele>434.80</ele>
        <time>2012-11-04T13:16:11Z</time>
      </trkpt>
      <trkpt lat="47.731964" lon="13.087507">
        <ele>434.80</ele>
        <time>2012-11-04T13:16:14Z</time>
      </trkpt>
      <trkpt lat="47.731899" lon="13.087572">
        <ele>434.80</ele>
        <time>2012-11-04T13:16:16Z</time>
      </trkpt>
      <trkpt lat="47.731869" lon="13.087592">
        <ele>434.80</ele>
        <time>2012-11-04T13:16:17Z</time>
      </trkpt>
      <trkpt lat="47.731705" lon="13.087702">
        <ele>434.80</ele>
        <time>2012-11-04T13:16:23Z</time>
      </trkpt>
      <trkpt lat="47.731518" lon="13.087726">
        <ele>434.80</ele>
        <time>2012-11-04T13:16:29Z</time>
      </trkpt>
      <trkpt lat="47.731339" lon="13.087728">
        <ele>434.80</ele>
        <time>2012-11-04T13:16:34Z</time>
      </trkpt>
      <trkpt lat="47.731300" lon="13.087726">
        <ele>435.20</ele>
        <time>2012-11-04T13:16:35Z</time>
      </trkpt>
      <trkpt lat="47.731266" lon="13.087729">
        <ele>435.60</ele>
        <time>2012-11-04T13:16:36Z</time>
      </trkpt>
      <trkpt lat="47.731228" lon="13.087735">
        <ele>436.00</ele>
        <time>2012-11-04T13:16:37Z</time>
      </trkpt>
      <trkpt lat="47.731190" lon="13.087737">
        <ele>436.60</ele>
        <time>2012-11-04T13:16:38Z</time>
      </trkpt>
      <trkpt lat="47.731155" lon="13.087734">
        <ele>437.00</ele>
        <time>2012-11-04T13:16:39Z</time>
      </trkpt>
      <trkpt lat="47.731007" lon="13.087747">
        <ele>437.00</ele>
        <time>2012-11-04T13:16:43Z</time>
      </trkpt>
      <trkpt lat="47.730816" lon="13.087758">
        <ele>437.00</ele>
        <time>2012-11-04T13:16:48Z</time>
      </trkpt>
      <trkpt lat="47.730736" lon="13.087769">
        <ele>437.00</ele>
        <time>2012-11-04T13:16:50Z</time>
      </trkpt>
      <trkpt lat="47.730438" lon="13.087774">
        <ele>437.00</ele>
        <time>2012-11-04T13:16:57Z</time>
      </trkpt>
      <trkpt lat="47.730110" lon="13.087761">
        <ele>437.00</ele>
        <time>2012-11-04T13:17:04Z</time>
      </trkpt>
      <trkpt lat="47.729790" lon="13.087740">
        <ele>437.00</ele>
        <time>2012-11-04T13:17:10Z</time>
      </trkpt>
      <trkpt lat="47.729355" lon="13.087679">
        <ele>437.00</ele>
        <time>2012-11-04T13:17:17Z</time>
      </trkpt>
      <trkpt lat="47.729080" lon="13.087625">
        <ele>437.00</ele>
        <time>2012-11-04T13:17:22Z</time>
      </trkpt>
      <trkpt lat="47.728798" lon="13.087607">
        <ele>437.00</ele>
        <time>2012-11-04T13:17:28Z</time>
      </trkpt>
      <trkpt lat="47.728752" lon="13.087611">
        <ele>437.00</ele>
        <time>2012-11-04T13:17:29Z</time>
      </trkpt>
      <trkpt lat="47.728542" lon="13.087608">
        <ele>437.00</ele>
        <time>2012-11-04T13:17:34Z</time>
      </trkpt>
      <trkpt lat="47.728420" lon="13.087597">
        <ele>437.00</ele>
        <time>2012-11-04T13:17:37Z</time>
      </trkpt>
      <trkpt lat="47.728161" lon="13.087585">
        <ele>437.00</ele>
        <time>2012-11-04T13:17:43Z</time>
      </trkpt>
      <trkpt lat="47.727890" lon="13.087570">
        <ele>437.00</ele>
        <time>2012-11-04T13:17:49Z</time>
      </trkpt>
      <trkpt lat="47.727757" lon="13.087561">
        <ele>437.00</ele>
        <time>2012-11-04T13:17:52Z</time>
      </trkpt>
      <trkpt lat="47.727474" lon="13.087543">
        <ele>436.60</ele>
        <time>2012-11-04T13:17:58Z</time>
      </trkpt>
      <trkpt lat="47.727428" lon="13.087540">
        <ele>436.20</ele>
        <time>2012-11-04T13:17:59Z</time>
      </trkpt>
      <trkpt lat="47.727379" lon="13.087537">
        <ele>435.80</ele>
        <time>2012-11-04T13:18:00Z</time>
      </trkpt>
      <trkpt lat="47.727333" lon="13.087536">
        <ele>435.40</ele>
        <time>2012-11-04T13:18:01Z</time>
      </trkpt>
      <trkpt lat="47.727287" lon="13.087535">
        <ele>435.00</ele>
        <time>2012-11-04T13:18:02Z</time>
      </trkpt>
      <trkpt lat="47.727016" lon="13.087529">
        <ele>435.00</ele>
        <time>2012-11-04T13:18:08Z</time>
      </trkpt>
      <trkpt lat="47.726662" lon="13.087526">
        <ele>435.00</ele>
        <time>2012-11-04T13:18:16Z</time>
      </trkpt>
      <trkpt lat="47.726376" lon="13.087545">
        <ele>435.00</ele>
        <time>2012-11-04T13:18:23Z</time>
      </trkpt>
      <trkpt lat="47.726337" lon="13.087550">
        <ele>435.00</ele>
        <time>2012-11-04T13:18:24Z</time>
      </trkpt>
      <trkpt lat="47.726223" lon="13.087566">
        <ele>435.40</ele>
        <time>2012-11-04T13:18:27Z</time>
      </trkpt>
      <trkpt lat="47.726181" lon="13.087572">
        <ele>435.80</ele>
        <time>2012-11-04T13:18:28Z</time>
      </trkpt>
      <trkpt lat="47.726139" lon="13.087579">
        <ele>436.20</ele>
        <time>2012-11-04T13:18:29Z</time>
      </trkpt>
      <trkpt lat="47.726097" lon="13.087587">
        <ele>436.60</ele>
        <time>2012-11-04T13:18:30Z</time>
      </trkpt>
      <trkpt lat="47.726059" lon="13.087599">
        <ele>437.00</ele>
        <time>2012-11-04T13:18:31Z</time>
      </trkpt>
      <trkpt lat="47.725945" lon="13.087624">
        <ele>437.00</ele>
        <time>2012-11-04T13:18:34Z</time>
      </trkpt>
      <trkpt lat="47.725834" lon="13.087648">
        <ele>437.00</ele>
        <time>2012-11-04T13:18:37Z</time>
      </trkpt>
      <trkpt lat="47.725800" lon="13.087656">
        <ele>437.40</ele>
        <time>2012-11-04T13:18:38Z</time>
      </trkpt>
      <trkpt lat="47.725761" lon="13.087667">
        <ele>437.80</ele>
        <time>2012-11-04T13:18:39Z</time>
      </trkpt>
      <trkpt lat="47.725723" lon="13.087673">
        <ele>438.20</ele>
        <time>2012-11-04T13:18:40Z</time>
      </trkpt>
      <trkpt lat="47.725689" lon="13.087677">
        <ele>438.60</ele>
        <time>2012-11-04T13:18:41Z</time>
      </trkpt>
      <trkpt lat="47.725655" lon="13.087685">
        <ele>439.00</ele>
        <time>2012-11-04T13:18:42Z</time>
      </trkpt>
      <trkpt lat="47.725620" lon="13.087693">
        <ele>439.00</ele>
        <time>2012-11-04T13:18:43Z</time>
      </trkpt>
      <trkpt lat="47.725430" lon="13.087703">
        <ele>439.40</ele>
        <time>2012-11-04T13:18:50Z</time>
      </trkpt>
      <trkpt lat="47.725414" lon="13.087684">
        <ele>439.80</ele>
        <time>2012-11-04T13:18:51Z</time>
      </trkpt>
      <trkpt lat="47.725399" lon="13.087667">
        <ele>440.20</ele>
        <time>2012-11-04T13:18:52Z</time>
      </trkpt>
      <trkpt lat="47.725372" lon="13.087650">
        <ele>440.60</ele>
        <time>2012-11-04T13:18:53Z</time>
      </trkpt>
      <trkpt lat="47.725342" lon="13.087624">
        <ele>441.00</ele>
        <time>2012-11-04T13:18:54Z</time>
      </trkpt>
      <trkpt lat="47.725235" lon="13.087508">
        <ele>441.00</ele>
        <time>2012-11-04T13:18:58Z</time>
      </trkpt>
      <trkpt lat="47.725147" lon="13.087539">
        <ele>441.00</ele>
        <time>2012-11-04T13:19:02Z</time>
      </trkpt>
      <trkpt lat="47.725124" lon="13.087549">
        <ele>441.00</ele>
        <time>2012-11-04T13:19:03Z</time>
      </trkpt>
      <trkpt lat="47.725048" lon="13.087568">
        <ele>441.40</ele>
        <time>2012-11-04T13:19:07Z</time>
      </trkpt>
      <trkpt lat="47.725025" lon="13.087575">
        <ele>441.80</ele>
        <time>2012-11-04T13:19:08Z</time>
      </trkpt>
      <trkpt lat="47.724998" lon="13.087580">
        <ele>442.80</ele>
        <time>2012-11-04T13:19:09Z</time>
      </trkpt>
      <trkpt lat="47.724976" lon="13.087585">
        <ele>443.20</ele>
        <time>2012-11-04T13:19:10Z</time>
      </trkpt>
      <trkpt lat="47.724888" lon="13.087604">
        <ele>443.20</ele>
        <time>2012-11-04T13:19:14Z</time>
      </trkpt>
      <trkpt lat="47.724846" lon="13.087590">
        <ele>443.20</ele>
        <time>2012-11-04T13:19:16Z</time>
      </trkpt>
      <trkpt lat="47.724823" lon="13.087540">
        <ele>443.20</ele>
        <time>2012-11-04T13:19:18Z</time>
      </trkpt>
      <trkpt lat="47.724735" lon="13.087326">
        <ele>443.20</ele>
        <time>2012-11-04T13:19:25Z</time>
      </trkpt>
      <trkpt lat="47.724655" lon="13.087222">
        <ele>443.20</ele>
        <time>2012-11-04T13:19:30Z</time>
      </trkpt>
      <trkpt lat="47.724651" lon="13.087210">
        <ele>443.20</ele>
        <time>2012-11-04T13:19:35Z</time>
      </trkpt>
    </trkseg>
  </trk>
</gpx>
